# Wetter Temperatur Luftdruck Luftfeuchtigkeit Sichtweite Windgeschwindigkeit Windrichtung Zeit
1 Clouds 9 1028 66 10000 5.14 280 17:29 01.02.2023
2 Clouds 10 1028 69 10000 6.69 270 14:22 01.02.2023
3 Clouds 9 1029 72 10000 5.66 250 13:20 01.02.2023
4 Clouds 9 1029 72 10000 5.66 250 12:47 01.02.2023
5 Clouds 8 1029 74 10000 5.66 270 11:56 01.02.2023
6 Clouds 6 1028 83 10000 4.12 250 08:43 01.02.2023
7 Clouds 8 1027 90 10000 4.12 250 00:43 01.02.2023
8 Clouds 7 1028 87 10000 4.12 250 21:36 31.01.2023
9 Clouds 8 1028 82 10000 4.63 230 19:48 31.01.2023
10 Clouds 8 1028 80 10000 4.12 230 18:37 31.01.2023
11 Clouds 9 1027 74 10000 7.72 230 15:36 31.01.2023
12 Clouds 9 1028 76 10000 5.66 240 15:18 31.01.2023
13 Clouds 8 1028 79 10000 4.63 240 14:18 31.01.2023
14 Clouds 5 1030 91 10000 4.12 230 12:19 31.01.2023
15 Clouds 4 1029 92 10000 3.09 240 10:47 31.01.2023
16 Clouds 3 1029 94 10000 2.06 240 09:51 31.01.2023
17 Clouds 2 1029 96 10000 2.57 230 08:59 31.01.2023
18 Clouds 2 1029 96 10000 2.57 260 08:35 31.01.2023
19 Fog 1 1029 93 1000 2.57 260 05:36 31.01.2023
20 Clear 3 1029 92 9000 1.54 300 23:55 30.01.2023
21 Clear 4 1029 87 10000 1.54 300 22:50 30.01.2023
22 Clear 5 1029 86 10000 2.06 320 22:22 30.01.2023
23 Clear 6 1029 84 10000 2.06 310 20:48 30.01.2023
24 Clear 7 1028 83 10000 2.06 350 19:53 30.01.2023
25 Clear 8 1026 82 10000 3.09 320 17:50 30.01.2023
26 Clouds 9 1025 88 10000 4.63 260 16:32 30.01.2023
27 Clouds 8 1025 91 10000 5.14 270 14:27 30.01.2023
28 Mist 7 1026 93 10000 6.17 250 12:26 30.01.2023
29 Mist 6 1026 94 5000 5.14 250 11:27 30.01.2023
30 Mist 5 1026 93 6000 5.66 240 09:54 30.01.2023
31 Mist 5 1025 93 9000 6.17 260 08:54 30.01.2023
32 Clouds 4 1025 91 8000 4.63 240 06:55 30.01.2023
33 Mist 4 1027 89 8000 4.12 230 01:39 30.01.2023
34 Clouds 4 1027 84 10000 4.12 230 23:35 29.01.2023
35 Clouds 4 1027 83 10000 4.12 230 22:37 29.01.2023
36 Clouds 4 1027 79 10000 3.6 230 21:41 29.01.2023
37 Clouds 4 1028 75 10000 3.09 240 20:41 29.01.2023
38 Clouds 4 1028 75 10000 4.12 230 19:48 29.01.2023
39 Clouds 4 1028 73 10000 3.09 230 19:27 29.01.2023
40 Clouds 5 1028 71 10000 3.6 240 17:49 29.01.2023
41 Clouds 5 1028 68 10000 3.09 220 16:21 29.01.2023
42 Clouds 4 1029 69 10000 3.09 310 14:48 29.01.2023
43 Clouds 4 1030 73 10000 3.09 300 13:30 29.01.2023
44 Clouds 3 1030 78 8000 1.54 0 12:44 29.01.2023
45 Clouds 3 1031 81 6000 1.54 0 12:23 29.01.2023
46 Mist 2 1031 85 7000 1.54 0 11:51 29.01.2023
47 Mist 2 1031 85 7000 1.54 0 11:26 29.01.2023
48 Mist -2 1030 92 4300 1.03 200 09:57 29.01.2023
49 Mist -2 1030 93 5000 1.03 130 07:20 29.01.2023
50 Clouds -1 1031 86 6000 1.03 320 03:40 29.01.2023
51 Clouds 2 1031 76 10000 4.63 50 23:27 28.01.2023
52 Clouds 2 1031 74 10000 4.12 20 20:45 28.01.2023
53 Clouds 2 1031 74 10000 3.09 360 19:52 28.01.2023
54 Clouds 3 1030 71 10000 5.14 40 18:35 28.01.2023
55 Clouds 3 1030 72 10000 4.12 50 17:20 28.01.2023
56 Clouds 3 1029 73 10000 5.66 30 16:25 28.01.2023
57 Clouds 3 1029 73 10000 6.17 10 15:49 28.01.2023
58 Clouds 4 1029 73 10000 5.66 20 14:53 28.01.2023
59 Clouds 4 1029 75 10000 5.66 10 13:44 28.01.2023
60 Clouds 4 1029 76 10000 6.17 20 11:55 28.01.2023
61 Clouds 3 1029 81 10000 5.66 30 10:34 28.01.2023
62 Clouds 3 1028 83 10000 5.14 20 08:53 28.01.2023
63 Clouds 4 1026 85 10000 5.14 30 01:48 28.01.2023
64 Clouds 4 1026 86 10000 6.17 20 00:27 28.01.2023
65 Clouds 4 1026 87 10000 5.66 20 21:56 27.01.2023
66 Clouds 5 1025 80 10000 6.69 40 18:57 27.01.2023
67 Clouds 5 1025 79 10000 7.2 30 17:58 27.01.2023
68 Clouds 5 1024 79 10000 6.17 40 17:20 27.01.2023
69 Clouds 5 1024 79 10000 5.66 40 16:35 27.01.2023
70 Clouds 5 1023 78 10000 6.17 30 15:25 27.01.2023
71 Clouds 5 1024 78 10000 7.2 30 14:26 27.01.2023
72 Clouds 5 1024 78 10000 7.2 30 13:33 27.01.2023
73 Clouds 5 1023 81 10000 6.17 20 09:37 27.01.2023
74 Clouds 5 1023 83 10000 4.63 20 06:51 27.01.2023
75 Clouds 5 1024 88 10000 5.66 10 00:28 27.01.2023
76 Clouds 5 1024 87 10000 5.14 10 21:57 26.01.2023
77 Clouds 5 1024 86 10000 5.14 30 20:56 26.01.2023
78 Clouds 5 1024 86 10000 6.17 20 19:59 26.01.2023
79 Mist 5 1024 95 9000 4.63 20 17:57 26.01.2023
80 Drizzle 4 1024 95 4600 5.14 20 16:50 26.01.2023
81 Mist 4 1024 96 3900 5.14 20 16:20 26.01.2023
82 Drizzle 3 1024 95 3400 4.63 20 15:42 26.01.2023
83 Drizzle 3 1024 95 3400 4.63 20 15:24 26.01.2023
84 Mist 3 1024 96 4100 2.57 10 13:54 26.01.2023
85 Mist 2 1024 94 4100 1.54 350 12:31 26.01.2023
86 Mist 1 1024 97 2000 1.54 0 10:56 26.01.2023
87 Mist 1 1024 95 3100 1.54 0 10:26 26.01.2023
88 Mist 1 1024 97 3600 1.54 50 09:42 26.01.2023
89 Mist 1 1024 97 2000 1.54 60 08:25 26.01.2023
90 Mist 0 1026 90 5000 2.57 350 23:55 25.01.2023
91 Mist 0 1026 91 5000 2.57 350 23:36 25.01.2023
92 Mist -1 1027 89 5000 1.54 0 21:54 25.01.2023
93 Mist -1 1028 89 5000 1.54 120 21:20 25.01.2023
94 Mist 0 1030 94 5000 4.12 330 18:31 25.01.2023
95 Mist 0 1030 93 3300 3.09 310 17:22 25.01.2023
96 Mist 0 1030 95 4000 3.09 10 15:37 25.01.2023
97 Mist 1 1033 92 5000 3.09 330 12:51 25.01.2023
98 Mist 1 1034 93 8000 3.6 20 10:46 25.01.2023
99 Clouds 1 1034 92 10000 4.12 50 09:41 25.01.2023
100 Mist 2 1034 93 4000 3.6 40 06:57 25.01.2023
101 Clouds 3 1035 88 7000 3.09 10 01:29 25.01.2023
102 Clouds 3 1035 86 7000 3.6 360 00:21 25.01.2023
103 Clouds 3 1035 85 9000 3.6 20 21:32 24.01.2023
104 Clouds 3 1035 85 9000 4.12 30 20:19 24.01.2023
105 Clouds 3 1035 85 9000 3.6 20 18:42 24.01.2023
106 Clouds 3 1035 86 8000 4.63 50 17:20 24.01.2023
107 Clouds 3 1035 85 8000 5.66 60 16:52 24.01.2023
108 Clouds 3 1035 85 9000 5.14 30 15:21 24.01.2023
109 Clouds 3 1035 85 8000 5.14 30 13:22 24.01.2023
110 Mist 2 1036 86 7000 5.14 30 11:21 24.01.2023
111 Clouds 1 1034 86 8000 4.63 30 08:23 24.01.2023
112 Clouds 1 1034 88 9000 5.14 50 07:54 24.01.2023
113 Clouds 1 1034 86 9000 6.17 40 07:26 24.01.2023
114 Clouds 2 1033 84 10000 5.66 40 02:38 24.01.2023
115 Clouds 2 1034 79 10000 6.69 40 00:35 24.01.2023
116 Clouds 3 1034 79 10000 6.17 30 22:28 23.01.2023
117 Clouds 3 1033 77 10000 7.2 50 19:58 23.01.2023
118 Clouds 3 1033 77 10000 7.2 40 18:58 23.01.2023
119 Clouds 3 1033 78 10000 6.17 40 16:40 23.01.2023
120 Clouds 3 1032 78 10000 6.17 30 15:26 23.01.2023
121 Clouds 2 1033 81 10000 5.14 30 13:56 23.01.2023
122 Clouds 2 1034 84 10000 5.14 40 12:55 23.01.2023
123 Clouds 2 1034 85 9000 5.14 30 11:46 23.01.2023
124 Clouds 2 1033 86 8000 5.14 30 10:55 23.01.2023
125 Clouds 1 1033 88 8000 5.66 30 08:24 23.01.2023
126 Clouds 1 1033 86 9000 4.63 20 23:54 22.01.2023
127 Clouds 1 1032 86 10000 4.63 30 21:51 22.01.2023
128 Clouds 1 1032 86 10000 4.63 30 21:19 22.01.2023
129 Clear 1 1032 83 10000 5.14 20 19:56 22.01.2023
130 Clear 1 1032 83 10000 4.63 20 19:37 22.01.2023
131 Clear 2 1032 81 10000 4.63 10 18:37 22.01.2023
132 Clouds 2 1031 79 10000 6.17 30 17:55 22.01.2023
133 Clear 2 1031 79 10000 5.66 30 17:24 22.01.2023
134 Clouds 2 1031 77 10000 6.17 20 15:29 22.01.2023
135 Clouds 2 1031 78 10000 6.17 20 14:41 22.01.2023
136 Clouds 2 1031 79 10000 7.2 20 13:27 22.01.2023
137 Clouds 1 1032 81 10000 5.66 30 12:32 22.01.2023
138 Clouds 1 1032 82 10000 7.2 10 11:34 22.01.2023
139 Clouds 0 1031 83 9000 5.66 10 09:35 22.01.2023
140 Clouds 0 1031 79 10000 5.14 30 05:41 22.01.2023
141 Clouds 0 1032 81 10000 5.14 20 00:40 22.01.2023
142 Clouds 0 1032 81 9000 6.17 30 23:30 21.01.2023
143 Clouds 1 1031 84 7000 6.69 10 21:40 21.01.2023
144 Clear 2 1030 79 10000 5.66 10 19:23 21.01.2023
145 Clear 4 1029 69 10000 5.66 30 16:55 21.01.2023
146 Clouds 3 1028 75 8000 6.69 40 14:24 21.01.2023
147 Clouds 2 1028 80 10000 7.2 30 12:57 21.01.2023
148 Clouds 1 1028 83 9000 7.2 30 11:42 21.01.2023
149 Clouds 1 1027 85 10000 7.2 20 10:56 21.01.2023
150 Clouds 0 1026 87 9000 6.17 20 08:57 21.01.2023
151 Clouds 3 1023 82 10000 7.72 20 04:34 21.01.2023
152 Clouds 4 1020 87 10000 4.63 290 22:29 20.01.2023
153 Clouds 4 1020 84 10000 5.14 290 21:38 20.01.2023
154 Clouds 3 1020 87 10000 5.14 290 20:57 20.01.2023
155 Clear 4 1020 87 10000 4.63 290 19:52 20.01.2023
156 Clouds 6 1019 76 10000 4.63 270 16:47 20.01.2023
157 Clouds 5 1018 81 10000 5.14 280 14:47 20.01.2023
158 Clear 5 1019 82 10000 4.63 270 13:51 20.01.2023
159 Clouds 1 1018 93 10000 3.6 240 10:25 20.01.2023
160 Mist 0 1017 96 6000 3.09 240 08:57 20.01.2023
161 Mist 0 1016 97 5000 3.09 260 06:38 20.01.2023
162 Clouds 1 1013 94 10000 4.63 340 02:31 20.01.2023
163 Rain 2 1010 96 10000 2.57 330 22:36 19.01.2023
164 Mist 2 1009 94 10000 2.06 310 21:31 19.01.2023
165 Mist 2 1008 94 9000 1.54 150 19:29 19.01.2023
166 Fog 2 1007 94 10000 3.09 150 17:20 19.01.2023
167 Mist 3 1007 91 10000 4.12 180 14:25 19.01.2023
168 Fog 1 1008 96 10000 2.57 200 10:19 19.01.2023
169 Fog 0 1008 95 10000 2.06 180 08:49 19.01.2023
170 Clouds 2 1005 90 10000 2.57 250 22:40 18.01.2023
171 Clouds 3 1003 89 10000 3.6 250 20:21 18.01.2023
172 Clouds 3 1003 90 10000 3.6 240 19:41 18.01.2023
173 Clouds 3 1003 89 10000 3.6 240 19:23 18.01.2023
174 Clouds 5 1001 72 10000 5.66 250 16:22 18.01.2023
175 Clear 5 1000 73 10000 5.14 250 14:20 18.01.2023
176 Clouds 3 1000 80 9000 5.66 270 12:24 18.01.2023
177 Clear -1 998 88 10000 1.54 220 09:37 18.01.2023
178 Clear -1 996 88 10000 2.57 310 06:44 18.01.2023
179 Clouds 2 992 85 10000 4.12 360 00:59 18.01.2023
180 Clouds 2 989 89 10000 4.63 10 21:53 17.01.2023
181 Clouds 3 987 91 10000 4.12 20 19:43 17.01.2023
182 Clouds 3 987 90 10000 4.12 30 18:53 17.01.2023
183 Clouds 3 986 92 10000 4.63 360 17:41 17.01.2023
184 Clouds 4 985 91 10000 4.12 10 15:28 17.01.2023
185 Clouds 4 985 93 10000 4.63 30 14:49 17.01.2023
186 Clouds 4 985 93 10000 2.68 45 13:33 17.01.2023
187 Clouds 3 985 96 10000 3.6 30 11:49 17.01.2023
188 Mist 2 985 96 7000 4.12 80 10:33 17.01.2023
189 Fog 2 985 96 1200 3.09 40 09:26 17.01.2023
190 Mist 1 985 96 1700 2.57 100 07:34 17.01.2023
191 Clear 1 988 94 10000 1.03 210 03:49 17.01.2023
192 Clouds 2 989 91 10000 3.6 210 00:49 17.01.2023
193 Clear 3 989 90 10000 3.6 230 22:39 16.01.2023
194 Clouds 4 989 89 10000 3.09 220 21:44 16.01.2023
195 Clear 4 990 88 10000 4.12 260 19:55 16.01.2023
196 Clouds 4 990 84 10000 5.14 270 19:25 16.01.2023
197 Clouds 4 989 83 10000 5.66 280 18:48 16.01.2023
198 Clouds 5 989 83 10000 6.69 280 18:19 16.01.2023
199 Clouds 6 988 78 10000 7.72 290 17:20 16.01.2023
200 Clouds 5 985 90 10000 10.8 280 14:27 16.01.2023
201 Clouds 5 984 89 10000 11.83 290 13:36 16.01.2023
202 Rain 5 977 90 10000 8.23 210 10:26 16.01.2023
203 Rain 6 979 88 10000 9.77 190 08:32 16.01.2023
204 Clouds 6 1002 84 10000 5.66 200 22:57 15.01.2023
205 Clouds 7 1004 84 10000 7.72 200 21:24 15.01.2023
206 Clouds 7 1005 80 10000 5.66 230 20:31 15.01.2023
207 Clear 7 1005 74 10000 7.2 210 19:34 15.01.2023
208 Clouds 8 1006 70 10000 8.23 230 17:38 15.01.2023
209 Clouds 9 1008 66 10000 10.8 230 14:59 15.01.2023
210 Clouds 8 1009 74 10000 9.26 230 12:29 15.01.2023
211 Clouds 7 1009 77 10000 8.75 240 11:29 15.01.2023
212 Clouds 7 1009 77 10000 8.75 240 11:29 15.01.2023
213 Clear 6 1009 81 10000 8.75 230 10:27 15.01.2023
214 Clear 6 1009 83 10000 6.17 250 08:54 15.01.2023
215 Rain 7 1006 91 10000 5.66 270 00:35 15.01.2023
216 Rain 9 1005 93 10000 6.17 270 22:44 14.01.2023
217 Rain 10 1004 94 10000 4.63 260 21:55 14.01.2023
218 Rain 10 1004 94 10000 5.14 280 21:36 14.01.2023
219 Rain 10 1004 94 10000 5.14 280 21:36 14.01.2023
220 Rain 10 1004 94 10000 5.14 280 21:18 14.01.2023
221 Rain 10 1004 94 10000 5.14 280 21:18 14.01.2023
222 Rain 11 1004 94 2900 8.75 260 20:28 14.01.2023
223 Clouds 12 1004 95 10000 9.26 190 18:19 14.01.2023
224 Mist 12 1005 94 5000 10.29 200 15:48 14.01.2023
225 Rain 12 1005 92 5000 10.29 200 15:26 14.01.2023
226 Drizzle 12 1006 89 10000 11.32 200 14:24 14.01.2023
227 Clouds 11 1007 92 10000 10.29 190 13:33 14.01.2023
228 Clouds 10 1010 91 10000 9.26 190 10:51 14.01.2023
229 Drizzle 10 1011 91 10000 8.75 190 09:56 14.01.2023
230 Clouds 9 1016 93 10000 5.66 200 04:56 14.01.2023
231 Clear 7 1021 83 10000 4.12 220 23:21 13.01.2023
232 Clouds 7 1021 85 10000 3.09 210 22:45 13.01.2023
233 Clouds 7 1021 84 10000 3.09 210 22:20 13.01.2023
234 Clear 8 1021 83 10000 4.12 230 21:23 13.01.2023
235 Clear 8 1021 81 10000 4.63 230 19:36 13.01.2023
236 Clouds 9 1020 73 10000 7.72 260 18:19 13.01.2023
237 Clouds 10 1018 71 10000 7.72 260 16:24 13.01.2023
238 Clouds 10 1017 76 10000 8.75 240 13:19 13.01.2023
239 Clouds 10 1016 78 10000 9.26 250 12:20 13.01.2023
240 Clouds 9 1015 84 10000 6.17 230 10:26 13.01.2023
241 Clouds 8 1014 86 10000 7.2 230 09:45 13.01.2023
242 Clouds 8 1014 86 10000 5.66 230 08:52 13.01.2023
243 Clouds 8 1013 86 10000 4.63 240 08:21 13.01.2023
244 Clouds 9 1012 85 10000 7.2 260 06:52 13.01.2023
245 Clouds 9 1011 89 10000 6.17 260 04:43 13.01.2023
246 Clouds 11 1011 92 10000 7.2 210 23:58 12.01.2023
247 Drizzle 11 1011 89 10000 7.2 220 22:43 12.01.2023
248 Clouds 11 1012 86 10000 9.26 210 20:55 12.01.2023
249 Clouds 11 1012 89 10000 8.23 220 19:44 12.01.2023
250 Clouds 12 1013 85 10000 8.23 210 17:35 12.01.2023
251 Clouds 12 1013 86 10000 8.23 220 16:25 12.01.2023
252 Clouds 11 1014 86 10000 8.23 210 14:45 12.01.2023
253 Clouds 11 1014 86 10000 8.23 210 14:22 12.01.2023
254 Drizzle 11 1016 90 10000 7.2 220 12:50 12.01.2023
255 Clouds 11 1016 88 10000 7.72 220 10:44 12.01.2023
256 Clouds 10 1016 89 9000 8.23 230 08:37 12.01.2023
257 Clouds 10 1016 87 10000 7.72 200 05:26 12.01.2023
258 Clouds 9 1019 85 10000 6.69 220 23:59 11.01.2023
259 Clouds 9 1019 86 10000 6.69 230 23:41 11.01.2023
260 Clouds 9 1019 84 10000 7.72 210 23:22 11.01.2023
261 Clouds 9 1019 83 10000 6.69 220 22:42 11.01.2023
262 Clouds 10 1020 82 10000 6.17 200 20:37 11.01.2023
263 Clear 10 1019 79 10000 4.63 220 18:40 11.01.2023
264 Clouds 11 1019 74 10000 6.69 220 17:27 11.01.2023
265 Clouds 12 1018 69 10000 6.69 250 15:30 11.01.2023
266 Clouds 11 1018 77 10000 6.69 260 13:53 11.01.2023
267 Clouds 11 1018 84 10000 5.66 250 12:21 11.01.2023
268 Clouds 10 1017 88 10000 7.2 270 10:47 11.01.2023
269 Clouds 10 1014 94 10000 3.6 240 08:21 11.01.2023
270 Clouds 11 1013 93 10000 5.66 300 07:26 11.01.2023
271 Clouds 12 1011 94 10000 7.2 220 03:56 11.01.2023
272 Drizzle 12 1014 93 10000 6.69 190 22:46 10.01.2023
273 Drizzle 12 1014 93 10000 6.69 190 22:46 10.01.2023
274 Drizzle 12 1014 93 10000 7.72 210 22:18 10.01.2023
275 Clouds 11 1014 95 10000 7.2 180 20:43 10.01.2023
276 Clouds 11 1015 96 10000 7.2 190 19:51 10.01.2023
277 Clouds 10 1015 96 10000 6.69 180 18:48 10.01.2023
278 Clouds 10 1015 95 10000 6.69 180 18:48 10.01.2023
279 Drizzle 10 1016 95 10000 6.17 190 17:59 10.01.2023
280 Clouds 9 1016 94 7000 5.66 180 16:54 10.01.2023
281 Drizzle 8 1017 94 8000 5.66 200 15:33 10.01.2023
282 Clouds 8 1017 94 9000 5.66 180 14:35 10.01.2023
283 Drizzle 6 1019 95 10000 6.17 160 12:47 10.01.2023
284 Clear 5 1021 92 10000 3.6 190 09:43 10.01.2023
285 Clear 5 1021 92 10000 3.6 190 09:43 10.01.2023
286 Clear 5 1021 92 10000 4.63 190 08:37 10.01.2023
287 Clear 5 1021 92 10000 3.6 160 07:55 10.01.2023
288 Clear 4 1021 90 10000 3.09 230 05:33 10.01.2023
289 Clouds 5 1018 87 10000 5.14 250 00:19 10.01.2023
290 Clear 5 1015 87 10000 5.14 270 21:57 09.01.2023
291 Clouds 6 1014 87 10000 5.14 270 20:46 09.01.2023
292 Clouds 6 1013 86 10000 6.17 300 19:54 09.01.2023
293 Rain 7 1012 84 10000 7.72 290 18:23 09.01.2023
294 Clouds 7 1011 85 10000 6.17 280 17:49 09.01.2023
295 Mist 7 1009 87 10000 8.75 280 16:34 09.01.2023
296 Rain 8 1007 84 10000 7.72 260 15:31 09.01.2023
297 Rain 8 1007 80 10000 8.75 260 14:54 09.01.2023
298 Rain 8 1007 78 10000 9.26 270 14:33 09.01.2023
299 Clouds 8 1006 77 10000 7.72 270 12:54 09.01.2023
300 Clouds 8 1005 78 10000 8.23 260 11:52 09.01.2023
301 Clouds 8 1005 79 10000 8.23 250 11:19 09.01.2023
302 Clouds 8 1005 79 10000 8.23 250 11:19 09.01.2023
303 Clouds 8 1001 85 10000 7.2 230 06:58 09.01.2023
304 Clouds 7 999 87 10000 7.2 230 02:55 09.01.2023
305 Clear 7 999 87 10000 5.14 200 00:59 09.01.2023
306 Clouds 8 997 87 10000 6.17 230 22:19 08.01.2023
307 Clouds 8 997 90 10000 5.14 230 21:22 08.01.2023
308 Clouds 9 997 92 10000 6.69 200 20:33 08.01.2023
309 Clouds 10 997 89 10000 6.69 180 18:51 08.01.2023
310 Clouds 10 998 85 10000 8.23 190 17:22 08.01.2023
311 Clouds 11 998 85 10000 7.2 180 16:43 08.01.2023
312 Clouds 11 999 82 10000 7.72 180 15:36 08.01.2023
313 Clouds 11 1001 82 10000 8.23 190 13:58 08.01.2023
314 Clouds 11 1001 81 10000 7.72 190 13:30 08.01.2023
315 Clouds 10 1002 81 10000 7.72 190 12:49 08.01.2023
316 Clouds 8 1003 91 10000 4.63 180 10:37 08.01.2023
317 Clouds 8 1004 91 10000 4.12 200 09:36 08.01.2023
318 Clouds 8 1004 87 10000 9.26 220 07:48 08.01.2023
319 Clouds 11 1006 88 10000 5.66 190 00:30 08.01.2023
320 Clouds 11 1006 87 10000 6.69 180 22:48 07.01.2023
321 Clouds 11 1006 87 10000 6.17 200 22:24 07.01.2023
322 Clouds 11 1006 87 10000 6.69 190 21:48 07.01.2023
323 Clouds 10 1006 89 10000 7.2 190 20:47 07.01.2023
324 Clouds 10 1007 89 10000 7.2 190 20:24 07.01.2023
325 Clouds 10 1007 89 10000 7.72 180 18:52 07.01.2023
326 Clouds 10 1007 90 10000 7.72 180 17:53 07.01.2023
327 Clouds 10 1007 90 10000 6.69 180 17:33 07.01.2023
328 Clouds 10 1008 85 10000 8.75 180 16:37 07.01.2023
329 Clouds 10 1008 82 10000 7.2 190 15:50 07.01.2023
330 Clouds 10 1008 79 10000 7.72 190 15:29 07.01.2023
331 Clouds 11 1008 75 10000 8.75 190 14:30 07.01.2023
332 Clear 11 1008 73 10000 8.75 210 13:54 07.01.2023
333 Clear 11 1009 72 10000 9.26 180 13:34 07.01.2023
334 Clear 10 1009 77 10000 7.72 170 12:23 07.01.2023
335 Clouds 10 1010 79 10000 8.23 170 11:52 07.01.2023
336 Clear 9 1011 84 10000 5.14 160 10:26 07.01.2023
337 Clear 8 1012 85 10000 5.66 170 08:46 07.01.2023
338 Clear 8 1013 87 10000 5.14 170 07:46 07.01.2023
339 Clear 9 1013 84 10000 5.66 160 07:20 07.01.2023
340 Clouds 11 1015 76 10000 5.14 160 04:51 07.01.2023
341 Clouds 11 1019 84 10000 3.6 180 22:44 06.01.2023
342 Clouds 11 1019 85 10000 3.6 180 22:19 06.01.2023
343 Clouds 11 1020 86 10000 5.66 190 21:28 06.01.2023
344 Clouds 12 1020 84 10000 5.14 210 19:59 06.01.2023
345 Clouds 12 1020 85 10000 5.14 200 19:41 06.01.2023
346 Clouds 12 1020 86 10000 5.14 200 19:23 06.01.2023
347 Clouds 12 1019 86 10000 4.63 200 18:50 06.01.2023
348 Clouds 13 1020 83 10000 5.66 200 17:31 06.01.2023
349 Clouds 13 1020 82 10000 5.66 230 16:50 06.01.2023
350 Clouds 13 1020 81 10000 4.63 190 16:20 06.01.2023
351 Clouds 13 1020 82 10000 4.63 190 15:50 06.01.2023
352 Clouds 13 1020 83 10000 5.14 210 14:55 06.01.2023
353 Clouds 12 1021 87 10000 5.14 190 12:50 06.01.2023
354 Clouds 11 1022 91 10000 5.66 210 10:59 06.01.2023
355 Clouds 11 1022 92 10000 4.63 200 09:32 06.01.2023
356 Clouds 11 1021 91 10000 5.14 210 07:57 06.01.2023
357 Clouds 11 1022 89 10000 5.66 200 03:40 06.01.2023
358 Clouds 11 1023 87 10000 3.09 210 22:56 05.01.2023
359 Clouds 11 1023 84 10000 4.12 220 21:55 05.01.2023
360 Clouds 11 1023 89 10000 3.6 210 19:49 05.01.2023
361 Drizzle 12 1024 90 10000 5.14 240 17:28 05.01.2023
362 Clouds 13 1024 88 10000 5.14 240 16:30 05.01.2023
363 Drizzle 13 1024 91 10000 4.12 230 15:48 05.01.2023
364 Drizzle 13 1024 92 10000 4.63 230 14:53 05.01.2023
365 Drizzle 13 1025 91 10000 4.12 230 13:19 05.01.2023
366 Drizzle 13 1025 92 10000 4.12 250 12:33 05.01.2023
367 Clouds 12 1025 93 10000 3.6 240 09:55 05.01.2023
368 Clouds 12 1025 92 10000 3.09 250 09:32 05.01.2023
369 Clouds 12 1025 91 10000 3.6 250 07:21 05.01.2023
370 Clouds 12 1024 90 10000 5.66 270 06:37 05.01.2023
371 Clouds 13 1024 92 10000 6.17 240 00:27 05.01.2023
372 Clouds 13 1023 93 10000 6.69 230 22:18 04.01.2023
373 Drizzle 13 1023 92 10000 6.69 230 21:29 04.01.2023
374 Drizzle 13 1023 93 10000 6.69 210 19:58 04.01.2023
375 Clouds 13 1023 94 7000 5.66 230 19:36 04.01.2023
376 Clouds 13 1023 94 10000 6.17 230 19:18 04.01.2023
377 Drizzle 13 1023 94 10000 6.69 240 16:48 04.01.2023
378 Drizzle 13 1023 95 10000 5.66 210 16:30 04.01.2023
379 Drizzle 13 1023 95 10000 5.66 210 16:30 04.01.2023
380 Drizzle 13 1022 94 10000 7.2 210 14:49 04.01.2023
381 Clouds 12 1024 92 10000 8.23 200 11:56 04.01.2023
382 Clouds 12 1024 93 10000 7.72 210 11:22 04.01.2023
383 Clouds 12 1024 93 10000 7.72 200 10:44 04.01.2023
384 Clouds 11 1024 93 10000 7.72 200 10:24 04.01.2023
385 Drizzle 11 1024 94 10000 8.23 200 09:19 04.01.2023
386 Clouds 10 1024 91 10000 8.23 200 05:37 04.01.2023
387 Clouds 10 1026 92 10000 7.2 190 00:40 04.01.2023
388 Rain 10 1026 92 9000 6.69 190 23:37 03.01.2023
389 Clouds 10 1026 92 10000 6.17 210 22:55 03.01.2023
390 Rain 10 1027 90 10000 6.69 190 21:36 03.01.2023
391 Clouds 9 1027 91 10000 6.17 170 19:57 03.01.2023
392 Clouds 9 1027 89 10000 5.14 170 18:22 03.01.2023
393 Clouds 9 1028 91 10000 7.2 180 16:39 03.01.2023
394 Clouds 8 1028 93 10000 6.69 180 14:21 03.01.2023
395 Clouds 8 1029 94 10000 6.17 180 13:32 03.01.2023
396 Mist 7 1029 95 10000 5.14 180 12:59 03.01.2023
397 Fog 7 1029 96 1000 3.6 190 12:31 03.01.2023
398 Fog 7 1029 95 10000 4.63 200 11:53 03.01.2023
399 Mist 6 1028 96 10000 3.09 180 08:23 03.01.2023
400 Clouds 6 1027 96 10000 2.57 180 04:26 03.01.2023
401 Clouds 6 1027 96 10000 3.09 200 03:47 03.01.2023
402 Mist 6 1027 95 5000 3.09 200 03:27 03.01.2023
403 Clear 7 1026 92 10000 2.57 220 23:19 02.01.2023
404 Clear 7 1026 92 10000 2.57 210 22:39 02.01.2023
405 Clear 8 1026 89 10000 2.57 210 20:51 02.01.2023
406 Clear 8 1026 89 10000 2.57 210 20:31 02.01.2023
407 Clear 9 1024 81 10000 2.06 220 18:45 02.01.2023
408 Clouds 12 1022 75 10000 6.17 240 15:43 02.01.2023
409 Clouds 11 1021 84 10000 5.66 240 14:26 02.01.2023
410 Clouds 11 1020 92 10000 5.14 230 12:38 02.01.2023
411 Rain 10 1019 92 10000 4.63 230 11:25 02.01.2023
412 Rain 11 1016 94 8000 4.63 190 08:38 02.01.2023
413 Rain 12 1014 94 10000 5.66 210 04:42 02.01.2023
414 Clear 15 1012 73 10000 5.14 210 23:28 01.01.2023
415 Clear 14 1012 76 10000 5.14 210 21:54 01.01.2023
416 Clear 13 1012 85 10000 3.6 190 20:49 01.01.2023
417 Clear 12 1012 86 10000 3.09 160 20:18 01.01.2023
418 Clear 12 1012 90 10000 5.14 130 18:52 01.01.2023
419 Clear 11 1013 92 10000 4.63 130 17:24 01.01.2023
420 Clear 11 1013 92 10000 4.63 130 17:24 01.01.2023
421 Drizzle 11 1013 92 10000 4.12 130 16:57 01.01.2023
422 Rain 12 1014 92 10000 4.12 140 15:38 01.01.2023
423 Clear 13 1016 85 10000 4.12 180 13:49 01.01.2023
424 Rain 13 1016 83 10000 6.17 170 12:59 01.01.2023
425 Clear 13 1017 80 10000 5.14 200 11:42 01.01.2023
426 Clear 13 1018 80 10000 5.14 200 11:21 01.01.2023
427 Clear 13 1017 78 10000 5.14 210 09:35 01.01.2023
428 Clear 13 1017 78 10000 5.14 200 08:42 01.01.2023
429 Clear 13 1016 78 10000 5.14 200 08:18 01.01.2023
430 Clear 14 1016 74 10000 7.2 190 06:46 01.01.2023
431 Clear 15 1013 57 10000 6.17 200 23:47 31.12.2022
432 Clear 15 1013 57 10000 6.17 200 23:26 31.12.2022
433 Clear 15 1012 57 10000 6.17 200 22:22 31.12.2022
434 Clear 15 1012 59 10000 9.77 180 21:24 31.12.2022
435 Clear 15 1012 61 10000 8.23 200 20:31 31.12.2022
436 Clear 15 1012 62 10000 6.17 200 18:57 31.12.2022
437 Clear 15 1011 63 10000 6.17 200 18:38 31.12.2022
438 Clear 15 1011 64 10000 5.66 200 17:57 31.12.2022
439 Clear 15 1011 65 10000 7.2 200 17:32 31.12.2022
440 Clear 15 1011 66 10000 7.2 190 16:32 31.12.2022
441 Clear 16 1011 67 10000 8.23 190 15:37 31.12.2022
442 Clear 16 1011 70 10000 8.75 200 13:59 31.12.2022
443 Clear 16 1012 71 10000 8.75 200 13:27 31.12.2022
444 Clear 16 1012 73 10000 9.26 190 12:24 31.12.2022
445 Clouds 15 1013 77 10000 8.75 210 11:55 31.12.2022
446 Clouds 15 1012 77 10000 8.75 210 11:37 31.12.2022
447 Clouds 15 1012 81 10000 7.72 200 10:18 31.12.2022
448 Clouds 15 1012 81 10000 8.23 190 09:50 31.12.2022
449 Clouds 15 1011 82 10000 7.72 190 08:30 31.12.2022
450 Clouds 16 1010 83 10000 9.26 200 04:52 31.12.2022
451 Clouds 15 1008 91 10000 8.23 220 00:34 31.12.2022
452 Drizzle 15 1008 91 10000 8.23 210 23:24 30.12.2022
453 Drizzle 15 1007 92 10000 8.23 200 22:19 30.12.2022
454 Drizzle 15 1007 93 10000 7.72 220 21:39 30.12.2022
455 Drizzle 14 1007 94 10000 7.72 220 21:21 30.12.2022
456 Drizzle 14 1005 94 10000 6.17 220 18:35 30.12.2022
457 Drizzle 14 1004 94 10000 8.23 210 17:35 30.12.2022
458 Clouds 14 1004 94 10000 7.72 190 16:49 30.12.2022
459 Clouds 13 1002 93 10000 8.75 200 15:18 30.12.2022
460 Clouds 11 1003 95 10000 10.29 190 13:29 30.12.2022
461 Clouds 8 1008 94 10000 7.72 160 08:25 30.12.2022
462 Mist 6 1012 95 10000 4.63 180 04:54 30.12.2022
463 Clear 6 1013 93 10000 3.6 160 02:28 30.12.2022
464 Clear 7 1013 91 10000 4.12 200 23:46 29.12.2022
465 Clear 7 1013 89 10000 4.63 210 22:28 29.12.2022
466 Clear 8 1013 86 10000 4.63 210 21:29 29.12.2022
467 Clear 8 1013 85 10000 4.63 200 20:53 29.12.2022
468 Clear 9 1012 80 10000 4.12 200 19:31 29.12.2022
469 Clear 10 1011 74 10000 6.69 230 17:53 29.12.2022
470 Clouds 10 1011 72 10000 5.66 230 17:27 29.12.2022
471 Clouds 11 1010 71 10000 6.17 240 16:55 29.12.2022
472 Clouds 11 1010 71 10000 6.17 230 15:58 29.12.2022
473 Clouds 12 1010 75 10000 7.2 240 13:55 29.12.2022
474 Clouds 11 1010 80 10000 7.2 230 11:57 29.12.2022
475 Clouds 10 1009 85 10000 6.17 220 10:20 29.12.2022
476 Clouds 11 1007 89 10000 6.17 210 06:32 29.12.2022
477 Clouds 11 1007 89 10000 10.29 200 23:29 28.12.2022
478 Clouds 11 1007 92 9000 10.8 190 22:21 28.12.2022
479 Clouds 11 1008 90 10000 10.8 200 21:20 28.12.2022
480 Clouds 11 1008 89 10000 9.26 200 20:20 28.12.2022
481 Clouds 11 1009 90 10000 9.77 190 18:47 28.12.2022
482 Rain 11 1010 90 10000 8.75 190 16:23 28.12.2022
483 Clouds 11 1012 82 10000 7.72 200 14:27 28.12.2022
484 Clouds 11 1014 84 10000 8.23 190 12:49 28.12.2022
485 Clouds 10 1015 86 10000 7.72 190 11:34 28.12.2022
486 Clouds 10 1016 88 10000 6.69 190 10:31 28.12.2022
487 Clouds 9 1017 90 10000 6.69 180 07:48 28.12.2022
488 Drizzle 10 1018 89 10000 6.17 190 06:47 28.12.2022
489 Clouds 9 1021 91 10000 6.17 190 01:25 28.12.2022
490 Clouds 8 1023 92 10000 5.14 190 22:47 27.12.2022
491 Clouds 7 1024 90 10000 4.63 180 19:52 27.12.2022
492 Clouds 7 1025 90 10000 6.17 170 18:59 27.12.2022
493 Clouds 8 1025 82 10000 5.14 180 17:20 27.12.2022
494 Clouds 9 1026 78 10000 5.14 180 16:33 27.12.2022
495 Clear 10 1027 71 10000 4.63 170 14:53 27.12.2022
496 Clear 8 1028 84 10000 3.09 160 12:27 27.12.2022
497 Clear 4 1028 94 10000 3.09 140 10:31 27.12.2022
498 Clear 4 1028 93 10000 1.54 150 09:45 27.12.2022
499 Clear 4 1028 93 10000 2.57 150 09:22 27.12.2022
500 Clear 4 1028 91 10000 2.57 230 04:59 27.12.2022
501 Clear 5 1027 85 10000 2.57 240 00:23 27.12.2022
502 Clear 5 1026 79 10000 2.57 260 21:53 26.12.2022
503 Clear 6 1025 80 10000 2.57 240 20:45 26.12.2022
504 Clear 6 1025 79 10000 2.57 240 19:56 26.12.2022
505 Clouds 7 1023 79 10000 4.63 270 18:42 26.12.2022
506 Clouds 9 1022 77 10000 6.17 280 17:25 26.12.2022
507 Clouds 10 1020 82 10000 6.17 290 15:40 26.12.2022
508 Clouds 12 1019 85 10000 6.69 240 12:59 26.12.2022
509 Clouds 11 1018 87 10000 6.17 220 11:45 26.12.2022
510 Clouds 12 1015 90 10000 4.63 220 05:47 26.12.2022
511 Clouds 13 1013 86 10000 5.14 190 23:43 25.12.2022
512 Clouds 13 1013 85 10000 4.63 220 22:56 25.12.2022
513 Clouds 13 1013 84 10000 5.14 200 22:26 25.12.2022
514 Clouds 13 1012 84 10000 5.66 180 19:58 25.12.2022
515 Clear 13 1011 85 10000 5.14 180 17:59 25.12.2022
516 Clouds 13 1011 83 10000 4.12 190 17:41 25.12.2022
517 Clouds 13 1011 83 10000 4.63 180 17:23 25.12.2022
518 Clear 13 1010 83 10000 4.63 200 14:30 25.12.2022
519 Clouds 11 1011 94 10000 3.6 190 11:48 25.12.2022
520 Mist 11 1012 97 1500 2.06 160 06:20 25.12.2022
521 Fog 10 1015 96 10000 4.12 150 22:57 24.12.2022
522 Clouds 11 1015 94 10000 4.12 160 19:54 24.12.2022
523 Drizzle 11 1015 92 10000 3.6 200 17:40 24.12.2022
524 Drizzle 11 1015 90 10000 4.12 200 16:21 24.12.2022
525 Clouds 12 1015 89 10000 4.63 210 14:35 24.12.2022
526 Clouds 11 1015 90 10000 4.63 220 12:34 24.12.2022
527 Clouds 11 1015 89 10000 4.12 210 10:27 24.12.2022
528 Clouds 11 1014 90 10000 5.14 200 09:47 24.12.2022
529 Clouds 11 1014 90 10000 4.63 210 09:19 24.12.2022
530 Clouds 11 1014 91 10000 4.12 230 03:52 24.12.2022
531 Clouds 11 1013 88 10000 5.14 220 00:43 24.12.2022
532 Clouds 12 1012 87 10000 5.66 220 23:22 23.12.2022
533 Clouds 12 1011 85 10000 6.17 230 21:53 23.12.2022
534 Clouds 13 1010 85 10000 5.14 250 20:20 23.12.2022
535 Clouds 13 1009 85 10000 7.2 230 19:39 23.12.2022
536 Clouds 13 1009 85 10000 7.2 230 19:21 23.12.2022
537 Clouds 13 1009 84 10000 5.66 240 18:38 23.12.2022
538 Clouds 14 1008 83 10000 6.69 230 18:18 23.12.2022
539 Clouds 15 1006 87 10000 7.72 250 15:55 23.12.2022
540 Clouds 15 1006 86 10000 9.26 230 14:37 23.12.2022
541 Clouds 14 1006 92 10000 7.2 200 10:56 23.12.2022
542 Clouds 14 1007 96 10000 5.66 220 09:36 23.12.2022
543 Rain 13 1008 96 6000 3.6 190 07:45 23.12.2022
544 Mist 13 1008 96 10000 3.6 210 06:50 23.12.2022
545 Clouds 13 1008 94 10000 4.12 240 05:19 23.12.2022
546 Clouds 14 1007 90 10000 6.69 270 23:20 22.12.2022
547 Clouds 14 1006 93 10000 6.17 250 21:57 22.12.2022
548 Clouds 14 1005 93 10000 6.26 220 20:25 22.12.2022
549 Clouds 13 1005 95 10000 7.2 210 19:22 22.12.2022
550 Rain 12 1005 94 10000 8.23 190 18:25 22.12.2022
551 Rain 12 1007 95 9000 5.66 190 16:58 22.12.2022
552 Rain 12 1007 95 9000 5.66 190 16:37 22.12.2022
553 Rain 12 1009 92 6000 5.66 210 15:32 22.12.2022
554 Rain 12 1009 90 10000 6.17 220 14:45 22.12.2022
555 Clouds 13 1010 86 10000 6.17 200 13:32 22.12.2022
556 Clouds 13 1011 87 10000 6.17 210 12:40 22.12.2022
557 Clouds 11 1011 90 10000 5.14 220 10:32 22.12.2022
558 Clouds 11 1011 91 10000 4.63 210 09:59 22.12.2022
559 Mist 11 1010 93 4600 5.14 250 09:19 22.12.2022
560 Mist 11 1009 93 10000 6.17 240 07:54 22.12.2022
561 Clouds 12 1006 88 10000 8.23 210 05:18 22.12.2022
562 Clouds 12 1006 89 10000 10.29 210 04:18 22.12.2022
563 Drizzle 12 1006 94 8000 6.69 220 22:56 21.12.2022
564 Clouds 12 1007 96 7000 6.69 200 21:53 21.12.2022
565 Rain 12 1007 96 10000 6.69 190 21:21 21.12.2022
566 Rain 12 1008 96 10000 6.69 190 20:48 21.12.2022
567 Rain 12 1008 96 10000 5.66 210 19:59 21.12.2022
568 Rain 12 1008 96 10000 5.66 190 19:40 21.12.2022
569 Clouds 12 1008 95 10000 6.17 210 19:21 21.12.2022
570 Clouds 12 1009 95 10000 5.66 200 18:44 21.12.2022
571 Clouds 11 1009 95 10000 5.66 180 17:35 21.12.2022
572 Clouds 11 1012 89 10000 6.17 200 14:32 21.12.2022
573 Clouds 10 1013 91 10000 5.14 200 12:49 21.12.2022
574 Clouds 9 1014 93 10000 4.63 220 11:42 21.12.2022
575 Clear 9 1014 94 10000 4.12 200 11:19 21.12.2022
576 Clear 8 1014 94 10000 3.6 220 08:53 21.12.2022
577 Clear 9 1013 94 10000 3.09 230 07:30 21.12.2022
578 Clouds 12 1012 93 10000 4.63 200 01:28 21.12.2022
579 Clouds 12 1011 96 10000 4.63 220 22:42 20.12.2022
580 Clouds 11 1011 95 10000 4.63 230 21:20 20.12.2022
581 Clouds 11 1011 94 6000 3.09 220 20:22 20.12.2022
582 Mist 11 1011 93 4400 4.12 210 18:50 20.12.2022
583 Rain 11 1011 93 4400 4.12 210 18:28 20.12.2022
584 Rain 11 1010 95 5000 4.12 210 17:52 20.12.2022
585 Mist 11 1010 95 5000 4.63 190 17:32 20.12.2022
586 Rain 11 1011 92 10000 5.14 190 16:32 20.12.2022
587 Clouds 12 1011 89 10000 5.14 180 15:29 20.12.2022
588 Drizzle 11 1011 90 10000 4.63 190 14:43 20.12.2022
589 Clouds 11 1011 90 10000 4.63 200 14:25 20.12.2022
590 Rain 11 1013 90 10000 4.63 190 12:44 20.12.2022
591 Rain 11 1013 90 10000 4.63 190 12:25 20.12.2022
592 Rain 11 1013 88 10000 5.66 210 11:31 20.12.2022
593 Clear 12 1013 77 10000 4.63 210 08:27 20.12.2022
594 Clear 12 1015 76 10000 4.12 170 00:35 20.12.2022
595 Clear 13 1016 73 10000 5.14 200 22:37 19.12.2022
596 Clear 13 1016 73 10000 5.14 210 21:44 19.12.2022
597 Clear 12 1016 77 10000 4.12 190 19:56 19.12.2022
598 Clear 12 1016 77 10000 5.14 180 19:38 19.12.2022
599 Clear 12 1017 78 10000 4.12 200 18:24 19.12.2022
600 Clouds 12 1017 77 10000 5.14 200 16:43 19.12.2022
601 Clear 10 1018 79 10000 5.14 170 13:27 19.12.2022
602 Clear 9 1018 83 10000 5.14 170 11:56 19.12.2022
603 Clear 8 1018 85 10000 4.12 160 10:41 19.12.2022
604 Clouds 7 1018 91 10000 3.09 150 07:41 19.12.2022
605 Clear 6 1018 89 10000 4.12 180 03:31 19.12.2022
606 Clouds 3 1019 93 6000 4.12 140 22:35 18.12.2022
607 Rain 3 1019 94 6000 3.6 150 21:46 18.12.2022
608 Rain 3 1019 91 6000 3.6 150 21:22 18.12.2022
609 Rain 2 1019 89 7000 2.57 160 19:52 18.12.2022
610 Rain 2 1019 90 8000 3.09 160 19:34 18.12.2022
611 Rain 2 1020 83 10000 3.09 160 17:53 18.12.2022
612 Clouds 1 1020 81 10000 4.12 140 16:32 18.12.2022
613 Clouds 1 1021 82 10000 3.09 130 15:40 18.12.2022
614 Clouds 1 1021 83 10000 3.09 130 15:40 18.12.2022
615 Clouds 0 1021 83 10000 4.12 150 15:19 18.12.2022
616 Clear -1 1022 85 9000 4.12 150 13:40 18.12.2022
617 Clouds -2 1023 85 9000 4.63 150 12:57 18.12.2022
618 Clouds -3 1022 87 8000 4.12 140 12:20 18.12.2022
619 Mist -5 1023 91 7000 4.63 140 10:38 18.12.2022
620 Mist -5 1023 91 7000 3.6 150 08:47 18.12.2022
621 Mist -5 1023 91 7000 4.12 140 07:43 18.12.2022
622 Mist -5 1023 91 7000 3.09 140 06:21 18.12.2022
623 Mist -5 1024 94 6000 3.09 120 03:40 18.12.2022
624 Mist -5 1024 93 6000 2.57 100 01:48 18.12.2022
625 Mist -4 1025 94 7000 2.57 80 22:21 17.12.2022
626 Clouds -3 1024 88 7000 3.6 100 19:46 17.12.2022
627 Clouds -2 1024 87 8000 3.6 60 17:19 17.12.2022
628 Clouds -1 1024 86 8000 3.09 120 14:44 17.12.2022
629 Mist -2 1025 93 5000 2.57 100 12:28 17.12.2022
630 Mist -2 1025 92 5000 2.06 110 10:50 17.12.2022
631 Mist -2 1024 92 5000 2.06 50 09:48 17.12.2022
632 Mist -2 1023 91 6000 2.06 80 08:35 17.12.2022
633 Mist -2 1023 91 8000 1.54 80 06:46 17.12.2022
634 Mist -2 1021 94 5000 2.57 50 23:59 16.12.2022
635 Mist -2 1020 94 4400 2.57 50 21:39 16.12.2022
636 Mist -1 1019 91 2800 4.12 80 20:24 16.12.2022
637 Clear 1 1017 80 9000 3.6 20 17:20 16.12.2022
638 Clouds 2 1016 84 9000 3.6 40 14:51 16.12.2022
639 Clouds 1 1016 87 8000 3.6 40 14:27 16.12.2022
640 Mist 1 1015 91 5000 5.14 30 12:22 16.12.2022
641 Clouds 1 1015 92 6000 3.6 360 10:58 16.12.2022
642 Mist -1 1013 94 3400 3.09 350 09:39 16.12.2022
643 Mist -2 1012 93 6000 3.09 360 08:27 16.12.2022
644 Mist -3 1012 96 5000 3.09 340 07:54 16.12.2022
645 Clear 0 1009 78 10000 5.14 20 00:18 16.12.2022
646 Clear 0 1008 77 10000 5.14 30 22:33 15.12.2022
647 Clear 0 1008 78 10000 5.14 20 21:24 15.12.2022
648 Clear 1 1007 76 10000 6.69 30 19:42 15.12.2022
649 Clear 0 1007 69 10000 5.66 10 18:51 15.12.2022
650 Clear 1 1006 56 10000 5.66 30 17:27 15.12.2022
651 Clear 2 1005 64 10000 6.69 30 15:45 15.12.2022
652 Clear 2 1005 69 9000 5.14 10 14:38 15.12.2022
653 Clear 1 1006 73 10000 5.66 30 12:48 15.12.2022
654 Clear 0 1007 77 7000 5.14 30 11:41 15.12.2022
655 Clouds -2 1006 85 6000 3.6 20 08:55 15.12.2022
656 Clouds -3 1006 86 7000 3.09 30 08:18 15.12.2022
657 Clouds -2 1005 85 6000 4.63 40 05:43 15.12.2022
658 Clear 1 1005 74 10000 3.6 40 22:59 14.12.2022
659 Clear 1 1004 75 10000 2.06 10 21:24 14.12.2022
660 Clear 1 1004 75 10000 2.57 30 20:44 14.12.2022
661 Clear 1 1004 74 10000 2.57 20 19:51 14.12.2022
662 Snow 1 1003 73 10000 3.6 40 17:19 14.12.2022
663 Clear 2 1002 74 10000 3.09 30 16:53 14.12.2022
664 Clear 2 1001 76 10000 3.6 60 14:55 14.12.2022
665 Clear 1 1001 81 10000 4.12 10 13:19 14.12.2022
666 Clouds 0 1001 91 10000 2.06 350 10:55 14.12.2022
667 Mist 0 1000 92 10000 2.06 30 10:23 14.12.2022
668 Mist 0 999 91 10000 2.57 40 07:44 14.12.2022
669 Clear -1 1001 77 10000 1.54 50 22:42 13.12.2022
670 Clear 0 1001 75 10000 2.57 80 21:45 13.12.2022
671 Clear 0 1002 72 10000 3.6 90 20:48 13.12.2022
672 Clear 0 1002 72 10000 3.6 50 19:25 13.12.2022
673 Clear 2 1003 61 10000 3.6 60 16:42 13.12.2022
674 Clear 1 1003 64 10000 4.63 60 14:59 13.12.2022
675 Clear 0 1005 67 10000 4.63 60 13:42 13.12.2022
676 Clear -2 1006 79 10000 5.14 60 10:55 13.12.2022
677 Clear -2 1006 80 10000 4.63 70 10:35 13.12.2022
678 Clear -3 1005 82 10000 5.66 70 08:45 13.12.2022
679 Clear -2 1007 88 9000 6.69 80 22:50 12.12.2022
680 Clouds -2 1007 90 9000 5.14 80 22:21 12.12.2022
681 Clouds -2 1007 89 7000 3.6 90 20:43 12.12.2022
682 Clouds -2 1008 87 9000 4.63 100 18:32 12.12.2022
683 Clouds -1 1008 82 10000 4.63 90 16:23 12.12.2022
684 Clouds 0 1009 81 8000 3.6 100 14:26 12.12.2022
685 Clouds -2 1010 90 10000 3.09 110 10:19 12.12.2022
686 Clouds -2 1010 90 10000 2.57 100 09:18 12.12.2022
687 Clouds -2 1009 92 10000 2.57 100 04:53 12.12.2022
688 Mist -2 1009 94 9000 3.6 140 01:52 12.12.2022
689 Mist -2 1009 92 8000 3.6 160 22:19 11.12.2022
690 Mist -2 1009 94 7000 3.6 150 20:41 11.12.2022
691 Mist -2 1008 93 7000 4.12 130 19:41 11.12.2022
692 Mist -2 1008 92 7000 3.6 150 18:56 11.12.2022
693 Clouds -1 1008 88 8000 3.09 130 17:58 11.12.2022
694 Clouds -1 1008 87 9000 3.09 110 17:29 11.12.2022
695 Clear 0 1008 86 10000 2.57 120 16:49 11.12.2022
696 Clear 1 1009 83 10000 3.09 160 15:46 11.12.2022
697 Clouds 0 1009 87 10000 3.6 140 14:21 11.12.2022
698 Clouds -1 1011 88 10000 4.63 160 12:44 11.12.2022
699 Clouds -2 1011 93 9000 5.14 160 11:30 11.12.2022
700 Mist -2 1010 97 10000 4.12 180 06:25 11.12.2022
701 Fog -1 1012 95 6000 2.57 170 00:32 11.12.2022
702 Mist -1 1012 96 4900 4.12 250 22:53 10.12.2022
703 Mist -1 1013 96 5000 3.6 230 22:33 10.12.2022
704 Fog 0 1012 93 8000 3.09 240 21:19 10.12.2022
705 Clouds 0 1012 92 6000 2.06 230 20:26 10.12.2022
706 Clear 1 1013 87 9000 3.09 230 18:37 10.12.2022
707 Clear 3 1012 83 10000 2.06 280 16:48 10.12.2022
708 Clouds 3 1012 82 10000 3.09 280 15:58 10.12.2022
709 Clouds 4 1012 81 10000 3.09 250 15:37 10.12.2022
710 Clouds 4 1012 82 10000 3.09 250 14:21 10.12.2022
711 Clouds 3 1012 86 10000 2.57 270 12:49 10.12.2022
712 Clouds 2 1012 89 10000 1.54 0 11:35 10.12.2022
713 Clouds 2 1011 89 10000 2.06 320 10:34 10.12.2022
714 Clouds 1 1010 93 10000 2.06 330 08:55 10.12.2022
715 Clouds 1 1009 93 8000 2.57 330 07:19 10.12.2022
716 Mist 1 1008 92 5000 3.09 60 00:18 10.12.2022
717 Mist 2 1007 91 5000 3.09 30 22:46 09.12.2022
718 Mist 1 1007 94 5000 2.06 350 21:48 09.12.2022
719 Mist 1 1007 94 5000 2.06 350 21:24 09.12.2022
720 Clouds 1 1006 92 6000 2.57 20 20:41 09.12.2022
721 Clouds 1 1006 90 7000 2.57 330 18:42 09.12.2022
722 Clear 1 1005 88 8000 2.57 340 17:51 09.12.2022
723 Clear 2 1005 82 10000 3.09 340 16:31 09.12.2022
724 Clear 3 1005 84 10000 3.6 360 15:34 09.12.2022
725 Clouds 2 1005 85 9000 4.12 340 14:40 09.12.2022
726 Clouds 1 1006 91 7000 3.09 10 11:32 09.12.2022
727 Clouds 1 1006 90 7000 3.6 20 10:34 09.12.2022
728 Clouds 1 1006 92 10000 3.6 30 08:36 09.12.2022
729 Mist 2 1006 93 5000 2.57 360 03:19 09.12.2022
730 Clouds 3 1007 92 6000 2.57 30 00:25 09.12.2022
731 Clouds 3 1008 90 6000 1.79 45 21:54 08.12.2022
732 Clouds 3 1008 90 9000 1.54 0 20:21 08.12.2022
733 Clouds 3 1008 87 9000 1.54 0 17:37 08.12.2022
734 Clouds 4 1009 87 10000 2.06 200 15:36 08.12.2022
735 Clouds 4 1009 88 10000 2.06 190 14:25 08.12.2022
736 Clouds 3 1011 94 8000 2.06 210 11:19 08.12.2022
737 Mist 2 1012 94 9000 2.06 230 09:51 08.12.2022
738 Fog 2 1012 94 9000 2.06 220 09:23 08.12.2022
739 Fog 3 1014 94 8000 1.54 200 02:26 08.12.2022
740 Mist 4 1016 91 10000 1.54 340 22:19 07.12.2022
741 Mist 4 1016 91 10000 1.54 340 21:49 07.12.2022
742 Clouds 4 1017 92 10000 1.54 360 21:29 07.12.2022
743 Clouds 4 1017 91 10000 2.06 20 19:35 07.12.2022
744 Clouds 5 1018 88 10000 2.57 310 17:27 07.12.2022
745 Clouds 6 1019 85 10000 2.57 360 14:41 07.12.2022
746 Clouds 4 1020 95 7000 2.57 340 11:43 07.12.2022
747 Clouds 2 1021 97 6000 2.57 320 10:40 07.12.2022
748 Clouds 1 1021 99 6000 1.54 0 09:48 07.12.2022
749 Mist 1 1020 97 5000 1.54 240 08:47 07.12.2022
750 Fog 0 1020 99 1900 2.57 340 06:48 07.12.2022
751 Fog 1 1020 96 250 1.54 250 05:23 07.12.2022
752 Fog 2 1021 94 1000 2.57 10 22:41 06.12.2022
753 Mist 2 1021 94 5000 2.57 10 20:48 06.12.2022
754 Clouds 4 1020 93 9000 3.6 30 18:21 06.12.2022
755 Mist 5 1020 94 9000 3.09 30 16:42 06.12.2022
756 Mist 5 1020 95 3600 3.09 30 16:20 06.12.2022
757 Fog 5 1020 95 7000 3.09 20 15:34 06.12.2022
758 Mist 5 1020 95 5000 2.57 10 14:28 06.12.2022
759 Mist 4 1021 97 1100 2.57 320 12:59 06.12.2022
760 Mist 4 1021 97 1200 2.57 320 12:40 06.12.2022
761 Mist 3 1021 95 1900 2.06 240 09:41 06.12.2022
762 Mist 3 1020 94 2700 1.54 90 06:44 06.12.2022
763 Clouds 2 1021 91 8000 2.06 30 01:26 06.12.2022
764 Clouds 3 1021 92 9000 2.06 330 22:36 05.12.2022
765 Clouds 3 1021 91 10000 2.06 320 21:19 05.12.2022
766 Clouds 3 1021 91 10000 1.54 330 20:36 05.12.2022
767 Clouds 3 1021 91 10000 2.06 330 19:46 05.12.2022
768 Clouds 3 1021 91 10000 1.54 330 18:37 05.12.2022
769 Mist 3 1020 91 10000 2.06 330 16:49 05.12.2022
770 Mist 3 1019 91 10000 1.54 290 15:24 05.12.2022
771 Drizzle 2 1020 94 7000 1.54 270 13:28 05.12.2022
772 Mist 2 1020 94 7000 1.54 330 12:56 05.12.2022
773 Mist 2 1020 94 4100 1.54 0 12:37 05.12.2022
774 Drizzle 2 1020 95 3600 2.06 340 10:59 05.12.2022
775 Drizzle 2 1017 94 5000 2.57 340 05:22 05.12.2022
776 Rain 3 1015 93 6000 3.09 40 23:33 04.12.2022
777 Rain 3 1015 90 6000 4.12 30 22:40 04.12.2022
778 Clouds 3 1015 89 7000 3.6 30 22:18 04.12.2022
779 Clouds 4 1015 87 10000 3.6 40 21:30 04.12.2022
780 Clouds 4 1013 86 10000 4.63 40 19:49 04.12.2022
781 Clouds 4 1013 86 10000 4.12 40 19:23 04.12.2022
782 Clouds 4 1013 86 9000 4.12 40 17:58 04.12.2022
783 Clouds 4 1012 86 8000 5.14 40 17:21 04.12.2022
784 Clouds 4 1012 87 8000 5.14 50 16:36 04.12.2022
785 Clouds 4 1012 87 8000 5.14 50 16:18 04.12.2022
786 Clouds 4 1012 89 8000 4.63 30 15:26 04.12.2022
787 Clouds 4 1012 90 9000 5.14 40 13:51 04.12.2022
788 Clouds 4 1012 87 9000 5.14 70 12:46 04.12.2022
789 Clouds 4 1012 87 9000 5.14 70 12:21 04.12.2022
790 Drizzle 3 1012 88 10000 5.14 70 11:19 04.12.2022
791 Clouds 3 1012 86 10000 5.14 70 07:35 04.12.2022
792 Clouds 2 1012 89 10000 5.66 60 02:51 04.12.2022
793 Clouds 3 1014 85 10000 5.14 70 23:44 03.12.2022
794 Clouds 3 1014 85 10000 5.14 60 22:24 03.12.2022
795 Clouds 3 1014 86 10000 5.14 60 21:45 03.12.2022
796 Clouds 3 1014 85 10000 6.17 60 20:38 03.12.2022
797 Clouds 3 1014 87 10000 6.69 30 18:40 03.12.2022
798 Clouds 3 1014 86 10000 5.66 40 17:33 03.12.2022
799 Clouds 4 1014 85 10000 5.66 30 15:49 03.12.2022
800 Clouds 4 1015 85 10000 5.14 60 13:19 03.12.2022
801 Clouds 4 1016 85 10000 6.69 50 12:41 03.12.2022
802 Clouds 4 1016 86 10000 5.14 50 11:34 03.12.2022
803 Clouds 3 1016 88 10000 7.2 50 08:25 03.12.2022
804 Clouds 3 1017 92 6000 7.2 50 02:48 03.12.2022
805 Clouds 3 1018 93 10000 5.66 40 23:38 02.12.2022
806 Rain 3 1018 93 8000 6.17 40 21:52 02.12.2022
807 Drizzle 3 1018 91 6000 6.17 40 19:50 02.12.2022
808 Drizzle 5 1018 91 3400 4.12 20 16:38 02.12.2022
809 Mist 5 1018 90 5000 3.6 30 15:57 02.12.2022
810 Mist 5 1019 90 4800 3.6 20 14:36 02.12.2022
811 Mist 5 1019 89 4200 4.12 20 14:18 02.12.2022
812 Mist 5 1021 89 4800 3.09 30 11:57 02.12.2022
813 Mist 5 1021 89 4400 3.09 20 10:35 02.12.2022
814 Clouds 5 1022 87 6000 3.09 40 07:52 02.12.2022
815 Clouds 5 1022 84 6000 3.09 30 07:22 02.12.2022
816 Clouds 6 1024 83 10000 4.63 40 22:53 01.12.2022
817 Clouds 6 1025 86 10000 5.66 40 21:43 01.12.2022
818 Clouds 6 1025 88 10000 5.66 30 20:50 01.12.2022
819 Clouds 6 1025 87 9000 4.12 10 19:18 01.12.2022
820 Clouds 6 1025 85 10000 3.6 30 17:30 01.12.2022
821 Clouds 6 1025 85 9000 5.66 20 14:46 01.12.2022
822 Clouds 5 1026 91 8000 5.14 10 11:21 01.12.2022
823 Mist 5 1026 90 7000 6.69 20 09:55 01.12.2022
824 Mist 5 1026 91 5000 4.63 20 09:37 01.12.2022
825 Clouds 5 1025 91 6000 5.14 20 06:59 01.12.2022
826 Mist 6 1025 93 6000 3.6 20 23:46 30.11.2022
827 Clouds 7 1025 91 6000 5.14 30 22:21 30.11.2022
828 Clouds 7 1024 91 7000 5.14 30 21:19 30.11.2022
829 Clouds 7 1024 91 7000 4.63 30 20:25 30.11.2022
830 Clouds 7 1024 88 8000 5.14 40 19:35 30.11.2022
831 Clouds 7 1024 90 9000 4.63 20 18:32 30.11.2022
832 Clouds 7 1024 89 9000 3.6 30 17:33 30.11.2022
833 Clouds 7 1023 87 10000 3.6 360 14:46 30.11.2022
834 Clouds 7 1023 87 10000 3.6 360 14:46 30.11.2022
835 Clouds 7 1023 87 10000 3.6 360 14:27 30.11.2022
836 Clouds 7 1023 88 10000 4.12 30 12:29 30.11.2022
837 Clouds 5 1023 94 10000 3.6 80 10:24 30.11.2022
838 Clouds 5 1023 94 10000 2.57 60 08:38 30.11.2022
839 Clouds 5 1023 94 9000 3.6 50 06:44 30.11.2022
840 Clouds 6 1022 95 10000 2.06 70 23:32 29.11.2022
841 Clouds 6 1022 94 7000 3.09 70 22:25 29.11.2022
842 Clouds 7 1022 93 6000 2.57 40 20:53 29.11.2022
843 Mist 7 1021 94 5000 2.57 30 20:33 29.11.2022
844 Clouds 7 1021 92 7000 2.06 40 18:57 29.11.2022
845 Clouds 7 1021 92 7000 2.06 40 18:57 29.11.2022
846 Clouds 8 1020 89 10000 1.54 20 16:58 29.11.2022
847 Clouds 8 1020 87 10000 2.57 70 16:22 29.11.2022
848 Clouds 8 1020 90 10000 1.54 350 14:49 29.11.2022
849 Clouds 8 1019 93 7000 1.54 360 12:46 29.11.2022
850 Mist 7 1019 95 10000 2.06 340 11:32 29.11.2022
851 Mist 7 1019 95 10000 1.54 10 10:52 29.11.2022
852 Fog 6 1018 96 450 1.54 350 09:38 29.11.2022
853 Fog 6 1017 95 500 2.57 320 08:34 29.11.2022
854 Clouds 7 1014 92 10000 1.54 250 00:36 29.11.2022
855 Clouds 7 1014 93 10000 1.54 170 23:34 28.11.2022
856 Clouds 7 1014 94 10000 1.54 260 22:50 28.11.2022
857 Clouds 7 1013 92 10000 2.57 240 21:43 28.11.2022
858 Clouds 7 1013 93 10000 3.09 250 20:37 28.11.2022
859 Clouds 8 1012 91 10000 4.63 240 19:38 28.11.2022
860 Clouds 9 1012 87 10000 2.06 250 18:29 28.11.2022
861 Clouds 9 1012 87 10000 2.57 250 17:50 28.11.2022
862 Clouds 11 1012 81 10000 4.63 220 15:37 28.11.2022
863 Clouds 11 1011 83 10000 4.63 230 14:24 28.11.2022
864 Clouds 11 1011 84 10000 4.63 230 13:49 28.11.2022
865 Clouds 11 1012 88 10000 4.12 240 12:35 28.11.2022
866 Clouds 9 1012 95 10000 2.57 230 09:27 28.11.2022
867 Mist 9 1011 96 10000 3.09 230 06:29 28.11.2022
868 Mist 9 1011 96 10000 2.06 140 04:42 28.11.2022
869 Clouds 9 1011 96 10000 3.6 240 03:23 28.11.2022
870 Rain 8 1011 94 10000 4.12 240 01:27 28.11.2022
871 Rain 8 1011 94 10000 4.12 240 01:27 28.11.2022
872 Clouds 8 1012 90 10000 5.14 200 22:35 27.11.2022
873 Rain 9 1013 82 10000 3.09 200 21:28 27.11.2022
874 Clouds 9 1013 80 10000 2.06 180 19:30 27.11.2022
875 Clouds 10 1015 80 10000 3.6 190 16:47 27.11.2022
876 Mist 9 1016 84 5000 4.12 150 14:33 27.11.2022
877 Clouds 8 1019 91 7000 4.12 160 12:32 27.11.2022
878 Clouds 7 1019 94 10000 4.12 150 10:44 27.11.2022
879 Clouds 6 1021 94 10000 4.12 160 08:18 27.11.2022
880 Clouds 6 1025 94 10000 4.12 160 00:36 27.11.2022
881 Clouds 7 1027 93 10000 5.14 150 22:22 26.11.2022
882 Mist 8 1027 92 10000 5.14 140 20:51 26.11.2022
883 Clouds 8 1027 93 10000 4.63 130 19:23 26.11.2022
884 Mist 8 1028 94 10000 4.63 150 17:29 26.11.2022
885 Clouds 8 1028 94 10000 4.12 160 15:39 26.11.2022
886 Mist 8 1029 95 10000 4.12 190 13:31 26.11.2022
887 Fog 7 1030 96 6000 3.09 150 11:24 26.11.2022
888 Fog 5 1030 96 9000 2.06 120 09:45 26.11.2022
889 Mist 5 1030 96 6000 2.06 210 08:49 26.11.2022
890 Mist 6 1028 94 6000 1.54 250 01:30 26.11.2022
891 Clear 7 1026 93 10000 3.09 260 21:42 25.11.2022
892 Clear 7 1026 91 10000 3.09 260 21:20 25.11.2022
893 Clear 7 1025 92 10000 2.57 250 19:56 25.11.2022
894 Clouds 11 1022 80 10000 4.12 270 16:46 25.11.2022
895 Clear 12 1020 82 10000 4.12 260 13:51 25.11.2022
896 Mist 8 1016 96 10000 3.6 210 09:21 25.11.2022
897 Clear 8 1015 96 10000 3.09 220 08:40 25.11.2022
898 Clear 8 1014 95 10000 3.09 210 06:54 25.11.2022
899 Clear 9 1013 94 10000 2.06 240 05:40 25.11.2022
900 Clouds 11 1010 87 10000 6.17 180 23:53 24.11.2022
901 Clouds 11 1010 88 10000 5.14 170 22:50 24.11.2022
902 Clouds 11 1010 89 10000 7.2 180 21:58 24.11.2022
903 Clouds 11 1010 89 10000 6.17 170 20:19 24.11.2022
904 Clouds 12 1010 87 10000 5.66 170 18:19 24.11.2022
905 Clouds 12 1010 86 10000 6.17 170 17:38 24.11.2022
906 Clouds 12 1011 84 10000 6.17 170 17:20 24.11.2022
907 Clear 12 1012 78 10000 6.17 170 14:37 24.11.2022
908 Clear 12 1012 81 10000 6.17 170 13:45 24.11.2022
909 Clear 11 1013 87 10000 5.66 200 11:54 24.11.2022
910 Clear 10 1013 87 10000 5.66 200 11:53 24.11.2022
911 Clouds 9 1013 92 10000 4.12 190 10:34 24.11.2022
912 Clear 8 1011 91 10000 3.09 190 07:44 24.11.2022
913 Clouds 10 1007 85 10000 7.2 230 01:56 24.11.2022
914 Clouds 9 1007 85 10000 7.2 200 23:32 23.11.2022
915 Clear 9 1006 83 10000 5.66 210 21:56 23.11.2022
916 Clear 9 1005 83 10000 4.63 200 21:19 23.11.2022
917 Clear 10 1005 82 10000 4.12 190 19:58 23.11.2022
918 Clear 10 1004 81 10000 4.12 190 18:58 23.11.2022
919 Clear 10 1003 82 10000 3.6 240 18:33 23.11.2022
920 Clouds 11 1000 77 10000 9.26 300 16:22 23.11.2022
921 Mist 10 997 95 4500 5.14 250 13:26 23.11.2022
922 Clouds 9 996 96 10000 4.63 190 12:58 23.11.2022
923 Rain 8 996 94 5000 5.14 170 11:54 23.11.2022
924 Rain 8 995 93 10000 5.66 140 11:19 23.11.2022
925 Rain 8 996 92 10000 5.66 150 10:42 23.11.2022
926 Drizzle 7 997 93 10000 5.14 170 09:42 23.11.2022
927 Drizzle 7 997 93 10000 5.14 170 09:23 23.11.2022
928 Clouds 7 996 94 10000 4.63 150 08:36 23.11.2022
929 Mist 6 998 94 10000 4.12 160 05:22 23.11.2022
930 Clear 6 999 93 10000 4.12 180 02:56 23.11.2022
931 Clouds 8 999 81 10000 5.66 200 22:59 22.11.2022
932 Clouds 9 998 79 10000 5.14 200 22:18 22.11.2022
933 Clouds 9 998 78 10000 5.14 200 21:33 22.11.2022
934 Clouds 10 998 76 10000 5.66 210 20:45 22.11.2022
935 Clouds 10 997 75 10000 6.17 210 19:52 22.11.2022
936 Clouds 11 997 74 10000 6.69 210 17:55 22.11.2022
937 Clouds 11 996 74 10000 7.2 210 16:48 22.11.2022
938 Clouds 11 996 73 10000 7.2 210 15:50 22.11.2022
939 Clouds 11 996 75 10000 9.26 240 13:41 22.11.2022
940 Clouds 9 995 86 10000 8.75 220 11:40 22.11.2022
941 Rain 7 994 90 10000 7.2 210 09:20 22.11.2022
942 Drizzle 7 994 89 10000 6.17 220 07:18 22.11.2022
943 Clear 5 995 89 10000 4.63 220 01:40 22.11.2022
944 Clear 6 995 86 10000 5.14 210 23:40 21.11.2022
945 Clear 6 995 86 10000 5.66 240 22:40 21.11.2022
946 Clear 7 994 87 10000 5.14 240 21:58 21.11.2022
947 Clear 7 994 87 10000 5.66 250 20:49 21.11.2022
948 Clouds 8 993 92 10000 5.14 250 19:41 21.11.2022
949 Clouds 8 992 95 10000 4.47 219 18:54 21.11.2022
950 Mist 8 992 95 5000 4.12 190 17:58 21.11.2022
951 Drizzle 7 992 95 10000 6.69 150 16:55 21.11.2022
952 Rain 7 992 95 6000 7.2 150 16:37 21.11.2022
953 Rain 8 993 92 10000 7.72 130 15:37 21.11.2022
954 Rain 8 995 90 8000 7.2 140 14:28 21.11.2022
955 Rain 8 997 90 10000 5.66 130 13:43 21.11.2022
956 Fog 7 1003 95 10000 5.14 150 10:48 21.11.2022
957 Clouds 6 1004 95 8000 3.6 140 08:59 21.11.2022
958 Mist 6 1006 95 10000 3.09 170 07:39 21.11.2022
959 Clouds 8 1011 91 10000 5.14 250 22:34 20.11.2022
960 Clouds 8 1011 89 10000 5.14 250 21:34 20.11.2022
961 Clouds 8 1011 90 10000 4.12 250 20:25 20.11.2022
962 Clouds 9 1011 85 10000 4.63 250 18:26 20.11.2022
963 Clear 10 1010 90 10000 4.63 260 16:24 20.11.2022
964 Clouds 9 1010 94 10000 4.63 250 15:29 20.11.2022
965 Rain 8 1010 94 4300 6.17 230 14:41 20.11.2022
966 Clouds 8 1010 93 10000 5.66 230 13:34 20.11.2022
967 Mist 7 1011 93 10000 5.14 210 12:38 20.11.2022
968 Clouds 7 1012 91 10000 5.14 180 11:25 20.11.2022
969 Rain 6 1012 89 9000 4.12 190 10:40 20.11.2022
970 Clouds 6 1013 87 10000 4.12 190 09:28 20.11.2022
971 Clear 5 1013 89 10000 4.12 190 08:35 20.11.2022
972 Clear 5 1013 92 10000 2.57 190 07:30 20.11.2022
973 Clear 5 1013 92 10000 2.57 190 07:30 20.11.2022
974 Clear 5 1013 92 10000 2.57 190 07:30 20.11.2022
975 Clear 5 1013 92 10000 2.57 190 07:30 20.11.2022
976 Clear 6 1014 86 10000 3.09 240 04:26 20.11.2022
977 Clear 7 1014 87 10000 4.12 250 01:21 20.11.2022
978 Clear 8 1014 85 10000 3.6 250 00:42 20.11.2022
979 Clear 8 1014 86 10000 3.6 250 00:42 20.11.2022
980 Clear 8 1014 86 10000 3.6 250 00:23 20.11.2022
981 Clear 8 1014 88 10000 4.63 240 23:51 19.11.2022
982 Clear 7 1014 90 10000 3.09 240 23:25 19.11.2022
983 Clear 7 1014 91 10000 3.6 240 22:40 19.11.2022
984 Clear 8 1014 88 10000 4.12 280 21:32 19.11.2022
985 Clear 8 1014 88 10000 4.12 270 20:57 19.11.2022
986 Clear 8 1014 87 10000 3.09 260 20:33 19.11.2022
987 Clear 9 1014 87 10000 3.6 260 19:22 19.11.2022
988 Clouds 10 1013 83 10000 4.63 300 17:41 19.11.2022
989 Clouds 10 1013 81 10000 4.63 300 17:20 19.11.2022
990 Clouds 10 1012 79 10000 5.14 300 15:59 19.11.2022
991 Clouds 11 1012 77 10000 4.63 250 14:39 19.11.2022
992 Clear 9 1013 89 10000 3.6 310 12:23 19.11.2022
993 Clear 7 1013 92 10000 3.6 310 10:57 19.11.2022
994 Clouds 6 1011 94 10000 2.57 270 08:43 19.11.2022
995 Clouds 5 1010 93 10000 3.09 280 04:59 19.11.2022
996 Clear 6 1010 92 10000 3.09 300 03:25 19.11.2022
997 Clear 6 1009 93 10000 3.09 270 00:18 19.11.2022
998 Clear 7 1009 89 10000 3.09 270 23:25 18.11.2022
999 Clear 7 1008 89 10000 3.6 250 21:54 18.11.2022
1000 Clouds 8 1008 89 10000 3.09 250 21:33 18.11.2022
1001 Clear 8 1008 89 10000 2.57 250 20:38 18.11.2022
1002 Clouds 8 1007 89 10000 2.06 260 19:47 18.11.2022
1003 Clouds 9 1007 85 10000 2.57 260 18:57 18.11.2022
1004 Clouds 10 1006 82 6000 3.6 260 17:44 18.11.2022
1005 Clouds 13 1005 74 10000 5.14 240 14:44 18.11.2022
1006 Clouds 11 1005 83 10000 5.66 240 11:41 18.11.2022
1007 Clouds 8 1004 90 10000 4.63 240 09:31 18.11.2022
1008 Clouds 8 1002 92 10000 5.66 230 07:52 18.11.2022
1009 Clouds 8 1001 91 10000 3.6 230 05:26 18.11.2022
1010 Clouds 9 999 88 10000 5.14 240 01:42 18.11.2022
1011 Clouds 10 996 84 10000 5.14 230 22:29 17.11.2022
1012 Clouds 11 994 85 10000 4.63 230 20:46 17.11.2022
1013 Clear 11 994 81 10000 3.09 230 19:51 17.11.2022
1014 Clouds 12 994 79 10000 3.6 240 19:18 17.11.2022
1015 Clear 12 993 78 10000 4.12 230 18:27 17.11.2022
1016 Clouds 13 993 74 10000 6.17 220 16:56 17.11.2022
1017 Clouds 14 993 72 10000 7.72 240 15:21 17.11.2022
1018 Clouds 12 993 85 10000 8.23 230 11:45 17.11.2022
1019 Clouds 12 992 86 10000 6.17 210 10:28 17.11.2022
1020 Clouds 11 990 84 10000 8.75 230 06:19 17.11.2022
1021 Clear 13 987 86 10000 8.23 190 00:50 17.11.2022
1022 Rain 12 988 93 8000 11.32 180 22:44 16.11.2022
1023 Mist 12 988 94 5000 12.35 160 21:49 16.11.2022
1024 Rain 12 990 93 7000 10.8 160 20:22 16.11.2022
1025 Rain 12 992 95 8000 8.23 140 18:48 16.11.2022
1026 Rain 12 993 95 7000 7.2 150 17:58 16.11.2022
1027 Clouds 13 997 80 10000 5.66 190 14:41 16.11.2022
1028 Clouds 11 999 92 10000 5.14 190 10:56 16.11.2022
1029 Clouds 9 999 94 10000 5.14 170 06:49 16.11.2022
1030 Clear 10 1000 92 10000 4.63 200 01:35 16.11.2022
1031 Clouds 11 1000 91 10000 5.14 230 23:18 15.11.2022
1032 Clouds 13 999 93 10000 5.66 190 21:23 15.11.2022
1033 Rain 13 999 94 10000 5.66 190 19:47 15.11.2022
1034 Clouds 13 999 95 10000 5.14 170 18:51 15.11.2022
1035 Clouds 13 999 94 10000 5.14 160 17:36 15.11.2022
1036 Clouds 13 1000 94 10000 6.17 150 16:20 15.11.2022
1037 Mist 12 1001 95 10000 5.14 170 15:35 15.11.2022
1038 Rain 11 1002 94 10000 6.17 170 13:43 15.11.2022
1039 Rain 11 1003 93 10000 5.66 160 12:54 15.11.2022
1040 Rain 11 1004 89 10000 5.66 160 11:21 15.11.2022
1041 Clouds 10 1005 95 10000 5.66 140 09:38 15.11.2022
1042 Clouds 11 1010 93 10000 3.6 220 00:42 15.11.2022
1043 Clouds 11 1010 93 10000 3.6 220 00:22 15.11.2022
1044 Clouds 13 1010 92 10000 4.63 240 21:56 14.11.2022
1045 Clouds 13 1010 92 10000 3.6 170 20:44 14.11.2022
1046 Clouds 13 1010 92 10000 3.09 190 19:42 14.11.2022
1047 Clouds 13 1010 91 10000 5.14 190 18:27 14.11.2022
1048 Clouds 9 1012 96 6000 3.6 150 12:55 14.11.2022
1049 Clouds 9 1012 95 6000 3.6 150 12:55 14.11.2022
1050 Clouds 9 1012 95 6000 3.6 150 12:55 14.11.2022
1051 Clouds 9 1012 96 6000 3.6 150 12:55 14.11.2022
1052 Clouds 9 1012 96 6000 3.6 150 12:55 14.11.2022
1053 Mist 7 1012 100 2800 3.09 160 11:47 14.11.2022
1054 Fog 7 1012 100 1200 3.09 130 10:58 14.11.2022
1055 Fog 6 1012 97 450 2.57 200 08:34 14.11.2022
1056 Fog 6 1012 97 650 2.06 110 07:52 14.11.2022
1057 Mist 6 1014 97 5000 2.57 100 02:32 14.11.2022
1058 Mist 7 1016 98 5000 2.57 100 22:50 13.11.2022
1059 Mist 8 1016 100 1600 2.57 80 21:42 13.11.2022
1060 Mist 9 1016 94 1500 1.54 40 20:46 13.11.2022
1061 Mist 10 1017 93 4500 2.57 50 18:54 13.11.2022
1062 Clear 11 1017 86 10000 2.57 20 17:50 13.11.2022
1063 Clear 15 1018 75 10000 3.09 60 15:48 13.11.2022
1064 Clear 14 1019 78 10000 3.09 70 14:31 13.11.2022
1065 Clear 13 1020 82 10000 2.57 60 12:56 13.11.2022
1066 Clear 12 1021 87 10000 1.54 0 11:55 13.11.2022
1067 Clouds 9 1021 98 9000 3.09 70 10:38 13.11.2022
1068 Fog 7 1023 97 2700 2.06 350 05:53 13.11.2022
1069 Mist 9 1025 95 4600 2.57 360 23:55 12.11.2022
1070 Fog 11 1026 94 6000 2.06 80 21:41 12.11.2022
1071 Fog 11 1026 92 7000 2.06 90 20:57 12.11.2022
1072 Clear 12 1026 91 10000 1.54 30 19:28 12.11.2022
1073 Clear 15 1027 81 10000 3.09 50 16:58 12.11.2022
1074 Clear 15 1027 79 10000 2.06 50 15:59 12.11.2022
1075 Clear 15 1028 80 10000 2.06 80 14:45 12.11.2022
1076 Fog 7 1030 100 9000 1.54 0 09:43 12.11.2022
1077 Fog 7 1029 97 6000 1.54 30 07:48 12.11.2022
1078 Fog 9 1030 95 8000 3.09 120 00:40 12.11.2022
1079 Clear 9 1030 94 10000 2.57 110 21:31 11.11.2022
1080 Clear 10 1030 91 10000 3.09 110 20:44 11.11.2022
1081 Clear 10 1030 91 10000 3.09 70 19:28 11.11.2022
1082 Clear 11 1029 87 10000 3.09 70 18:40 11.11.2022
1083 Clear 12 1029 83 10000 2.57 90 17:40 11.11.2022
1084 Clear 12 1029 83 10000 2.57 90 17:40 11.11.2022
1085 Clear 14 1029 74 10000 2.57 150 15:21 11.11.2022
1086 Clouds 11 1031 84 10000 3.6 150 13:57 11.11.2022
1087 Clouds 10 1031 85 10000 4.12 150 12:46 11.11.2022
1088 Clouds 9 1031 91 10000 4.12 150 09:32 11.11.2022
1089 Clouds 9 1031 91 10000 4.12 150 09:32 11.11.2022
1090 Clouds 9 1031 91 10000 4.63 140 08:27 11.11.2022
1091 Clouds 9 1030 92 10000 3.6 150 03:48 11.11.2022
1092 Clouds 10 1030 88 10000 4.63 180 22:54 10.11.2022
1093 Clouds 11 1029 88 10000 5.14 160 21:51 10.11.2022
1094 Clouds 11 1029 88 10000 5.14 160 21:30 10.11.2022
1095 Clouds 11 1029 88 10000 5.66 160 20:48 10.11.2022
1096 Clouds 11 1029 87 10000 5.14 180 20:20 10.11.2022
1097 Clouds 11 1029 89 10000 4.63 170 18:59 10.11.2022
1098 Clouds 11 1028 89 10000 5.14 160 17:59 10.11.2022
1099 Clouds 11 1028 89 10000 5.14 160 17:59 10.11.2022
1100 Clouds 11 1028 91 10000 5.14 160 16:25 10.11.2022
1101 Mist 12 1028 90 10000 5.14 150 13:40 10.11.2022
1102 Fog 10 1027 91 10000 3.6 140 11:29 10.11.2022
1103 Fog 7 1024 95 7000 1.54 130 08:21 10.11.2022
1104 Clear 9 1021 89 10000 2.06 230 01:27 10.11.2022
1105 Clear 10 1020 86 10000 2.57 240 23:30 09.11.2022
1106 Clear 11 1019 84 10000 1.54 250 22:28 09.11.2022
1107 Clear 11 1018 85 10000 2.57 230 20:48 09.11.2022
1108 Clear 11 1018 86 10000 2.57 230 20:29 09.11.2022
1109 Clear 12 1017 81 10000 2.57 260 19:41 09.11.2022
1110 Clear 12 1016 79 10000 2.57 230 18:49 09.11.2022
1111 Clouds 15 1014 70 10000 5.14 250 15:56 09.11.2022
1112 Clouds 15 1013 73 10000 6.17 230 14:47 09.11.2022
1113 Clouds 15 1013 73 10000 6.17 230 14:24 09.11.2022
1114 Clouds 15 1013 78 10000 5.66 240 13:18 09.11.2022
1115 Clouds 13 1012 86 10000 5.66 210 11:36 09.11.2022
1116 Clouds 12 1011 93 10000 4.12 190 08:42 09.11.2022
1117 Clouds 11 1010 93 10000 4.12 190 07:46 09.11.2022
1118 Clouds 13 1008 87 10000 6.69 190 00:54 09.11.2022
1119 Clouds 15 1008 78 10000 6.69 200 21:45 08.11.2022
1120 Clouds 15 1007 78 10000 6.69 200 21:26 08.11.2022
1121 Clear 15 1007 76 10000 7.2 190 20:41 08.11.2022
1122 Clear 16 1007 76 10000 5.66 190 19:37 08.11.2022
1123 Clear 16 1006 76 10000 4.63 200 18:50 08.11.2022
1124 Clouds 17 1006 73 10000 7.72 190 17:26 08.11.2022
1125 Clouds 17 1006 74 10000 5.66 180 14:56 08.11.2022
1126 Clouds 16 1007 76 10000 6.17 190 13:42 08.11.2022
1127 Clear 16 1007 75 10000 7.2 190 13:23 08.11.2022
1128 Clear 12 1007 79 10000 6.69 170 09:43 08.11.2022
1129 Clear 11 1006 81 10000 6.17 180 07:25 08.11.2022
1130 Clear 11 1010 91 10000 3.09 150 00:33 08.11.2022
1131 Clear 12 1011 88 10000 4.12 160 22:44 07.11.2022
1132 Clear 13 1012 85 10000 4.12 170 21:32 07.11.2022
1133 Clear 14 1012 85 10000 4.63 180 20:40 07.11.2022
1134 Clouds 14 1012 83 10000 5.66 170 19:30 07.11.2022
1135 Clouds 15 1012 82 10000 6.69 180 17:39 07.11.2022
1136 Clouds 15 1012 80 10000 6.17 200 15:36 07.11.2022
1137 Clouds 15 1013 80 10000 7.72 200 14:54 07.11.2022
1138 Clouds 16 1013 81 10000 6.17 200 12:59 07.11.2022
1139 Clouds 15 1013 84 10000 7.2 210 11:50 07.11.2022
1140 Clouds 13 1013 91 10000 5.66 210 09:49 07.11.2022
1141 Clouds 13 1013 90 10000 5.14 200 08:18 07.11.2022
1142 Clouds 12 1012 90 10000 5.66 210 06:27 07.11.2022
1143 Clouds 12 1012 93 10000 6.69 200 01:43 07.11.2022
1144 Clouds 12 1011 93 10000 6.17 200 23:19 06.11.2022
1145 Clouds 12 1010 94 10000 5.14 190 21:21 06.11.2022
1146 Drizzle 12 1010 95 10000 5.14 180 20:36 06.11.2022
1147 Clouds 12 1009 94 10000 5.14 190 19:56 06.11.2022
1148 Clouds 11 1009 94 10000 5.14 180 18:50 06.11.2022
1149 Clouds 11 1009 94 10000 4.63 210 18:20 06.11.2022
1150 Clouds 10 1009 94 10000 4.63 200 17:23 06.11.2022
1151 Clouds 10 1009 95 10000 4.63 200 16:58 06.11.2022
1152 Drizzle 10 1008 93 10000 4.63 180 16:18 06.11.2022
1153 Rain 9 1008 95 6000 5.14 180 14:45 06.11.2022
1154 Rain 9 1011 92 6000 4.63 180 12:45 06.11.2022
1155 Rain 9 1011 92 6000 4.63 180 12:45 06.11.2022
1156 Rain 9 1011 90 10000 5.66 160 10:55 06.11.2022
1157 Rain 9 1012 85 10000 5.66 160 09:52 06.11.2022
1158 Clouds 9 1013 86 10000 5.14 170 07:44 06.11.2022
1159 Clouds 10 1018 87 10000 4.63 170 23:23 05.11.2022
1160 Clouds 10 1019 89 10000 4.12 180 20:40 05.11.2022
1161 Clouds 10 1019 87 10000 4.63 200 18:22 05.11.2022
1162 Clouds 10 1018 87 10000 4.63 200 18:22 05.11.2022
1163 Clouds 10 1018 87 10000 4.63 200 18:22 05.11.2022
1164 Clouds 11 1019 81 10000 4.12 200 16:27 05.11.2022
1165 Clouds 12 1019 78 10000 4.12 230 14:42 05.11.2022
1166 Clear 12 1020 78 10000 4.12 200 13:32 05.11.2022
1167 Clear 10 1020 86 10000 2.57 240 10:59 05.11.2022
1168 Clear 7 1020 91 10000 2.57 230 08:58 05.11.2022
1169 Clouds 6 1019 95 10000 3.09 240 07:23 05.11.2022
1170 Clouds 6 1019 95 10000 3.09 240 06:54 05.11.2022
1171 Clear 6 1018 93 10000 2.57 260 00:22 05.11.2022
1172 Clear 7 1018 91 10000 3.09 290 23:26 04.11.2022
1173 Clear 7 1018 90 10000 3.09 290 23:26 04.11.2022
1174 Clear 9 1016 86 10000 4.63 310 20:41 04.11.2022
1175 Clouds 10 1015 82 10000 5.14 310 19:31 04.11.2022
1176 Clouds 11 1012 77 10000 6.17 340 17:25 04.11.2022
1177 Clouds 12 1009 78 10000 5.66 340 14:20 04.11.2022
1178 Clouds 11 1007 81 10000 5.14 330 12:28 04.11.2022
1179 Clouds 11 1006 84 10000 4.63 300 11:45 04.11.2022
1180 Clouds 10 1004 88 10000 4.12 230 09:24 04.11.2022
1181 Clouds 10 1003 89 10000 3.6 210 08:19 04.11.2022
1182 Clouds 10 1002 89 10000 5.14 200 05:51 04.11.2022
1183 Clouds 10 1004 91 10000 5.14 190 00:39 04.11.2022
1184 Clear 10 1005 91 10000 4.63 220 21:18 03.11.2022
1185 Clear 10 1005 89 10000 4.63 230 20:44 03.11.2022
1186 Clouds 11 1005 89 10000 5.14 240 19:41 03.11.2022
1187 Clouds 12 1003 88 10000 6.17 250 18:18 03.11.2022
1188 Clouds 12 1002 90 10000 5.66 210 16:54 03.11.2022
1189 Rain 13 1002 89 10000 7.2 190 14:58 03.11.2022
1190 Rain 15 1004 77 10000 8.75 190 13:26 03.11.2022
1191 Clear 15 1005 73 10000 7.2 180 12:34 03.11.2022
1192 Clear 14 1005 78 10000 6.17 160 11:28 03.11.2022
1193 Clear 11 1009 88 10000 5.66 150 07:47 03.11.2022
1194 Clouds 13 1018 79 10000 4.63 180 21:59 02.11.2022
1195 Clear 12 1018 79 10000 4.63 180 20:54 02.11.2022
1196 Clear 12 1019 77 10000 4.63 170 20:23 02.11.2022
1197 Clear 14 1020 72 10000 3.6 180 17:58 02.11.2022
1198 Clouds 15 1021 64 10000 7.2 200 16:26 02.11.2022
1199 Clouds 16 1021 66 10000 6.17 180 15:27 02.11.2022
1200 Clouds 14 1023 77 10000 5.14 180 12:50 02.11.2022
1201 Clear 14 1023 80 10000 4.63 180 12:20 02.11.2022
1202 Clear 11 1023 93 10000 3.6 200 09:32 02.11.2022
1203 Clear 10 1023 89 10000 2.57 230 07:38 02.11.2022
1204 Clear 13 1019 81 10000 4.63 210 01:23 02.11.2022
1205 Clouds 15 1018 75 10000 9.26 200 22:20 01.11.2022
1206 Clouds 15 1018 74 10000 6.69 220 21:42 01.11.2022
1207 Clouds 15 1017 72 10000 5.66 200 20:27 01.11.2022
1208 Clear 15 1018 71 10000 7.72 180 19:58 01.11.2022
1209 Clear 15 1017 71 10000 7.72 190 19:40 01.11.2022
1210 Clear 16 1017 69 10000 9.26 180 17:58 01.11.2022
1211 Clouds 17 1018 64 10000 8.23 210 16:23 01.11.2022
1212 Clouds 17 1017 65 10000 8.75 190 16:23 01.11.2022
1213 Clouds 16 1018 67 10000 7.2 190 14:34 01.11.2022
1214 Clouds 16 1018 70 10000 7.2 190 12:33 01.11.2022
1215 Clouds 15 1019 73 10000 7.2 190 11:38 01.11.2022
1216 Clouds 14 1019 75 10000 6.69 190 11:20 01.11.2022
1217 Clear 11 1018 86 10000 5.66 190 08:51 01.11.2022
1218 Clouds 11 1017 84 10000 4.12 200 07:48 01.11.2022
1219 Clouds 11 1017 84 10000 4.12 200 07:27 01.11.2022
1220 Clear 11 1017 84 10000 5.14 200 06:45 01.11.2022
1221 Clouds 13 1014 77 10000 8.23 230 04:20 01.11.2022
1222 Clouds 17 1009 86 10000 7.72 170 22:35 31.10.2022
1223 Clouds 17 1009 91 10000 6.69 160 21:31 31.10.2022
1224 Rain 17 1010 92 10000 5.14 170 19:56 31.10.2022
1225 Rain 19 1009 78 10000 4.63 130 18:36 31.10.2022
1226 Clear 20 1010 73 10000 4.63 140 16:44 31.10.2022
1227 Clouds 20 1011 73 10000 6.69 170 15:30 31.10.2022
1228 Clear 18 1014 81 10000 3.6 110 12:21 31.10.2022
1229 Clear 14 1017 94 10000 3.6 80 09:35 31.10.2022
1230 Clear 13 1018 94 10000 2.06 60 05:52 31.10.2022
1231 Clear 12 1020 90 7000 1.03 360 02:42 31.10.2022
1232 Clear 13 1020 88 10000 2.06 50 01:46 31.10.2022
1233 Clear 15 1020 87 10000 1.03 0 22:19 30.10.2022
1234 Clear 15 1020 84 10000 1.54 230 20:38 30.10.2022
1235 Clouds 16 1020 82 10000 1.54 210 19:34 30.10.2022
1236 Clear 18 1018 72 10000 1.54 0 16:29 30.10.2022
1237 Clouds 18 1019 75 10000 5.14 290 14:34 30.10.2022
1238 Clouds 18 1018 75 10000 5.66 300 13:50 30.10.2022
1239 Clear 18 1017 73 10000 3.09 240 12:20 30.10.2022
1240 Clear 15 1016 84 10000 3.09 200 09:58 30.10.2022
1241 Clear 14 1016 88 10000 2.57 160 09:24 30.10.2022
1242 Clear 13 1016 89 10000 2.06 60 07:55 30.10.2022
1243 Clear 17 1017 73 10000 3.09 240 00:29 30.10.2022
1244 Clear 18 1017 71 10000 2.57 200 23:46 29.10.2022
1245 Clear 19 1017 66 10000 2.06 190 21:57 29.10.2022
1246 Clear 21 1016 68 10000 2.06 180 19:22 29.10.2022
1247 Clear 23 1015 60 10000 4.63 160 17:23 29.10.2022
1248 Clear 24 1016 55 10000 4.63 190 15:39 29.10.2022
1249 Clear 23 1016 57 10000 3.6 180 14:54 29.10.2022
1250 Clear 22 1016 62 10000 4.12 140 13:45 29.10.2022
1251 Clear 20 1017 69 10000 3.09 130 12:32 29.10.2022
1252 Clear 16 1017 85 10000 2.06 140 09:32 29.10.2022
1253 Clear 16 1018 86 10000 3.09 60 06:51 29.10.2022
1254 Clear 17 1018 87 10000 3.09 150 05:54 29.10.2022
1255 Clear 18 1021 87 10000 1.54 90 23:44 28.10.2022
1256 Clear 18 1021 84 10000 1.54 0 21:58 28.10.2022
1257 Clear 19 1021 85 10000 1.54 140 20:45 28.10.2022
1258 Clear 21 1020 75 10000 4.12 190 18:39 28.10.2022
1259 Clear 22 1020 73 10000 4.63 180 18:20 28.10.2022
1260 Clear 23 1019 67 10000 3.6 210 15:28 28.10.2022
1261 Clear 21 1019 68 10000 5.14 220 13:44 28.10.2022
1262 Clear 20 1019 69 10000 4.63 180 11:56 28.10.2022
1263 Clear 19 1018 71 10000 4.63 170 11:33 28.10.2022
1264 Clear 18 1018 73 10000 2.57 200 10:45 28.10.2022
1265 Clear 16 1017 79 10000 3.09 160 09:44 28.10.2022
1266 Clear 17 1016 80 10000 2.57 150 07:56 28.10.2022
1267 Clear 18 1017 78 10000 3.09 170 03:41 28.10.2022
1268 Clear 19 1017 75 10000 3.09 150 23:48 27.10.2022
1269 Clear 19 1017 75 10000 3.09 130 22:39 27.10.2022
1270 Clear 19 1017 76 10000 3.09 140 21:33 27.10.2022
1271 Clear 21 1018 72 10000 4.12 140 18:34 27.10.2022
1272 Clear 22 1018 67 10000 4.12 140 17:28 27.10.2022
1273 Clear 21 1018 71 10000 4.12 180 13:58 27.10.2022
1274 Clear 14 1018 89 10000 4.63 130 08:59 27.10.2022
1275 Clear 15 1019 89 10000 3.09 130 03:40 27.10.2022
1276 Clear 16 1020 85 10000 3.6 130 23:54 26.10.2022
1277 Clear 17 1020 82 10000 3.09 140 22:47 26.10.2022
1278 Clear 17 1020 80 10000 2.57 150 22:22 26.10.2022
1279 Clear 19 1019 74 10000 2.06 150 19:27 26.10.2022
1280 Clear 22 1018 65 10000 4.12 210 16:35 26.10.2022
1281 Clear 21 1018 69 10000 5.14 220 14:36 26.10.2022
1282 Clear 19 1017 76 10000 4.12 220 12:37 26.10.2022
1283 Clear 15 1015 91 10000 3.6 190 09:41 26.10.2022
1284 Clear 15 1014 90 10000 2.06 220 08:54 26.10.2022
1285 Clear 15 1014 89 10000 2.06 220 08:24 26.10.2022
1286 Rain 16 1011 90 10000 2.57 130 00:46 26.10.2022
1287 Rain 16 1011 89 10000 3.09 140 00:21 26.10.2022
1288 Clear 16 1011 86 10000 3.09 110 21:52 25.10.2022
1289 Rain 17 1012 84 10000 3.09 120 21:22 25.10.2022
1290 Clear 17 1012 84 10000 3.6 110 19:43 25.10.2022
1291 Clear 18 1013 81 10000 4.63 120 17:52 25.10.2022
1292 Clear 18 1015 77 10000 4.63 170 14:56 25.10.2022
1293 Clouds 16 1017 81 10000 3.6 230 11:39 25.10.2022
1294 Clouds 15 1017 91 10000 3.09 210 10:44 25.10.2022
1295 Clouds 14 1017 91 10000 3.09 210 10:25 25.10.2022
1296 Clouds 14 1016 93 10000 3.6 170 08:19 25.10.2022
1297 Clouds 14 1016 93 10000 3.6 170 07:54 25.10.2022
1298 Clouds 14 1016 93 10000 3.6 170 07:54 25.10.2022
1299 Clouds 14 1016 93 10000 2.57 180 06:59 25.10.2022
1300 Clear 14 1016 92 10000 3.09 200 04:26 25.10.2022
1301 Clouds 15 1014 88 10000 5.14 210 00:40 25.10.2022
1302 Clear 15 1014 88 10000 3.6 220 23:50 24.10.2022
1303 Clear 15 1013 83 10000 5.14 220 22:24 24.10.2022
1304 Clear 16 1013 83 10000 5.66 230 21:33 24.10.2022
1305 Clear 16 1012 86 10000 4.63 210 20:44 24.10.2022
1306 Clear 16 1012 86 10000 4.63 210 20:44 24.10.2022
1307 Clouds 17 1011 82 10000 6.17 210 18:53 24.10.2022
1308 Clouds 17 1011 79 10000 6.17 200 17:51 24.10.2022
1309 Clouds 18 1010 76 10000 7.72 210 16:54 24.10.2022
1310 Clouds 18 1011 77 10000 7.72 240 14:31 24.10.2022
1311 Clouds 18 1011 76 10000 8.23 210 13:41 24.10.2022
1312 Clouds 17 1010 81 10000 8.23 200 11:55 24.10.2022
1313 Clouds 15 1009 84 10000 8.23 190 08:51 24.10.2022
1314 Clouds 18 1006 67 10000 7.72 190 00:55 24.10.2022
1315 Clear 19 1005 69 10000 4.63 190 21:24 23.10.2022
1316 Clear 20 1004 66 10000 5.66 190 19:53 23.10.2022
1317 Clear 22 1003 63 10000 7.72 180 18:25 23.10.2022
1318 Clear 22 1002 65 10000 8.23 160 17:27 23.10.2022
1319 Clear 23 1004 64 10000 7.72 170 15:22 23.10.2022
1320 Clear 21 1005 71 10000 6.17 170 13:22 23.10.2022
1321 Clear 18 1006 86 10000 5.14 160 11:21 23.10.2022
1322 Clear 15 1007 91 10000 2.57 130 08:59 23.10.2022
1323 Clear 16 1012 86 10000 2.06 50 00:33 23.10.2022
1324 Clear 16 1013 85 10000 2.06 130 22:32 22.10.2022
1325 Clear 17 1013 84 10000 2.57 140 21:42 22.10.2022
1326 Clouds 17 1012 81 10000 3.09 140 20:55 22.10.2022
1327 Clear 18 1013 79 10000 3.09 120 19:46 22.10.2022
1328 Clear 19 1012 75 10000 2.57 130 19:27 22.10.2022
1329 Clear 21 1013 63 10000 4.63 170 17:37 22.10.2022
1330 Clouds 22 1013 63 10000 5.14 170 15:57 22.10.2022
1331 Clouds 20 1014 68 10000 4.63 210 14:44 22.10.2022
1332 Clouds 20 1014 71 10000 4.12 190 13:45 22.10.2022
1333 Clouds 15 1014 89 10000 3.6 190 10:26 22.10.2022
1334 Clouds 14 1013 91 10000 2.57 180 09:39 22.10.2022
1335 Clouds 14 1013 90 10000 4.12 170 08:29 22.10.2022
1336 Clear 14 1011 88 10000 5.14 180 03:42 22.10.2022
1337 Clear 15 1009 87 10000 3.09 190 23:53 21.10.2022
1338 Clear 16 1008 85 10000 4.12 150 21:35 21.10.2022
1339 Clear 17 1008 85 10000 3.6 140 20:59 21.10.2022
1340 Clear 18 1008 79 10000 2.57 170 19:36 21.10.2022
1341 Clear 20 1008 67 10000 6.17 220 16:51 21.10.2022
1342 Clouds 20 1008 69 10000 5.66 190 14:23 21.10.2022
1343 Clouds 19 1008 89 10000 5.14 170 12:59 21.10.2022
1344 Clouds 17 1008 95 10000 4.12 180 11:33 21.10.2022
1345 Clouds 15 1008 96 10000 3.6 150 10:20 21.10.2022
1346 Rain 16 1007 96 10000 3.09 210 08:39 21.10.2022
1347 Rain 15 1006 96 10000 2.57 170 07:47 21.10.2022
1348 Clear 15 1007 92 10000 4.12 140 02:29 21.10.2022
1349 Clouds 16 1007 93 10000 4.12 150 22:26 20.10.2022
1350 Clouds 17 1007 91 10000 2.06 110 20:48 20.10.2022
1351 Rain 20 1008 84 10000 6.69 160 19:40 20.10.2022
1352 Clouds 22 1008 71 10000 4.12 170 17:54 20.10.2022
1353 Clouds 22 1008 70 10000 4.12 170 17:33 20.10.2022
1354 Clouds 20 1010 74 10000 5.14 190 13:32 20.10.2022
1355 Clouds 19 1011 84 10000 5.66 180 12:30 20.10.2022
1356 Clouds 17 1011 92 10000 4.63 170 11:25 20.10.2022
1357 Clear 17 1011 93 10000 4.63 180 10:51 20.10.2022
1358 Clouds 16 1010 95 10000 3.6 200 08:42 20.10.2022
1359 Rain 17 1011 89 10000 6.69 250 05:47 20.10.2022
1360 Clear 16 1012 94 10000 4.12 140 01:54 20.10.2022
1361 Clear 17 1013 91 10000 3.6 110 22:47 19.10.2022
1362 Clear 17 1014 91 10000 3.6 120 21:59 19.10.2022
1363 Clear 18 1014 90 10000 3.6 90 21:20 19.10.2022
1364 Clear 19 1014 87 10000 4.63 100 19:42 19.10.2022
1365 Clear 21 1015 79 10000 5.66 90 17:40 19.10.2022
1366 Clear 21 1015 75 10000 6.69 90 16:22 19.10.2022
1367 Clear 20 1018 81 10000 6.69 80 13:53 19.10.2022
1368 Clouds 15 1020 94 10000 4.63 70 10:23 19.10.2022
1369 Clouds 14 1020 95 10000 4.12 70 08:37 19.10.2022
1370 Clear 14 1021 95 10000 4.12 60 07:21 19.10.2022
1371 Clear 15 1024 96 10000 4.12 80 01:29 19.10.2022
1372 Clear 16 1025 95 10000 3.09 80 23:22 18.10.2022
1373 Clear 17 1025 94 10000 3.6 80 21:49 18.10.2022
1374 Clear 17 1025 93 10000 3.6 70 21:18 18.10.2022
1375 Clear 17 1026 91 10000 2.57 50 20:24 18.10.2022
1376 Clear 19 1025 85 10000 4.12 60 18:32 18.10.2022
1377 Clouds 19 1026 85 10000 2.06 70 16:56 18.10.2022
1378 Clouds 19 1026 86 10000 3.6 120 14:59 18.10.2022
1379 Clouds 18 1027 91 10000 3.09 100 13:38 18.10.2022
1380 Clouds 17 1027 95 10000 3.6 70 11:39 18.10.2022
1381 Clouds 16 1027 97 10000 2.06 80 10:27 18.10.2022
1382 Fog 16 1026 97 7000 2.06 120 08:40 18.10.2022
1383 Mist 16 1025 96 4400 1.03 40 05:45 18.10.2022
1384 Clouds 17 1024 97 10000 2.57 140 23:25 17.10.2022
1385 Rain 17 1024 96 7000 3.09 150 21:31 17.10.2022
1386 Drizzle 17 1023 95 10000 1.54 80 20:47 17.10.2022
1387 Drizzle 17 1023 96 10000 1.54 80 20:27 17.10.2022
1388 Rain 17 1023 97 10000 2.57 130 19:41 17.10.2022
1389 Rain 18 1023 95 10000 2.57 140 17:40 17.10.2022
1390 Rain 18 1022 95 9000 2.57 180 15:55 17.10.2022
1391 Rain 18 1022 94 10000 4.12 180 15:20 17.10.2022
1392 Rain 18 1021 92 10000 5.14 210 12:48 17.10.2022
1393 Clear 17 1017 88 10000 3.6 180 08:52 17.10.2022
1394 Clear 18 1015 90 10000 2.06 160 01:25 17.10.2022
1395 Clear 18 1014 92 10000 1.54 0 22:54 16.10.2022
1396 Clear 18 1013 91 10000 2.57 110 21:22 16.10.2022
1397 Clouds 19 1013 88 10000 2.57 70 19:51 16.10.2022
1398 Clouds 19 1013 86 10000 2.06 60 19:27 16.10.2022
1399 Clouds 20 1013 81 10000 3.09 130 17:45 16.10.2022
1400 Clouds 20 1013 80 10000 4.12 150 16:29 16.10.2022
1401 Clouds 20 1013 79 10000 4.12 160 15:55 16.10.2022
1402 Clouds 18 1015 83 10000 3.09 140 12:29 16.10.2022
1403 Clear 16 1015 89 10000 2.57 160 11:38 16.10.2022
1404 Clear 15 1015 92 10000 2.57 180 10:26 16.10.2022
1405 Clouds 15 1013 91 10000 2.57 190 07:20 16.10.2022
1406 Clear 15 1011 89 10000 5.14 190 23:43 15.10.2022
1407 Clouds 16 1010 86 10000 3.09 200 21:54 15.10.2022
1408 Clear 16 1010 85 10000 3.09 190 21:19 15.10.2022
1409 Clouds 16 1010 74 10000 2.57 200 19:34 15.10.2022
1410 Clear 18 1009 66 10000 6.17 240 17:24 15.10.2022
1411 Clear 18 1009 66 10000 6.17 240 17:24 15.10.2022
1412 Clouds 18 1009 77 10000 6.17 260 15:45 15.10.2022
1413 Clouds 18 1009 84 10000 7.2 230 13:37 15.10.2022
1414 Clouds 18 1008 92 10000 5.14 230 11:50 15.10.2022
1415 Mist 17 1007 96 10000 5.14 210 09:57 15.10.2022
1416 Drizzle 16 1006 96 10000 5.66 210 07:55 15.10.2022
1417 Clouds 15 1010 93 10000 4.12 250 00:41 15.10.2022
1418 Clouds 16 1010 95 10000 6.69 280 22:59 14.10.2022
1419 Clouds 16 1009 94 10000 7.2 280 22:22 14.10.2022
1420 Rain 17 1008 96 5000 6.17 240 21:24 14.10.2022
1421 Drizzle 17 1008 96 10000 3.6 250 19:22 14.10.2022
1422 Mist 15 1010 96 3000 3.6 140 16:23 14.10.2022
1423 Clouds 15 1013 92 10000 3.6 200 13:21 14.10.2022
1424 Rain 15 1014 93 10000 4.12 220 11:36 14.10.2022
1425 Mist 15 1013 95 10000 3.09 230 08:59 14.10.2022
1426 Clouds 15 1013 94 10000 3.6 270 06:54 14.10.2022
1427 Drizzle 15 1013 97 7000 3.09 270 06:18 14.10.2022
1428 Mist 15 1013 97 5000 2.57 250 05:42 14.10.2022
1429 Mist 15 1014 96 5000 2.57 140 03:24 14.10.2022
1430 Clouds 15 1016 96 9000 3.09 180 23:49 13.10.2022
1431 Mist 15 1016 94 10000 3.6 160 22:21 13.10.2022
1432 Clouds 15 1016 95 10000 3.6 180 21:21 13.10.2022
1433 Drizzle 14 1016 95 10000 4.12 170 19:43 13.10.2022
1434 Mist 14 1016 95 4400 4.12 180 19:18 13.10.2022
1435 Drizzle 15 1016 94 4400 4.63 200 18:41 13.10.2022
1436 Mist 15 1017 93 10000 4.63 180 16:31 13.10.2022
1437 Mist 15 1017 93 4000 4.63 180 15:43 13.10.2022
1438 Rain 15 1018 86 10000 5.14 200 14:18 13.10.2022
1439 Clouds 15 1019 83 10000 4.63 210 12:45 13.10.2022
1440 Clouds 14 1019 84 10000 4.12 230 11:34 13.10.2022
1441 Rain 13 1019 86 10000 4.63 210 09:37 13.10.2022
1442 Clouds 13 1019 88 10000 2.57 200 07:39 13.10.2022
1443 Clear 13 1019 87 10000 2.06 180 06:29 13.10.2022
1444 Clear 14 1021 79 10000 1.54 240 01:48 13.10.2022
1445 Clouds 14 1021 80 10000 1.03 40 00:53 13.10.2022
1446 Clouds 14 1021 77 10000 1.54 0 22:46 12.10.2022
1447 Clouds 14 1022 77 10000 1.54 210 21:55 12.10.2022
1448 Clear 14 1022 77 10000 1.54 200 21:21 12.10.2022
1449 Clear 15 1021 73 10000 1.54 200 20:52 12.10.2022
1450 Clouds 17 1021 68 10000 2.06 230 19:29 12.10.2022
1451 Clouds 18 1021 63 10000 1.54 0 18:21 12.10.2022
1452 Clouds 19 1021 61 10000 2.57 230 17:47 12.10.2022
1453 Clouds 19 1022 61 10000 1.54 0 15:40 12.10.2022
1454 Clouds 18 1023 68 10000 1.54 210 13:56 12.10.2022
1455 Clear 16 1023 74 10000 1.54 200 12:46 12.10.2022
1456 Clear 8 1024 90 10000 1.54 340 09:40 12.10.2022
1457 Clear 8 1023 89 10000 1.54 360 07:42 12.10.2022
1458 Clear 8 1023 89 10000 2.06 360 06:55 12.10.2022
1459 Clear 8 1023 87 10000 1.54 360 06:37 12.10.2022
1460 Clear 11 1024 79 10000 1.54 30 00:58 12.10.2022
1461 Clear 13 1024 72 10000 2.57 30 22:18 11.10.2022
1462 Clear 14 1024 71 10000 2.57 20 20:39 11.10.2022
1463 Clear 17 1024 62 10000 3.09 20 18:46 11.10.2022
1464 Clear 18 1024 59 10000 3.09 30 16:38 11.10.2022
1465 Clear 17 1025 62 10000 4.12 20 14:35 11.10.2022
1466 Clear 15 1025 67 10000 3.6 20 12:53 11.10.2022
1467 Clear 11 1025 79 10000 4.12 30 10:29 11.10.2022
1468 Clear 10 1025 82 10000 4.12 360 09:30 11.10.2022
1469 Clouds 10 1024 83 10000 5.14 30 06:46 11.10.2022
1470 Clear 13 1024 83 10000 4.63 30 02:26 11.10.2022
1471 Clouds 14 1023 83 10000 4.63 360 00:31 11.10.2022
1472 Clouds 17 1021 79 10000 5.66 30 21:37 10.10.2022
1473 Clouds 18 1019 79 10000 1.54 0 19:56 10.10.2022
1474 Clouds 19 1018 75 10000 3.09 300 18:36 10.10.2022
1475 Clouds 19 1017 74 10000 3.6 240 17:21 10.10.2022
1476 Clouds 19 1017 76 10000 4.63 260 15:44 10.10.2022
1477 Clear 16 1016 82 10000 4.12 240 12:54 10.10.2022
1478 Clear 16 1015 82 10000 3.6 170 11:56 10.10.2022
1479 Clear 12 1014 90 10000 2.57 190 09:21 10.10.2022
1480 Clear 11 1014 88 10000 2.06 70 05:43 10.10.2022
1481 Clear 11 1014 87 10000 2.57 70 05:21 10.10.2022
1482 Clear 13 1014 78 10000 2.06 70 00:34 10.10.2022
1483 Clear 13 1014 76 10000 2.57 150 23:31 09.10.2022
1484 Clear 13 1014 73 10000 3.09 140 22:20 09.10.2022
1485 Clear 14 1015 71 10000 2.06 140 21:26 09.10.2022
1486 Clear 15 1015 68 10000 2.57 80 20:30 09.10.2022
1487 Clear 16 1015 67 10000 2.57 100 19:47 09.10.2022
1488 Clear 19 1015 57 10000 4.63 140 18:45 09.10.2022
1489 Clear 19 1015 54 10000 5.66 120 17:32 09.10.2022
1490 Clear 20 1016 52 10000 5.14 110 16:39 09.10.2022
1491 Clear 20 1016 51 10000 4.63 120 15:51 09.10.2022
1492 Clear 18 1018 56 10000 5.14 140 14:37 09.10.2022
1493 Clear 18 1018 58 10000 4.12 150 13:51 09.10.2022
1494 Clear 15 1019 65 10000 4.12 130 12:46 09.10.2022
1495 Clear 11 1021 77 10000 3.09 110 10:54 09.10.2022
1496 Clear 6 1021 87 10000 2.57 360 08:32 09.10.2022
1497 Clear 7 1023 83 10000 2.57 70 04:28 09.10.2022
1498 Clear 8 1024 80 10000 2.06 70 03:20 09.10.2022
1499 Clear 10 1025 75 10000 3.09 60 00:40 09.10.2022
1500 Clear 11 1025 72 10000 2.57 70 23:32 08.10.2022
1501 Clear 12 1025 69 10000 2.57 60 22:35 08.10.2022
1502 Clear 14 1024 58 10000 2.06 10 20:33 08.10.2022
1503 Clear 16 1024 52 10000 2.06 10 19:37 08.10.2022
1504 Clear 18 1024 50 10000 2.57 260 17:39 08.10.2022
1505 Clear 18 1024 51 10000 3.09 360 15:35 08.10.2022
1506 Clouds 17 1025 62 10000 3.6 350 13:33 08.10.2022
1507 Clouds 15 1024 84 10000 2.57 310 11:24 08.10.2022
1508 Clear 12 1024 90 10000 4.12 310 10:33 08.10.2022
1509 Clear 11 1023 92 10000 3.6 310 09:25 08.10.2022
1510 Clouds 11 1022 89 10000 5.14 300 07:25 08.10.2022
1511 Clear 11 1021 80 10000 2.57 270 02:34 08.10.2022
1512 Clear 12 1021 75 10000 3.09 270 23:49 07.10.2022
1513 Clear 12 1021 72 10000 3.09 270 23:20 07.10.2022
1514 Clear 13 1021 68 10000 2.57 270 22:19 07.10.2022
1515 Clear 15 1020 57 10000 2.06 270 20:35 07.10.2022
1516 Clear 19 1020 46 10000 3.09 260 18:29 07.10.2022
1517 Clear 20 1020 45 10000 3.09 260 16:58 07.10.2022
1518 Clear 19 1021 47 10000 3.6 240 15:47 07.10.2022
1519 Clear 18 1023 52 10000 2.57 0 14:23 07.10.2022
1520 Clear 15 1024 69 10000 1.54 140 11:48 07.10.2022
1521 Fog 9 1026 95 10000 1.54 40 09:26 07.10.2022
1522 Fog 7 1026 91 10000 1.54 30 08:47 07.10.2022
1523 Clear 8 1026 91 10000 1.54 360 05:51 07.10.2022
1524 Clear 11 1029 81 10000 1.54 360 00:28 07.10.2022
1525 Clear 12 1030 76 10000 2.06 360 22:50 06.10.2022
1526 Clear 13 1030 68 10000 2.06 340 21:42 06.10.2022
1527 Clear 13 1030 68 10000 2.06 340 21:21 06.10.2022
1528 Clear 17 1030 58 10000 1.03 0 19:50 06.10.2022
1529 Clear 19 1030 47 10000 1.03 0 18:37 06.10.2022
1530 Clear 19 1030 48 10000 2.06 340 17:26 06.10.2022
1531 Clouds 18 1031 56 10000 3.09 210 14:19 06.10.2022
1532 Clear 15 1032 77 10000 4.12 310 11:24 06.10.2022
1533 Clear 10 1030 89 10000 2.06 220 06:53 06.10.2022
1534 Clear 13 1028 84 10000 3.6 280 03:29 06.10.2022
1535 Clouds 15 1024 84 10000 5.66 290 22:55 05.10.2022
1536 Clouds 20 1019 73 10000 5.14 200 19:58 05.10.2022
1537 Clouds 20 1018 67 10000 6.69 210 18:42 05.10.2022
1538 Clouds 21 1018 64 10000 6.69 240 17:34 05.10.2022
1539 Clouds 21 1018 62 10000 8.75 230 15:54 05.10.2022
1540 Clouds 20 1018 64 10000 7.72 220 14:47 05.10.2022
1541 Clouds 19 1018 69 10000 7.72 200 13:55 05.10.2022
1542 Clouds 17 1018 79 10000 7.72 210 12:20 05.10.2022
1543 Clear 12 1018 92 10000 5.14 170 08:53 05.10.2022
1544 Clouds 12 1018 91 10000 4.12 160 07:35 05.10.2022
1545 Clouds 13 1019 90 10000 4.12 160 05:36 05.10.2022
1546 Clouds 13 1019 92 10000 2.57 190 03:32 05.10.2022
1547 Clouds 15 1020 88 10000 2.06 190 00:45 05.10.2022
1548 Clouds 15 1020 87 10000 2.06 190 00:24 05.10.2022
1549 Clouds 16 1021 82 10000 2.06 190 22:22 04.10.2022
1550 Clouds 17 1020 78 10000 2.57 170 20:32 04.10.2022
1551 Clouds 18 1020 72 10000 4.12 160 18:58 04.10.2022
1552 Clouds 18 1020 72 10000 4.12 160 18:58 04.10.2022
1553 Clear 19 1020 69 10000 4.12 170 18:36 04.10.2022
1554 Clear 20 1020 67 10000 3.09 170 17:44 04.10.2022
1555 Clear 19 1020 67 10000 3.09 160 16:33 04.10.2022
1556 Mist 16 1021 83 8000 2.57 120 12:56 04.10.2022
1557 Fog 7 1022 100 10000 1.03 10 09:45 04.10.2022
1558 Fog 8 1021 97 7000 1.54 350 07:23 04.10.2022
1559 Fog 9 1023 96 6000 1.54 360 02:19 04.10.2022
1560 Clear 10 1025 94 10000 1.54 350 23:40 03.10.2022
1561 Clear 10 1025 94 10000 1.54 350 23:40 03.10.2022
1562 Clear 10 1025 95 10000 1.54 350 23:40 03.10.2022
1563 Clear 11 1025 91 10000 1.54 10 21:52 03.10.2022
1564 Clear 11 1025 91 10000 1.03 60 21:23 03.10.2022
1565 Clear 13 1025 78 10000 2.06 160 19:52 03.10.2022
1566 Clouds 14 1026 77 10000 3.6 100 17:59 03.10.2022
1567 Clouds 15 1026 75 10000 4.12 90 17:18 03.10.2022
1568 Clouds 14 1027 82 10000 4.12 150 15:47 03.10.2022
1569 Clouds 12 1028 92 10000 2.06 100 13:51 03.10.2022
1570 Mist 12 1028 96 10000 2.57 80 12:28 03.10.2022
1571 Mist 11 1028 97 5000 2.57 100 10:39 03.10.2022
1572 Mist 10 1027 97 2000 3.6 120 09:38 03.10.2022
1573 Fog 10 1027 97 800 2.57 80 06:35 03.10.2022
1574 Fog 11 1027 95 600 1.54 90 02:53 03.10.2022
1575 Clear 14 1025 92 10000 2.57 40 22:35 02.10.2022
1576 Clouds 14 1024 92 10000 2.57 10 20:52 02.10.2022
1577 Drizzle 15 1022 91 10000 3.09 360 18:47 02.10.2022
1578 Clouds 15 1022 91 10000 4.12 360 17:53 02.10.2022
1579 Rain 18 1020 86 10000 6.17 270 16:44 02.10.2022
1580 Mist 18 1020 85 5000 6.69 250 16:18 02.10.2022
1581 Rain 19 1020 87 10000 5.66 240 14:53 02.10.2022
1582 Clouds 20 1019 76 10000 6.17 240 13:45 02.10.2022
1583 Clouds 19 1019 83 10000 6.17 230 12:30 02.10.2022
1584 Clouds 18 1019 85 10000 6.17 240 11:41 02.10.2022
1585 Clouds 18 1019 85 10000 6.17 240 11:21 02.10.2022
1586 Clouds 17 1019 92 10000 5.66 230 09:29 02.10.2022
1587 Clouds 16 1019 93 10000 3.6 210 08:23 02.10.2022
1588 Rain 16 1019 90 7000 3.6 220 03:52 02.10.2022
1589 Clouds 16 1019 78 10000 3.09 230 00:51 02.10.2022
1590 Clouds 16 1019 79 10000 3.09 250 00:32 02.10.2022
1591 Clear 15 1018 76 10000 2.57 240 22:53 01.10.2022
1592 Clear 17 1017 70 10000 4.12 260 20:55 01.10.2022
1593 Clear 20 1014 62 10000 7.2 260 18:53 01.10.2022
1594 Clouds 21 1014 58 10000 6.69 260 17:22 01.10.2022
1595 Clouds 19 1012 67 10000 6.69 260 14:43 01.10.2022
1596 Clouds 18 1012 74 10000 7.72 270 13:43 01.10.2022
1597 Clouds 17 1011 81 10000 6.17 260 12:33 01.10.2022
1598 Clouds 16 1010 87 10000 5.66 240 11:21 01.10.2022
1599 Clear 16 1010 88 10000 5.66 240 10:44 01.10.2022
1600 Clear 15 1010 88 10000 5.66 240 10:25 01.10.2022
1601 Clear 15 1009 91 10000 6.17 230 09:18 01.10.2022
1602 Clouds 15 1008 94 10000 5.14 240 08:19 01.10.2022
1603 Rain 13 1007 93 10000 8.75 210 03:39 01.10.2022
1604 Rain 12 1009 92 10000 6.69 180 01:31 01.10.2022
1605 Rain 13 1010 79 10000 5.14 190 23:21 30.09.2022
1606 Clear 15 1011 68 10000 6.17 200 21:57 30.09.2022
1607 Clear 15 1011 66 10000 3.6 220 20:45 30.09.2022
1608 Clear 15 1011 63 10000 6.69 200 20:20 30.09.2022
1609 Clear 17 1011 54 10000 6.17 230 17:59 30.09.2022
1610 Clear 18 1011 53 10000 5.14 210 16:32 30.09.2022
1611 Clouds 17 1012 57 10000 4.63 200 14:23 30.09.2022
1612 Clear 15 1012 68 10000 2.57 230 12:29 30.09.2022
1613 Clear 14 1012 74 10000 2.57 240 11:55 30.09.2022
1614 Clear 7 1012 95 10000 1.03 40 08:57 30.09.2022
1615 Clear 7 1010 93 10000 2.06 330 06:38 30.09.2022
1616 Clear 7 1009 93 10000 1.54 350 03:19 30.09.2022
1617 Clear 7 1009 95 10000 2.06 330 01:23 30.09.2022
1618 Clouds 11 1006 83 10000 0.51 30 21:39 29.09.2022
1619 Clouds 11 1006 84 10000 0.51 30 21:19 29.09.2022
1620 Clear 14 1004 69 10000 2.57 90 18:56 29.09.2022
1621 Clear 15 1003 69 10000 2.57 70 17:49 29.09.2022
1622 Clouds 13 1003 78 10000 2.57 340 16:29 29.09.2022
1623 Clouds 13 1003 82 10000 1.54 90 15:37 29.09.2022
1624 Clouds 13 1003 83 10000 3.6 80 14:59 29.09.2022
1625 Clouds 13 1002 83 10000 3.09 40 12:39 29.09.2022
1626 Clouds 10 1000 92 10000 2.06 240 08:45 29.09.2022
1627 Clear 10 1000 92 10000 1.54 250 04:46 29.09.2022
1628 Clear 10 1000 92 10000 3.09 240 02:36 29.09.2022
1629 Clear 11 1001 87 10000 2.57 250 23:26 28.09.2022
1630 Clouds 11 1001 85 10000 2.06 240 21:40 28.09.2022
1631 Clouds 11 1001 85 10000 2.06 240 21:22 28.09.2022
1632 Clouds 12 1001 81 10000 2.57 250 19:56 28.09.2022
1633 Clouds 13 1000 75 10000 5.66 310 16:46 28.09.2022
1634 Clouds 15 1001 65 10000 4.63 280 14:19 28.09.2022
1635 Clouds 13 1001 79 10000 3.09 300 11:49 28.09.2022
1636 Clear 11 1000 93 10000 3.09 300 09:49 28.09.2022
1637 Clouds 11 999 95 10000 3.09 310 07:52 28.09.2022
1638 Clouds 11 999 95 10000 3.6 290 05:48 28.09.2022
1639 Rain 13 1000 90 5000 5.14 280 01:47 28.09.2022
1640 Drizzle 13 1000 91 10000 4.63 270 01:25 28.09.2022
1641 Clouds 13 1000 90 10000 5.14 240 22:49 27.09.2022
1642 Clouds 13 1001 87 10000 6.17 240 21:20 27.09.2022
1643 Clouds 13 1001 84 10000 5.14 230 20:35 27.09.2022
1644 Clouds 13 1002 84 10000 5.66 250 19:45 27.09.2022
1645 Clouds 14 1002 89 10000 4.12 250 17:54 27.09.2022
1646 Clouds 14 1003 89 10000 4.12 250 17:29 27.09.2022
1647 Clouds 13 1004 87 10000 7.2 250 15:23 27.09.2022
1648 Clouds 12 1004 89 10000 6.69 230 14:24 27.09.2022
1649 Clouds 13 1005 84 10000 6.17 250 12:39 27.09.2022
1650 Clouds 13 1005 84 10000 6.17 250 12:39 27.09.2022
1651 Clouds 12 1005 87 10000 5.14 250 10:49 27.09.2022
1652 Clouds 11 1004 91 10000 4.12 240 08:42 27.09.2022
1653 Clouds 10 1004 91 10000 5.14 250 05:49 27.09.2022
1654 Clouds 11 1004 89 10000 4.63 280 01:43 27.09.2022
1655 Clouds 11 1004 89 10000 5.66 290 00:32 27.09.2022
1656 Clear 12 1003 88 10000 5.14 280 23:25 26.09.2022
1657 Rain 12 1003 87 10000 4.63 280 22:19 26.09.2022
1658 Clouds 13 1002 89 10000 4.63 270 20:27 26.09.2022
1659 Clouds 13 1001 91 10000 4.63 230 19:24 26.09.2022
1660 Clouds 13 1001 92 10000 5.14 240 18:30 26.09.2022
1661 Clouds 12 1002 95 10000 6.17 220 15:52 26.09.2022
1662 Clouds 14 1004 74 10000 7.72 220 13:28 26.09.2022
1663 Clear 14 1006 68 10000 7.2 210 11:29 26.09.2022
1664 Clouds 13 1007 74 10000 6.69 220 10:37 26.09.2022
1665 Clouds 13 1007 74 10000 6.69 220 10:19 26.09.2022
1666 Clouds 12 1008 76 10000 6.17 230 09:53 26.09.2022
1667 Clouds 12 1008 79 10000 4.12 240 09:22 26.09.2022
1668 Clear 11 1010 81 10000 3.6 220 06:28 26.09.2022
1669 Clear 12 1014 80 10000 2.57 230 02:44 26.09.2022
1670 Clear 13 1015 75 10000 2.57 310 23:29 25.09.2022
1671 Clear 14 1016 73 10000 3.09 320 21:54 25.09.2022
1672 Clouds 14 1016 72 10000 3.09 330 21:34 25.09.2022
1673 Clouds 15 1015 74 10000 3.09 340 20:44 25.09.2022
1674 Clear 16 1015 69 10000 6.17 360 19:32 25.09.2022
1675 Clouds 17 1015 60 10000 5.14 310 18:35 25.09.2022
1676 Clouds 18 1015 54 10000 5.14 330 17:52 25.09.2022
1677 Clear 19 1015 47 10000 4.12 360 16:22 25.09.2022
1678 Clear 19 1016 48 10000 5.14 10 15:43 25.09.2022
1679 Clouds 18 1016 51 10000 5.14 20 14:21 25.09.2022
1680 Clear 16 1016 60 10000 5.14 50 12:49 25.09.2022
1681 Clear 13 1016 82 10000 5.66 20 10:26 25.09.2022
1682 Clear 12 1016 87 10000 5.14 30 08:23 25.09.2022
1683 Clouds 13 1015 87 10000 4.12 10 05:36 25.09.2022
1684 Clear 14 1015 82 10000 5.66 40 00:39 25.09.2022
1685 Clear 15 1014 85 10000 4.12 30 22:35 24.09.2022
1686 Clouds 15 1013 86 10000 4.12 10 20:54 24.09.2022
1687 Clouds 16 1013 82 10000 4.63 350 19:22 24.09.2022
1688 Clouds 17 1013 77 10000 4.12 270 17:19 24.09.2022
1689 Clouds 17 1012 75 10000 3.6 250 16:24 24.09.2022
1690 Clouds 17 1012 77 10000 2.06 230 15:19 24.09.2022
1691 Clouds 15 1013 86 10000 2.57 220 13:23 24.09.2022
1692 Clouds 14 1013 90 10000 1.03 0 12:49 24.09.2022
1693 Rain 13 1013 92 10000 1.54 260 10:38 24.09.2022
1694 Mist 13 1012 93 10000 2.06 250 09:35 24.09.2022
1695 Mist 13 1012 93 10000 2.06 320 08:43 24.09.2022
1696 Clear 13 1012 91 10000 2.06 260 06:53 24.09.2022
1697 Rain 14 1012 86 10000 1.54 220 04:35 24.09.2022
1698 Clear 15 1013 78 10000 2.06 310 02:19 24.09.2022
1699 Clear 16 1014 63 10000 2.57 150 22:28 23.09.2022
1700 Clear 17 1014 60 10000 1.54 0 21:27 23.09.2022
1701 Clear 17 1014 60 10000 2.06 110 20:55 23.09.2022
1702 Clear 18 1014 56 10000 2.06 100 20:19 23.09.2022
1703 Clear 20 1014 48 10000 2.06 130 18:26 23.09.2022
1704 Clear 19 1016 53 10000 1.03 0 13:45 23.09.2022
1705 Clear 14 1017 72 10000 1.54 0 10:27 23.09.2022
1706 Clear 12 1017 76 10000 1.03 190 09:29 23.09.2022
1707 Clear 11 1017 76 10000 1.54 350 04:59 23.09.2022
1708 Clear 14 1019 61 10000 2.06 20 23:31 22.09.2022
1709 Clear 15 1019 57 10000 0 0 22:41 22.09.2022
1710 Clear 15 1019 57 10000 0 0 22:19 22.09.2022
1711 Clear 17 1019 49 10000 1.54 30 20:46 22.09.2022
1712 Clear 20 1018 41 10000 1.54 0 19:27 22.09.2022
1713 Clear 21 1019 40 10000 2.06 50 16:57 22.09.2022
1714 Clear 16 1022 58 10000 2.06 70 11:58 22.09.2022
1715 Clear 13 1022 68 10000 2.06 80 10:20 22.09.2022
1716 Clear 9 1022 85 10000 2.06 40 08:46 22.09.2022
1717 Clear 9 1022 83 10000 1.54 50 06:42 22.09.2022
1718 Clear 11 1023 74 10000 1.54 350 02:52 22.09.2022
1719 Clear 13 1024 66 10000 2.57 50 23:25 21.09.2022
1720 Clear 15 1024 59 10000 3.6 60 21:41 21.09.2022
1721 Clear 17 1023 52 10000 4.12 50 19:55 21.09.2022
1722 Clear 19 1023 44 10000 4.63 70 17:48 21.09.2022
1723 Clear 19 1023 46 10000 4.63 40 16:51 21.09.2022
1724 Clouds 18 1024 52 10000 4.12 10 14:31 21.09.2022
1725 Clouds 17 1025 58 10000 5.14 30 12:54 21.09.2022
1726 Clear 15 1025 70 10000 4.12 50 11:29 21.09.2022
1727 Clear 12 1026 84 10000 3.09 40 09:55 21.09.2022
1728 Clear 11 1026 87 10000 3.09 30 09:21 21.09.2022
1729 Clear 9 1025 88 10000 2.06 20 07:41 21.09.2022
1730 Clear 11 1025 81 10000 3.6 30 02:48 21.09.2022
1731 Clear 11 1025 81 10000 3.6 30 02:28 21.09.2022
1732 Clear 12 1025 80 10000 2.06 360 00:34 21.09.2022
1733 Clear 13 1025 78 10000 2.57 20 23:18 20.09.2022
1734 Clear 16 1024 68 10000 2.57 30 20:52 20.09.2022
1735 Clear 17 1024 64 10000 3.09 30 19:37 20.09.2022
1736 Clouds 17 1025 58 10000 1.54 0 16:28 20.09.2022
1737 Clouds 17 1025 58 10000 2.57 340 14:46 20.09.2022
1738 Clouds 16 1025 60 10000 2.06 350 13:48 20.09.2022
1739 Clouds 11 1025 78 10000 2.57 340 10:33 20.09.2022
1740 Clear 9 1025 86 10000 1.54 360 08:28 20.09.2022
1741 Clear 9 1024 81 10000 3.09 350 05:48 20.09.2022
1742 Clear 9 1024 78 10000 2.57 20 04:27 20.09.2022
1743 Clear 13 1024 65 10000 3.09 350 23:32 19.09.2022
1744 Clear 13 1024 60 10000 3.6 340 22:23 19.09.2022
1745 Clear 15 1023 57 10000 4.12 330 20:57 19.09.2022
1746 Clear 15 1023 56 10000 3.6 340 20:38 19.09.2022
1747 Clear 18 1022 47 10000 4.63 320 17:55 19.09.2022
1748 Clear 19 1023 45 10000 4.63 30 15:53 19.09.2022
1749 Clouds 17 1024 52 10000 3.09 350 13:35 19.09.2022
1750 Clear 16 1024 62 10000 3.6 330 11:29 19.09.2022
1751 Clear 10 1023 86 10000 2.57 350 09:20 19.09.2022
1752 Clear 10 1022 87 10000 2.57 340 08:19 19.09.2022
1753 Clouds 12 1021 73 10000 2.57 310 02:18 19.09.2022
1754 Clear 12 1021 69 10000 2.57 330 23:24 18.09.2022
1755 Clear 14 1021 62 10000 3.6 330 21:47 18.09.2022
1756 Clear 15 1020 58 10000 6.17 340 20:34 18.09.2022
1757 Clear 19 1019 48 10000 6.17 330 18:41 18.09.2022
1758 Clear 19 1019 48 10000 6.69 290 17:43 18.09.2022
1759 Clear 19 1020 49 10000 6.69 300 15:56 18.09.2022
1760 Clear 18 1021 51 10000 6.17 290 14:30 18.09.2022
1761 Clouds 18 1021 53 10000 5.66 310 12:55 18.09.2022
1762 Clear 15 1021 67 10000 3.6 240 11:46 18.09.2022
1763 Clear 8 1021 83 10000 1.54 260 06:45 18.09.2022
1764 Clear 10 1022 73 10000 3.09 280 01:32 18.09.2022
1765 Clear 11 1022 70 10000 2.57 290 00:48 18.09.2022
1766 Clear 12 1022 63 10000 2.57 330 22:24 17.09.2022
1767 Clear 14 1021 56 10000 4.63 350 20:50 17.09.2022
1768 Clear 16 1021 47 10000 5.14 320 19:28 17.09.2022
1769 Clear 17 1020 43 10000 6.17 320 17:21 17.09.2022
1770 Clear 16 1021 48 10000 5.66 300 14:18 17.09.2022
1771 Clouds 15 1021 59 10000 5.66 10 12:33 17.09.2022
1772 Clear 13 1021 70 10000 3.6 320 10:48 17.09.2022
1773 Clear 9 1020 82 10000 3.6 300 06:31 17.09.2022
1774 Clear 10 1020 80 10000 2.57 300 03:55 17.09.2022
1775 Clear 12 1019 71 10000 6.17 10 23:36 16.09.2022
1776 Clear 13 1017 65 10000 4.12 10 21:47 16.09.2022
1777 Clouds 14 1017 64 10000 7.2 350 20:42 16.09.2022
1778 Clear 17 1015 53 10000 5.14 340 18:29 16.09.2022
1779 Clouds 18 1015 54 10000 5.14 330 16:22 16.09.2022
1780 Clear 18 1015 51 10000 4.12 350 14:50 16.09.2022
1781 Clear 17 1015 57 10000 4.12 360 12:51 16.09.2022
1782 Clouds 13 1014 89 10000 3.09 330 09:39 16.09.2022
1783 Clouds 12 1014 91 10000 3.09 330 07:23 16.09.2022
1784 Clear 13 1014 86 10000 3.6 310 06:48 16.09.2022
1785 Clear 13 1013 84 10000 3.6 300 05:55 16.09.2022
1786 Clear 15 1013 72 10000 3.09 330 01:31 16.09.2022
1787 Clear 18 1012 67 10000 4.63 20 21:33 15.09.2022
1788 Clouds 19 1012 68 10000 5.36 42 20:33 15.09.2022
1789 Clouds 22 1011 57 10000 6.17 340 18:57 15.09.2022
1790 Clouds 23 1011 54 10000 5.14 310 17:40 15.09.2022
1791 Clouds 23 1010 55 10000 5.14 310 17:22 15.09.2022
1792 Clouds 22 1011 57 10000 4.12 240 15:38 15.09.2022
1793 Clouds 20 1011 63 10000 3.09 340 12:50 15.09.2022
1794 Clear 19 1011 69 10000 3.09 360 11:47 15.09.2022
1795 Clear 15 1010 88 10000 4.12 340 09:44 15.09.2022
1796 Clouds 16 1008 88 10000 3.09 310 06:45 15.09.2022
1797 Clouds 18 1008 89 10000 4.12 330 03:29 15.09.2022
1798 Clouds 21 1006 82 10000 3.6 340 22:51 14.09.2022
1799 Clear 23 1005 68 10000 3.09 320 20:31 14.09.2022
1800 Clear 24 1004 62 10000 4.63 270 19:32 14.09.2022
1801 Clear 26 1004 56 10000 5.66 270 17:37 14.09.2022
1802 Clouds 26 1004 58 10000 7.2 250 16:36 14.09.2022
1803 Clouds 25 1004 62 10000 5.66 260 14:51 14.09.2022
1804 Clouds 24 1005 72 10000 4.63 190 12:38 14.09.2022
1805 Clouds 21 1004 91 10000 2.57 180 09:52 14.09.2022
1806 Clear 20 1004 92 10000 2.57 40 08:28 14.09.2022
1807 Clear 20 1004 89 10000 2.57 210 06:49 14.09.2022
1808 Clear 20 1004 89 10000 2.57 210 06:28 14.09.2022
1809 Clouds 21 1006 87 10000 3.09 200 02:25 14.09.2022
1810 Clear 21 1006 89 10000 3.6 200 01:34 14.09.2022
1811 Clear 22 1005 88 10000 3.09 200 00:52 14.09.2022
1812 Clear 22 1005 87 10000 3.6 160 23:54 13.09.2022
1813 Clear 22 1005 87 10000 3.09 150 23:36 13.09.2022
1814 Clear 22 1005 86 10000 3.09 150 23:18 13.09.2022
1815 Clear 22 1006 86 10000 3.6 110 22:26 13.09.2022
1816 Clouds 23 1006 78 10000 1.54 30 21:35 13.09.2022
1817 Clear 26 1006 65 10000 2.57 100 18:54 13.09.2022
1818 Clouds 26 1006 62 10000 6.17 90 16:39 13.09.2022
1819 Rain 25 1007 62 10000 6.69 80 15:19 13.09.2022
1820 Clear 23 1008 65 10000 4.12 90 13:37 13.09.2022
1821 Clear 21 1007 72 10000 4.12 50 10:20 13.09.2022
1822 Clear 19 1008 79 10000 3.6 340 07:56 13.09.2022
1823 Clear 20 1009 72 10000 2.57 10 02:22 13.09.2022
1824 Clouds 22 1010 65 10000 2.06 360 23:22 12.09.2022
1825 Clear 22 1010 65 10000 3.09 110 22:40 12.09.2022
1826 Clear 23 1009 62 10000 2.57 110 21:21 12.09.2022
1827 Clear 24 1009 58 10000 3.6 110 20:22 12.09.2022
1828 Clear 28 1010 44 10000 3.6 100 18:24 12.09.2022
1829 Clear 27 1011 47 10000 3.6 110 15:50 12.09.2022
1830 Clear 23 1013 64 10000 2.57 100 12:35 12.09.2022
1831 Clear 18 1014 79 10000 2.06 100 10:31 12.09.2022
1832 Clear 14 1013 92 10000 2.06 120 07:40 12.09.2022
1833 Clear 15 1015 90 10000 2.57 130 04:36 12.09.2022
1834 Clear 15 1015 90 10000 2.57 130 02:25 12.09.2022
1835 Clear 18 1017 76 10000 2.57 90 22:46 11.09.2022
1836 Clear 19 1016 73 10000 2.57 90 21:30 11.09.2022
1837 Clear 20 1016 69 10000 4.12 130 20:44 11.09.2022
1838 Clouds 22 1016 62 10000 4.12 110 19:45 11.09.2022
1839 Clouds 22 1017 62 10000 4.12 110 19:21 11.09.2022
1840 Clouds 23 1017 59 10000 4.12 80 17:47 11.09.2022
1841 Clouds 23 1018 61 10000 3.09 100 15:51 11.09.2022
1842 Clouds 21 1019 69 10000 2.57 130 14:18 11.09.2022
1843 Clouds 19 1020 87 10000 3.09 150 12:31 11.09.2022
1844 Fog 11 1020 98 800 0.51 50 08:25 11.09.2022
1845 Fog 12 1019 98 450 1.03 20 06:33 11.09.2022
1846 Clouds 15 1019 95 9000 2.06 270 00:49 11.09.2022
1847 Clouds 16 1018 92 10000 2.57 270 22:26 10.09.2022
1848 Clouds 17 1017 90 10000 3.09 260 20:51 10.09.2022
1849 Clouds 18 1017 89 10000 4.12 240 19:45 10.09.2022
1850 Clouds 18 1017 89 10000 4.12 240 19:45 10.09.2022
1851 Clouds 18 1017 88 10000 4.12 240 19:27 10.09.2022
1852 Clouds 18 1017 89 10000 4.12 220 17:59 10.09.2022
1853 Clouds 20 1017 74 10000 4.12 230 15:45 10.09.2022
1854 Clouds 18 1017 87 10000 4.12 260 14:37 10.09.2022
1855 Drizzle 17 1017 89 10000 4.12 240 12:52 10.09.2022
1856 Clouds 16 1016 87 10000 5.66 250 10:35 10.09.2022
1857 Drizzle 15 1015 89 10000 4.12 230 09:24 10.09.2022
1858 Clouds 15 1015 90 10000 5.14 230 08:26 10.09.2022
1859 Clouds 15 1014 90 10000 4.63 240 05:50 10.09.2022
1860 Clear 16 1014 89 10000 5.14 240 23:56 09.09.2022
1861 Clouds 16 1014 90 10000 4.63 240 23:29 09.09.2022
1862 Clouds 16 1013 86 10000 3.6 230 21:24 09.09.2022
1863 Clouds 17 1012 85 10000 4.12 220 20:31 09.09.2022
1864 Clouds 18 1012 83 10000 5.14 230 19:24 09.09.2022
1865 Clouds 18 1012 81 10000 6.17 240 18:33 09.09.2022
1866 Rain 18 1012 86 10000 7.72 230 16:21 09.09.2022
1867 Clouds 20 1011 70 10000 7.72 220 13:48 09.09.2022
1868 Clouds 18 1011 76 10000 7.72 230 11:52 09.09.2022
1869 Clouds 17 1009 83 10000 6.17 210 09:21 09.09.2022
1870 Clouds 16 1009 86 10000 6.17 210 04:29 09.09.2022
1871 Clouds 17 1010 85 10000 3.6 230 00:46 09.09.2022
1872 Clear 18 1009 83 10000 3.6 190 21:52 08.09.2022
1873 Clear 19 1009 76 10000 4.63 210 20:51 08.09.2022
1874 Clouds 20 1009 74 10000 6.17 210 20:31 08.09.2022
1875 Clouds 20 1009 71 10000 6.69 220 19:44 08.09.2022
1876 Thunderstorm 21 1008 69 10000 7.2 230 17:44 08.09.2022
1877 Clouds 22 1009 64 10000 7.72 210 16:19 08.09.2022
1878 Clouds 21 1009 71 10000 6.69 220 14:40 08.09.2022
1879 Clouds 20 1009 73 10000 8.23 220 13:23 08.09.2022
1880 Clouds 18 1010 83 10000 7.2 190 11:37 08.09.2022
1881 Clouds 17 1010 86 10000 5.14 180 10:48 08.09.2022
1882 Clouds 15 1009 93 10000 4.12 200 07:57 08.09.2022
1883 Clouds 15 1009 94 10000 4.12 180 06:41 08.09.2022
1884 Clouds 16 1010 93 10000 3.6 190 02:36 08.09.2022
1885 Clouds 16 1010 93 10000 4.12 190 02:18 08.09.2022
1886 Clouds 16 1010 91 10000 3.09 230 00:27 08.09.2022
1887 Mist 17 1011 93 5000 4.63 230 22:42 07.09.2022
1888 Rain 18 1011 90 10000 3.09 190 21:42 07.09.2022
1889 Rain 18 1010 88 10000 2.57 190 20:42 07.09.2022
1890 Rain 19 1011 83 10000 2.57 260 19:36 07.09.2022
1891 Clouds 19 1011 83 10000 3.6 180 17:49 07.09.2022
1892 Clouds 21 1013 71 10000 6.17 180 12:52 07.09.2022
1893 Clear 19 1013 82 10000 4.12 190 10:47 07.09.2022
1894 Clear 18 1014 85 10000 3.6 190 09:19 07.09.2022
1895 Clear 16 1014 87 10000 3.09 200 07:23 07.09.2022
1896 Clear 18 1013 86 10000 2.06 190 03:19 07.09.2022
1897 Clear 20 1013 73 10000 5.14 320 22:59 06.09.2022
1898 Clear 24 1012 62 10000 4.12 290 21:41 06.09.2022
1899 Clouds 25 1011 55 10000 3.6 290 20:45 06.09.2022
1900 Clear 28 1011 44 10000 5.66 170 18:45 06.09.2022
1901 Clear 28 1011 42 10000 5.66 170 18:22 06.09.2022
1902 Clear 29 1012 39 10000 4.12 190 17:22 06.09.2022
1903 Clear 28 1013 43 10000 2.57 140 16:37 06.09.2022
1904 Clear 27 1014 49 10000 2.57 130 15:22 06.09.2022
1905 Clear 24 1015 62 10000 3.09 150 13:45 06.09.2022
1906 Clouds 24 1015 64 10000 2.57 200 13:45 06.09.2022
1907 Clouds 24 1015 65 10000 2.57 200 13:24 06.09.2022
1908 Clear 24 1016 65 10000 3.09 230 11:59 06.09.2022
1909 Clear 21 1015 78 10000 3.09 240 10:41 06.09.2022
1910 Clear 17 1015 94 10000 1.54 220 08:50 06.09.2022
1911 Clear 16 1016 92 10000 2.06 250 07:49 06.09.2022
1912 Clear 18 1015 90 10000 3.6 250 03:31 06.09.2022
1913 Clear 19 1014 92 10000 2.57 110 23:27 05.09.2022
1914 Clear 19 1015 90 10000 3.09 20 22:21 05.09.2022
1915 Fog 21 1014 82 6000 3.09 310 20:35 05.09.2022
1916 Rain 27 1013 57 10000 5.66 110 19:26 05.09.2022
1917 Clear 30 1013 43 10000 4.63 130 18:46 05.09.2022
1918 Clear 30 1013 45 10000 4.63 130 18:21 05.09.2022
1919 Clear 29 1015 42 10000 4.12 110 16:43 05.09.2022
1920 Clear 29 1016 40 10000 5.14 70 15:47 05.09.2022
1921 Clear 27 1017 46 10000 4.12 270 13:26 05.09.2022
1922 Clear 26 1017 51 10000 2.57 250 12:28 05.09.2022
1923 Clear 23 1018 70 10000 3.09 190 10:18 05.09.2022
1924 Clear 18 1016 88 10000 2.06 330 06:46 05.09.2022
1925 Clouds 21 1016 68 10000 2.57 120 02:42 05.09.2022
1926 Clear 24 1016 52 10000 3.6 120 23:26 04.09.2022
1927 Clear 24 1015 47 10000 3.6 110 22:27 04.09.2022
1928 Clear 25 1015 46 10000 3.6 90 21:34 04.09.2022
1929 Clear 28 1015 39 10000 4.12 120 19:38 04.09.2022
1930 Clear 30 1015 35 10000 4.63 120 18:20 04.09.2022
1931 Clear 29 1016 36 10000 3.6 130 17:19 04.09.2022
1932 Clear 27 1017 44 10000 3.6 190 14:36 04.09.2022
1933 Clear 27 1017 47 10000 4.12 160 13:52 04.09.2022
1934 Clear 24 1017 51 10000 2.57 140 12:21 04.09.2022
1935 Clear 21 1017 65 10000 1.03 0 10:47 04.09.2022
1936 Clear 16 1016 83 10000 1.54 80 08:21 04.09.2022
1937 Clear 16 1015 81 10000 2.06 240 06:21 04.09.2022
1938 Clear 19 1013 78 10000 2.57 150 01:31 04.09.2022
1939 Clear 19 1012 77 10000 1.03 360 22:26 03.09.2022
1940 Clear 21 1012 72 10000 2.06 210 21:24 03.09.2022
1941 Clear 22 1012 64 10000 3.6 210 20:26 03.09.2022
1942 Clear 23 1011 65 10000 5.66 230 17:35 03.09.2022
1943 Clouds 23 1011 71 10000 6.69 220 16:33 03.09.2022
1944 Clouds 22 1011 72 10000 6.69 180 14:47 03.09.2022
1945 Clouds 23 1011 67 10000 5.14 210 14:26 03.09.2022
1946 Clouds 22 1011 72 10000 7.2 180 13:39 03.09.2022
1947 Clouds 21 1011 77 10000 4.12 180 11:18 03.09.2022
1948 Clear 18 1010 91 10000 3.6 210 08:55 03.09.2022
1949 Clear 18 1009 91 10000 2.57 160 06:59 03.09.2022
1950 Clouds 18 1009 86 10000 2.57 190 04:43 03.09.2022
1951 Clear 19 1009 84 10000 1.54 350 00:46 03.09.2022
1952 Clear 19 1009 81 10000 2.06 190 23:28 02.09.2022
1953 Clear 21 1009 71 10000 2.06 240 21:36 02.09.2022
1954 Clouds 22 1009 67 10000 3.09 130 20:40 02.09.2022
1955 Clear 23 1010 63 10000 2.57 200 19:47 02.09.2022
1956 Clouds 24 1009 62 10000 4.12 140 18:43 02.09.2022
1957 Clouds 24 1009 62 10000 4.12 140 18:24 02.09.2022
1958 Clear 23 1010 64 10000 3.09 150 16:56 02.09.2022
1959 Clouds 22 1011 68 10000 3.09 120 15:48 02.09.2022
1960 Clear 20 1012 71 10000 1.54 270 12:58 02.09.2022
1961 Clear 19 1012 69 10000 4.63 50 10:37 02.09.2022
1962 Clear 19 1011 72 10000 5.66 60 09:41 02.09.2022
1963 Clouds 18 1012 75 10000 4.63 60 08:42 02.09.2022
1964 Clear 19 1012 72 10000 3.09 360 06:43 02.09.2022
1965 Clouds 20 1012 62 9000 2.68 40 05:32 02.09.2022
1966 Clear 23 1013 51 10000 4.12 90 22:58 01.09.2022
1967 Clear 24 1014 49 10000 3.6 60 21:46 01.09.2022
1968 Clear 24 1014 49 10000 3.6 60 21:26 01.09.2022
1969 Clear 25 1013 48 10000 3.6 60 20:49 01.09.2022
1970 Clear 27 1013 41 10000 3.6 60 19:25 01.09.2022
1971 Clear 28 1013 42 10000 4.12 90 18:18 01.09.2022
1972 Clear 28 1014 45 10000 4.63 70 16:47 01.09.2022
1973 Clear 27 1015 50 10000 4.12 100 14:41 01.09.2022
1974 Clear 25 1016 56 10000 3.6 80 13:20 01.09.2022
1975 Clear 25 1016 59 10000 3.6 70 12:42 01.09.2022
1976 Clear 23 1016 64 10000 2.57 100 11:50 01.09.2022
1977 Clear 22 1016 68 10000 2.57 90 11:19 01.09.2022
1978 Clear 19 1016 76 10000 3.09 80 09:31 01.09.2022
1979 Clear 17 1016 81 10000 2.06 20 06:31 01.09.2022
1980 Clear 20 1016 72 10000 3.09 350 02:33 01.09.2022
1981 Clear 20 1016 70 10000 3.6 350 01:29 01.09.2022
1982 Clear 23 1017 60 10000 3.09 10 22:22 31.08.2022
1983 Clear 25 1016 51 10000 5.14 10 20:35 31.08.2022
1984 Clear 27 1016 44 10000 4.12 60 18:32 31.08.2022
1985 Clear 27 1017 45 10000 4.12 10 16:36 31.08.2022
1986 Clear 27 1017 47 10000 4.12 20 15:21 31.08.2022
1987 Clear 24 1018 54 10000 4.63 350 12:58 31.08.2022
1988 Clear 23 1019 58 10000 3.6 350 11:54 31.08.2022
1989 Clear 18 1019 71 10000 3.09 350 09:35 31.08.2022
1990 Clear 16 1019 75 10000 3.6 360 07:31 31.08.2022
1991 Clear 20 1018 64 10000 3.6 10 02:25 31.08.2022
1992 Clear 23 1018 48 10000 3.09 360 22:18 30.08.2022
1993 Clear 25 1018 46 10000 3.09 340 21:27 30.08.2022
1994 Clear 28 1017 43 10000 2.57 340 19:51 30.08.2022
1995 Clear 27 1018 46 10000 2.57 10 16:47 30.08.2022
1996 Clear 27 1018 46 10000 2.57 10 16:47 30.08.2022
1997 Clear 23 1019 54 10000 2.06 340 13:38 30.08.2022
1998 Clear 21 1019 62 10000 2.57 30 11:44 30.08.2022
1999 Clear 21 1018 64 10000 2.57 30 11:19 30.08.2022
2000 Clear 17 1017 75 10000 3.6 10 08:51 30.08.2022
2001 Clouds 17 1017 77 10000 4.12 50 06:26 30.08.2022
2002 Clear 21 1017 54 10000 5.14 30 00:30 30.08.2022
2003 Clear 23 1017 49 10000 6.69 30 22:37 29.08.2022
2004 Clear 24 1016 49 10000 5.66 30 21:51 29.08.2022
2005 Clear 27 1016 45 10000 4.63 10 20:35 29.08.2022
2006 Clear 29 1015 44 10000 4.12 40 18:58 29.08.2022
2007 Clear 29 1016 43 10000 4.12 20 17:32 29.08.2022
2008 Clear 29 1016 43 10000 4.63 60 16:58 29.08.2022
2009 Clear 27 1017 45 10000 5.14 10 15:19 29.08.2022
2010 Clear 26 1017 48 10000 5.66 40 13:54 29.08.2022
2011 Clear 23 1018 51 10000 5.14 50 12:24 29.08.2022
2012 Clear 20 1018 56 10000 4.63 30 10:43 29.08.2022
2013 Clear 19 1018 61 10000 5.66 30 09:18 29.08.2022
2014 Clear 17 1017 63 10000 4.63 30 07:20 29.08.2022
2015 Clear 20 1018 55 10000 5.66 40 02:31 29.08.2022
2016 Clear 22 1017 52 10000 6.17 40 23:35 28.08.2022
2017 Clear 23 1017 54 10000 4.12 30 21:48 28.08.2022
2018 Clear 23 1017 54 10000 4.63 20 21:27 28.08.2022
2019 Clear 25 1016 50 10000 3.6 10 20:19 28.08.2022
2020 Clear 26 1016 47 10000 3.6 20 18:22 28.08.2022
2021 Clear 26 1016 48 10000 3.09 20 17:59 28.08.2022
2022 Clear 26 1016 50 10000 4.63 10 16:44 28.08.2022
2023 Clear 25 1017 52 10000 4.12 50 15:34 28.08.2022
2024 Clouds 24 1017 56 10000 4.63 30 13:32 28.08.2022
2025 Clear 21 1018 64 10000 5.14 30 11:59 28.08.2022
2026 Clear 18 1018 73 10000 5.14 40 10:22 28.08.2022
2027 Clear 17 1018 78 10000 3.6 20 09:24 28.08.2022
2028 Clear 15 1017 83 10000 3.6 10 07:56 28.08.2022
2029 Clear 14 1017 83 10000 3.6 10 07:27 28.08.2022
2030 Clear 18 1017 63 10000 2.57 340 00:45 28.08.2022
2031 Clear 20 1017 57 10000 3.6 40 23:28 27.08.2022
2032 Clear 21 1016 53 10000 4.12 40 22:27 27.08.2022
2033 Clear 21 1016 53 10000 4.12 40 22:27 27.08.2022
2034 Clear 23 1016 45 10000 4.63 40 20:36 27.08.2022
2035 Clear 24 1015 44 10000 5.66 20 19:29 27.08.2022
2036 Clear 25 1016 42 10000 4.12 340 16:30 27.08.2022
2037 Clear 25 1016 43 10000 3.6 350 15:31 27.08.2022
2038 Clouds 23 1016 50 10000 4.12 10 13:30 27.08.2022
2039 Clouds 22 1017 58 10000 4.12 360 12:22 27.08.2022
2040 Clear 20 1017 72 10000 4.63 20 10:30 27.08.2022
2041 Clear 18 1017 76 10000 4.12 30 09:39 27.08.2022
2042 Clear 16 1016 82 10000 3.09 20 06:54 27.08.2022
2043 Clear 18 1017 75 10000 4.12 10 02:24 27.08.2022
2044 Clear 20 1017 66 10000 4.63 340 23:49 26.08.2022
2045 Clear 23 1016 54 10000 4.63 10 21:53 26.08.2022
2046 Clear 25 1015 50 10000 3.6 320 20:22 26.08.2022
2047 Clear 26 1015 49 10000 3.6 330 18:19 26.08.2022
2048 Clear 26 1016 48 10000 4.12 360 16:40 26.08.2022
2049 Clouds 25 1017 53 10000 3.09 360 15:25 26.08.2022
2050 Clouds 24 1018 62 10000 3.6 330 13:26 26.08.2022
2051 Clouds 22 1018 70 10000 4.63 330 12:34 26.08.2022
2052 Clouds 21 1018 74 10000 4.12 330 11:22 26.08.2022
2053 Clouds 19 1018 83 10000 4.12 330 09:53 26.08.2022
2054 Clouds 19 1017 87 10000 4.63 340 04:56 26.08.2022
2055 Clear 20 1017 78 10000 5.66 330 01:18 26.08.2022
2056 Clear 22 1016 69 10000 6.17 330 22:57 25.08.2022
2057 Clear 25 1015 61 10000 6.17 330 20:59 25.08.2022
2058 Clear 27 1014 53 10000 7.2 330 19:47 25.08.2022
2059 Clear 29 1013 48 10000 5.66 330 18:47 25.08.2022
2060 Clear 30 1013 47 10000 6.17 320 17:32 25.08.2022
2061 Clear 31 1013 44 10000 4.63 310 16:46 25.08.2022
2062 Clear 31 1013 39 10000 4.63 360 15:37 25.08.2022
2063 Clear 31 1013 39 10000 3.09 330 14:30 25.08.2022
2064 Clear 27 1014 47 10000 5.14 310 11:34 25.08.2022
2065 Clear 26 1014 47 10000 2.06 150 10:46 25.08.2022
2066 Clear 21 1014 65 10000 2.06 20 08:41 25.08.2022
2067 Clear 22 1014 61 10000 2.57 100 04:40 25.08.2022
2068 Clear 24 1014 54 10000 2.57 70 00:26 25.08.2022
2069 Clear 25 1014 52 10000 2.06 70 23:25 24.08.2022
2070 Clear 27 1014 45 10000 2.57 50 22:18 24.08.2022
2071 Clear 28 1014 45 10000 2.57 70 21:32 24.08.2022
2072 Clear 31 1014 40 10000 4.12 110 20:23 24.08.2022
2073 Clear 32 1014 37 10000 3.09 160 18:39 24.08.2022
2074 Clear 32 1015 38 10000 4.12 100 16:23 24.08.2022
2075 Clear 32 1015 39 10000 3.6 120 15:48 24.08.2022
2076 Clear 29 1016 47 10000 2.57 0 12:55 24.08.2022
2077 Clear 27 1017 57 10000 2.06 160 11:22 24.08.2022
2078 Clear 22 1016 79 10000 2.06 70 09:20 24.08.2022
2079 Clear 19 1016 89 10000 1.03 350 07:43 24.08.2022
2080 Clear 21 1016 77 10000 1.54 360 02:25 24.08.2022
2081 Clear 23 1016 72 10000 1.54 350 22:59 23.08.2022
2082 Clear 24 1016 68 10000 1.03 340 22:29 23.08.2022
2083 Clear 25 1016 64 10000 1.54 0 21:27 23.08.2022
2084 Clear 27 1015 57 10000 1.54 300 19:57 23.08.2022
2085 Clear 27 1015 57 10000 2.57 260 18:33 23.08.2022
2086 Clear 27 1016 55 10000 3.6 250 17:47 23.08.2022
2087 Clear 28 1016 54 10000 2.57 260 16:50 23.08.2022
2088 Clouds 28 1016 57 10000 2.57 210 15:23 23.08.2022
2089 Clouds 26 1016 63 10000 3.09 210 13:26 23.08.2022
2090 Clouds 24 1016 73 10000 1.54 0 11:24 23.08.2022
2091 Clouds 23 1016 72 10000 1.54 0 10:36 23.08.2022
2092 Clouds 22 1016 76 10000 1.54 360 09:52 23.08.2022
2093 Clear 20 1016 79 10000 1.54 190 08:51 23.08.2022
2094 Clear 19 1015 83 10000 1.03 0 08:20 23.08.2022
2095 Clear 19 1015 82 10000 1.54 60 07:34 23.08.2022
2096 Clouds 19 1015 83 10000 2.06 50 06:27 23.08.2022
2097 Clear 20 1014 77 10000 1.54 240 03:24 23.08.2022
2098 Clear 21 1014 72 10000 2.57 240 00:28 23.08.2022
2099 Clear 22 1014 70 10000 2.06 260 23:33 22.08.2022
2100 Clear 22 1014 70 10000 2.06 240 22:44 22.08.2022
2101 Clear 23 1013 64 10000 3.6 250 21:25 22.08.2022
2102 Clouds 25 1013 58 10000 3.6 230 19:48 22.08.2022
2103 Clouds 25 1013 58 10000 3.6 230 19:48 22.08.2022
2104 Clouds 25 1013 59 10000 4.12 230 18:49 22.08.2022
2105 Clouds 26 1012 61 10000 2.48 254 17:18 22.08.2022
2106 Clear 25 1014 57 10000 4.12 170 15:39 22.08.2022
2107 Clouds 25 1014 57 10000 3.6 210 13:57 22.08.2022
2108 Clear 20 1015 70 10000 2.57 230 10:43 22.08.2022
2109 Clear 17 1015 78 10000 2.06 230 07:59 22.08.2022
2110 Clear 18 1014 75 10000 2.57 290 04:25 22.08.2022
2111 Clear 20 1015 72 10000 5.14 320 00:43 22.08.2022
2112 Clear 20 1015 72 10000 5.14 320 00:24 22.08.2022
2113 Clear 21 1014 64 10000 3.6 320 22:53 21.08.2022
2114 Clear 23 1014 56 10000 2.57 190 21:28 21.08.2022
2115 Clear 24 1014 51 10000 4.12 230 20:56 21.08.2022
2116 Clear 25 1014 49 10000 4.12 210 19:27 21.08.2022
2117 Clear 26 1014 49 10000 4.63 200 17:39 21.08.2022
2118 Clear 26 1015 49 10000 4.63 190 15:58 21.08.2022
2119 Clear 26 1015 52 10000 4.12 200 15:22 21.08.2022
2120 Clear 24 1016 52 10000 3.6 130 13:54 21.08.2022
2121 Clear 24 1016 53 10000 4.12 120 13:34 21.08.2022
2122 Clear 23 1016 60 10000 2.57 140 11:55 21.08.2022
2123 Clear 18 1017 76 10000 1.54 0 09:32 21.08.2022
2124 Clear 17 1018 78 10000 1.54 360 08:56 21.08.2022
2125 Clear 15 1018 87 10000 1.54 360 08:38 21.08.2022
2126 Clear 15 1017 85 10000 1.54 350 07:27 21.08.2022
2127 Clear 17 1017 75 10000 2.06 80 03:41 21.08.2022
2128 Clear 19 1018 63 10000 2.57 360 00:31 21.08.2022
2129 Clear 20 1018 56 10000 1.54 320 22:59 20.08.2022
2130 Clear 22 1018 50 10000 2.57 270 21:43 20.08.2022
2131 Clear 23 1018 48 10000 2.57 230 20:44 20.08.2022
2132 Clear 25 1018 45 10000 3.09 270 19:41 20.08.2022
2133 Clear 25 1018 43 10000 2.57 250 18:35 20.08.2022
2134 Clear 26 1018 43 10000 3.6 290 17:58 20.08.2022
2135 Clear 25 1018 45 10000 2.06 210 17:18 20.08.2022
2136 Clear 24 1019 49 10000 3.6 270 15:51 20.08.2022
2137 Clouds 23 1019 57 10000 3.09 240 13:39 20.08.2022
2138 Clouds 20 1020 68 10000 3.09 280 11:53 20.08.2022
2139 Clear 18 1020 80 10000 3.09 280 10:36 20.08.2022
2140 Clear 15 1020 89 10000 2.57 230 08:53 20.08.2022
2141 Clear 14 1019 93 10000 2.57 280 06:40 20.08.2022
2142 Clear 15 1019 89 10000 2.57 280 03:57 20.08.2022
2143 Clear 18 1019 81 10000 4.12 310 00:51 20.08.2022
2144 Clouds 20 1018 88 10000 4.12 310 23:21 19.08.2022
2145 Clouds 20 1018 87 10000 5.14 300 22:35 19.08.2022
2146 Rain 22 1017 74 10000 5.66 280 20:30 19.08.2022
2147 Clear 24 1017 63 10000 3.09 330 18:51 19.08.2022
2148 Clouds 24 1016 70 10000 4.63 20 15:54 19.08.2022
2149 Clouds 23 1017 72 10000 3.09 220 13:40 19.08.2022
2150 Clouds 20 1018 80 10000 3.09 240 11:40 19.08.2022
2151 Clouds 19 1017 85 10000 3.6 290 10:30 19.08.2022
2152 Clouds 18 1016 85 10000 3.6 280 07:25 19.08.2022
2153 Clear 19 1016 79 10000 3.6 330 02:23 19.08.2022
2154 Clear 20 1015 75 10000 4.63 320 00:36 19.08.2022
2155 Clear 21 1015 72 10000 4.12 320 23:48 18.08.2022
2156 Clear 22 1015 69 10000 5.14 330 22:53 18.08.2022
2157 Clear 23 1014 67 10000 4.63 340 22:18 18.08.2022
2158 Clouds 24 1014 62 10000 5.14 330 21:41 18.08.2022
2159 Clear 26 1013 52 10000 5.14 290 20:42 18.08.2022
2160 Clear 28 1013 47 10000 5.14 290 19:32 18.08.2022
2161 Clear 28 1013 47 10000 5.14 320 18:29 18.08.2022
2162 Clear 28 1013 48 10000 5.66 300 17:32 18.08.2022
2163 Clear 27 1013 50 10000 4.12 300 15:50 18.08.2022
2164 Clear 27 1013 53 10000 2.57 320 14:21 18.08.2022
2165 Clouds 26 1013 56 9000 2.06 20 13:42 18.08.2022
2166 Clear 24 1014 69 8000 1.54 290 12:27 18.08.2022
2167 Clear 22 1014 80 7000 2.06 260 10:51 18.08.2022
2168 Mist 19 1014 90 5000 1.03 0 09:42 18.08.2022
2169 Clear 16 1013 94 10000 1.03 310 07:26 18.08.2022
2170 Clear 17 1013 92 10000 2.57 350 05:33 18.08.2022
2171 Clear 19 1013 87 10000 2.06 20 00:45 18.08.2022
2172 Clear 20 1011 81 10000 1.54 30 22:28 17.08.2022
2173 Rain 22 1011 74 10000 1.54 190 20:21 17.08.2022
2174 Thunderstorm 24 1010 65 10000 4.12 200 19:34 17.08.2022
2175 Clouds 26 1010 56 10000 5.14 90 18:32 17.08.2022
2176 Clear 26 1009 58 10000 2.06 160 16:50 17.08.2022
2177 Clouds 24 1011 68 10000 2.57 190 15:41 17.08.2022
2178 Clouds 22 1010 82 10000 2.57 200 14:36 17.08.2022
2179 Clouds 19 1010 92 10000 2.06 140 12:22 17.08.2022
2180 Clouds 19 1010 93 10000 4.63 150 10:59 17.08.2022
2181 Clear 18 1008 94 10000 1.54 0 08:26 17.08.2022
2182 Clear 18 1008 92 9000 2.06 150 05:35 17.08.2022
2183 Clear 18 1009 94 7000 1.54 0 00:50 17.08.2022
2184 Clear 19 1009 90 10000 1.03 0 23:18 16.08.2022
2185 Clear 19 1008 90 10000 3.09 60 21:21 16.08.2022
2186 Clouds 19 1008 90 10000 3.6 10 20:20 16.08.2022
2187 Thunderstorm 20 1008 83 2600 8.23 290 19:26 16.08.2022
2188 Thunderstorm 27 1008 57 10000 3.09 160 17:55 16.08.2022
2189 Clouds 28 1008 53 10000 2.57 70 16:48 16.08.2022
2190 Clouds 26 1009 57 10000 4.12 170 15:45 16.08.2022
2191 Clouds 26 1008 60 10000 3.09 180 14:54 16.08.2022
2192 Clear 26 1008 59 10000 3.6 160 14:36 16.08.2022
2193 Clouds 25 1008 65 10000 4.63 170 12:33 16.08.2022
2194 Clear 21 1008 78 10000 2.57 150 10:23 16.08.2022
2195 Clear 20 1008 85 10000 1.54 100 08:54 16.08.2022
2196 Clear 19 1007 87 10000 1.03 0 08:21 16.08.2022
2197 Clear 19 1007 86 10000 1.54 30 06:32 16.08.2022
2198 Clear 21 1007 73 10000 2.06 250 00:32 16.08.2022
2199 Clear 23 1006 67 10000 3.09 230 22:24 15.08.2022
2200 Clear 23 1006 65 10000 2.57 250 21:50 15.08.2022
2201 Clouds 25 1005 62 10000 5.14 180 20:32 15.08.2022
2202 Clouds 25 1005 60 10000 4.63 250 19:59 15.08.2022
2203 Clouds 26 1005 55 10000 2.06 160 17:59 15.08.2022
2204 Clouds 24 1005 64 10000 2.57 250 16:25 15.08.2022
2205 Clear 24 1005 66 10000 2.06 200 15:54 15.08.2022
2206 Clouds 21 1005 81 10000 3.09 150 13:54 15.08.2022
2207 Clouds 20 1004 83 10000 4.12 160 11:25 15.08.2022
2208 Clear 19 1004 88 10000 2.57 150 09:42 15.08.2022
2209 Clear 17 1004 95 10000 2.57 130 07:44 15.08.2022
2210 Clear 18 1005 91 10000 2.57 180 04:35 15.08.2022
2211 Clouds 18 1006 93 10000 2.06 150 00:54 15.08.2022
2212 Clouds 18 1006 91 10000 1.54 210 22:38 14.08.2022
2213 Clouds 18 1007 90 10000 1.03 0 21:37 14.08.2022
2214 Rain 21 1006 76 10000 12.86 270 19:54 14.08.2022
2215 Clear 25 1006 63 10000 4.12 150 18:58 14.08.2022
2216 Clouds 25 1006 66 10000 5.14 140 18:19 14.08.2022
2217 Clouds 25 1006 70 10000 3.6 220 16:53 14.08.2022
2218 Rain 24 1006 71 10000 5.14 210 15:49 14.08.2022
2219 Clouds 26 1008 50 10000 6.17 220 14:33 14.08.2022
2220 Clear 28 1006 45 10000 4.63 250 13:50 14.08.2022
2221 Clear 28 1006 45 10000 5.14 270 13:20 14.08.2022
2222 Clear 28 1006 43 10000 7.2 280 12:28 14.08.2022
2223 Clear 26 1006 47 10000 5.66 250 10:50 14.08.2022
2224 Clear 21 1006 49 10000 1.54 50 08:52 14.08.2022
2225 Clear 21 1007 47 10000 2.06 360 06:22 14.08.2022
2226 Clear 22 1008 42 10000 4.12 70 02:57 14.08.2022
2227 Clear 24 1009 37 10000 3.09 70 00:19 14.08.2022
2228 Clear 26 1010 34 10000 2.57 70 22:56 13.08.2022
2229 Clear 29 1010 28 10000 4.12 60 21:43 13.08.2022
2230 Clear 31 1010 24 10000 3.6 100 20:46 13.08.2022
2231 Clear 32 1010 23 10000 4.63 80 19:45 13.08.2022
2232 Clear 33 1011 21 10000 5.14 90 17:59 13.08.2022
2233 Clear 32 1012 23 10000 5.14 130 15:40 13.08.2022
2234 Clear 32 1012 24 10000 5.66 100 14:32 13.08.2022
2235 Clear 31 1013 25 10000 4.63 110 13:46 13.08.2022
2236 Clear 29 1013 31 10000 5.14 100 11:53 13.08.2022
2237 Clear 26 1013 37 10000 3.6 100 10:31 13.08.2022
2238 Clear 24 1013 42 10000 3.6 90 09:19 13.08.2022
2239 Clear 20 1013 47 10000 2.57 70 05:57 13.08.2022
2240 Clear 25 1013 36 10000 2.06 80 00:30 13.08.2022
2241 Clear 27 1013 34 10000 2.57 60 22:26 12.08.2022
2242 Clear 30 1012 29 10000 3.6 70 21:20 12.08.2022
2243 Clear 33 1012 23 10000 4.63 100 19:44 12.08.2022
2244 Clear 34 1012 22 10000 4.63 70 18:58 12.08.2022
2245 Clear 34 1013 22 10000 5.14 90 17:57 12.08.2022
2246 Clear 33 1013 22 10000 5.66 50 16:25 12.08.2022
2247 Clear 33 1014 23 10000 6.17 90 14:50 12.08.2022
2248 Clear 31 1015 27 10000 7.72 90 12:59 12.08.2022
2249 Clear 29 1015 32 10000 5.14 60 11:39 12.08.2022
2250 Clear 22 1016 48 10000 2.57 20 08:48 12.08.2022
2251 Clear 20 1016 54 10000 4.12 20 07:45 12.08.2022
2252 Clear 21 1016 50 10000 2.57 20 03:56 12.08.2022
2253 Clear 24 1016 41 10000 2.06 70 00:31 12.08.2022
2254 Clear 25 1016 39 10000 2.06 360 23:42 11.08.2022
2255 Clear 27 1016 35 10000 2.57 50 22:42 11.08.2022
2256 Clear 28 1016 32 10000 4.12 70 21:52 11.08.2022
2257 Clear 29 1016 30 10000 5.14 70 21:26 11.08.2022
2258 Clear 31 1016 26 10000 6.17 80 20:30 11.08.2022
2259 Clear 32 1015 25 10000 6.69 60 19:33 11.08.2022
2260 Clear 32 1016 25 10000 6.69 70 18:41 11.08.2022
2261 Clear 33 1017 24 10000 6.69 70 16:46 11.08.2022
2262 Clear 32 1017 26 10000 7.72 70 15:42 11.08.2022
2263 Clear 32 1018 25 10000 7.2 70 14:32 11.08.2022
2264 Clear 29 1019 30 10000 4.63 60 11:56 11.08.2022
2265 Clear 23 1019 45 10000 4.12 40 08:57 11.08.2022
2266 Clear 20 1019 53 10000 2.57 10 05:58 11.08.2022
2267 Clear 23 1019 46 10000 3.09 30 02:33 11.08.2022
2268 Clear 25 1019 41 10000 2.57 50 23:41 10.08.2022
2269 Clear 29 1018 33 10000 5.14 80 21:47 10.08.2022
2270 Clear 30 1018 30 10000 5.66 80 20:56 10.08.2022
2271 Clear 31 1018 29 10000 6.17 90 20:35 10.08.2022
2272 Clear 32 1018 26 10000 5.66 70 18:53 10.08.2022
2273 Clear 33 1019 25 10000 6.69 50 17:27 10.08.2022
2274 Clear 32 1021 27 10000 6.69 50 14:53 10.08.2022
2275 Clear 31 1021 31 10000 5.14 60 13:33 10.08.2022
2276 Clear 26 1023 45 10000 3.6 40 10:50 10.08.2022
2277 Clear 20 1022 64 10000 3.09 20 08:39 10.08.2022
2278 Clear 19 1022 67 10000 3.09 360 07:35 10.08.2022
2279 Clear 21 1022 58 10000 5.14 30 04:50 10.08.2022
2280 Clear 23 1022 51 10000 5.66 40 01:52 10.08.2022
2281 Clear 26 1023 45 10000 5.66 30 23:32 09.08.2022
2282 Clear 26 1023 44 10000 5.14 30 22:45 09.08.2022
2283 Clear 28 1022 36 10000 4.63 30 21:24 09.08.2022
2284 Clear 30 1021 32 10000 5.66 40 19:33 09.08.2022
2285 Clear 31 1022 30 10000 5.66 10 17:53 09.08.2022
2286 Clear 31 1022 31 10000 5.14 70 17:26 09.08.2022
2287 Clear 31 1023 31 10000 5.14 40 16:30 09.08.2022
2288 Clear 30 1023 33 10000 5.66 40 15:26 09.08.2022
2289 Clear 26 1024 46 10000 5.14 30 12:20 09.08.2022
2290 Clear 19 1024 70 10000 4.12 10 08:54 09.08.2022
2291 Clear 18 1024 73 10000 5.14 20 07:59 09.08.2022
2292 Clear 17 1024 75 10000 3.6 20 07:18 09.08.2022
2293 Clear 20 1024 59 10000 5.66 30 02:27 09.08.2022
2294 Clear 23 1023 46 10000 5.66 20 23:26 08.08.2022
2295 Clear 24 1023 41 10000 5.66 30 22:52 08.08.2022
2296 Clear 25 1023 40 10000 6.17 30 21:48 08.08.2022
2297 Clear 27 1022 35 10000 6.69 30 20:51 08.08.2022
2298 Clear 28 1021 30 10000 6.69 10 19:50 08.08.2022
2299 Clear 29 1021 28 10000 6.69 50 18:19 08.08.2022
2300 Clear 28 1022 30 10000 6.17 20 15:57 08.08.2022
2301 Clear 28 1022 30 10000 5.66 40 15:38 08.08.2022
2302 Clear 25 1023 42 10000 6.69 30 12:39 08.08.2022
2303 Clear 23 1024 47 10000 6.17 40 11:32 08.08.2022
2304 Clear 19 1024 61 10000 5.66 30 09:29 08.08.2022
2305 Clear 16 1022 66 10000 4.12 10 05:35 08.08.2022
2306 Clear 19 1023 51 10000 4.63 30 01:56 08.08.2022
2307 Clear 23 1022 41 10000 6.17 40 22:20 07.08.2022
2308 Clear 24 1021 38 10000 5.66 30 21:38 07.08.2022
2309 Clear 26 1020 35 10000 6.69 40 20:25 07.08.2022
2310 Clear 26 1020 33 10000 7.2 30 19:54 07.08.2022
2311 Clear 26 1020 33 10000 5.66 30 19:29 07.08.2022
2312 Clear 27 1021 31 10000 7.2 50 18:22 07.08.2022
2313 Clear 27 1021 31 10000 6.17 30 16:54 07.08.2022
2314 Clear 26 1022 32 10000 5.66 30 15:54 07.08.2022
2315 Clear 26 1022 33 10000 6.17 40 15:19 07.08.2022
2316 Clear 24 1023 37 10000 6.17 50 13:22 07.08.2022
2317 Clear 21 1024 46 10000 6.17 40 10:59 07.08.2022
2318 Clear 20 1024 49 10000 5.66 40 10:33 07.08.2022
2319 Clear 15 1024 61 10000 4.63 20 05:48 07.08.2022
2320 Clear 17 1024 54 10000 5.66 30 03:19 07.08.2022
2321 Clear 20 1025 44 10000 6.17 40 23:44 06.08.2022
2322 Clear 21 1024 41 10000 5.66 40 22:20 06.08.2022
2323 Clear 24 1024 34 10000 5.66 20 20:26 06.08.2022
2324 Clear 24 1023 33 10000 6.69 20 19:41 06.08.2022
2325 Clear 24 1023 33 10000 6.69 20 19:41 06.08.2022
2326 Clear 25 1024 31 10000 6.69 40 18:25 06.08.2022
2327 Clear 25 1024 31 10000 6.69 30 17:31 06.08.2022
2328 Clear 23 1026 32 10000 6.17 30 14:35 06.08.2022
2329 Clear 23 1026 32 10000 7.72 60 13:44 06.08.2022
2330 Clear 20 1026 42 10000 7.72 40 11:33 06.08.2022
2331 Clear 17 1026 54 10000 5.14 20 09:51 06.08.2022
2332 Clear 15 1026 62 10000 5.14 40 08:32 06.08.2022
2333 Clear 15 1025 63 10000 4.63 30 03:52 06.08.2022
2334 Clear 19 1024 45 10000 6.17 10 23:36 05.08.2022
2335 Clear 20 1023 42 10000 6.17 360 22:23 05.08.2022
2336 Clear 24 1021 45 10000 5.14 350 19:46 05.08.2022
2337 Clear 25 1020 44 10000 6.69 360 18:46 05.08.2022
2338 Clear 26 1020 45 10000 6.69 360 18:22 05.08.2022
2339 Clear 25 1020 46 10000 5.66 320 16:49 05.08.2022
2340 Clear 26 1019 47 10000 5.14 340 15:22 05.08.2022
2341 Clouds 25 1019 52 10000 5.66 340 14:31 05.08.2022
2342 Clouds 24 1019 57 10000 4.63 330 13:24 05.08.2022
2343 Clouds 23 1019 64 10000 5.14 330 12:30 05.08.2022
2344 Clear 21 1018 75 10000 4.12 320 10:53 05.08.2022
2345 Clear 17 1017 90 10000 4.12 300 08:30 05.08.2022
2346 Clear 16 1016 93 10000 2.57 300 07:22 05.08.2022
2347 Rain 20 1016 75 10000 4.63 360 01:28 05.08.2022
2348 Clear 21 1015 73 10000 5.66 360 22:33 04.08.2022
2349 Clear 23 1014 70 10000 6.69 330 21:27 04.08.2022
2350 Clouds 25 1014 71 10000 3.6 340 20:45 04.08.2022
2351 Clouds 25 1014 73 10000 3.6 40 19:58 04.08.2022
2352 Clouds 25 1014 68 10000 4.63 340 18:52 04.08.2022
2353 Rain 27 1015 54 10000 5.66 290 18:32 04.08.2022
2354 Clear 27 1015 54 10000 4.12 330 14:45 04.08.2022
2355 Clear 25 1014 62 10000 4.63 330 13:23 04.08.2022
2356 Clouds 22 1014 76 10000 3.6 340 11:38 04.08.2022
2357 Rain 23 1013 67 10000 3.6 340 09:58 04.08.2022
2358 Clouds 21 1013 72 10000 4.63 320 07:31 04.08.2022
2359 Clear 24 1012 64 10000 4.12 360 02:46 04.08.2022
2360 Clear 27 1012 53 10000 4.63 340 23:58 03.08.2022
2361 Clear 27 1012 50 10000 4.12 320 23:36 03.08.2022
2362 Clear 32 1011 34 10000 1.54 230 21:26 03.08.2022
2363 Clear 35 1011 29 10000 3.6 230 20:20 03.08.2022
2364 Clear 36 1011 29 10000 2.57 220 18:53 03.08.2022
2365 Clear 35 1013 31 10000 2.06 210 16:27 03.08.2022
2366 Clear 35 1013 31 10000 2.06 0 15:53 03.08.2022
2367 Clear 32 1014 38 10000 2.57 180 13:40 03.08.2022
2368 Clear 28 1015 54 10000 1.03 0 10:50 03.08.2022
2369 Clear 20 1015 81 10000 2.57 70 07:26 03.08.2022
2370 Clear 21 1015 75 10000 3.09 30 04:22 03.08.2022
2371 Clear 22 1016 73 10000 3.09 20 03:23 03.08.2022
2372 Clear 23 1016 65 10000 3.6 350 00:49 03.08.2022
2373 Clear 26 1015 53 10000 1.54 10 22:37 02.08.2022
2374 Clear 28 1015 47 10000 1.54 0 21:51 02.08.2022
2375 Clear 31 1015 39 10000 2.06 280 20:30 02.08.2022
2376 Clear 32 1016 38 10000 2.57 350 18:34 02.08.2022
2377 Clear 30 1017 41 10000 2.57 310 15:20 02.08.2022
2378 Clear 24 1019 59 10000 2.06 320 10:51 02.08.2022
2379 Clear 20 1019 71 10000 1.54 0 08:59 02.08.2022
2380 Clear 19 1018 81 10000 1.54 330 07:52 02.08.2022
2381 Clear 18 1018 82 10000 2.06 360 06:41 02.08.2022
2382 Clear 19 1019 79 10000 2.06 330 04:31 02.08.2022
2383 Clear 22 1019 66 10000 1.03 340 23:35 01.08.2022
2384 Clear 24 1018 60 10000 1.03 340 22:23 01.08.2022
2385 Clear 26 1018 51 10000 3.09 260 20:51 01.08.2022
2386 Clear 27 1017 49 10000 2.57 330 19:23 01.08.2022
2387 Clear 27 1018 50 10000 3.09 290 18:30 01.08.2022
2388 Clear 27 1018 49 10000 4.12 280 16:53 01.08.2022
2389 Clouds 26 1018 55 10000 2.57 330 15:52 01.08.2022
2390 Clouds 26 1018 55 10000 2.57 330 15:52 01.08.2022
2391 Clouds 26 1018 57 10000 2.57 350 15:30 01.08.2022
2392 Clouds 25 1018 61 10000 3.09 280 13:48 01.08.2022
2393 Clouds 22 1019 68 10000 3.09 260 11:50 01.08.2022
2394 Clouds 21 1018 77 10000 3.6 300 09:39 01.08.2022
2395 Clouds 20 1018 80 10000 3.09 270 08:22 01.08.2022
2396 Clouds 19 1018 81 10000 1.54 320 04:48 01.08.2022
2397 Clouds 20 1018 77 10000 2.06 300 02:32 01.08.2022
2398 Clear 22 1019 69 10000 3.09 310 23:54 31.07.2022
2399 Clear 24 1018 65 10000 4.12 340 22:38 31.07.2022
2400 Clear 25 1018 58 10000 5.14 320 21:27 31.07.2022
2401 Clear 29 1018 46 10000 4.63 310 19:41 31.07.2022
2402 Clouds 29 1018 44 10000 4.12 270 17:48 31.07.2022
2403 Clouds 28 1019 49 10000 4.12 0 15:37 31.07.2022
2404 Clouds 26 1020 55 10000 4.63 300 13:43 31.07.2022
2405 Clouds 23 1020 62 10000 3.6 280 11:58 31.07.2022
2406 Clouds 21 1020 73 10000 5.14 290 09:43 31.07.2022
2407 Clouds 19 1019 83 10000 2.06 280 07:38 31.07.2022
2408 Clear 20 1020 73 10000 2.57 340 02:58 31.07.2022
2409 Clear 24 1019 58 10000 4.63 330 23:40 30.07.2022
2410 Clear 26 1018 49 10000 3.6 340 22:19 30.07.2022
2411 Clear 27 1018 47 10000 3.6 340 21:48 30.07.2022
2412 Clear 28 1018 41 10000 4.12 330 20:57 30.07.2022
2413 Clear 30 1017 38 10000 4.63 330 19:59 30.07.2022
2414 Clear 30 1018 36 10000 5.14 290 18:53 30.07.2022
2415 Clear 30 1018 34 10000 4.12 310 17:44 30.07.2022
2416 Clear 30 1018 35 10000 5.66 290 15:54 30.07.2022
2417 Clear 30 1019 35 10000 4.12 250 15:24 30.07.2022
2418 Clear 28 1019 38 10000 3.09 250 13:18 30.07.2022
2419 Clear 26 1019 41 10000 1.54 0 12:19 30.07.2022
2420 Clear 24 1019 52 10000 1.03 0 10:31 30.07.2022
2421 Clear 24 1019 52 10000 1.03 0 10:31 30.07.2022
2422 Clear 24 1019 52 10000 1.03 0 10:31 30.07.2022
2423 Clear 24 1019 52 10000 1.03 0 10:31 30.07.2022
2424 Clear 23 1020 54 10000 1.54 320 09:56 30.07.2022
2425 Clear 18 1019 69 10000 1.03 0 07:55 30.07.2022
2426 Clear 20 1018 57 10000 3.09 10 03:55 30.07.2022
2427 Clear 21 1019 53 10000 2.06 350 02:25 30.07.2022
2428 Clear 25 1018 45 10000 1.54 360 22:44 29.07.2022
2429 Clear 27 1016 40 10000 2.06 330 21:24 29.07.2022
2430 Clear 28 1016 36 10000 2.57 340 20:41 29.07.2022
2431 Clear 29 1016 33 10000 4.63 330 18:26 29.07.2022
2432 Clear 29 1016 33 10000 4.12 280 16:32 29.07.2022
2433 Clear 28 1016 36 10000 2.57 0 13:45 29.07.2022
2434 Clear 25 1017 43 10000 2.06 350 11:30 29.07.2022
2435 Clear 19 1016 59 10000 1.03 0 08:50 29.07.2022
2436 Clear 18 1016 65 10000 1.03 10 08:20 29.07.2022
2437 Clear 18 1015 57 10000 1.54 60 02:52 29.07.2022
2438 Clear 21 1015 46 10000 3.6 40 23:20 28.07.2022
2439 Clear 24 1014 40 10000 3.6 30 21:30 28.07.2022
2440 Clear 26 1014 37 10000 4.12 360 20:45 28.07.2022
2441 Clouds 26 1014 37 10000 0.45 270 19:44 28.07.2022
2442 Clear 26 1014 35 10000 4.63 340 19:26 28.07.2022
2443 Clear 27 1014 34 10000 2.57 360 17:45 28.07.2022
2444 Clear 27 1014 34 10000 2.57 360 17:19 28.07.2022
2445 Clouds 26 1014 34 10000 4.12 350 16:40 28.07.2022
2446 Clear 26 1014 35 10000 2.57 0 13:56 28.07.2022
2447 Clear 24 1014 41 10000 2.57 30 12:33 28.07.2022
2448 Clear 16 1015 64 10000 2.57 30 07:33 28.07.2022
2449 Clear 16 1015 63 10000 2.06 360 05:39 28.07.2022
2450 Clear 17 1015 61 10000 2.57 50 05:20 28.07.2022
2451 Clear 21 1016 46 10000 6.17 50 23:19 27.07.2022
2452 Clear 23 1016 40 10000 5.14 30 21:30 27.07.2022
2453 Clear 24 1015 37 10000 3.6 20 19:48 27.07.2022
2454 Clear 24 1016 37 10000 5.14 50 19:19 27.07.2022
2455 Clear 25 1017 39 10000 3.6 0 16:31 27.07.2022
2456 Clear 25 1017 40 10000 3.6 20 15:51 27.07.2022
2457 Clear 24 1018 43 10000 4.12 20 14:41 27.07.2022
2458 Clouds 23 1018 49 10000 3.6 70 13:34 27.07.2022
2459 Clouds 18 1019 71 10000 3.6 30 09:29 27.07.2022
2460 Clear 15 1019 80 10000 3.6 40 07:47 27.07.2022
2461 Clear 15 1019 84 10000 2.57 340 04:53 27.07.2022
2462 Clear 19 1019 65 10000 4.63 320 23:21 26.07.2022
2463 Clear 21 1018 57 10000 2.57 320 21:49 26.07.2022
2464 Clear 22 1018 53 10000 3.09 330 20:49 26.07.2022
2465 Clear 22 1018 50 10000 4.12 330 19:22 26.07.2022
2466 Clear 23 1018 50 10000 4.12 300 18:40 26.07.2022
2467 Clear 23 1018 51 10000 3.6 280 17:47 26.07.2022
2468 Clouds 22 1018 52 10000 3.6 280 15:43 26.07.2022
2469 Clear 22 1019 54 10000 4.12 300 14:43 26.07.2022
2470 Clouds 20 1019 66 10000 4.63 310 12:32 26.07.2022
2471 Clouds 19 1018 77 10000 4.12 300 10:20 26.07.2022
2472 Clouds 18 1018 81 10000 4.12 290 08:27 26.07.2022
2473 Clear 18 1017 71 10000 4.63 290 01:55 26.07.2022
2474 Clear 20 1017 66 10000 4.12 310 00:20 26.07.2022
2475 Clear 21 1016 61 10000 6.69 310 22:40 25.07.2022
2476 Clear 23 1015 54 10000 8.23 310 21:43 25.07.2022
2477 Clear 25 1015 45 10000 8.23 300 20:43 25.07.2022
2478 Clear 25 1014 43 10000 8.23 300 20:24 25.07.2022
2479 Clear 27 1014 39 10000 6.69 270 19:25 25.07.2022
2480 Clear 28 1013 41 9000 5.66 260 17:42 25.07.2022
2481 Clear 27 1013 42 9000 7.72 280 17:20 25.07.2022
2482 Clouds 25 1014 59 10000 6.17 260 13:28 25.07.2022
2483 Clouds 24 1013 63 10000 6.69 270 10:55 25.07.2022
2484 Clear 20 1011 72 10000 4.63 340 07:59 25.07.2022
2485 Clear 26 1011 53 10000 2.06 200 01:36 25.07.2022
2486 Clear 27 1012 49 10000 2.06 170 23:45 24.07.2022
2487 Clear 28 1012 49 10000 3.09 160 22:49 24.07.2022
2488 Clear 30 1012 42 10000 4.12 180 21:48 24.07.2022
2489 Clear 31 1012 40 10000 4.12 180 21:18 24.07.2022
2490 Clear 32 1012 37 10000 5.14 160 20:44 24.07.2022
2491 Clear 33 1012 35 10000 4.63 180 19:23 24.07.2022
2492 Clear 33 1013 35 10000 4.63 170 18:26 24.07.2022
2493 Clear 32 1015 36 10000 4.63 180 15:55 24.07.2022
2494 Clear 32 1015 37 10000 5.14 180 15:31 24.07.2022
2495 Clear 30 1017 39 10000 4.12 210 13:50 24.07.2022
2496 Clear 29 1017 44 10000 4.12 210 12:50 24.07.2022
2497 Clear 27 1018 52 10000 3.6 160 11:35 24.07.2022
2498 Clear 24 1019 64 10000 2.57 140 10:26 24.07.2022
2499 Clear 20 1019 80 10000 2.57 110 08:29 24.07.2022
2500 Clear 19 1019 83 10000 2.06 110 07:44 24.07.2022
2501 Clear 18 1020 84 10000 2.06 50 03:57 24.07.2022
2502 Clear 21 1019 73 10000 3.6 360 23:48 23.07.2022
2503 Clear 26 1019 52 10000 3.6 320 20:51 23.07.2022
2504 Clear 27 1019 51 10000 3.09 290 19:31 23.07.2022
2505 Clouds 27 1019 51 10000 4.12 310 18:50 23.07.2022
2506 Clouds 27 1020 54 9000 3.6 290 17:28 23.07.2022
2507 Clouds 26 1020 58 9000 4.12 240 16:31 23.07.2022
2508 Clouds 25 1020 63 10000 4.63 250 15:22 23.07.2022
2509 Clouds 25 1020 67 10000 4.63 240 14:56 23.07.2022
2510 Clouds 24 1021 70 10000 4.12 240 14:24 23.07.2022
2511 Clouds 23 1020 76 10000 2.06 220 12:44 23.07.2022
2512 Clouds 20 1020 87 7000 2.57 290 10:45 23.07.2022
2513 Mist 20 1019 88 10000 3.6 290 09:56 23.07.2022
2514 Mist 19 1019 90 10000 4.12 310 08:31 23.07.2022
2515 Mist 18 1018 95 10000 2.57 270 03:38 23.07.2022
2516 Mist 19 1018 93 10000 1.54 330 00:49 23.07.2022
2517 Clouds 20 1017 90 10000 2.57 10 22:32 22.07.2022
2518 Rain 22 1017 84 10000 3.09 360 20:51 22.07.2022
2519 Rain 24 1017 77 10000 3.6 340 19:35 22.07.2022
2520 Clouds 26 1016 68 10000 0.98 14 18:28 22.07.2022
2521 Clear 25 1016 69 10000 3.09 360 16:49 22.07.2022
2522 Clouds 24 1017 71 10000 2.57 80 14:51 22.07.2022
2523 Clear 22 1018 72 10000 2.57 40 11:22 22.07.2022
2524 Clear 20 1019 81 10000 3.09 40 09:26 22.07.2022
2525 Clear 18 1019 86 10000 3.6 20 08:32 22.07.2022
2526 Clear 17 1019 90 10000 3.6 30 06:59 22.07.2022
2527 Clear 20 1020 83 10000 5.14 60 02:25 22.07.2022
2528 Clear 23 1019 68 10000 3.6 40 22:43 21.07.2022
2529 Clear 25 1020 61 10000 4.12 30 21:33 21.07.2022
2530 Clear 27 1020 51 10000 3.09 360 19:28 21.07.2022
2531 Clear 26 1021 51 10000 3.09 360 17:41 21.07.2022
2532 Clear 26 1021 51 10000 1.54 360 17:19 21.07.2022
2533 Clear 26 1021 51 10000 1.54 360 17:19 21.07.2022
2534 Clouds 26 1022 56 10000 4.12 290 15:22 21.07.2022
2535 Clouds 25 1022 61 10000 4.12 260 14:37 21.07.2022
2536 Clouds 23 1022 73 10000 4.12 250 12:28 21.07.2022
2537 Clouds 21 1022 81 10000 4.12 300 11:19 21.07.2022
2538 Clouds 19 1021 87 10000 5.14 290 09:41 21.07.2022
2539 Clouds 19 1021 89 10000 4.12 280 08:52 21.07.2022
2540 Clouds 18 1021 91 10000 3.09 260 07:50 21.07.2022
2541 Clouds 17 1020 92 10000 3.09 300 06:25 21.07.2022
2542 Clouds 18 1020 91 10000 1.54 250 01:42 21.07.2022
2543 Clear 20 1019 87 10000 2.57 240 22:22 20.07.2022
2544 Clear 20 1019 87 10000 2.57 230 22:22 20.07.2022
2545 Clear 21 1018 84 10000 2.06 220 21:30 20.07.2022
2546 Rain 21 1019 81 10000 4.63 210 19:54 20.07.2022
2547 Rain 21 1019 81 10000 4.63 210 19:54 20.07.2022
2548 Clouds 21 1019 76 10000 5.66 200 19:25 20.07.2022
2549 Clouds 22 1018 75 10000 5.66 170 18:52 20.07.2022
2550 Clouds 23 1018 73 10000 6.69 160 18:29 20.07.2022
2551 Fog 22 1019 77 10000 5.66 150 16:49 20.07.2022
2552 Clouds 22 1019 82 10000 4.63 160 15:32 20.07.2022
2553 Clouds 20 1019 86 10000 3.6 200 14:32 20.07.2022
2554 Clouds 20 1019 86 10000 4.12 220 12:41 20.07.2022
2555 Clouds 19 1018 92 10000 4.12 220 10:28 20.07.2022
2556 Rain 21 1017 83 8000 4.63 260 05:52 20.07.2022
2557 Clear 26 1015 59 10000 4.12 260 00:58 20.07.2022
2558 Clear 26 1014 58 10000 4.63 260 00:40 20.07.2022
2559 Clouds 28 1013 52 10000 7.72 260 22:35 19.07.2022
2560 Clear 29 1012 53 10000 6.17 240 21:54 19.07.2022
2561 Clouds 31 1011 52 8000 8.75 250 20:49 19.07.2022
2562 Clear 38 1010 24 7000 8.23 190 19:22 19.07.2022
2563 Clear 39 1010 22 7000 6.17 180 18:41 19.07.2022
2564 Clear 40 1010 22 7000 6.69 160 17:53 19.07.2022
2565 Clear 40 1011 20 8000 7.2 140 15:27 19.07.2022
2566 Clear 38 1011 20 10000 7.2 110 13:37 19.07.2022
2567 Clear 33 1013 29 10000 4.63 110 11:33 19.07.2022
2568 Clear 30 1014 36 10000 3.6 130 09:52 19.07.2022
2569 Clear 27 1014 41 10000 4.12 120 08:47 19.07.2022
2570 Clear 25 1014 45 10000 2.57 50 07:57 19.07.2022
2571 Clear 24 1015 46 10000 3.6 110 07:18 19.07.2022
2572 Clear 24 1015 44 10000 3.09 30 05:19 19.07.2022
2573 Clear 25 1015 41 10000 1.54 80 03:40 19.07.2022
2574 Clear 29 1016 35 10000 2.57 50 23:57 18.07.2022
2575 Clear 30 1016 32 10000 3.6 60 23:20 18.07.2022
2576 Clear 31 1017 30 10000 2.57 50 22:42 18.07.2022
2577 Clear 34 1016 26 10000 2.57 90 21:26 18.07.2022
2578 Clear 36 1017 22 10000 3.09 90 20:45 18.07.2022
2579 Clear 38 1017 19 10000 3.09 140 18:50 18.07.2022
2580 Clear 37 1019 19 10000 2.06 160 16:45 18.07.2022
2581 Clear 36 1019 20 10000 2.06 130 15:40 18.07.2022
2582 Clear 34 1021 24 10000 3.09 90 13:40 18.07.2022
2583 Clear 32 1020 30 10000 3.09 110 12:29 18.07.2022
2584 Clear 27 1021 39 10000 2.06 100 10:24 18.07.2022
2585 Clear 22 1021 47 10000 3.09 140 08:21 18.07.2022
2586 Clear 20 1021 50 10000 2.57 110 06:48 18.07.2022
2587 Clear 26 1022 33 10000 2.57 50 23:30 17.07.2022
2588 Clear 27 1022 34 10000 3.6 60 22:32 17.07.2022
2589 Clear 29 1021 30 10000 3.6 60 21:44 17.07.2022
2590 Clear 30 1021 27 10000 3.6 100 20:54 17.07.2022
2591 Clear 31 1022 24 10000 3.6 70 20:35 17.07.2022
2592 Clear 32 1021 24 10000 3.6 60 19:26 17.07.2022
2593 Clear 32 1022 24 10000 4.12 80 18:26 17.07.2022
2594 Clear 32 1023 24 10000 4.12 70 17:38 17.07.2022
2595 Clear 32 1023 25 10000 5.14 40 16:50 17.07.2022
2596 Clear 31 1023 26 10000 5.14 40 16:25 17.07.2022
2597 Clear 29 1024 30 10000 4.63 30 14:37 17.07.2022
2598 Clear 27 1025 32 10000 2.57 0 13:30 17.07.2022
2599 Clear 25 1025 41 10000 4.63 70 11:32 17.07.2022
2600 Clear 20 1025 55 10000 4.12 50 08:57 17.07.2022
2601 Clear 20 1025 55 10000 3.6 60 03:44 17.07.2022
2602 Clear 21 1024 52 10000 5.14 60 02:32 17.07.2022
2603 Clear 24 1024 44 10000 6.17 50 23:20 16.07.2022
2604 Clear 26 1023 38 10000 5.66 40 21:30 16.07.2022
2605 Clear 28 1022 33 10000 3.6 20 19:30 16.07.2022
2606 Clear 29 1022 31 10000 4.63 30 18:32 16.07.2022
2607 Clear 29 1022 31 10000 4.63 40 16:34 16.07.2022
2608 Clear 26 1023 37 10000 4.63 50 13:49 16.07.2022
2609 Clear 23 1023 48 10000 3.09 20 10:55 16.07.2022
2610 Clear 20 1023 56 10000 2.57 10 09:33 16.07.2022
2611 Clear 18 1023 64 10000 2.06 30 08:44 16.07.2022
2612 Clear 17 1022 63 10000 1.03 0 08:23 16.07.2022
2613 Clear 17 1022 64 10000 2.57 10 04:24 16.07.2022
2614 Clear 17 1022 62 10000 3.09 350 03:22 16.07.2022
2615 Clear 21 1021 42 10000 2.57 340 23:34 15.07.2022
2616 Clear 23 1021 38 10000 3.09 50 22:41 15.07.2022
2617 Clear 25 1021 33 10000 3.6 20 21:29 15.07.2022
2618 Clear 26 1020 31 10000 3.6 10 20:30 15.07.2022
2619 Clear 27 1021 29 10000 3.6 340 18:44 15.07.2022
2620 Clear 27 1021 29 10000 4.12 20 17:44 15.07.2022
2621 Clear 25 1022 32 10000 4.92 38 14:54 15.07.2022
2622 Clear 24 1022 37 10000 5.14 50 13:20 15.07.2022
2623 Clear 22 1023 47 10000 5.14 50 11:45 15.07.2022
2624 Clear 20 1023 53 10000 5.66 40 10:27 15.07.2022
2625 Clear 16 1023 66 10000 4.12 30 06:30 15.07.2022
2626 Clear 20 1022 58 10000 4.12 360 02:24 15.07.2022
2627 Clear 22 1021 51 10000 7.2 30 00:37 15.07.2022
2628 Clear 24 1020 51 10000 6.69 10 22:53 14.07.2022
2629 Clear 25 1020 47 10000 5.66 360 21:56 14.07.2022
2630 Clear 26 1019 44 8000 7.2 330 21:32 14.07.2022
2631 Clear 28 1019 37 7000 6.69 330 20:46 14.07.2022
2632 Clear 28 1019 36 7000 6.69 330 20:28 14.07.2022
2633 Clear 29 1018 34 7000 6.17 330 19:58 14.07.2022
2634 Clear 31 1018 32 9000 5.14 340 16:23 14.07.2022
2635 Clear 31 1018 30 10000 5.66 310 15:54 14.07.2022
2636 Clear 30 1018 33 10000 5.14 320 14:44 14.07.2022
2637 Clear 29 1018 39 10000 5.14 320 13:33 14.07.2022
2638 Clear 27 1018 46 10000 3.6 320 12:19 14.07.2022
2639 Clear 26 1018 52 10000 4.12 330 11:25 14.07.2022
2640 Clear 25 1019 55 10000 4.12 320 10:49 14.07.2022
2641 Clear 22 1019 66 10000 2.57 320 08:22 14.07.2022
2642 Clear 23 1019 58 10000 1.54 230 03:42 14.07.2022
2643 Clear 25 1019 51 10000 1.54 340 00:55 14.07.2022
2644 Clear 27 1020 45 10000 3.09 30 23:41 13.07.2022
2645 Clear 29 1019 43 10000 6.17 10 22:27 13.07.2022
2646 Clear 31 1018 39 10000 4.63 360 21:32 13.07.2022
2647 Clear 35 1018 27 10000 4.12 330 20:38 13.07.2022
2648 Clear 36 1018 24 10000 3.09 220 18:22 13.07.2022
2649 Clear 36 1019 24 10000 2.57 0 17:22 13.07.2022
2650 Clear 35 1019 26 10000 4.63 240 15:59 13.07.2022
2651 Clear 34 1021 29 10000 3.09 260 13:50 13.07.2022
2652 Clear 29 1021 38 10000 3.09 240 11:33 13.07.2022
2653 Clear 27 1021 42 10000 2.57 250 10:44 13.07.2022
2654 Clear 25 1021 50 10000 1.54 200 09:30 13.07.2022
2655 Clear 23 1021 57 10000 1.54 0 08:24 13.07.2022
2656 Clear 22 1021 54 10000 1.54 0 04:50 13.07.2022
2657 Clear 24 1023 47 10000 3.09 150 00:47 13.07.2022
2658 Clear 27 1022 38 10000 2.57 120 22:47 12.07.2022
2659 Clear 29 1023 33 10000 2.06 100 21:49 12.07.2022
2660 Clear 31 1023 28 10000 1.54 130 20:54 12.07.2022
2661 Clear 32 1022 27 10000 2.57 90 20:21 12.07.2022
2662 Clear 33 1021 25 10000 3.09 120 18:51 12.07.2022
2663 Clear 33 1022 25 10000 2.06 110 17:29 12.07.2022
2664 Clear 32 1022 28 10000 3.09 150 15:35 12.07.2022
2665 Clear 30 1023 36 10000 2.57 0 13:43 12.07.2022
2666 Clear 28 1023 46 10000 2.57 60 11:59 12.07.2022
2667 Clear 25 1023 57 10000 2.06 80 10:46 12.07.2022
2668 Clear 22 1023 66 10000 2.57 80 09:18 12.07.2022
2669 Clear 20 1023 73 10000 2.06 360 07:57 12.07.2022
2670 Clear 19 1022 77 10000 2.06 350 05:54 12.07.2022
2671 Clear 19 1022 76 10000 2.57 350 05:35 12.07.2022
2672 Clear 23 1022 62 10000 4.63 70 01:36 12.07.2022
2673 Clear 25 1021 46 10000 3.6 60 22:50 11.07.2022
2674 Clear 28 1021 41 10000 4.63 30 21:44 11.07.2022
2675 Clear 29 1020 40 10000 5.14 30 20:33 11.07.2022
2676 Clear 30 1020 39 10000 4.63 30 19:32 11.07.2022
2677 Clear 30 1020 39 10000 5.14 70 18:32 11.07.2022
2678 Clear 30 1021 39 10000 4.63 20 17:31 11.07.2022
2679 Clear 29 1021 43 10000 5.14 50 15:34 11.07.2022
2680 Clear 27 1022 46 10000 5.66 70 13:39 11.07.2022
2681 Clear 24 1022 52 10000 4.12 60 11:38 11.07.2022
2682 Clear 23 1023 56 10000 6.17 80 10:18 11.07.2022
2683 Clear 22 1023 59 10000 5.66 80 09:41 11.07.2022
2684 Clear 20 1023 66 10000 5.66 70 08:33 11.07.2022
2685 Clear 18 1023 70 10000 4.12 70 04:34 11.07.2022
2686 Clear 21 1023 59 10000 5.14 70 00:20 11.07.2022
2687 Clear 23 1023 54 10000 6.17 50 22:56 10.07.2022
2688 Clear 24 1023 50 10000 5.66 60 21:51 10.07.2022
2689 Clear 25 1023 47 10000 5.66 50 20:54 10.07.2022
2690 Clear 27 1023 43 10000 6.17 40 19:50 10.07.2022
2691 Clear 27 1023 41 10000 5.66 50 18:48 10.07.2022
2692 Clear 27 1023 41 10000 5.14 40 17:37 10.07.2022
2693 Clear 27 1024 41 10000 5.66 40 16:57 10.07.2022
2694 Clear 25 1024 44 10000 5.14 40 15:28 10.07.2022
2695 Clear 24 1025 45 10000 6.17 50 14:30 10.07.2022
2696 Clear 22 1026 48 10000 5.66 50 12:29 10.07.2022
2697 Clear 21 1026 50 10000 5.14 50 11:20 10.07.2022
2698 Clear 17 1027 69 10000 4.12 40 08:45 10.07.2022
2699 Clear 15 1027 77 10000 4.12 50 07:39 10.07.2022
2700 Clear 17 1027 68 10000 4.63 20 02:50 10.07.2022
2701 Clear 21 1027 54 10000 6.69 30 22:59 09.07.2022
2702 Clear 22 1026 55 10000 7.2 30 22:25 09.07.2022
2703 Clear 24 1026 56 10000 7.72 10 21:28 09.07.2022
2704 Clear 29 1025 39 10000 5.14 360 18:45 09.07.2022
2705 Clear 29 1025 38 10000 5.14 10 17:48 09.07.2022
2706 Clear 29 1025 39 10000 4.63 20 16:58 09.07.2022
2707 Clear 28 1026 41 10000 4.12 360 15:44 09.07.2022
2708 Clear 28 1026 42 10000 4.12 360 15:25 09.07.2022
2709 Clear 27 1027 45 10000 3.6 0 13:51 09.07.2022
2710 Clear 26 1027 47 10000 4.12 360 12:53 09.07.2022
2711 Clear 25 1028 50 10000 3.09 330 11:33 09.07.2022
2712 Clear 23 1028 60 10000 2.06 340 10:23 09.07.2022
2713 Clear 18 1028 77 10000 3.09 350 07:54 09.07.2022
2714 Clear 16 1028 80 10000 3.6 350 06:58 09.07.2022
2715 Clear 17 1029 76 10000 2.57 10 04:34 09.07.2022
2716 Clear 22 1029 55 10000 3.09 50 23:22 08.07.2022
2717 Clear 24 1029 44 10000 3.6 30 21:59 08.07.2022
2718 Clear 26 1029 40 10000 4.12 20 20:59 08.07.2022
2719 Clear 26 1029 38 10000 4.12 20 20:25 08.07.2022
2720 Clear 27 1029 36 10000 4.63 20 18:33 08.07.2022
2721 Clear 27 1030 36 10000 4.63 10 17:33 08.07.2022
2722 Clear 27 1030 36 10000 4.63 10 17:33 08.07.2022
2723 Clear 25 1031 41 10000 4.12 30 14:55 08.07.2022
2724 Clear 24 1031 41 10000 4.12 40 14:29 08.07.2022
2725 Clear 21 1032 51 10000 4.12 50 12:28 08.07.2022
2726 Clear 18 1032 63 10000 3.6 20 10:45 08.07.2022
2727 Clear 16 1032 71 10000 4.12 40 08:55 08.07.2022
2728 Clear 12 1032 83 10000 2.57 30 06:55 08.07.2022
2729 Clear 13 1031 79 10000 4.63 30 04:31 08.07.2022
2730 Clear 17 1031 70 10000 3.58 42 23:56 07.07.2022
2731 Clear 18 1030 68 10000 5.14 10 22:45 07.07.2022
2732 Clouds 19 1029 63 10000 4.63 10 21:39 07.07.2022
2733 Clouds 21 1028 62 10000 6.17 350 18:43 07.07.2022
2734 Clouds 21 1028 62 10000 5.14 360 17:41 07.07.2022
2735 Clouds 22 1028 63 10000 5.14 350 15:34 07.07.2022
2736 Clouds 21 1027 66 10000 5.66 340 13:30 07.07.2022
2737 Clouds 21 1026 65 10000 5.66 340 12:40 07.07.2022
2738 Clouds 21 1026 66 10000 5.66 340 12:21 07.07.2022
2739 Clouds 21 1025 66 10000 5.14 330 11:31 07.07.2022
2740 Clouds 21 1025 72 10000 4.63 330 10:44 07.07.2022
2741 Clouds 20 1025 73 10000 4.63 330 10:26 07.07.2022
2742 Clouds 17 1024 86 10000 4.12 310 07:58 07.07.2022
2743 Clear 16 1024 82 10000 3.6 310 05:23 07.07.2022
2744 Clouds 21 1025 66 10000 0.89 270 23:37 06.07.2022
2745 Clear 21 1025 62 10000 4.63 330 23:19 06.07.2022
2746 Clear 21 1025 61 10000 4.63 330 22:58 06.07.2022
2747 Clear 22 1025 59 10000 4.12 320 22:40 06.07.2022
2748 Clear 22 1024 56 10000 5.14 320 21:59 06.07.2022
2749 Clear 26 1024 41 10000 5.66 320 19:45 06.07.2022
2750 Clear 26 1024 39 10000 5.14 320 18:41 06.07.2022
2751 Clear 26 1025 40 10000 3.6 0 16:45 06.07.2022
2752 Clear 25 1025 42 10000 4.12 310 15:39 06.07.2022
2753 Clouds 23 1027 48 10000 3.09 0 12:44 06.07.2022
2754 Clouds 22 1027 50 10000 3.09 20 11:49 06.07.2022
2755 Clear 21 1027 53 10000 2.06 310 10:33 06.07.2022
2756 Clear 17 1027 71 10000 2.57 340 08:43 06.07.2022
2757 Clear 14 1027 81 10000 2.06 330 07:41 06.07.2022
2758 Clear 13 1027 84 10000 3.09 340 06:40 06.07.2022
2759 Clear 20 1025 53 10000 5.14 340 22:50 05.07.2022
2760 Clear 21 1024 52 10000 6.17 340 22:28 05.07.2022
2761 Clear 24 1023 43 10000 5.14 340 20:45 05.07.2022
2762 Clear 25 1022 39 10000 4.12 330 19:54 05.07.2022
2763 Clear 26 1022 37 10000 4.12 320 19:35 05.07.2022
2764 Clear 26 1022 39 10000 3.6 330 17:49 05.07.2022
2765 Clear 26 1023 40 10000 3.6 330 17:18 05.07.2022
2766 Clear 25 1023 44 10000 3.6 320 15:39 05.07.2022
2767 Clear 24 1023 47 10000 3.6 300 14:44 05.07.2022
2768 Clouds 22 1024 52 10000 3.6 320 12:52 05.07.2022
2769 Clouds 21 1024 57 10000 3.09 10 12:21 05.07.2022
2770 Clouds 19 1023 67 10000 2.06 360 10:45 05.07.2022
2771 Clear 17 1024 77 10000 2.57 350 09:32 05.07.2022
2772 Clear 15 1024 83 10000 4.12 320 08:19 05.07.2022
2773 Clear 13 1023 88 10000 3.09 320 06:47 05.07.2022
2774 Clear 14 1022 81 10000 3.6 320 04:28 05.07.2022
2775 Clear 17 1023 70 10000 5.14 350 00:43 05.07.2022
2776 Clear 19 1022 65 10000 5.66 330 23:36 04.07.2022
2777 Clear 20 1021 63 10000 4.63 340 22:54 04.07.2022
2778 Clear 22 1020 52 10000 6.17 330 21:56 04.07.2022
2779 Clear 25 1020 41 10000 4.12 340 20:54 04.07.2022
2780 Clear 25 1019 39 10000 4.12 330 20:35 04.07.2022
2781 Clear 26 1019 37 10000 3.6 350 19:56 04.07.2022
2782 Clear 26 1019 36 10000 3.6 340 19:36 04.07.2022
2783 Clear 26 1019 36 10000 4.12 350 18:34 04.07.2022
2784 Clear 26 1020 38 10000 3.6 320 16:42 04.07.2022
2785 Clear 24 1020 42 10000 3.6 340 15:34 04.07.2022
2786 Clear 23 1021 45 10000 2.57 350 13:41 04.07.2022
2787 Clear 22 1021 49 10000 2.57 290 12:38 04.07.2022
2788 Clouds 19 1022 61 10000 2.06 250 10:39 04.07.2022
2789 Clouds 19 1022 61 10000 2.06 340 10:18 04.07.2022
2790 Clear 16 1022 75 10000 1.54 340 08:31 04.07.2022
2791 Clear 13 1022 82 10000 1.54 340 05:36 04.07.2022
2792 Clear 17 1021 66 10000 3.6 340 00:43 04.07.2022
2793 Clear 18 1021 61 10000 4.63 330 23:27 03.07.2022
2794 Clear 20 1021 54 10000 4.12 330 22:23 03.07.2022
2795 Clear 23 1020 44 8000 5.14 360 20:42 03.07.2022
2796 Clear 24 1019 42 9000 5.14 310 19:42 03.07.2022
2797 Clear 24 1019 42 9000 5.14 310 19:23 03.07.2022
2798 Clear 25 1019 42 10000 4.12 280 17:46 03.07.2022
2799 Clouds 25 1019 44 10000 4.63 270 17:18 03.07.2022
2800 Clear 23 1020 49 10000 4.63 300 15:26 03.07.2022
2801 Clouds 23 1020 51 10000 4.63 300 14:49 03.07.2022
2802 Clouds 22 1020 55 10000 3.6 280 13:49 03.07.2022
2803 Clouds 21 1020 59 10000 4.12 300 12:42 03.07.2022
2804 Clouds 21 1020 61 10000 2.57 320 11:46 03.07.2022
2805 Clear 20 1020 63 10000 2.06 330 10:51 03.07.2022
2806 Clear 19 1020 66 10000 2.57 310 10:33 03.07.2022
2807 Clear 14 1020 77 10000 3.09 330 07:38 03.07.2022
2808 Clear 14 1019 76 10000 2.57 340 05:34 03.07.2022
2809 Clear 19 1019 65 10000 6.17 350 00:26 03.07.2022
2810 Clear 22 1017 48 10000 2.57 260 22:37 02.07.2022
2811 Clear 23 1018 44 10000 2.57 210 22:18 02.07.2022
2812 Clear 26 1017 36 10000 3.6 200 20:26 02.07.2022
2813 Clear 27 1017 35 10000 3.09 190 19:49 02.07.2022
2814 Clear 27 1018 35 10000 3.09 150 18:20 02.07.2022
2815 Clear 27 1018 36 10000 2.57 0 17:38 02.07.2022
2816 Clear 26 1018 38 10000 2.06 130 15:46 02.07.2022
2817 Clear 24 1020 41 10000 2.57 210 13:35 02.07.2022
2818 Clear 22 1021 45 10000 3.6 180 11:48 02.07.2022
2819 Clear 22 1021 49 10000 2.57 130 10:50 02.07.2022
2820 Clear 20 1021 56 10000 3.09 140 09:49 02.07.2022
2821 Clear 16 1021 74 10000 2.06 140 08:37 02.07.2022
2822 Clear 15 1022 80 10000 1.54 30 08:19 02.07.2022
2823 Clear 13 1021 80 10000 1.54 280 02:59 02.07.2022
2824 Clear 15 1021 67 10000 2.06 230 00:28 02.07.2022
2825 Clear 17 1021 62 10000 1.54 250 23:26 01.07.2022
2826 Clouds 19 1021 55 10000 1.54 220 22:33 01.07.2022
2827 Clouds 20 1020 48 10000 3.09 250 21:38 01.07.2022
2828 Clear 21 1020 47 10000 3.09 220 20:58 01.07.2022
2829 Clear 21 1020 45 10000 4.12 230 20:32 01.07.2022
2830 Clear 21 1020 45 10000 4.63 230 19:36 01.07.2022
2831 Clear 21 1020 46 10000 4.12 250 17:18 01.07.2022
2832 Clouds 20 1020 50 10000 4.63 290 14:34 01.07.2022
2833 Clouds 20 1019 52 10000 3.09 240 13:54 01.07.2022
2834 Clouds 18 1019 60 10000 4.12 290 11:22 01.07.2022
2835 Clouds 17 1019 64 10000 4.63 280 10:19 01.07.2022
2836 Clear 12 1019 94 10000 2.06 260 07:38 01.07.2022
2837 Clear 12 1017 91 10000 2.57 190 02:43 01.07.2022
2838 Clear 14 1016 84 10000 2.06 220 00:21 01.07.2022
2839 Clouds 14 1016 84 10000 2.57 290 22:52 30.06.2022
2840 Clear 15 1016 83 10000 3.09 260 22:32 30.06.2022
2841 Clear 15 1015 82 10000 2.57 200 21:55 30.06.2022
2842 Clouds 17 1014 75 10000 4.63 200 20:58 30.06.2022
2843 Clouds 17 1015 78 10000 5.14 210 20:22 30.06.2022
2844 Clouds 17 1014 77 10000 4.63 180 19:51 30.06.2022
2845 Clouds 18 1014 78 10000 5.14 180 19:18 30.06.2022
2846 Clouds 17 1014 80 10000 4.12 200 18:34 30.06.2022
2847 Clouds 17 1015 82 10000 3.6 160 17:37 30.06.2022
2848 Clouds 16 1014 82 10000 3.6 160 16:48 30.06.2022
2849 Clouds 14 1014 93 10000 2.57 250 14:47 30.06.2022
2850 Rain 14 1014 94 6000 3.09 210 13:30 30.06.2022
2851 Rain 14 1013 93 10000 2.06 230 12:35 30.06.2022
2852 Rain 14 1013 92 10000 2.57 240 11:28 30.06.2022
2853 Rain 14 1013 93 7000 3.09 230 09:53 30.06.2022
2854 Rain 14 1014 93 10000 3.09 210 09:32 30.06.2022
2855 Rain 14 1013 91 10000 1.54 0 07:51 30.06.2022
2856 Clouds 15 1013 85 10000 2.06 250 05:57 30.06.2022
2857 Clear 18 1013 75 10000 5.14 290 00:32 30.06.2022
2858 Clear 18 1013 73 10000 4.63 280 23:34 29.06.2022
2859 Clear 20 1013 71 10000 6.69 280 22:39 29.06.2022
2860 Clear 22 1012 61 10000 6.17 290 21:37 29.06.2022
2861 Clear 24 1011 52 10000 4.12 280 20:34 29.06.2022
2862 Clear 25 1011 46 10000 5.14 250 19:37 29.06.2022
2863 Clear 26 1011 41 10000 4.12 240 17:45 29.06.2022
2864 Clear 26 1012 40 7000 4.63 270 16:41 29.06.2022
2865 Clear 26 1013 41 7000 4.12 210 15:19 29.06.2022
2866 Clear 23 1014 46 9000 5.14 220 12:47 29.06.2022
2867 Clear 23 1014 50 10000 5.14 240 11:32 29.06.2022
2868 Clear 20 1014 60 10000 1.03 0 09:33 29.06.2022
2869 Clear 18 1014 70 10000 2.57 310 08:26 29.06.2022
2870 Clear 15 1014 77 10000 1.03 0 04:57 29.06.2022
2871 Clear 18 1015 63 10000 2.57 330 01:48 29.06.2022
2872 Clear 20 1015 57 10000 3.6 290 00:37 29.06.2022
2873 Clear 21 1015 52 10000 2.57 280 22:56 28.06.2022
2874 Clear 21 1016 50 10000 1.54 210 22:34 28.06.2022
2875 Clear 23 1016 43 10000 2.57 210 21:55 28.06.2022
2876 Clear 25 1015 38 10000 3.6 240 21:33 28.06.2022
2877 Clear 26 1016 35 10000 3.6 250 20:50 28.06.2022
2878 Clear 27 1016 32 10000 2.06 210 19:43 28.06.2022
2879 Clear 27 1016 32 10000 4.12 260 19:23 28.06.2022
2880 Clear 27 1016 33 10000 4.12 210 17:44 28.06.2022
2881 Clear 27 1016 34 10000 5.14 170 16:24 28.06.2022
2882 Clear 27 1017 34 10000 5.14 170 15:53 28.06.2022
2883 Clear 25 1018 39 10000 4.12 210 14:21 28.06.2022
2884 Clear 25 1018 39 10000 3.6 180 13:55 28.06.2022
2885 Clear 24 1018 42 10000 3.09 240 13:26 28.06.2022
2886 Clear 22 1019 52 10000 3.09 130 11:37 28.06.2022
2887 Clear 19 1020 65 10000 3.6 90 09:41 28.06.2022
2888 Clear 17 1021 72 10000 3.6 80 08:45 28.06.2022
2889 Clear 15 1021 79 10000 2.57 70 07:58 28.06.2022
2890 Clear 14 1021 84 10000 2.06 40 07:19 28.06.2022
2891 Clear 16 1021 75 10000 3.6 330 01:36 28.06.2022
2892 Clear 17 1021 65 10000 4.63 320 23:45 27.06.2022
2893 Clear 18 1021 56 10000 3.09 260 22:55 27.06.2022
2894 Clear 21 1019 44 10000 4.12 250 21:38 27.06.2022
2895 Clear 21 1019 43 10000 4.12 250 21:38 27.06.2022
2896 Clouds 22 1020 41 10000 4.63 260 20:55 27.06.2022
2897 Clear 23 1018 39 10000 5.66 260 19:44 27.06.2022
2898 Clear 23 1018 38 10000 4.63 250 18:40 27.06.2022
2899 Clear 23 1018 40 10000 6.17 250 17:24 27.06.2022
2900 Clear 23 1018 39 10000 5.66 230 15:43 27.06.2022
2901 Clear 22 1017 49 10000 4.63 250 13:44 27.06.2022
2902 Clouds 21 1017 54 10000 5.14 260 12:57 27.06.2022
2903 Clear 17 1017 75 10000 3.6 300 10:43 27.06.2022
2904 Clear 16 1017 83 10000 3.6 260 09:43 27.06.2022
2905 Clear 15 1016 88 10000 2.06 200 08:38 27.06.2022
2906 Clouds 15 1015 89 10000 2.06 190 07:39 27.06.2022
2907 Clear 15 1015 84 10000 1.03 0 04:40 27.06.2022
2908 Clear 16 1015 82 10000 2.57 240 01:20 27.06.2022
2909 Clouds 18 1015 69 10000 2.06 170 22:48 26.06.2022
2910 Clear 19 1014 63 10000 3.09 160 21:23 26.06.2022
2911 Clouds 20 1014 58 10000 3.09 160 19:59 26.06.2022
2912 Clouds 21 1014 55 10000 2.57 140 18:33 26.06.2022
2913 Clouds 22 1014 53 10000 2.57 150 17:38 26.06.2022
2914 Clear 21 1014 53 10000 2.57 160 15:35 26.06.2022
2915 Clouds 21 1015 52 10000 2.06 150 13:59 26.06.2022
2916 Clouds 20 1015 53 10000 2.57 0 13:23 26.06.2022
2917 Clouds 19 1015 59 10000 1.54 0 11:39 26.06.2022
2918 Clear 17 1016 68 10000 1.54 270 10:42 26.06.2022
2919 Clear 16 1016 74 10000 1.54 0 09:55 26.06.2022
2920 Clear 14 1015 89 10000 2.06 280 07:47 26.06.2022
2921 Clear 13 1014 92 10000 2.57 230 05:26 26.06.2022
2922 Clear 15 1013 87 10000 3.09 190 00:36 26.06.2022
2923 Clear 15 1013 86 10000 3.6 200 00:18 26.06.2022
2924 Clear 15 1013 84 10000 3.6 200 23:29 25.06.2022
2925 Clear 15 1013 81 10000 3.6 200 22:42 25.06.2022
2926 Clear 15 1012 79 10000 3.6 200 22:24 25.06.2022
2927 Clear 17 1011 75 10000 2.57 190 21:21 25.06.2022
2928 Clear 17 1011 74 10000 2.57 190 20:36 25.06.2022
2929 Clear 17 1012 77 10000 3.6 190 19:56 25.06.2022
2930 Clouds 17 1012 84 10000 4.12 140 18:22 25.06.2022
2931 Clouds 17 1012 85 10000 1.54 240 17:26 25.06.2022
2932 Clouds 17 1012 82 10000 1.54 160 16:26 25.06.2022
2933 Rain 18 1011 79 8000 2.57 190 14:29 25.06.2022
2934 Clouds 18 1011 75 10000 3.6 230 12:45 25.06.2022
2935 Clouds 18 1011 74 10000 3.09 230 11:55 25.06.2022
2936 Clouds 17 1011 80 10000 3.09 240 09:24 25.06.2022
2937 Rain 17 1011 80 10000 3.6 250 08:49 25.06.2022
2938 Clouds 17 1011 80 10000 3.6 250 08:20 25.06.2022
2939 Clouds 17 1010 86 10000 3.09 210 06:35 25.06.2022
2940 Clear 19 1009 70 10000 4.63 220 00:45 25.06.2022
2941 Clear 19 1009 70 10000 4.63 220 23:54 24.06.2022
2942 Clear 20 1009 64 10000 3.6 210 22:26 24.06.2022
2943 Clear 22 1008 60 10000 5.14 220 21:22 24.06.2022
2944 Clouds 22 1007 60 10000 6.69 240 20:23 24.06.2022
2945 Clouds 23 1007 60 10000 7.2 230 19:24 24.06.2022
2946 Clouds 23 1008 61 10000 5.66 230 18:51 24.06.2022
2947 Clouds 24 1007 57 10000 6.69 250 18:31 24.06.2022
2948 Clouds 22 1007 61 10000 7.2 250 17:49 24.06.2022
2949 Clouds 23 1007 64 10000 7.72 240 16:45 24.06.2022
2950 Clouds 23 1007 64 10000 7.72 240 16:45 24.06.2022
2951 Clouds 23 1007 67 10000 6.69 230 14:30 24.06.2022
2952 Clouds 22 1007 66 10000 5.66 200 13:58 24.06.2022
2953 Clouds 23 1007 63 10000 5.66 200 13:35 24.06.2022
2954 Clouds 22 1007 68 10000 5.14 220 11:41 24.06.2022
2955 Clouds 20 1008 79 10000 4.63 210 10:36 24.06.2022
2956 Clouds 19 1008 87 10000 3.09 220 09:41 24.06.2022
2957 Clouds 18 1008 89 10000 3.09 230 08:53 24.06.2022
2958 Clouds 18 1008 92 10000 3.6 220 07:56 24.06.2022
2959 Clear 18 1008 94 10000 2.06 220 06:43 24.06.2022
2960 Clouds 18 1008 92 10000 2.06 190 06:20 24.06.2022
2961 Rain 19 1008 86 10000 4.12 230 04:41 24.06.2022
2962 Clear 24 1008 59 10000 2.06 250 23:24 23.06.2022
2963 Clear 24 1008 56 10000 3.09 260 22:42 23.06.2022
2964 Clear 26 1008 50 10000 3.6 230 20:59 23.06.2022
2965 Clear 26 1008 49 10000 3.09 230 20:36 23.06.2022
2966 Clear 27 1007 48 10000 3.6 240 19:48 23.06.2022
2967 Clear 28 1008 46 10000 4.12 150 18:26 23.06.2022
2968 Clear 28 1008 46 10000 3.09 210 17:34 23.06.2022
2969 Clear 27 1009 49 10000 3.6 170 16:26 23.06.2022
2970 Clear 27 1009 51 10000 3.09 220 15:26 23.06.2022
2971 Clouds 26 1010 56 9000 4.63 160 14:18 23.06.2022
2972 Clouds 23 1010 67 10000 4.12 200 11:33 23.06.2022
2973 Clouds 22 1011 72 10000 4.12 200 10:40 23.06.2022
2974 Clouds 20 1011 80 10000 4.63 200 09:19 23.06.2022
2975 Mist 19 1009 92 5000 3.6 220 04:43 23.06.2022
2976 Clear 21 1010 79 10000 4.12 70 00:27 23.06.2022
2977 Clouds 22 1010 74 10000 3.6 50 23:49 22.06.2022
2978 Clouds 22 1010 73 10000 3.09 60 22:53 22.06.2022
2979 Clear 24 1009 67 10000 4.12 50 21:36 22.06.2022
2980 Clear 24 1009 64 10000 3.6 50 20:51 22.06.2022
2981 Clouds 24 1009 64 10000 5.14 60 20:18 22.06.2022
2982 Clear 25 1009 61 10000 4.63 50 19:27 22.06.2022
2983 Clear 25 1008 61 10000 5.14 50 17:33 22.06.2022
2984 Clear 25 1010 66 10000 5.14 70 16:41 22.06.2022
2985 Clear 25 1010 66 10000 5.14 70 16:41 22.06.2022
2986 Clear 24 1010 68 10000 3.6 60 15:28 22.06.2022
2987 Clear 23 1011 70 10000 3.6 40 14:47 22.06.2022
2988 Clear 23 1010 67 10000 4.12 70 13:47 22.06.2022
2989 Clear 22 1010 67 10000 3.6 90 13:24 22.06.2022
2990 Clear 20 1010 68 10000 2.57 30 11:54 22.06.2022
2991 Clear 20 1010 69 10000 3.6 40 11:29 22.06.2022
2992 Clear 18 1010 72 10000 3.6 10 10:43 22.06.2022
2993 Clear 17 1010 75 10000 4.12 360 09:18 22.06.2022
2994 Clouds 17 1010 76 10000 3.13 42 06:55 22.06.2022
2995 Clear 19 1010 68 10000 5.14 20 02:26 22.06.2022
2996 Clear 20 1011 61 10000 4.12 40 00:57 22.06.2022
2997 Clear 23 1011 63 10000 3.6 40 22:49 21.06.2022
2998 Clear 25 1010 59 10000 4.12 20 20:58 21.06.2022
2999 Clear 26 1009 57 10000 3.09 60 19:23 21.06.2022
3000 Clouds 27 1009 55 10000 3.09 50 17:54 21.06.2022
3001 Clouds 26 1010 56 10000 3.6 20 16:47 21.06.2022
3002 Clouds 20 1012 76 10000 2.06 150 11:59 21.06.2022
3003 Clouds 18 1012 79 10000 3.09 70 10:46 21.06.2022
3004 Clouds 17 1012 81 10000 4.12 40 09:24 21.06.2022
3005 Clouds 15 1011 89 10000 3.09 30 07:50 21.06.2022
3006 Clouds 17 1013 76 10000 3.6 50 04:57 21.06.2022
3007 Clear 18 1014 68 10000 5.14 60 00:31 21.06.2022
3008 Clear 20 1014 62 10000 5.66 50 22:21 20.06.2022
3009 Clear 21 1014 60 10000 5.66 60 21:40 20.06.2022
3010 Clouds 22 1014 59 10000 5.66 40 20:30 20.06.2022
3011 Clear 22 1014 62 10000 5.66 60 19:37 20.06.2022
3012 Clouds 22 1014 64 10000 5.66 40 18:34 20.06.2022
3013 Clouds 22 1014 65 10000 5.66 40 17:49 20.06.2022
3014 Clouds 22 1015 68 10000 5.14 50 16:36 20.06.2022
3015 Clouds 21 1015 69 10000 4.63 30 15:52 20.06.2022
3016 Clouds 16 1015 88 10000 4.12 40 12:37 20.06.2022
3017 Clouds 15 1015 93 9000 4.63 20 10:22 20.06.2022
3018 Mist 15 1014 95 10000 4.63 20 08:56 20.06.2022
3019 Mist 15 1013 94 10000 4.12 20 07:53 20.06.2022
3020 Mist 16 1011 95 9000 3.6 310 05:26 20.06.2022
3021 Rain 17 1011 92 6000 6.17 50 01:33 20.06.2022
3022 Rain 17 1012 88 9000 3.6 20 00:25 20.06.2022
3023 Thunderstorm 20 1008 79 10000 5.14 360 22:46 19.06.2022
3024 Clear 22 1009 68 10000 5.66 10 21:48 19.06.2022
3025 Clear 22 1009 67 10000 6.17 20 21:48 19.06.2022
3026 Clear 22 1008 67 10000 6.17 20 21:29 19.06.2022
3027 Clear 23 1008 64 10000 5.14 10 20:38 19.06.2022
3028 Clear 24 1008 62 10000 5.66 40 19:47 19.06.2022
3029 Clear 25 1008 59 10000 5.66 30 18:43 19.06.2022
3030 Clear 24 1009 56 10000 6.17 30 17:48 19.06.2022
3031 Clear 24 1009 58 10000 5.66 40 17:22 19.06.2022
3032 Clear 23 1009 59 10000 6.69 50 16:34 19.06.2022
3033 Clear 21 1010 64 10000 7.72 20 15:41 19.06.2022
3034 Clear 21 1010 68 10000 7.2 360 14:57 19.06.2022
3035 Clouds 21 1010 69 10000 8.75 10 14:19 19.06.2022
3036 Clouds 21 1011 73 10000 4.63 20 13:21 19.06.2022
3037 Clouds 16 1011 86 10000 4.63 70 10:55 19.06.2022
3038 Clouds 16 1010 88 10000 4.12 310 09:46 19.06.2022
3039 Rain 16 1009 87 10000 5.14 30 08:47 19.06.2022
3040 Thunderstorm 16 1009 89 10000 6.69 10 07:59 19.06.2022
3041 Clouds 17 1010 79 10000 6.69 320 05:37 19.06.2022
3042 Clear 28 1006 54 10000 4.12 350 01:30 19.06.2022
3043 Clear 29 1006 51 10000 3.09 150 00:25 19.06.2022
3044 Clear 29 1006 53 10000 2.57 140 23:36 18.06.2022
3045 Clear 30 1006 48 10000 2.57 110 22:39 18.06.2022
3046 Clear 35 1007 37 10000 4.12 110 20:57 18.06.2022
3047 Clear 35 1008 35 10000 4.63 100 20:38 18.06.2022
3048 Clear 36 1008 31 10000 5.14 100 19:40 18.06.2022
3049 Clear 36 1008 30 9000 5.14 110 18:53 18.06.2022
3050 Clear 36 1011 31 9000 4.12 150 17:35 18.06.2022
3051 Clear 36 1011 31 9000 4.12 140 16:59 18.06.2022
3052 Clear 36 1013 33 10000 4.12 140 15:37 18.06.2022
3053 Clear 35 1014 33 10000 4.12 130 14:46 18.06.2022
3054 Clear 34 1015 32 10000 4.12 140 13:42 18.06.2022
3055 Clear 32 1016 39 10000 2.57 160 11:58 18.06.2022
3056 Clear 30 1017 46 10000 1.54 170 10:56 18.06.2022
3057 Clear 30 1017 47 10000 1.54 170 10:56 18.06.2022
3058 Clear 26 1017 55 10000 2.06 30 09:28 18.06.2022
3059 Clear 24 1017 62 10000 1.54 160 08:32 18.06.2022
3060 Clear 22 1018 67 10000 1.54 30 07:23 18.06.2022
3061 Clear 22 1020 69 10000 2.06 40 03:58 18.06.2022
3062 Clear 25 1020 56 10000 1.54 60 01:27 18.06.2022
3063 Clear 25 1020 59 10000 1.54 60 00:49 18.06.2022
3064 Clear 26 1020 55 10000 1.54 70 00:21 18.06.2022
3065 Clear 27 1020 52 10000 1.54 90 23:29 17.06.2022
3066 Clear 31 1020 42 10000 1.54 270 21:33 17.06.2022
3067 Clear 33 1020 36 10000 2.57 270 20:28 17.06.2022
3068 Clear 34 1020 29 10000 2.57 260 18:59 17.06.2022
3069 Clear 34 1020 28 10000 1.54 0 17:46 17.06.2022
3070 Clear 34 1020 30 10000 2.06 140 16:43 17.06.2022
3071 Clear 33 1021 30 10000 2.57 250 16:19 17.06.2022
3072 Clear 33 1021 32 10000 3.09 230 15:37 17.06.2022
3073 Clear 31 1022 33 10000 2.06 270 14:22 17.06.2022
3074 Clear 31 1022 34 10000 2.06 270 13:51 17.06.2022
3075 Clear 30 1022 34 10000 2.06 140 13:31 17.06.2022
3076 Clear 29 1022 37 10000 2.57 170 12:20 17.06.2022
3077 Clear 29 1022 38 10000 2.57 170 11:49 17.06.2022
3078 Clear 28 1022 40 10000 2.57 170 11:30 17.06.2022
3079 Clear 22 1022 61 10000 3.09 120 08:45 17.06.2022
3080 Clear 21 1022 65 10000 3.09 120 08:24 17.06.2022
3081 Clear 19 1022 68 10000 2.06 120 06:35 17.06.2022
3082 Clear 20 1022 59 10000 2.06 90 03:25 17.06.2022
3083 Clear 20 1023 60 10000 2.57 70 01:55 17.06.2022
3084 Clear 24 1022 46 10000 2.57 50 23:34 16.06.2022
3085 Clear 24 1022 45 10000 2.57 40 22:40 16.06.2022
3086 Clear 28 1021 37 10000 2.06 350 21:21 16.06.2022
3087 Clear 28 1021 36 10000 2.06 350 20:51 16.06.2022
3088 Clear 28 1021 34 10000 2.06 340 20:27 16.06.2022
3089 Clear 30 1020 30 10000 2.06 350 19:31 16.06.2022
3090 Clear 30 1020 29 10000 3.09 70 17:57 16.06.2022
3091 Clear 29 1020 29 10000 3.6 30 17:33 16.06.2022
3092 Clear 29 1020 31 10000 4.12 60 16:24 16.06.2022
3093 Clear 29 1021 32 10000 2.57 60 15:21 16.06.2022
3094 Clear 28 1021 33 10000 3.09 80 14:27 16.06.2022
3095 Clear 26 1021 38 10000 3.09 70 12:59 16.06.2022
3096 Clear 26 1021 39 10000 3.6 40 12:35 16.06.2022
3097 Clear 25 1022 42 10000 3.6 330 11:49 16.06.2022
3098 Clear 23 1021 50 10000 3.09 360 10:42 16.06.2022
3099 Clear 21 1022 58 10000 3.6 360 09:43 16.06.2022
3100 Clear 21 1021 60 10000 3.6 360 09:20 16.06.2022
3101 Clear 19 1020 70 10000 2.06 320 07:57 16.06.2022
3102 Clear 17 1019 76 10000 3.09 350 06:51 16.06.2022
3103 Clear 18 1018 71 10000 3.09 350 04:28 16.06.2022
3104 Clear 21 1017 58 10000 4.12 340 01:53 16.06.2022
3105 Clear 21 1017 57 10000 4.12 350 01:34 16.06.2022
3106 Clear 22 1018 52 10000 4.12 20 00:36 16.06.2022
3107 Clear 24 1017 47 10000 5.14 20 23:25 15.06.2022
3108 Clear 25 1016 43 10000 3.6 350 22:28 15.06.2022
3109 Clear 28 1016 37 10000 4.63 320 21:21 15.06.2022
3110 Clear 29 1016 34 10000 4.12 320 20:38 15.06.2022
3111 Clear 30 1016 33 10000 4.63 320 20:19 15.06.2022
3112 Clear 31 1016 32 10000 3.6 340 18:51 15.06.2022
3113 Clear 31 1015 33 10000 3.6 350 17:55 15.06.2022
3114 Clear 30 1015 34 10000 2.57 360 16:40 15.06.2022
3115 Clear 29 1016 37 10000 3.09 320 15:35 15.06.2022
3116 Clear 28 1016 40 10000 2.57 40 13:43 15.06.2022
3117 Clear 27 1016 43 10000 3.09 30 12:54 15.06.2022
3118 Clear 26 1016 45 10000 4.12 50 11:52 15.06.2022
3119 Clear 22 1016 55 10000 3.6 40 10:24 15.06.2022
3120 Clouds 21 1016 58 10000 2.68 39 09:39 15.06.2022
3121 Clear 18 1016 71 10000 3.09 60 08:30 15.06.2022
3122 Clouds 16 1016 77 10000 2.57 30 06:34 15.06.2022
3123 Clear 16 1016 72 10000 2.57 30 03:59 15.06.2022
3124 Clear 18 1017 66 10000 3.09 40 01:54 15.06.2022
3125 Clear 18 1017 62 10000 3.09 50 00:50 15.06.2022
3126 Clear 20 1017 58 10000 3.6 20 23:39 14.06.2022
3127 Clear 20 1017 56 10000 3.09 80 23:19 14.06.2022
3128 Clear 22 1016 49 10000 3.09 30 22:21 14.06.2022
3129 Clear 24 1016 43 10000 3.6 40 21:36 14.06.2022
3130 Clear 25 1016 38 10000 3.6 50 20:54 14.06.2022
3131 Clear 25 1016 40 10000 3.6 50 20:28 14.06.2022
3132 Clear 26 1017 37 10000 3.6 50 19:18 14.06.2022
3133 Clear 26 1017 37 10000 3.6 60 17:54 14.06.2022
3134 Clear 25 1018 39 10000 4.12 90 16:43 14.06.2022
3135 Clear 25 1018 40 10000 4.12 50 15:50 14.06.2022
3136 Clear 25 1018 41 10000 4.63 50 15:24 14.06.2022
3137 Clear 24 1018 42 10000 4.63 70 14:33 14.06.2022
3138 Clear 24 1019 43 10000 3.6 100 13:42 14.06.2022
3139 Clear 23 1020 46 10000 3.6 60 12:45 14.06.2022
3140 Clear 21 1020 49 10000 4.12 80 11:38 14.06.2022
3141 Clear 20 1020 53 10000 4.12 70 10:48 14.06.2022
3142 Clear 19 1021 58 10000 3.09 60 10:22 14.06.2022
3143 Clear 16 1021 65 10000 3.6 50 08:48 14.06.2022
3144 Clouds 15 1021 72 10000 4.12 60 07:49 14.06.2022
3145 Clear 13 1021 74 10000 3.6 60 05:29 14.06.2022
3146 Clear 15 1022 69 10000 3.09 60 03:20 14.06.2022
3147 Clear 16 1023 66 10000 3.09 80 00:54 14.06.2022
3148 Clear 18 1022 59 10000 4.12 60 23:41 13.06.2022
3149 Clear 19 1022 53 10000 4.12 70 22:26 13.06.2022
3150 Clear 20 1022 49 10000 5.14 60 21:52 13.06.2022
3151 Clear 22 1022 44 10000 4.63 50 20:42 13.06.2022
3152 Clear 23 1022 41 10000 3.6 350 19:35 13.06.2022
3153 Clear 24 1022 39 10000 4.12 330 18:31 13.06.2022
3154 Clear 23 1022 41 10000 3.09 0 17:48 13.06.2022
3155 Clear 23 1023 42 10000 3.09 10 16:53 13.06.2022
3156 Clear 23 1023 43 10000 3.09 20 15:41 13.06.2022
3157 Clear 22 1024 45 10000 3.09 30 14:47 13.06.2022
3158 Clear 21 1024 47 10000 3.09 320 13:55 13.06.2022
3159 Clouds 20 1024 49 10000 3.6 340 12:59 13.06.2022
3160 Clear 19 1025 55 10000 2.57 330 11:38 13.06.2022
3161 Clear 17 1024 65 10000 3.6 340 10:28 13.06.2022
3162 Clear 16 1024 73 10000 3.09 330 09:42 13.06.2022
3163 Clear 14 1024 82 10000 4.12 320 08:25 13.06.2022
3164 Clear 11 1024 86 10000 2.57 320 06:34 13.06.2022
3165 Clear 13 1023 75 10000 4.63 330 03:45 13.06.2022
3166 Clear 15 1023 65 10000 3.6 340 01:39 13.06.2022
3167 Clear 16 1023 62 10000 4.63 340 00:48 13.06.2022
3168 Clear 17 1023 58 10000 5.14 330 23:33 12.06.2022
3169 Clear 19 1022 55 10000 6.17 320 22:23 12.06.2022
3170 Clear 21 1022 52 10000 5.66 320 21:40 12.06.2022
3171 Clear 22 1022 46 9000 5.66 310 20:40 12.06.2022
3172 Clear 24 1021 41 9000 4.63 320 19:42 12.06.2022
3173 Clear 24 1021 41 10000 4.12 350 18:44 12.06.2022
3174 Clear 24 1022 41 10000 4.63 320 16:44 12.06.2022
3175 Clear 23 1022 45 10000 3.6 350 15:33 12.06.2022
3176 Clear 23 1023 46 10000 4.12 330 14:41 12.06.2022
3177 Clear 23 1023 48 10000 3.09 320 14:18 12.06.2022
3178 Clear 23 1023 49 10000 3.09 320 13:43 12.06.2022
3179 Clouds 21 1024 54 10000 3.09 350 11:58 12.06.2022
3180 Clouds 19 1024 58 10000 3.6 360 10:46 12.06.2022
3181 Clouds 17 1025 65 10000 3.6 10 09:36 12.06.2022
3182 Clear 16 1024 72 10000 2.68 43 08:49 12.06.2022
3183 Clouds 15 1024 74 10000 3.6 10 07:49 12.06.2022
3184 Clear 13 1024 81 10000 2.57 350 06:21 12.06.2022
3185 Clear 15 1024 74 10000 3.6 10 03:44 12.06.2022
3186 Clear 17 1024 68 10000 4.12 30 01:49 12.06.2022
3187 Clear 17 1024 68 10000 4.12 10 01:29 12.06.2022
3188 Clear 18 1024 67 10000 5.14 10 00:43 12.06.2022
3189 Clear 18 1023 68 10000 5.14 10 00:18 12.06.2022
3190 Clear 20 1023 66 10000 3.6 350 23:18 11.06.2022
3191 Clear 21 1023 62 10000 4.12 340 22:35 11.06.2022
3192 Clear 24 1022 55 10000 3.09 340 21:18 11.06.2022
3193 Clear 24 1022 55 10000 3.09 340 21:18 11.06.2022
3194 Clear 25 1022 52 10000 3.6 320 20:26 11.06.2022
3195 Clear 26 1022 50 10000 3.6 290 19:33 11.06.2022
3196 Clear 25 1022 51 10000 4.12 290 18:43 11.06.2022
3197 Clear 26 1022 50 10000 4.12 290 18:25 11.06.2022
3198 Clear 25 1022 51 10000 3.6 320 17:47 11.06.2022
3199 Clear 26 1022 50 10000 3.6 320 17:25 11.06.2022
3200 Clouds 26 1022 51 10000 3.09 340 16:42 11.06.2022
3201 Clouds 25 1022 52 10000 3.6 270 16:18 11.06.2022
3202 Clouds 25 1023 54 10000 2.06 300 14:44 11.06.2022
3203 Clouds 24 1023 58 10000 2.57 270 13:52 11.06.2022
3204 Clouds 21 1023 69 10000 2.57 360 11:55 11.06.2022
3205 Clouds 20 1023 74 10000 2.57 10 10:30 11.06.2022
3206 Clouds 19 1023 80 10000 3.09 10 09:41 11.06.2022
3207 Clouds 17 1023 88 10000 1.54 10 08:38 11.06.2022
3208 Clear 15 1023 93 10000 2.06 320 06:33 11.06.2022
3209 Clear 15 1022 92 10000 2.57 310 05:33 11.06.2022
3210 Clear 16 1022 88 10000 1.54 40 03:18 11.06.2022
3211 Clear 16 1022 88 10000 1.54 260 01:51 11.06.2022
3212 Clear 16 1022 88 10000 2.06 280 01:25 11.06.2022
3213 Clear 18 1022 78 10000 1.54 260 23:26 10.06.2022
3214 Clear 20 1022 71 10000 2.06 250 22:20 10.06.2022
3215 Clouds 21 1022 67 10000 2.06 250 21:44 10.06.2022
3216 Clouds 22 1022 63 10000 3.6 270 20:39 10.06.2022
3217 Clouds 23 1021 62 10000 4.12 250 20:19 10.06.2022
3218 Clouds 23 1022 64 10000 4.12 290 19:19 10.06.2022
3219 Clouds 23 1022 64 10000 4.12 290 19:19 10.06.2022
3220 Clouds 22 1022 65 10000 4.63 260 18:32 10.06.2022
3221 Clouds 22 1022 64 10000 4.63 280 17:50 10.06.2022
3222 Clouds 23 1022 63 10000 4.63 240 17:21 10.06.2022
3223 Clouds 22 1022 62 10000 4.63 230 16:26 10.06.2022
3224 Clouds 23 1022 60 9000 5.14 230 15:39 10.06.2022
3225 Clouds 22 1022 60 9000 5.66 200 14:24 10.06.2022
3226 Clouds 22 1022 60 10000 6.17 200 12:57 10.06.2022
3227 Clouds 22 1022 59 10000 5.66 200 11:59 10.06.2022
3228 Clear 20 1022 64 10000 4.63 200 10:46 10.06.2022
3229 Clouds 19 1022 71 10000 3.09 210 09:56 10.06.2022
3230 Clear 17 1022 78 10000 3.09 240 08:47 10.06.2022
3231 Clear 15 1022 83 10000 2.57 220 07:31 10.06.2022
3232 Clear 15 1022 84 10000 2.57 220 06:45 10.06.2022
3233 Clear 15 1022 83 10000 2.57 220 06:26 10.06.2022
3234 Clear 15 1021 81 10000 3.09 200 04:47 10.06.2022
3235 Clear 17 1021 75 10000 2.06 180 01:59 10.06.2022
3236 Clear 17 1021 73 10000 1.54 190 01:36 10.06.2022
3237 Clear 17 1021 73 10000 1.54 190 01:36 10.06.2022
3238 Clear 18 1021 69 10000 1.54 210 23:57 09.06.2022
3239 Clear 19 1021 65 10000 2.57 260 22:22 09.06.2022
3240 Clear 19 1021 63 10000 3.6 280 21:37 09.06.2022
3241 Clouds 19 1021 60 10000 4.63 280 21:18 09.06.2022
3242 Clouds 20 1021 57 10000 4.12 270 20:27 09.06.2022
3243 Clear 20 1020 53 10000 4.12 270 19:31 09.06.2022
3244 Clear 21 1020 49 10000 5.66 280 18:35 09.06.2022
3245 Clear 22 1020 46 10000 5.14 300 17:25 09.06.2022
3246 Clear 21 1019 46 9000 4.12 280 16:21 09.06.2022
3247 Clouds 20 1019 52 10000 5.14 270 14:42 09.06.2022
3248 Clouds 20 1019 53 10000 5.14 270 14:23 09.06.2022
3249 Clouds 19 1019 57 10000 5.66 290 13:30 09.06.2022
3250 Clouds 18 1018 61 10000 5.14 280 12:50 09.06.2022
3251 Clouds 17 1018 66 10000 5.66 300 11:20 09.06.2022
3252 Clouds 16 1018 75 10000 6.69 300 09:55 09.06.2022
3253 Clouds 16 1018 75 10000 6.69 300 09:55 09.06.2022
3254 Clouds 15 1017 78 10000 5.66 310 09:36 09.06.2022
3255 Clouds 14 1017 84 10000 5.14 280 08:27 09.06.2022
3256 Clear 13 1016 89 10000 5.14 270 07:24 09.06.2022
3257 Clouds 13 1014 85 10000 4.63 280 03:29 09.06.2022
3258 Clear 15 1013 82 10000 4.12 280 00:34 09.06.2022
3259 Rain 16 1012 78 10000 2.57 300 23:18 08.06.2022
3260 Clear 16 1012 73 10000 3.09 280 22:42 08.06.2022
3261 Clear 17 1012 70 10000 4.63 300 22:23 08.06.2022
3262 Clouds 18 1011 66 10000 5.66 300 21:32 08.06.2022
3263 Clouds 19 1011 63 10000 8.75 310 20:25 08.06.2022
3264 Clouds 20 1010 57 10000 8.23 280 19:41 08.06.2022
3265 Clouds 21 1009 57 10000 7.2 280 18:48 08.06.2022
3266 Clear 21 1009 54 10000 6.69 280 17:41 08.06.2022
3267 Clear 20 1008 60 10000 7.72 280 15:54 08.06.2022
3268 Clouds 20 1008 70 10000 7.2 300 14:38 08.06.2022
3269 Rain 19 1008 80 10000 5.14 250 12:55 08.06.2022
3270 Clouds 19 1008 80 10000 5.14 250 12:55 08.06.2022
3271 Rain 19 1008 80 10000 5.14 250 12:55 08.06.2022
3272 Clouds 16 1008 95 10000 4.63 240 11:36 08.06.2022
3273 Clouds 16 1008 95 10000 4.12 210 10:51 08.06.2022
3274 Mist 15 1008 95 3900 4.12 200 09:28 08.06.2022
3275 Rain 14 1008 96 5000 4.12 180 08:54 08.06.2022
3276 Rain 14 1009 95 7000 3.09 170 06:56 08.06.2022
3277 Rain 15 1010 88 10000 3.09 220 04:47 08.06.2022
3278 Clear 17 1012 75 10000 2.06 230 01:25 08.06.2022
3279 Clouds 18 1013 70 10000 3.09 200 23:32 07.06.2022
3280 Clear 18 1013 69 10000 4.12 210 22:54 07.06.2022
3281 Clouds 19 1013 66 10000 4.12 200 22:34 07.06.2022
3282 Clear 20 1013 60 10000 5.14 230 21:41 07.06.2022
3283 Clear 20 1013 60 10000 5.14 230 21:20 07.06.2022
3284 Clouds 21 1013 57 10000 6.17 230 20:42 07.06.2022
3285 Clear 22 1013 55 10000 6.17 230 19:57 07.06.2022
3286 Clouds 23 1013 46 10000 6.17 250 18:26 07.06.2022
3287 Clouds 22 1014 53 10000 6.69 230 17:33 07.06.2022
3288 Clear 22 1014 57 10000 6.69 240 16:47 07.06.2022
3289 Clear 22 1014 57 10000 6.69 240 16:28 07.06.2022
3290 Clouds 22 1014 57 10000 5.66 240 15:37 07.06.2022
3291 Clouds 22 1014 58 10000 7.2 250 15:18 07.06.2022
3292 Clouds 21 1014 62 10000 6.69 250 14:43 07.06.2022
3293 Clouds 20 1014 63 10000 7.72 250 13:38 07.06.2022
3294 Clouds 20 1015 65 10000 6.17 220 13:20 07.06.2022
3295 Clouds 19 1015 71 10000 6.69 250 11:56 07.06.2022
3296 Clouds 18 1015 78 10000 6.69 250 10:53 07.06.2022
3297 Clouds 16 1015 89 10000 4.63 240 09:26 07.06.2022
3298 Clouds 16 1014 91 10000 4.63 230 08:22 07.06.2022
3299 Clouds 16 1014 91 6000 4.63 200 07:18 07.06.2022
3300 Clouds 15 1014 86 10000 3.09 210 04:52 07.06.2022
3301 Clear 16 1016 75 10000 2.06 220 01:28 07.06.2022
3302 Clear 17 1016 70 10000 2.57 210 23:59 06.06.2022
3303 Clear 17 1017 67 10000 3.09 220 22:59 06.06.2022
3304 Clear 18 1016 61 10000 3.6 230 22:30 06.06.2022
3305 Clear 20 1016 56 10000 5.14 230 21:28 06.06.2022
3306 Clear 21 1016 49 10000 5.14 220 19:29 06.06.2022
3307 Clear 21 1016 48 10000 4.63 240 18:59 06.06.2022
3308 Clear 21 1016 48 10000 5.66 240 18:33 06.06.2022
3309 Clear 21 1016 49 10000 5.14 250 17:31 06.06.2022
3310 Clear 21 1016 49 10000 4.63 250 16:21 06.06.2022
3311 Clear 21 1017 50 10000 6.17 230 15:33 06.06.2022
3312 Clouds 21 1017 51 10000 5.66 240 14:36 06.06.2022
3313 Clear 20 1017 53 10000 5.14 260 13:27 06.06.2022
3314 Clouds 19 1017 57 10000 4.63 240 12:37 06.06.2022
3315 Clouds 19 1017 60 10000 5.14 240 11:54 06.06.2022
3316 Clouds 18 1017 68 10000 4.63 240 10:46 06.06.2022
3317 Clear 16 1018 76 10000 4.12 240 09:40 06.06.2022
3318 Clear 15 1018 81 10000 4.12 260 08:35 06.06.2022
3319 Clear 13 1017 88 10000 2.06 250 07:28 06.06.2022
3320 Clear 13 1017 90 10000 2.57 230 05:29 06.06.2022
3321 Clear 13 1017 90 10000 2.57 230 05:29 06.06.2022
3322 Clear 13 1017 90 10000 2.57 230 05:29 06.06.2022
3323 Clear 14 1017 90 10000 3.09 270 03:46 06.06.2022
3324 Clouds 16 1017 89 10000 1.54 250 01:29 06.06.2022
3325 Clouds 16 1018 89 10000 3.09 320 00:42 06.06.2022
3326 Clouds 17 1017 88 10000 1.54 0 23:49 05.06.2022
3327 Clouds 17 1017 84 10000 2.57 290 22:52 05.06.2022
3328 Clear 18 1017 82 10000 4.12 300 21:26 05.06.2022
3329 Clouds 21 1016 74 10000 6.17 230 19:52 05.06.2022
3330 Clouds 22 1015 67 10000 5.66 240 18:31 05.06.2022
3331 Clouds 22 1016 67 10000 5.66 240 18:31 05.06.2022
3332 Clouds 22 1015 66 10000 4.63 290 17:56 05.06.2022
3333 Clouds 22 1015 68 10000 6.69 280 17:27 05.06.2022
3334 Clouds 21 1016 70 10000 7.72 300 16:58 05.06.2022
3335 Clouds 21 1016 72 10000 8.23 280 16:37 05.06.2022
3336 Clouds 21 1015 77 10000 7.2 290 14:46 05.06.2022
3337 Clouds 20 1014 83 10000 6.17 290 13:21 05.06.2022
3338 Clouds 20 1014 84 10000 3.6 250 11:51 05.06.2022
3339 Clear 20 1013 85 10000 3.6 240 10:44 05.06.2022
3340 Clear 20 1013 86 10000 3.6 240 10:23 05.06.2022
3341 Clouds 18 1013 94 10000 2.06 120 08:45 05.06.2022
3342 Clouds 18 1013 94 10000 2.06 120 08:21 05.06.2022
3343 Clear 16 1013 97 10000 2.06 250 05:23 05.06.2022
3344 Mist 16 1012 95 10000 1.54 270 04:33 05.06.2022
3345 Clear 17 1015 94 10000 2.57 170 01:45 05.06.2022
3346 Clear 17 1015 94 10000 2.57 170 01:45 05.06.2022
3347 Clear 17 1015 94 10000 2.57 170 01:45 05.06.2022
3348 Clear 17 1015 94 10000 2.57 170 01:45 05.06.2022
3349 Clear 17 1014 93 10000 2.57 170 01:23 05.06.2022
3350 Clear 17 1015 93 10000 4.63 70 22:45 04.06.2022
3351 Clouds 18 1015 94 10000 5.66 60 21:21 04.06.2022
3352 Rain 19 1015 89 2400 6.17 280 18:54 04.06.2022
3353 Clear 27 1014 52 10000 3.6 100 16:48 04.06.2022
3354 Thunderstorm 26 1014 54 10000 5.66 110 16:48 04.06.2022
3355 Clear 27 1014 52 10000 2.57 70 16:20 04.06.2022
3356 Clear 28 1014 49 10000 2.06 0 15:35 04.06.2022
3357 Clear 27 1016 52 10000 3.09 30 13:57 04.06.2022
3358 Clouds 22 1016 75 10000 2.57 30 11:28 04.06.2022
3359 Clear 20 1016 84 10000 2.57 180 10:52 04.06.2022
3360 Thunderstorm 17 1016 96 10000 2.06 70 09:46 04.06.2022
3361 Rain 17 1015 93 10000 2.06 360 08:50 04.06.2022
3362 Clear 17 1015 92 10000 3.09 110 08:31 04.06.2022
3363 Clear 16 1014 94 9000 3.09 90 06:25 04.06.2022
3364 Clouds 17 1014 94 9000 3.6 40 03:37 04.06.2022
3365 Clear 18 1014 92 10000 4.12 40 00:22 04.06.2022
3366 Clear 18 1014 87 10000 3.09 40 22:56 03.06.2022
3367 Clear 20 1014 81 10000 2.57 30 21:52 03.06.2022
3368 Clear 21 1014 77 10000 2.06 40 20:40 03.06.2022
3369 Clear 21 1014 76 10000 1.54 0 19:37 03.06.2022
3370 Clouds 20 1014 88 10000 2.06 90 16:58 03.06.2022
3371 Rain 19 1014 86 10000 3.09 170 15:55 03.06.2022
3372 Rain 21 1014 70 10000 3.6 170 14:25 03.06.2022
3373 Clear 22 1014 60 10000 2.57 20 12:21 03.06.2022
3374 Clear 18 1014 61 10000 3.6 50 09:57 03.06.2022
3375 Clear 18 1014 62 10000 3.09 40 09:29 03.06.2022
3376 Clear 18 1014 62 10000 3.09 40 09:29 03.06.2022
3377 Clear 16 1014 66 10000 3.6 50 07:47 03.06.2022
3378 Clear 15 1014 65 10000 2.57 360 07:19 03.06.2022
3379 Clear 14 1014 66 10000 2.57 30 06:29 03.06.2022
3380 Clear 15 1015 63 10000 3.09 40 03:52 03.06.2022
3381 Clear 19 1016 44 10000 5.14 50 23:53 02.06.2022
3382 Clear 20 1016 40 10000 4.63 40 22:33 02.06.2022
3383 Clear 23 1016 34 10000 4.12 30 20:57 02.06.2022
3384 Clear 24 1015 34 10000 4.63 40 19:58 02.06.2022
3385 Clear 24 1015 32 10000 4.63 40 19:39 02.06.2022
3386 Clear 24 1015 33 10000 5.14 30 18:59 02.06.2022
3387 Clear 24 1016 33 10000 4.63 70 16:30 02.06.2022
3388 Clear 24 1016 34 10000 5.14 80 15:47 02.06.2022
3389 Clear 22 1017 40 10000 5.14 110 13:32 02.06.2022
3390 Clear 21 1018 42 10000 4.63 60 12:51 02.06.2022
3391 Clear 19 1018 49 10000 5.14 70 10:48 02.06.2022
3392 Clear 16 1019 60 10000 4.63 50 09:45 02.06.2022
3393 Clear 16 1019 61 10000 4.63 50 09:26 02.06.2022
3394 Clear 13 1019 68 10000 5.14 60 08:24 02.06.2022
3395 Clear 11 1018 75 10000 3.09 60 06:26 02.06.2022
3396 Clear 12 1018 68 10000 3.6 50 03:53 02.06.2022
3397 Clear 14 1018 58 10000 3.6 30 01:36 02.06.2022
3398 Clear 17 1018 55 10000 4.63 30 23:36 01.06.2022
3399 Clear 18 1017 52 10000 3.6 360 22:18 01.06.2022
3400 Clear 19 1016 47 10000 4.63 20 21:26 01.06.2022
3401 Clear 20 1016 42 10000 3.6 330 20:39 01.06.2022
3402 Clear 21 1016 39 10000 3.6 360 19:52 01.06.2022
3403 Clear 22 1015 37 10000 4.12 340 18:52 01.06.2022
3404 Clear 22 1016 37 10000 3.6 310 17:40 01.06.2022
3405 Clear 22 1016 40 10000 3.09 0 16:22 01.06.2022
3406 Clear 21 1016 42 10000 4.12 280 14:51 01.06.2022
3407 Clear 20 1016 44 10000 5.14 310 13:44 01.06.2022
3408 Clouds 18 1016 53 10000 3.6 280 11:41 01.06.2022
3409 Clear 15 1016 61 10000 2.57 270 09:34 01.06.2022
3410 Clear 13 1016 72 10000 2.57 340 08:28 01.06.2022
3411 Clear 9 1016 84 10000 2.06 330 07:21 01.06.2022
3412 Clear 9 1015 80 10000 1.03 360 04:59 01.06.2022
3413 Clear 14 1015 60 10000 2.57 330 23:57 31.05.2022
3414 Clear 16 1015 55 10000 3.09 320 22:59 31.05.2022
3415 Clear 16 1015 54 10000 4.12 320 22:33 31.05.2022
3416 Clear 18 1014 46 10000 4.63 320 21:45 31.05.2022
3417 Clear 19 1013 46 10000 4.63 320 20:45 31.05.2022
3418 Clear 19 1013 46 10000 4.63 320 20:45 31.05.2022
3419 Clear 20 1013 45 10000 5.14 320 19:53 31.05.2022
3420 Clear 20 1013 44 10000 6.17 310 18:45 31.05.2022
3421 Clear 21 1012 38 10000 3.6 260 17:49 31.05.2022
3422 Clear 21 1012 38 10000 3.6 260 17:49 31.05.2022
3423 Clear 21 1012 36 10000 4.12 260 16:48 31.05.2022
3424 Clear 21 1012 37 10000 4.63 290 15:40 31.05.2022
3425 Clear 20 1013 40 10000 3.6 270 13:45 31.05.2022
3426 Clear 19 1012 42 10000 3.6 210 12:20 31.05.2022
3427 Clear 17 1013 52 10000 2.06 240 10:52 31.05.2022
3428 Clouds 14 1012 65 10000 2.57 330 08:41 31.05.2022
3429 Clear 12 1012 69 10000 1.54 0 06:57 31.05.2022
3430 Clear 12 1012 68 10000 1.54 340 04:53 31.05.2022
3431 Clear 13 1013 61 10000 3.09 30 00:26 31.05.2022
3432 Clear 14 1012 56 10000 3.6 40 23:26 30.05.2022
3433 Clear 15 1012 53 10000 3.6 40 22:48 30.05.2022
3434 Clear 16 1012 49 10000 4.12 40 21:51 30.05.2022
3435 Clear 17 1012 46 10000 2.57 360 21:32 30.05.2022
3436 Clear 18 1011 42 10000 3.09 360 19:51 30.05.2022
3437 Clear 19 1011 39 10000 3.09 360 18:39 30.05.2022
3438 Clear 19 1012 39 10000 2.57 80 17:24 30.05.2022
3439 Clear 18 1012 40 10000 3.09 330 16:40 30.05.2022
3440 Clear 17 1012 46 10000 3.6 30 14:23 30.05.2022
3441 Clouds 16 1013 50 10000 3.6 30 12:21 30.05.2022
3442 Clouds 13 1013 63 10000 3.6 30 10:41 30.05.2022
3443 Clear 12 1013 73 10000 4.12 40 09:19 30.05.2022
3444 Clear 8 1013 86 10000 3.09 40 06:40 30.05.2022
3445 Clear 8 1013 86 10000 3.6 30 05:48 30.05.2022
3446 Clear 11 1013 74 10000 4.63 20 01:33 30.05.2022
3447 Clear 13 1013 63 10000 5.14 40 22:57 29.05.2022
3448 Clear 14 1013 59 10000 5.14 30 22:36 29.05.2022
3449 Clear 15 1013 50 10000 4.12 10 20:54 29.05.2022
3450 Clear 16 1013 46 10000 4.12 360 19:32 29.05.2022
3451 Clear 16 1013 45 10000 5.14 20 18:44 29.05.2022
3452 Clear 16 1014 44 10000 4.12 30 17:31 29.05.2022
3453 Clear 16 1015 44 10000 4.63 10 15:48 29.05.2022
3454 Clear 15 1015 46 10000 4.63 50 14:58 29.05.2022
3455 Clear 15 1016 49 10000 4.12 350 13:53 29.05.2022
3456 Clouds 14 1017 54 10000 4.63 20 11:41 29.05.2022
3457 Clouds 13 1017 60 10000 5.14 40 10:39 29.05.2022
3458 Clear 11 1018 71 10000 5.14 30 09:18 29.05.2022
3459 Clear 8 1018 81 10000 4.63 30 06:18 29.05.2022
3460 Clear 9 1018 77 10000 4.63 30 04:45 29.05.2022
3461 Clear 10 1018 72 10000 4.12 10 03:53 29.05.2022
3462 Clear 14 1019 55 10000 7.2 20 23:50 28.05.2022
3463 Clear 14 1019 55 10000 7.2 20 23:26 28.05.2022
3464 Clear 15 1019 55 10000 7.2 30 22:39 28.05.2022
3465 Clear 16 1019 54 10000 7.2 30 21:38 28.05.2022
3466 Clear 19 1019 40 10000 5.14 40 19:51 28.05.2022
3467 Clear 19 1019 41 10000 5.66 30 18:54 28.05.2022
3468 Clear 20 1020 43 10000 5.14 350 17:38 28.05.2022
3469 Clear 20 1020 44 10000 4.63 350 16:50 28.05.2022
3470 Clear 20 1020 45 10000 4.12 340 15:43 28.05.2022
3471 Clouds 19 1021 49 10000 4.12 340 14:28 28.05.2022
3472 Clouds 18 1022 55 10000 3.09 350 13:21 28.05.2022
3473 Clouds 18 1022 58 10000 2.57 330 12:39 28.05.2022
3474 Clouds 17 1023 65 10000 2.06 60 11:23 28.05.2022
3475 Clouds 16 1023 70 10000 2.57 40 10:21 28.05.2022
3476 Clear 13 1024 81 10000 1.54 10 09:22 28.05.2022
3477 Clear 10 1024 91 10000 1.54 0 07:23 28.05.2022
3478 Clear 9 1023 90 10000 1.54 330 06:26 28.05.2022
3479 Clear 11 1023 83 10000 1.54 340 03:48 28.05.2022
3480 Clear 14 1024 70 10000 2.57 330 00:33 28.05.2022
3481 Clear 15 1024 64 10000 3.09 330 23:34 27.05.2022
3482 Clear 18 1024 57 10000 5.14 300 21:50 27.05.2022
3483 Clear 20 1024 50 10000 5.14 310 20:57 27.05.2022
3484 Clear 21 1023 51 10000 4.63 310 20:26 27.05.2022
3485 Clear 21 1023 48 10000 4.63 290 19:51 27.05.2022
3486 Clear 22 1023 49 10000 4.12 310 19:32 27.05.2022
3487 Clear 22 1023 49 10000 5.14 280 18:29 27.05.2022
3488 Clouds 21 1024 64 10000 4.12 280 16:42 27.05.2022
3489 Clouds 20 1024 69 10000 4.63 290 15:34 27.05.2022
3490 Clouds 18 1025 73 10000 4.12 270 14:45 27.05.2022
3491 Clouds 18 1025 75 10000 4.63 280 13:30 27.05.2022
3492 Clouds 15 1025 81 10000 3.6 260 11:41 27.05.2022
3493 Clouds 15 1025 81 10000 3.6 260 11:23 27.05.2022
3494 Clouds 15 1025 82 10000 3.09 220 10:32 27.05.2022
3495 Clouds 14 1025 83 10000 3.09 260 09:37 27.05.2022
3496 Clouds 13 1025 83 10000 3.6 280 08:24 27.05.2022
3497 Clouds 14 1025 80 10000 5.66 310 06:45 27.05.2022
3498 Clouds 15 1025 73 10000 6.69 290 02:56 27.05.2022
3499 Clouds 16 1026 75 10000 7.2 300 00:53 27.05.2022
3500 Clouds 17 1026 74 10000 5.14 300 22:50 26.05.2022
3501 Clouds 18 1025 72 10000 4.63 300 21:43 26.05.2022
3502 Clouds 18 1025 68 10000 4.12 290 20:59 26.05.2022
3503 Clouds 19 1025 66 10000 5.66 290 19:27 26.05.2022
3504 Clouds 21 1025 60 10000 5.14 270 18:21 26.05.2022
3505 Clouds 21 1025 60 10000 4.12 250 16:58 26.05.2022
3506 Clouds 20 1025 60 10000 4.12 280 15:49 26.05.2022
3507 Clouds 20 1025 62 10000 4.63 250 15:18 26.05.2022
3508 Clouds 19 1026 65 10000 4.63 290 13:45 26.05.2022
3509 Clouds 16 1026 78 10000 4.63 300 11:38 26.05.2022
3510 Clouds 15 1025 83 10000 5.66 290 10:37 26.05.2022
3511 Clouds 15 1025 79 10000 5.14 280 09:37 26.05.2022
3512 Clouds 14 1024 85 10000 3.6 260 08:38 26.05.2022
3513 Clouds 14 1023 86 10000 5.66 270 05:25 26.05.2022
3514 Clouds 15 1022 78 10000 6.17 250 01:26 26.05.2022
3515 Clouds 16 1022 70 10000 3.6 260 23:41 25.05.2022
3516 Clouds 17 1021 66 10000 4.63 270 22:51 25.05.2022
3517 Clouds 17 1020 60 10000 6.17 240 21:39 25.05.2022
3518 Clouds 18 1020 58 10000 5.14 240 20:43 25.05.2022
3519 Clear 18 1019 53 10000 6.69 270 19:32 25.05.2022
3520 Clear 19 1019 50 10000 6.69 270 18:23 25.05.2022
3521 Clear 20 1019 47 10000 6.69 250 16:42 25.05.2022
3522 Clear 20 1019 47 10000 6.17 240 16:21 25.05.2022
3523 Clear 20 1018 47 10000 7.72 260 15:24 25.05.2022
3524 Clouds 20 1018 48 9000 6.17 250 14:42 25.05.2022
3525 Clouds 19 1018 48 9000 6.17 240 14:24 25.05.2022
3526 Clear 18 1018 51 10000 5.66 240 13:21 25.05.2022
3527 Clouds 17 1018 59 10000 4.63 260 11:32 25.05.2022
3528 Clouds 15 1018 67 10000 2.57 260 10:23 25.05.2022
3529 Clouds 14 1017 76 10000 0.45 270 09:29 25.05.2022
3530 Clear 9 1016 93 10000 1.52 266 07:26 25.05.2022
3531 Clear 9 1016 92 10000 1.54 280 05:41 25.05.2022
3532 Clouds 11 1013 88 10000 1.31 288 01:51 25.05.2022
3533 Clear 12 1013 80 10000 2.06 260 23:48 24.05.2022
3534 Clear 13 1013 76 10000 2.06 250 22:58 24.05.2022
3535 Clear 15 1012 69 10000 2.57 250 21:57 24.05.2022
3536 Clear 15 1012 67 10000 4.63 250 21:37 24.05.2022
3537 Clear 15 1012 66 10000 4.63 250 21:18 24.05.2022
3538 Clear 17 1011 60 10000 5.14 300 19:23 24.05.2022
3539 Clouds 16 1011 64 10000 6.69 290 18:29 24.05.2022
3540 Clear 19 1010 49 10000 6.17 240 16:39 24.05.2022
3541 Clouds 18 1009 51 10000 5.66 220 15:52 24.05.2022
3542 Clouds 18 1009 55 10000 7.2 240 14:41 24.05.2022
3543 Clouds 17 1009 59 10000 6.17 230 13:47 24.05.2022
3544 Clouds 16 1009 60 10000 6.69 230 12:31 24.05.2022
3545 Clouds 13 1009 79 10000 5.66 250 09:52 24.05.2022
3546 Clouds 12 1008 84 10000 5.66 250 08:57 24.05.2022
3547 Clouds 12 1008 86 10000 5.66 240 08:38 24.05.2022
3548 Clouds 11 1007 91 10000 4.12 250 06:42 24.05.2022
3549 Clouds 12 1005 90 10000 4.63 260 03:48 24.05.2022
3550 Clouds 13 1005 92 10000 3.6 260 01:47 24.05.2022
3551 Clouds 13 1005 93 10000 3.09 260 00:53 24.05.2022
3552 Clouds 15 1005 88 10000 2.57 230 22:25 23.05.2022
3553 Clouds 15 1004 86 10000 2.57 240 21:53 23.05.2022
3554 Clouds 16 1004 84 10000 3.6 260 20:55 23.05.2022
3555 Clouds 16 1004 84 10000 5.14 270 20:21 23.05.2022
3556 Clouds 16 1003 89 10000 5.14 240 19:30 23.05.2022
3557 Clouds 16 1003 85 10000 6.17 260 18:42 23.05.2022
3558 Clouds 16 1003 84 10000 6.17 260 18:22 23.05.2022
3559 Clouds 18 1002 79 10000 5.66 270 16:51 23.05.2022
3560 Clouds 16 1001 93 8000 6.17 290 14:49 23.05.2022
3561 Clouds 18 1000 85 10000 4.63 260 12:30 23.05.2022
3562 Clouds 18 1001 89 10000 5.66 240 11:25 23.05.2022
3563 Rain 17 1001 89 10000 2.06 180 09:49 23.05.2022
3564 Rain 17 1001 89 10000 2.06 180 09:23 23.05.2022
3565 Clouds 16 1001 89 10000 2.57 350 07:48 23.05.2022
3566 Clouds 15 1002 90 10000 2.57 100 06:45 23.05.2022
3567 Clear 16 1003 85 10000 1.54 60 05:21 23.05.2022
3568 Clear 17 1005 81 10000 4.63 70 02:23 23.05.2022
3569 Clear 17 1006 81 10000 4.12 70 01:37 23.05.2022
3570 Rain 18 1008 72 10000 1.54 20 23:51 22.05.2022
3571 Clear 19 1008 70 10000 3.09 60 22:35 22.05.2022
3572 Clear 20 1008 66 10000 3.6 20 21:55 22.05.2022
3573 Clear 21 1008 63 10000 4.63 40 20:54 22.05.2022
3574 Clear 21 1009 61 10000 4.63 40 20:31 22.05.2022
3575 Clear 22 1009 59 10000 4.63 40 19:56 22.05.2022
3576 Clear 22 1009 57 10000 4.63 30 18:55 22.05.2022
3577 Clear 23 1009 57 10000 4.63 40 18:25 22.05.2022
3578 Clear 22 1010 59 10000 4.63 60 17:34 22.05.2022
3579 Clouds 22 1011 60 10000 3.09 80 16:36 22.05.2022
3580 Clouds 22 1012 58 10000 3.6 90 14:49 22.05.2022
3581 Rain 21 1012 61 10000 4.63 90 13:48 22.05.2022
3582 Clear 21 1013 58 10000 5.66 100 12:52 22.05.2022
3583 Clear 21 1014 58 10000 2.57 90 11:44 22.05.2022
3584 Clear 18 1015 68 10000 3.6 90 09:45 22.05.2022
3585 Clear 17 1015 72 10000 4.63 80 08:54 22.05.2022
3586 Clear 14 1016 83 10000 2.57 70 07:22 22.05.2022
3587 Clear 14 1016 83 10000 2.57 70 06:24 22.05.2022
3588 Clear 16 1018 77 10000 3.09 50 02:33 22.05.2022
3589 Clear 17 1019 71 10000 4.12 40 00:44 22.05.2022
3590 Clear 18 1019 69 10000 3.6 40 23:55 21.05.2022
3591 Clear 19 1019 67 10000 3.6 40 23:21 21.05.2022
3592 Clear 21 1019 57 10000 3.09 320 21:47 21.05.2022
3593 Clear 22 1019 56 10000 3.09 320 21:26 21.05.2022
3594 Clear 23 1018 50 10000 2.57 340 20:27 21.05.2022
3595 Clear 24 1019 46 10000 3.6 360 19:43 21.05.2022
3596 Clear 24 1020 47 10000 2.57 330 18:21 21.05.2022
3597 Clear 24 1020 47 10000 3.6 270 16:55 21.05.2022
3598 Clouds 22 1021 53 10000 2.57 0 14:38 21.05.2022
3599 Clouds 22 1021 53 10000 2.57 0 14:38 21.05.2022
3600 Clear 22 1022 55 10000 2.57 210 13:54 21.05.2022
3601 Clouds 21 1022 56 10000 2.57 260 13:18 21.05.2022
3602 Clear 21 1023 58 10000 2.24 46 12:38 21.05.2022
3603 Clouds 18 1023 70 10000 2.06 260 10:53 21.05.2022
3604 Clouds 17 1024 74 10000 2.06 190 09:53 21.05.2022
3605 Clouds 15 1023 84 10000 1.03 0 08:58 21.05.2022
3606 Clouds 14 1023 88 10000 2.06 200 08:36 21.05.2022
3607 Clouds 11 1022 92 10000 1.38 235 05:52 21.05.2022
3608 Clear 13 1024 85 10000 1.54 190 01:33 21.05.2022
3609 Clear 14 1023 81 10000 2.06 220 23:30 20.05.2022
3610 Clear 15 1023 76 10000 2.06 260 22:29 20.05.2022
3611 Clear 15 1022 73 10000 3.09 270 21:55 20.05.2022
3612 Clear 16 1023 73 10000 3.09 270 21:55 20.05.2022
3613 Clouds 17 1022 70 10000 5.14 290 21:18 20.05.2022
3614 Clouds 17 1022 69 10000 5.14 290 20:44 20.05.2022
3615 Clouds 17 1021 70 10000 6.17 320 19:45 20.05.2022
3616 Clouds 17 1021 74 10000 7.72 300 18:49 20.05.2022
3617 Clouds 18 1020 76 10000 8.23 300 17:48 20.05.2022
3618 Clouds 21 1018 76 10000 9.26 280 16:23 20.05.2022
3619 Clouds 21 1018 74 10000 9.26 280 15:53 20.05.2022
3620 Clouds 24 1016 72 10000 6.17 250 14:32 20.05.2022
3621 Clouds 23 1016 80 10000 4.12 260 13:59 20.05.2022
3622 Clouds 20 1017 87 10000 3.09 360 11:51 20.05.2022
3623 Rain 18 1016 90 10000 2.06 220 10:34 20.05.2022
3624 Rain 17 1016 90 10000 5.66 90 09:23 20.05.2022
3625 Clouds 17 1018 75 10000 1.54 90 07:43 20.05.2022
3626 Clear 17 1018 73 10000 2.57 50 06:40 20.05.2022
3627 Clear 17 1019 71 10000 3.09 50 05:39 20.05.2022
3628 Clear 19 1020 66 10000 5.14 40 01:29 20.05.2022
3629 Clear 20 1020 65 10000 4.63 40 23:46 19.05.2022
3630 Clear 21 1020 67 10000 3.6 10 22:35 19.05.2022
3631 Clear 22 1020 66 10000 3.09 350 21:50 19.05.2022
3632 Clear 22 1019 65 10000 4.12 10 21:23 19.05.2022
3633 Clear 23 1019 63 10000 3.6 340 20:43 19.05.2022
3634 Clear 24 1019 60 10000 4.63 340 19:54 19.05.2022
3635 Clear 25 1019 58 10000 3.6 300 19:00 19.05.2022
3636 Clear 25 1019 54 10000 3.6 280 17:44 19.05.2022
3637 Clouds 25 1019 52 10000 3.09 270 15:43 19.05.2022
3638 Clear 25 1019 53 10000 3.09 270 14:47 19.05.2022
3639 Clouds 24 1019 57 10000 3.6 360 14:20 19.05.2022
3640 Clouds 22 1018 70 10000 7.72 310 11:54 19.05.2022
3641 Clear 23 1017 77 10000 3.09 190 10:31 19.05.2022
3642 Clear 21 1016 83 10000 3.09 170 08:44 19.05.2022
3643 Clear 20 1015 88 10000 2.06 120 07:18 19.05.2022
3644 Clear 21 1015 83 10000 2.06 120 03:52 19.05.2022
3645 Clouds 22 1016 75 10000 2.57 120 00:58 19.05.2022
3646 Clear 24 1016 67 10000 4.12 100 23:40 18.05.2022
3647 Clear 24 1016 63 10000 2.57 40 22:43 18.05.2022
3648 Clear 26 1017 53 10000 4.12 40 21:45 18.05.2022
3649 Clear 26 1016 53 10000 4.12 40 21:23 18.05.2022
3650 Clear 27 1017 47 10000 4.12 60 20:21 18.05.2022
3651 Clear 28 1017 46 10000 5.14 60 19:18 18.05.2022
3652 Clear 28 1018 43 10000 4.12 60 18:18 18.05.2022
3653 Clear 28 1017 42 10000 4.63 100 17:40 18.05.2022
3654 Clear 29 1018 41 10000 4.63 40 17:22 18.05.2022
3655 Clear 28 1019 43 10000 3.6 40 15:58 18.05.2022
3656 Clear 28 1019 44 10000 2.57 70 15:35 18.05.2022
3657 Clear 26 1019 50 10000 3.09 30 14:21 18.05.2022
3658 Clear 25 1020 57 10000 3.09 50 12:58 18.05.2022
3659 Clear 24 1021 61 10000 3.09 30 12:25 18.05.2022
3660 Clear 22 1021 64 10000 3.09 30 11:33 18.05.2022
3661 Clear 21 1021 67 10000 3.6 40 10:48 18.05.2022
3662 Clear 18 1021 75 10000 3.6 350 08:25 18.05.2022
3663 Clear 17 1021 81 10000 4.12 330 07:28 18.05.2022
3664 Clear 19 1019 84 10000 3.09 320 04:26 18.05.2022
3665 Clouds 22 1018 73 10000 3.6 150 00:52 18.05.2022
3666 Clear 24 1017 59 10000 3.6 110 23:41 17.05.2022
3667 Clear 25 1016 55 10000 3.6 120 21:23 17.05.2022
3668 Clear 27 1016 44 10000 4.12 130 20:44 17.05.2022
3669 Clear 27 1016 44 10000 5.14 140 19:45 17.05.2022
3670 Clear 28 1016 45 10000 4.12 130 19:24 17.05.2022
3671 Clear 28 1017 44 10000 4.63 120 17:49 17.05.2022
3672 Clear 29 1017 44 10000 4.12 170 16:58 17.05.2022
3673 Clear 29 1017 44 10000 3.6 190 16:24 17.05.2022
3674 Clear 28 1017 42 10000 3.6 130 14:56 17.05.2022
3675 Clear 28 1018 42 10000 2.57 50 14:29 17.05.2022
3676 Clear 27 1018 41 10000 3.09 60 13:30 17.05.2022
3677 Clear 24 1019 50 10000 2.06 30 10:43 17.05.2022
3678 Clear 20 1020 71 10000 2.06 360 08:55 17.05.2022
3679 Clear 17 1019 83 10000 1.03 50 07:57 17.05.2022
3680 Clear 16 1019 85 10000 2.57 70 06:27 17.05.2022
3681 Clear 18 1019 79 10000 2.06 150 02:27 17.05.2022
3682 Clear 19 1019 72 10000 2.06 60 00:28 17.05.2022
3683 Clear 21 1019 63 10000 2.57 80 22:41 16.05.2022
3684 Clear 22 1019 57 10000 2.06 70 21:33 16.05.2022
3685 Clear 23 1019 46 10000 3.09 240 20:46 16.05.2022
3686 Clear 25 1018 43 10000 4.12 230 19:22 16.05.2022
3687 Clear 25 1018 44 10000 4.12 270 17:58 16.05.2022
3688 Clear 24 1018 53 10000 3.6 250 15:49 16.05.2022
3689 Clouds 23 1018 60 10000 4.12 240 13:49 16.05.2022
3690 Clouds 21 1019 69 10000 3.09 260 12:50 16.05.2022
3691 Clouds 18 1018 79 10000 4.12 240 10:53 16.05.2022
3692 Clouds 17 1017 87 10000 4.12 240 09:23 16.05.2022
3693 Clear 17 1014 91 10000 3.09 220 06:34 16.05.2022
3694 Thunderstorm 17 1012 93 10000 2.06 150 03:31 16.05.2022
3695 Clouds 18 1012 88 10000 2.57 180 23:26 15.05.2022
3696 Thunderstorm 19 1013 85 10000 4.12 210 22:29 15.05.2022
3697 Rain 19 1013 78 10000 4.63 190 21:44 15.05.2022
3698 Rain 23 1012 59 10000 6.69 210 20:54 15.05.2022
3699 Clear 28 1010 36 10000 5.66 110 19:32 15.05.2022
3700 Clear 29 1011 34 10000 6.17 110 17:51 15.05.2022
3701 Clear 28 1012 35 10000 6.17 100 15:59 15.05.2022
3702 Clear 27 1013 34 10000 6.17 90 13:54 15.05.2022
3703 Clear 25 1014 40 10000 7.2 100 12:26 15.05.2022
3704 Clear 23 1014 46 10000 4.63 100 11:39 15.05.2022
3705 Clear 21 1015 54 10000 4.12 110 10:25 15.05.2022
3706 Clear 17 1016 65 10000 3.09 100 08:45 15.05.2022
3707 Clear 14 1016 72 10000 3.09 80 06:58 15.05.2022
3708 Clear 14 1016 72 10000 2.06 350 05:47 15.05.2022
3709 Clear 16 1017 64 10000 3.6 70 00:49 15.05.2022
3710 Clear 18 1018 60 10000 3.09 70 23:39 14.05.2022
3711 Clear 18 1018 57 10000 2.06 50 22:47 14.05.2022
3712 Clear 21 1018 49 10000 3.09 60 21:29 14.05.2022
3713 Clear 22 1018 45 10000 3.6 70 20:53 14.05.2022
3714 Clear 23 1018 43 10000 3.6 80 19:38 14.05.2022
3715 Clear 23 1018 41 10000 3.09 110 19:19 14.05.2022
3716 Clear 23 1019 41 10000 3.09 110 18:44 14.05.2022
3717 Clear 23 1019 41 10000 3.6 90 16:46 14.05.2022
3718 Clear 23 1020 41 10000 1.54 0 15:30 14.05.2022
3719 Clear 22 1021 44 10000 1.54 0 14:34 14.05.2022
3720 Clear 19 1022 52 10000 1.54 0 12:24 14.05.2022
3721 Clear 18 1022 55 10000 2.06 100 11:35 14.05.2022
3722 Clear 16 1023 62 10000 1.54 0 10:21 14.05.2022
3723 Clear 16 1023 63 10000 1.54 0 09:53 14.05.2022
3724 Clear 14 1023 71 10000 2.57 60 08:49 14.05.2022
3725 Clear 10 1022 83 10000 2.06 360 06:41 14.05.2022
3726 Clear 13 1023 72 10000 3.6 20 02:39 14.05.2022
3727 Clear 16 1022 61 10000 3.09 320 23:44 13.05.2022
3728 Clear 16 1022 59 10000 2.57 320 22:58 13.05.2022
3729 Clear 17 1022 56 10000 2.57 330 22:27 13.05.2022
3730 Clear 18 1022 52 10000 3.09 330 21:52 13.05.2022
3731 Clear 20 1022 45 10000 3.09 320 20:45 13.05.2022
3732 Clear 21 1021 46 10000 3.09 300 20:27 13.05.2022
3733 Clear 22 1021 41 10000 2.57 310 19:28 13.05.2022
3734 Clear 22 1021 41 10000 3.09 310 17:51 13.05.2022
3735 Clear 22 1022 42 10000 3.09 290 17:28 13.05.2022
3736 Clear 21 1022 41 10000 3.09 290 16:20 13.05.2022
3737 Clear 20 1022 44 10000 3.09 310 15:29 13.05.2022
3738 Clouds 19 1023 47 10000 3.6 290 13:48 13.05.2022
3739 Clouds 18 1023 49 10000 3.6 260 12:32 13.05.2022
3740 Clouds 17 1023 53 10000 2.57 290 11:23 13.05.2022
3741 Clear 14 1023 70 10000 3.09 260 09:34 13.05.2022
3742 Clear 13 1023 75 10000 3.09 300 08:49 13.05.2022
3743 Clear 10 1023 82 10000 1.54 250 07:48 13.05.2022
3744 Clear 10 1022 78 10000 2.06 230 06:33 13.05.2022
3745 Clear 10 1022 78 10000 2.06 230 06:33 13.05.2022
3746 Clear 10 1022 77 10000 2.06 230 06:33 13.05.2022
3747 Clear 12 1022 69 10000 3.09 350 03:34 13.05.2022
3748 Clear 14 1022 68 10000 4.63 340 00:39 13.05.2022
3749 Clear 16 1020 66 10000 2.57 330 22:45 12.05.2022
3750 Clear 17 1020 63 10000 2.57 320 21:56 12.05.2022
3751 Clear 19 1019 55 10000 3.09 250 20:29 12.05.2022
3752 Clear 20 1019 53 10000 3.6 230 19:18 12.05.2022
3753 Clear 20 1019 52 10000 3.6 260 17:24 12.05.2022
3754 Clear 20 1019 52 10000 4.12 270 16:23 12.05.2022
3755 Clouds 20 1020 54 10000 3.6 240 14:42 12.05.2022
3756 Clouds 19 1020 56 10000 4.12 230 13:47 12.05.2022
3757 Clouds 17 1020 60 10000 3.09 220 11:23 12.05.2022
3758 Clear 15 1021 73 10000 1.03 0 09:31 12.05.2022
3759 Clear 14 1021 77 10000 1.54 260 08:51 12.05.2022
3760 Clear 12 1019 84 10000 3.09 310 07:41 12.05.2022
3761 Clouds 12 1019 83 10000 3.09 310 06:34 12.05.2022
3762 Clouds 15 1017 81 10000 2.57 290 02:59 12.05.2022
3763 Clouds 17 1016 72 10000 5.66 320 00:39 12.05.2022
3764 Clear 20 1014 63 10000 5.66 230 22:39 11.05.2022
3765 Clear 20 1014 63 10000 6.17 220 21:55 11.05.2022
3766 Clear 21 1014 62 10000 6.69 270 21:24 11.05.2022
3767 Clouds 23 1013 55 10000 7.72 230 19:36 11.05.2022
3768 Clouds 25 1012 48 8000 8.23 240 16:59 11.05.2022
3769 Clouds 25 1012 46 9000 8.23 220 15:59 11.05.2022
3770 Clear 24 1013 46 10000 8.75 230 14:39 11.05.2022
3771 Clear 24 1013 46 10000 8.75 230 14:39 11.05.2022
3772 Clear 24 1013 45 10000 7.2 200 14:19 11.05.2022
3773 Clear 22 1013 47 10000 6.17 210 11:55 11.05.2022
3774 Clear 21 1013 50 10000 5.66 240 11:30 11.05.2022
3775 Clear 18 1013 68 10000 4.63 250 09:29 11.05.2022
3776 Clear 12 1014 88 10000 2.06 240 06:24 11.05.2022
3777 Clear 17 1015 70 10000 1.54 20 01:29 11.05.2022
3778 Clear 20 1016 57 10000 1.54 230 22:53 10.05.2022
3779 Clear 22 1016 50 10000 2.57 250 22:19 10.05.2022
3780 Clear 24 1015 44 10000 3.6 260 21:21 10.05.2022
3781 Clear 26 1015 41 10000 5.66 240 20:21 10.05.2022
3782 Clear 27 1015 38 10000 7.72 250 18:36 10.05.2022
3783 Clear 27 1016 39 10000 6.17 210 17:37 10.05.2022
3784 Clear 27 1016 39 10000 7.72 190 15:56 10.05.2022
3785 Clear 25 1018 45 10000 6.69 220 12:51 10.05.2022
3786 Clear 24 1019 48 10000 6.17 220 11:53 10.05.2022
3787 Clear 23 1019 52 10000 5.14 230 11:28 10.05.2022
3788 Clear 22 1019 57 10000 4.12 190 10:56 10.05.2022
3789 Clear 19 1019 64 10000 3.6 160 09:28 10.05.2022
3790 Clear 17 1019 74 10000 2.57 190 07:51 10.05.2022
3791 Clear 15 1020 81 10000 2.06 50 05:54 10.05.2022
3792 Clear 16 1021 76 10000 1.03 20 01:53 10.05.2022
3793 Clear 18 1022 64 10000 1.54 70 23:43 09.05.2022
3794 Clear 20 1022 57 10000 1.54 0 22:33 09.05.2022
3795 Clear 22 1021 52 10000 2.57 260 21:36 09.05.2022
3796 Clear 25 1021 40 10000 2.57 230 19:56 09.05.2022
3797 Clear 26 1021 40 10000 3.6 240 18:25 09.05.2022
3798 Clear 26 1022 40 10000 2.57 250 17:25 09.05.2022
3799 Clear 26 1022 41 10000 3.09 180 16:18 09.05.2022
3800 Clear 25 1022 42 10000 3.09 250 15:47 09.05.2022
3801 Clear 24 1023 44 10000 2.57 0 14:33 09.05.2022
3802 Clear 24 1023 47 10000 2.57 0 13:56 09.05.2022
3803 Clear 22 1024 53 10000 1.54 0 12:55 09.05.2022
3804 Clear 21 1024 57 10000 2.06 60 11:52 09.05.2022
3805 Clear 18 1025 63 10000 1.54 0 10:47 09.05.2022
3806 Clear 17 1025 66 10000 1.54 340 10:20 09.05.2022
3807 Clear 12 1024 79 10000 2.06 30 07:56 09.05.2022
3808 Clear 11 1025 81 10000 3.09 20 04:35 09.05.2022
3809 Clear 15 1025 73 10000 3.09 40 00:30 09.05.2022
3810 Clear 16 1025 68 10000 3.6 40 23:28 08.05.2022
3811 Clear 18 1024 63 10000 4.12 40 22:29 08.05.2022
3812 Clear 20 1023 57 10000 4.12 30 20:54 08.05.2022
3813 Clouds 20 1023 55 10000 5.66 50 20:22 08.05.2022
3814 Clear 21 1023 53 10000 4.63 10 19:33 08.05.2022
3815 Clouds 22 1023 50 10000 5.14 30 18:35 08.05.2022
3816 Clouds 22 1023 51 10000 5.14 50 17:36 08.05.2022
3817 Clouds 21 1024 59 10000 4.12 360 15:46 08.05.2022
3818 Clouds 20 1024 63 10000 5.14 20 15:21 08.05.2022
3819 Clouds 16 1025 77 8000 5.66 30 12:46 08.05.2022
3820 Mist 14 1026 85 6000 5.14 20 10:59 08.05.2022
3821 Mist 13 1026 89 6000 4.63 20 10:22 08.05.2022
3822 Mist 13 1025 89 5000 5.14 10 09:51 08.05.2022
3823 Mist 12 1024 92 4000 4.12 10 07:43 08.05.2022
3824 Clear 12 1024 90 10000 4.63 30 05:22 08.05.2022
3825 Clear 13 1024 86 10000 4.12 350 03:21 08.05.2022
3826 Clear 14 1024 83 10000 4.12 10 00:42 08.05.2022
3827 Clear 15 1024 78 10000 4.12 20 23:55 07.05.2022
3828 Clear 16 1024 71 10000 4.63 330 22:59 07.05.2022
3829 Clear 17 1023 66 10000 3.6 30 22:35 07.05.2022
3830 Clear 17 1023 64 10000 3.6 40 21:55 07.05.2022
3831 Clear 18 1022 59 10000 4.63 30 21:20 07.05.2022
3832 Clear 20 1022 52 10000 4.12 350 19:59 07.05.2022
3833 Clouds 21 1022 52 10000 5.14 340 18:41 07.05.2022
3834 Clear 20 1023 55 10000 3.09 360 16:24 07.05.2022
3835 Clouds 19 1023 61 10000 3.09 340 14:51 07.05.2022
3836 Clear 15 1024 79 10000 3.6 350 11:21 07.05.2022
3837 Clouds 12 1025 85 10000 4.63 310 09:42 07.05.2022
3838 Clear 12 1024 88 10000 2.06 330 08:30 07.05.2022
3839 Clear 11 1024 84 10000 3.09 330 06:44 07.05.2022
3840 Clear 11 1024 85 10000 4.12 330 06:24 07.05.2022
3841 Clear 13 1024 76 10000 4.12 330 03:54 07.05.2022
3842 Clear 16 1025 68 10000 3.6 360 23:41 06.05.2022
3843 Clear 17 1024 62 10000 2.57 340 22:35 06.05.2022
3844 Clear 18 1025 56 10000 3.6 330 21:52 06.05.2022
3845 Clear 19 1024 50 10000 3.09 20 21:24 06.05.2022
3846 Clear 21 1024 42 10000 4.12 360 19:43 06.05.2022
3847 Clear 22 1024 42 10000 4.12 360 19:21 06.05.2022
3848 Clear 22 1024 41 10000 4.12 330 18:29 06.05.2022
3849 Clear 22 1024 42 10000 3.6 330 17:34 06.05.2022
3850 Clear 21 1025 45 10000 3.09 310 15:51 06.05.2022
3851 Clouds 21 1025 49 10000 3.09 300 14:58 06.05.2022
3852 Clouds 19 1025 54 10000 3.6 10 13:45 06.05.2022
3853 Clouds 18 1026 59 10000 3.6 20 12:47 06.05.2022
3854 Clouds 17 1026 63 10000 3.09 10 11:58 06.05.2022
3855 Clear 15 1026 73 9000 3.6 350 10:41 06.05.2022
3856 Clear 13 1026 80 9000 3.09 350 09:47 06.05.2022
3857 Clear 12 1026 86 9000 3.09 350 08:59 06.05.2022
3858 Clear 9 1026 91 9000 3.6 350 07:27 06.05.2022
3859 Clear 9 1026 89 8000 3.6 350 06:25 06.05.2022
3860 Clouds 11 1026 84 10000 3.09 340 02:54 06.05.2022
3861 Clear 11 1026 80 10000 4.12 340 01:57 06.05.2022
3862 Clouds 14 1025 67 10000 4.63 330 22:48 05.05.2022
3863 Clouds 16 1024 62 10000 4.12 330 21:46 05.05.2022
3864 Clear 17 1023 56 10000 5.66 340 20:34 05.05.2022
3865 Clouds 18 1023 53 10000 5.14 340 18:43 05.05.2022
3866 Clear 18 1023 55 10000 5.14 340 16:40 05.05.2022
3867 Clouds 17 1023 59 10000 4.12 320 14:59 05.05.2022
3868 Clouds 17 1023 60 10000 4.63 340 13:29 05.05.2022
3869 Clouds 17 1023 62 10000 4.63 320 12:55 05.05.2022
3870 Clouds 14 1023 79 10000 3.09 340 10:59 05.05.2022
3871 Clouds 12 1022 89 9000 4.63 310 09:40 05.05.2022
3872 Mist 11 1022 92 10000 3.6 300 08:30 05.05.2022
3873 Clouds 10 1021 89 10000 3.6 290 06:23 05.05.2022
3874 Clear 12 1021 83 9000 3.6 300 02:20 05.05.2022
3875 Clear 12 1021 84 6000 3.09 290 01:37 05.05.2022
3876 Clouds 12 1021 85 10000 2.57 270 23:57 04.05.2022
3877 Clear 12 1020 82 10000 2.57 270 22:54 04.05.2022
3878 Clouds 13 1020 76 10000 4.12 270 21:59 04.05.2022
3879 Clouds 14 1019 70 10000 4.63 330 21:30 04.05.2022
3880 Clouds 16 1019 60 10000 5.14 330 20:42 04.05.2022
3881 Clouds 16 1019 55 10000 6.17 320 19:59 04.05.2022
3882 Clear 17 1018 54 10000 4.12 330 19:35 04.05.2022
3883 Clear 18 1018 51 10000 5.14 360 18:22 04.05.2022
3884 Clear 18 1018 50 10000 6.17 340 17:59 04.05.2022
3885 Clear 18 1018 47 10000 3.6 320 16:29 04.05.2022
3886 Clouds 18 1018 50 10000 3.6 320 15:32 04.05.2022
3887 Clouds 18 1019 52 10000 4.12 320 14:38 04.05.2022
3888 Clear 17 1019 54 10000 3.09 360 14:18 04.05.2022
3889 Clear 16 1019 62 10000 3.09 330 12:36 04.05.2022
3890 Clear 13 1019 75 9000 3.09 350 11:28 04.05.2022
3891 Clear 11 1019 81 9000 3.09 340 09:50 04.05.2022
3892 Clear 10 1019 83 9000 3.09 340 09:20 04.05.2022
3893 Clouds 10 1018 86 8000 3.6 10 07:33 04.05.2022
3894 Clear 11 1018 82 9000 4.12 10 04:34 04.05.2022
3895 Clear 12 1019 79 10000 5.66 10 02:33 04.05.2022
3896 Clear 15 1018 59 10000 4.12 10 22:59 03.05.2022
3897 Clear 16 1017 56 10000 5.14 20 21:50 03.05.2022
3898 Clear 16 1017 53 10000 5.66 20 21:23 03.05.2022
3899 Clear 17 1017 51 10000 5.66 20 20:46 03.05.2022
3900 Clear 18 1016 46 10000 5.66 20 19:32 03.05.2022
3901 Clear 19 1016 43 10000 5.14 350 18:43 03.05.2022
3902 Clear 19 1016 42 10000 4.12 350 17:21 03.05.2022
3903 Clear 19 1017 43 10000 4.63 40 15:57 03.05.2022
3904 Clear 18 1017 46 10000 5.66 20 14:23 03.05.2022
3905 Clear 17 1018 52 10000 5.14 10 12:35 03.05.2022
3906 Clear 16 1018 57 10000 5.66 20 11:39 03.05.2022
3907 Clear 14 1018 64 10000 6.17 10 10:44 03.05.2022
3908 Clear 10 1018 75 9000 4.63 10 08:29 03.05.2022
3909 Clear 10 1017 75 9000 4.63 360 06:45 03.05.2022
3910 Clear 11 1018 70 10000 4.63 10 02:48 03.05.2022
3911 Clear 14 1018 62 10000 5.66 10 23:32 02.05.2022
3912 Clear 14 1017 58 10000 4.12 360 22:29 02.05.2022
3913 Clear 15 1017 54 10000 3.6 20 21:47 02.05.2022
3914 Clear 18 1016 49 10000 5.14 20 19:59 02.05.2022
3915 Clear 18 1016 47 10000 3.6 360 18:27 02.05.2022
3916 Clear 18 1016 48 10000 5.14 10 17:41 02.05.2022
3917 Clear 18 1017 49 10000 4.63 30 16:43 02.05.2022
3918 Clear 18 1017 51 10000 4.63 350 15:44 02.05.2022
3919 Clear 18 1017 51 10000 5.14 30 14:54 02.05.2022
3920 Clouds 17 1017 53 10000 5.14 40 13:45 02.05.2022
3921 Clear 15 1018 59 10000 4.63 20 11:41 02.05.2022
3922 Clear 12 1018 66 10000 4.63 10 10:18 02.05.2022
3923 Clear 10 1018 76 10000 2.57 360 08:44 02.05.2022
3924 Clear 8 1018 80 10000 2.57 350 07:23 02.05.2022
3925 Clear 10 1020 69 10000 3.09 350 01:27 02.05.2022
3926 Clear 12 1020 61 10000 3.09 40 00:23 02.05.2022
3927 Clear 12 1020 59 10000 3.6 40 23:43 01.05.2022
3928 Clear 14 1020 53 10000 3.6 50 21:46 01.05.2022
3929 Clear 15 1020 49 10000 4.63 50 20:50 01.05.2022
3930 Clear 16 1020 44 10000 4.63 50 19:46 01.05.2022
3931 Clear 16 1020 43 10000 4.63 60 18:53 01.05.2022
3932 Clear 17 1020 43 10000 5.14 30 17:57 01.05.2022
3933 Clear 17 1020 43 10000 5.66 30 16:46 01.05.2022
3934 Clear 17 1021 44 10000 5.66 50 16:23 01.05.2022
3935 Clear 16 1021 45 10000 5.14 50 14:58 01.05.2022
3936 Clear 15 1022 50 10000 4.63 70 13:23 01.05.2022
3937 Clear 12 1023 63 10000 5.14 40 10:46 01.05.2022
3938 Clear 8 1024 77 10000 3.09 350 08:51 01.05.2022
3939 Clear 5 1023 84 10000 2.57 350 06:53 01.05.2022
3940 Clear 8 1024 70 10000 3.13 42 02:51 01.05.2022
3941 Clear 12 1025 57 10000 4.63 30 22:58 30.04.2022
3942 Clear 13 1024 54 10000 4.12 30 21:35 30.04.2022
3943 Clear 14 1024 48 10000 6.17 20 20:35 30.04.2022
3944 Clear 16 1024 43 10000 6.17 50 19:33 30.04.2022
3945 Clear 17 1024 43 10000 6.17 20 17:40 30.04.2022
3946 Clear 17 1025 44 10000 6.17 30 16:34 30.04.2022
3947 Clear 16 1025 46 10000 5.66 30 15:21 30.04.2022
3948 Clear 16 1026 48 10000 6.17 30 14:33 30.04.2022
3949 Clouds 14 1027 58 10000 5.14 30 12:36 30.04.2022
3950 Clear 12 1027 67 10000 5.14 20 11:33 30.04.2022
3951 Clouds 12 1027 72 10000 5.14 10 10:40 30.04.2022
3952 Clear 9 1027 84 10000 5.14 20 08:54 30.04.2022
3953 Clouds 7 1026 88 9000 4.12 350 05:38 30.04.2022
3954 Clear 11 1027 72 10000 5.14 20 00:35 30.04.2022
3955 Clear 13 1027 68 10000 6.69 20 23:37 29.04.2022
3956 Clear 14 1026 65 10000 5.66 20 22:31 29.04.2022
3957 Clear 16 1025 56 10000 4.12 10 21:27 29.04.2022
3958 Clear 18 1025 52 10000 4.63 10 20:39 29.04.2022
3959 Clear 18 1025 48 10000 5.14 40 19:38 29.04.2022
3960 Clear 19 1025 45 10000 5.14 20 17:54 29.04.2022
3961 Clear 20 1025 45 10000 5.66 10 17:21 29.04.2022
3962 Clear 19 1026 50 10000 6.71 45 14:57 29.04.2022
3963 Clouds 18 1026 53 10000 5.14 30 14:20 29.04.2022
3964 Clear 17 1027 58 10000 4.63 360 12:48 29.04.2022
3965 Clear 13 1027 67 10000 4.12 20 10:59 29.04.2022
3966 Clear 12 1026 70 10000 4.12 20 08:46 29.04.2022
3967 Clear 11 1026 71 10000 4.12 20 07:27 29.04.2022
3968 Clear 12 1026 71 10000 3.6 10 06:38 29.04.2022
3969 Clear 12 1026 70 10000 3.6 20 04:43 29.04.2022
3970 Clear 15 1026 60 10000 5.14 30 00:19 29.04.2022
3971 Clear 16 1026 59 10000 5.14 40 23:27 28.04.2022
3972 Clear 16 1026 54 10000 3.6 40 22:41 28.04.2022
3973 Clear 17 1026 49 10000 3.09 50 21:47 28.04.2022
3974 Clear 18 1025 43 10000 3.6 50 20:57 28.04.2022
3975 Clear 19 1025 41 10000 4.12 70 20:24 28.04.2022
3976 Clear 20 1025 38 10000 6.17 40 19:41 28.04.2022
3977 Clear 20 1024 37 10000 6.17 40 19:21 28.04.2022
3978 Clear 21 1024 36 10000 6.69 80 18:35 28.04.2022
3979 Clear 21 1025 34 10000 5.14 70 17:20 28.04.2022
3980 Clear 21 1025 35 10000 5.14 60 16:40 28.04.2022
3981 Clear 21 1025 35 10000 5.14 60 16:18 28.04.2022
3982 Clear 21 1025 39 10000 5.66 60 15:27 28.04.2022
3983 Clear 19 1025 44 10000 7.72 70 13:44 28.04.2022
3984 Clear 18 1026 51 10000 6.69 60 12:44 28.04.2022
3985 Clear 17 1026 53 10000 6.69 60 11:58 28.04.2022
3986 Clear 15 1026 63 10000 5.14 60 10:46 28.04.2022
3987 Clear 13 1026 68 10000 4.63 50 09:54 28.04.2022
3988 Clear 10 1025 78 10000 4.63 30 08:31 28.04.2022
3989 Clear 8 1025 81 10000 3.6 30 07:19 28.04.2022
3990 Clear 9 1024 78 10000 4.63 30 05:56 28.04.2022
3991 Clear 9 1024 78 10000 5.14 30 05:38 28.04.2022
3992 Clear 10 1024 76 10000 5.14 30 04:39 28.04.2022
3993 Clear 14 1023 65 10000 5.66 40 00:30 28.04.2022
3994 Clear 15 1023 58 10000 6.17 40 22:40 27.04.2022
3995 Clear 16 1022 55 10000 5.14 40 21:55 27.04.2022
3996 Clear 16 1022 52 10000 4.63 50 21:18 27.04.2022
3997 Clear 18 1022 46 10000 6.17 60 20:37 27.04.2022
3998 Clear 18 1021 46 10000 6.69 30 19:38 27.04.2022
3999 Clear 18 1021 46 10000 6.69 30 19:18 27.04.2022
4000 Clear 19 1021 46 10000 7.2 60 18:22 27.04.2022
4001 Clear 19 1021 45 10000 7.2 60 18:22 27.04.2022
4002 Clear 18 1021 46 10000 7.2 60 18:22 27.04.2022
4003 Clear 18 1021 47 10000 6.17 50 17:24 27.04.2022
4004 Clear 18 1022 50 10000 6.17 60 15:21 27.04.2022
4005 Clear 14 1023 63 10000 4.12 40 12:27 27.04.2022
4006 Clear 13 1023 66 10000 3.6 40 11:21 27.04.2022
4007 Clear 10 1023 73 9000 3.6 40 09:45 27.04.2022
4008 Clear 6 1022 84 9000 4.63 30 07:19 27.04.2022
4009 Clear 7 1022 78 10000 4.63 30 05:37 27.04.2022
4010 Clear 9 1022 67 10000 5.66 40 01:35 27.04.2022
4011 Clear 10 1021 66 10000 6.17 40 00:52 27.04.2022
4012 Clear 11 1021 67 10000 5.14 10 23:57 26.04.2022
4013 Clear 12 1020 65 10000 3.6 50 23:23 26.04.2022
4014 Clear 12 1020 64 10000 4.12 50 22:41 26.04.2022
4015 Clear 13 1020 62 10000 4.12 50 21:49 26.04.2022
4016 Clouds 14 1019 57 10000 4.12 50 20:54 26.04.2022
4017 Clear 14 1019 55 10000 4.12 20 20:34 26.04.2022
4018 Clear 15 1019 54 10000 5.14 60 19:33 26.04.2022
4019 Clear 15 1019 54 10000 5.14 60 18:51 26.04.2022
4020 Clouds 15 1018 56 10000 4.12 50 18:18 26.04.2022
4021 Clouds 15 1018 56 10000 4.12 50 18:18 26.04.2022
4022 Clouds 16 1018 55 10000 4.63 20 17:32 26.04.2022
4023 Clouds 14 1019 62 10000 4.12 30 14:46 26.04.2022
4024 Clouds 13 1019 67 8000 4.63 30 13:34 26.04.2022
4025 Clouds 12 1019 69 6000 5.14 20 12:25 26.04.2022
4026 Clouds 11 1018 76 7000 4.12 350 10:46 26.04.2022
4027 Mist 10 1017 85 4300 3.6 30 09:41 26.04.2022
4028 Mist 8 1017 92 5000 3.6 360 08:28 26.04.2022
4029 Clear 8 1015 87 10000 3.09 350 04:37 26.04.2022
4030 Clear 8 1015 81 10000 3.6 10 02:20 26.04.2022
4031 Clear 10 1015 74 10000 4.12 360 00:28 26.04.2022
4032 Clear 11 1014 65 10000 4.12 20 22:50 25.04.2022
4033 Clear 13 1013 57 10000 5.36 44 21:44 25.04.2022
4034 Clear 14 1013 52 10000 4.12 350 20:46 25.04.2022
4035 Clear 16 1012 47 10000 5.66 330 19:39 25.04.2022
4036 Clear 16 1012 41 10000 6.69 340 18:25 25.04.2022
4037 Clear 16 1012 41 10000 4.12 330 17:32 25.04.2022
4038 Clear 16 1012 45 10000 4.12 340 15:38 25.04.2022
4039 Clouds 16 1011 48 10000 3.6 350 15:18 25.04.2022
4040 Clouds 15 1011 60 10000 3.6 360 13:43 25.04.2022
4041 Clouds 13 1011 71 10000 5.66 20 12:22 25.04.2022
4042 Clouds 10 1011 81 9000 4.63 350 10:27 25.04.2022
4043 Clouds 9 1010 84 7000 5.14 360 09:23 25.04.2022
4044 Clear 9 1009 84 10000 3.6 330 07:19 25.04.2022
4045 Clear 10 1008 78 10000 4.12 350 05:32 25.04.2022
4046 Clear 13 1008 67 10000 4.12 340 01:24 25.04.2022
4047 Clear 14 1007 65 10000 4.63 10 23:53 24.04.2022
4048 Clear 15 1007 63 10000 5.36 43 22:53 24.04.2022
4049 Clear 15 1006 60 10000 3.09 330 22:32 24.04.2022
4050 Clear 16 1006 55 10000 2.57 330 21:54 24.04.2022
4051 Clear 17 1005 53 10000 2.57 330 21:20 24.04.2022
4052 Clear 17 1005 52 10000 3.6 330 20:38 24.04.2022
4053 Clear 17 1004 51 10000 4.12 330 19:51 24.04.2022
4054 Clear 18 1004 49 10000 4.12 360 18:28 24.04.2022
4055 Clear 19 1003 49 10000 4.63 330 17:40 24.04.2022
4056 Clear 19 1003 50 10000 4.12 360 17:20 24.04.2022
4057 Clear 19 1003 50 10000 4.12 360 16:49 24.04.2022
4058 Clear 18 1003 52 10000 3.09 360 16:20 24.04.2022
4059 Clear 18 1003 52 10000 3.6 350 15:36 24.04.2022
4060 Clouds 18 1003 55 10000 4.63 350 14:30 24.04.2022
4061 Clear 17 1002 60 10000 5.14 350 13:26 24.04.2022
4062 Clear 16 1002 62 10000 5.14 340 12:44 24.04.2022
4063 Clear 15 1001 67 10000 4.12 360 11:44 24.04.2022
4064 Clear 14 1001 70 10000 4.12 350 10:32 24.04.2022
4065 Clear 13 1001 76 10000 3.6 360 09:41 24.04.2022
4066 Clear 9 1000 88 10000 2.57 330 07:39 24.04.2022
4067 Clear 10 999 83 10000 3.09 20 05:32 24.04.2022
4068 Clear 14 998 74 10000 5.14 70 01:50 24.04.2022
4069 Clear 14 998 69 10000 5.66 60 00:38 24.04.2022
4070 Clear 15 997 67 10000 5.14 60 23:45 23.04.2022
4071 Clear 15 997 66 10000 5.66 40 23:22 23.04.2022
4072 Clear 15 996 68 10000 7.2 70 21:55 23.04.2022
4073 Clear 16 996 66 10000 6.17 70 21:35 23.04.2022
4074 Clear 16 996 68 10000 5.66 80 20:58 23.04.2022
4075 Clear 16 996 67 10000 6.69 90 19:54 23.04.2022
4076 Clear 16 996 69 10000 7.72 100 19:19 23.04.2022
4077 Clouds 16 996 70 10000 7.2 110 18:53 23.04.2022
4078 Clouds 17 995 64 10000 7.2 50 18:28 23.04.2022
4079 Clouds 18 995 62 10000 6.69 60 17:43 23.04.2022
4080 Rain 19 996 56 10000 7.2 60 16:43 23.04.2022
4081 Clouds 20 996 52 10000 7.2 60 15:32 23.04.2022
4082 Clear 17 996 64 10000 5.14 60 12:50 23.04.2022
4083 Clear 14 997 71 10000 4.12 40 10:50 23.04.2022
4084 Clear 12 997 74 10000 4.63 70 09:38 23.04.2022
4085 Clear 10 997 79 10000 4.12 50 07:38 23.04.2022
4086 Clear 11 998 75 10000 4.12 30 03:54 23.04.2022
4087 Clear 12 999 69 10000 3.6 40 01:32 23.04.2022
4088 Clear 14 1000 63 10000 4.12 50 23:32 22.04.2022
4089 Clear 15 1000 58 10000 4.12 60 22:28 22.04.2022
4090 Clear 16 1000 55 10000 5.14 60 21:44 22.04.2022
4091 Clear 17 1000 52 10000 5.14 50 20:55 22.04.2022
4092 Clear 17 1000 50 10000 5.66 40 20:28 22.04.2022
4093 Clear 18 1000 47 10000 4.12 50 19:22 22.04.2022
4094 Clear 19 1000 44 10000 5.14 70 18:46 22.04.2022
4095 Clear 19 1000 44 10000 4.63 70 17:54 22.04.2022
4096 Clear 19 1000 44 10000 5.14 60 16:52 22.04.2022
4097 Clear 19 1000 45 10000 5.14 60 15:47 22.04.2022
4098 Clear 19 1000 45 10000 6.17 30 15:21 22.04.2022
4099 Clear 18 1001 48 10000 6.17 70 13:54 22.04.2022
4100 Clouds 18 1001 48 10000 6.69 50 13:27 22.04.2022
4101 Clear 16 1002 51 10000 7.2 60 12:29 22.04.2022
4102 Clear 15 1002 57 10000 6.17 50 11:22 22.04.2022
4103 Clear 14 1002 61 10000 6.17 70 10:52 22.04.2022
4104 Clear 14 1002 64 10000 6.17 60 10:31 22.04.2022
4105 Clear 13 1002 67 10000 6.17 50 09:54 22.04.2022
4106 Clear 11 1002 71 10000 5.66 50 08:56 22.04.2022
4107 Clear 11 1003 74 10000 4.63 40 08:24 22.04.2022
4108 Clear 10 1003 75 10000 4.63 60 05:20 22.04.2022
4109 Clear 13 1005 58 10000 4.63 40 00:53 22.04.2022
4110 Clear 14 1005 58 10000 4.63 30 23:29 21.04.2022
4111 Clear 15 1005 58 10000 3.09 10 22:29 21.04.2022
4112 Clear 15 1005 58 10000 3.09 10 22:29 21.04.2022
4113 Clear 18 1005 48 10000 6.69 60 20:55 21.04.2022
4114 Clear 18 1005 47 10000 6.17 70 20:27 21.04.2022
4115 Clear 19 1005 44 10000 6.69 50 18:48 21.04.2022
4116 Clear 19 1005 43 10000 6.69 70 18:19 21.04.2022
4117 Clear 20 1005 40 10000 6.17 40 16:53 21.04.2022
4118 Clear 20 1006 36 10000 6.17 70 15:24 21.04.2022
4119 Clear 19 1007 37 10000 6.17 70 14:51 21.04.2022
4120 Clear 19 1007 37 10000 6.69 60 13:56 21.04.2022
4121 Clear 17 1007 40 10000 7.2 60 13:20 21.04.2022
4122 Clear 15 1008 49 10000 5.66 50 11:37 21.04.2022
4123 Clear 12 1009 55 10000 4.63 40 09:23 21.04.2022
4124 Clear 10 1009 61 10000 3.09 40 08:29 21.04.2022
4125 Clear 9 1009 59 10000 3.6 10 06:26 21.04.2022
4126 Clear 10 1010 59 10000 3.09 10 03:39 21.04.2022
4127 Clear 10 1010 60 10000 3.6 60 03:18 21.04.2022
4128 Clear 10 1010 63 10000 3.09 70 02:43 21.04.2022
4129 Clear 12 1011 55 10000 2.57 360 00:27 21.04.2022
4130 Clear 13 1010 52 10000 2.57 360 23:25 20.04.2022
4131 Clear 14 1010 49 10000 3.6 70 22:58 20.04.2022
4132 Clear 14 1010 48 10000 3.6 50 22:33 20.04.2022
4133 Clear 16 1010 41 10000 4.63 80 21:35 20.04.2022
4134 Clear 17 1010 36 10000 5.14 80 20:43 20.04.2022
4135 Clear 17 1010 36 10000 5.14 80 20:20 20.04.2022
4136 Clear 18 1010 35 10000 5.14 70 19:38 20.04.2022
4137 Clear 18 1010 35 10000 5.66 60 18:45 20.04.2022
4138 Clear 19 1010 37 10000 5.66 60 17:18 20.04.2022
4139 Clear 20 1010 38 10000 5.66 60 16:39 20.04.2022
4140 Clear 19 1010 41 10000 6.69 70 14:55 20.04.2022
4141 Clear 16 1012 55 10000 3.6 60 12:22 20.04.2022
4142 Clear 15 1012 59 10000 3.6 70 11:40 20.04.2022
4143 Clear 13 1012 67 10000 4.12 40 10:39 20.04.2022
4144 Clouds 10 1012 80 8000 3.09 10 09:28 20.04.2022
4145 Clouds 9 1012 84 6000 3.6 350 08:27 20.04.2022
4146 Clouds 8 1012 87 6000 3.6 350 07:53 20.04.2022
4147 Clouds 8 1011 87 9000 3.09 340 05:29 20.04.2022
4148 Clear 10 1012 78 10000 5.14 340 01:37 20.04.2022
4149 Clear 11 1013 71 10000 5.14 340 00:21 20.04.2022
4150 Clear 13 1013 66 10000 5.66 350 22:53 19.04.2022
4151 Clear 13 1013 67 10000 6.17 330 22:23 19.04.2022
4152 Clear 14 1013 65 10000 5.14 340 21:49 19.04.2022
4153 Clear 15 1012 63 10000 4.63 330 20:58 19.04.2022
4154 Clear 16 1012 61 10000 5.66 310 20:37 19.04.2022
4155 Clear 17 1012 56 10000 4.63 330 19:32 19.04.2022
4156 Clear 18 1012 54 10000 4.63 320 18:31 19.04.2022
4157 Clouds 18 1012 54 10000 4.63 330 16:55 19.04.2022
4158 Clouds 17 1012 56 10000 5.14 330 16:33 19.04.2022
4159 Clouds 17 1013 58 10000 4.12 280 15:59 19.04.2022
4160 Clouds 17 1013 58 10000 5.66 280 14:46 19.04.2022
4161 Clear 16 1014 59 10000 3.09 10 12:58 19.04.2022
4162 Clear 15 1014 61 10000 3.09 10 12:36 19.04.2022
4163 Clear 13 1014 62 10000 3.6 360 11:35 19.04.2022
4164 Clear 11 1015 76 10000 3.6 340 09:51 19.04.2022
4165 Clear 8 1015 86 10000 4.12 320 08:22 19.04.2022
4166 Clear 9 1015 77 10000 3.09 340 04:26 19.04.2022
4167 Clear 10 1015 80 10000 3.09 360 02:41 19.04.2022
4168 Clear 12 1016 80 10000 6.69 340 00:23 19.04.2022
4169 Clear 14 1016 73 10000 5.66 330 22:54 18.04.2022
4170 Clear 16 1015 45 10000 2.57 340 21:28 18.04.2022
4171 Clear 17 1015 40 10000 2.57 340 20:46 18.04.2022
4172 Clear 18 1014 38 10000 2.57 330 20:25 18.04.2022
4173 Clear 19 1014 36 10000 2.57 330 19:41 18.04.2022
4174 Clear 19 1014 34 10000 3.09 20 18:52 18.04.2022
4175 Clear 19 1015 32 10000 2.57 340 17:49 18.04.2022
4176 Clear 20 1015 31 10000 1.54 0 17:28 18.04.2022
4177 Clear 20 1015 32 10000 2.57 20 16:40 18.04.2022
4178 Clear 19 1015 32 10000 2.57 60 15:54 18.04.2022
4179 Clear 19 1016 34 10000 3.09 10 14:42 18.04.2022
4180 Clear 19 1016 33 10000 3.09 10 14:42 18.04.2022
4181 Clear 18 1016 38 10000 2.57 20 13:31 18.04.2022
4182 Clear 16 1017 42 10000 2.68 28 12:28 18.04.2022
4183 Clear 14 1017 47 10000 1.03 0 11:20 18.04.2022
4184 Clear 13 1017 50 10000 1.54 0 10:29 18.04.2022
4185 Clear 11 1017 57 10000 2.06 70 09:30 18.04.2022
4186 Clear 7 1017 63 10000 2.06 350 07:35 18.04.2022
4187 Clear 10 1017 54 10000 2.57 20 05:35 18.04.2022
4188 Clear 14 1018 49 10000 3.6 100 23:51 17.04.2022
4189 Clear 14 1019 48 10000 3.09 110 22:40 17.04.2022
4190 Clear 16 1018 45 10000 3.6 110 21:42 17.04.2022
4191 Clear 16 1018 42 10000 4.12 110 21:21 17.04.2022
4192 Clear 18 1019 36 10000 4.63 90 20:33 17.04.2022
4193 Clear 21 1019 29 10000 4.63 80 19:23 17.04.2022
4194 Clear 21 1019 28 10000 5.14 90 17:43 17.04.2022
4195 Clear 20 1020 30 10000 5.14 80 15:39 17.04.2022
4196 Clear 20 1021 29 10000 5.14 90 14:54 17.04.2022
4197 Clear 20 1021 29 10000 5.14 90 14:54 17.04.2022
4198 Clear 18 1022 32 10000 4.63 100 13:47 17.04.2022
4199 Clear 17 1022 35 10000 4.63 90 12:58 17.04.2022
4200 Clear 15 1023 40 10000 4.63 90 12:18 17.04.2022
4201 Clear 12 1024 48 10000 4.63 120 10:46 17.04.2022
4202 Clear 12 1024 49 10000 4.63 120 10:27 17.04.2022
4203 Clear 12 1024 49 10000 4.63 120 10:27 17.04.2022
4204 Clear 10 1025 54 10000 3.6 90 09:29 17.04.2022
4205 Clear 9 1025 61 10000 4.12 80 08:42 17.04.2022
4206 Clear 7 1025 63 10000 3.09 80 07:26 17.04.2022
4207 Clear 10 1025 64 10000 4.63 80 03:53 17.04.2022
4208 Clear 13 1026 59 10000 4.12 80 00:55 17.04.2022
4209 Clear 13 1026 60 10000 3.6 80 23:50 16.04.2022
4210 Clear 15 1026 58 10000 4.63 70 22:29 16.04.2022
4211 Clear 16 1026 53 10000 5.14 60 21:31 16.04.2022
4212 Clear 18 1026 49 10000 6.17 60 20:32 16.04.2022
4213 Clear 19 1025 45 10000 6.69 40 18:59 16.04.2022
4214 Clear 19 1026 46 10000 6.17 60 17:46 16.04.2022
4215 Clear 19 1026 45 10000 6.69 50 16:39 16.04.2022
4216 Clear 19 1026 44 10000 5.14 50 15:45 16.04.2022
4217 Clear 19 1027 45 10000 5.14 50 14:56 16.04.2022
4218 Clear 18 1027 50 10000 5.14 50 13:58 16.04.2022
4219 Clear 18 1027 53 10000 5.66 70 13:32 16.04.2022
4220 Clear 16 1027 66 10000 4.63 40 12:22 16.04.2022
4221 Clear 14 1027 71 9000 4.12 40 10:50 16.04.2022
4222 Clear 12 1027 77 9000 4.12 40 09:56 16.04.2022
4223 Clear 11 1027 82 9000 4.12 30 08:57 16.04.2022
4224 Clear 9 1027 87 8000 3.6 40 07:52 16.04.2022
4225 Clear 10 1026 85 10000 4.12 20 06:58 16.04.2022
4226 Clear 12 1027 78 10000 3.6 40 02:52 16.04.2022
4227 Clear 14 1026 72 10000 4.12 40 00:30 16.04.2022
4228 Clear 15 1026 67 10000 3.6 30 23:21 15.04.2022
4229 Clear 16 1026 63 10000 3.6 20 22:32 15.04.2022
4230 Clear 17 1025 61 10000 4.63 20 21:50 15.04.2022
4231 Clear 18 1025 59 10000 5.14 30 21:18 15.04.2022
4232 Clear 19 1025 56 10000 4.47 43 20:22 15.04.2022
4233 Clear 20 1025 53 10000 4.12 50 19:40 15.04.2022
4234 Clear 21 1024 51 10000 4.63 20 18:54 15.04.2022
4235 Clear 21 1024 50 10000 4.63 30 18:25 15.04.2022
4236 Clear 21 1024 49 10000 3.6 40 17:34 15.04.2022
4237 Clear 21 1024 48 10000 3.6 50 16:53 15.04.2022
4238 Clouds 21 1025 49 10000 3.6 10 16:19 15.04.2022
4239 Clouds 20 1025 50 10000 3.09 340 15:24 15.04.2022
4240 Clouds 19 1025 55 10000 2.57 0 13:41 15.04.2022
4241 Clear 18 1026 60 10000 3.6 10 12:42 15.04.2022
4242 Clear 18 1026 62 10000 3.6 360 11:57 15.04.2022
4243 Clear 18 1026 62 10000 3.6 360 11:57 15.04.2022
4244 Clear 18 1026 63 10000 3.09 360 11:34 15.04.2022
4245 Clear 16 1026 73 10000 2.06 10 10:43 15.04.2022
4246 Clear 14 1026 82 10000 2.06 360 09:47 15.04.2022
4247 Clear 12 1025 88 10000 1.54 340 09:21 15.04.2022
4248 Clear 10 1025 89 10000 1.54 330 07:44 15.04.2022
4249 Clear 10 1024 88 10000 1.54 270 06:37 15.04.2022
4250 Clear 12 1024 83 10000 1.54 20 03:21 15.04.2022
4251 Clear 15 1023 72 10000 3.09 40 23:32 14.04.2022
4252 Clear 15 1024 72 10000 2.06 10 22:49 14.04.2022
4253 Clear 16 1023 68 10000 3.09 60 22:31 14.04.2022
4254 Clear 16 1023 69 10000 3.6 60 21:59 14.04.2022
4255 Clear 17 1023 65 10000 3.6 50 21:30 14.04.2022
4256 Clear 20 1022 51 10000 3.09 360 19:24 14.04.2022
4257 Clear 21 1021 48 10000 3.09 360 18:30 14.04.2022
4258 Clear 21 1021 48 10000 3.09 320 17:44 14.04.2022
4259 Clear 21 1021 47 10000 3.09 360 16:46 14.04.2022
4260 Clear 20 1021 50 10000 2.57 360 15:48 14.04.2022
4261 Clouds 19 1022 59 10000 2.06 350 13:49 14.04.2022
4262 Clear 19 1022 62 10000 2.06 50 13:18 14.04.2022
4263 Clear 18 1022 68 10000 2.57 60 12:32 14.04.2022
4264 Clear 17 1022 79 10000 3.09 60 11:36 14.04.2022
4265 Clear 16 1022 84 10000 2.57 70 10:56 14.04.2022
4266 Clouds 14 1022 91 10000 2.06 80 10:27 14.04.2022
4267 Clouds 12 1022 95 9000 1.54 350 09:26 14.04.2022
4268 Mist 10 1021 95 2900 0.51 360 07:52 14.04.2022
4269 Fog 11 1020 96 6000 1.54 220 05:23 14.04.2022
4270 Clear 13 1020 91 10000 1.54 320 00:22 14.04.2022
4271 Clear 14 1020 88 10000 1.54 280 22:37 13.04.2022
4272 Clear 15 1020 83 10000 1.54 220 21:42 13.04.2022
4273 Clear 15 1019 77 10000 1.54 160 20:35 13.04.2022
4274 Clouds 16 1018 72 10000 2.06 150 19:47 13.04.2022
4275 Clouds 16 1018 72 10000 2.57 170 18:37 13.04.2022
4276 Clouds 16 1018 73 10000 1.03 0 17:25 13.04.2022
4277 Clouds 16 1018 76 10000 1.54 0 16:52 13.04.2022
4278 Clouds 15 1018 83 10000 2.06 210 15:45 13.04.2022
4279 Clouds 15 1018 83 10000 1.54 0 15:23 13.04.2022
4280 Drizzle 15 1018 85 10000 1.54 0 14:34 13.04.2022
4281 Rain 14 1018 87 10000 2.06 190 13:38 13.04.2022
4282 Rain 14 1017 89 10000 3.6 160 12:51 13.04.2022
4283 Rain 13 1017 96 9000 1.54 30 11:32 13.04.2022
4284 Rain 13 1016 95 4400 1.54 290 10:31 13.04.2022
4285 Rain 12 1015 96 9000 1.03 90 08:45 13.04.2022
4286 Rain 12 1014 95 10000 0.51 0 07:57 13.04.2022
4287 Rain 13 1014 93 10000 1.54 0 06:48 13.04.2022
4288 Rain 12 1014 91 10000 1.54 220 06:24 13.04.2022
4289 Clear 14 1013 78 10000 3.09 250 01:51 13.04.2022
4290 Clear 15 1012 74 10000 2.57 230 00:19 13.04.2022
4291 Clear 16 1011 71 10000 3.09 250 22:33 12.04.2022
4292 Clear 16 1011 68 10000 2.57 200 21:54 12.04.2022
4293 Clear 17 1010 64 10000 5.66 230 20:48 12.04.2022
4294 Clear 18 1010 62 10000 5.66 260 20:20 12.04.2022
4295 Clear 18 1010 59 10000 4.63 240 19:40 12.04.2022
4296 Clear 19 1009 58 10000 5.66 240 18:56 12.04.2022
4297 Clear 21 1008 50 10000 7.2 230 17:39 12.04.2022
4298 Clear 21 1008 47 10000 6.69 190 16:47 12.04.2022
4299 Clear 20 1008 49 10000 6.69 200 15:35 12.04.2022
4300 Clear 20 1008 47 10000 8.23 180 14:53 12.04.2022
4301 Clear 20 1007 50 10000 7.72 190 13:53 12.04.2022
4302 Clear 19 1007 51 10000 6.17 190 13:27 12.04.2022
4303 Clear 18 1007 52 10000 5.14 200 12:21 12.04.2022
4304 Clear 17 1007 53 10000 5.66 200 11:39 12.04.2022
4305 Clear 14 1008 65 10000 4.63 170 09:52 12.04.2022
4306 Clear 12 1007 77 10000 3.6 140 08:51 12.04.2022
4307 Clear 11 1006 79 10000 3.6 140 07:20 12.04.2022
4308 Clear 12 1006 78 10000 3.09 140 05:42 12.04.2022
4309 Clear 13 1006 76 10000 4.12 140 02:49 12.04.2022
4310 Clear 15 1007 65 10000 3.6 120 23:25 11.04.2022
4311 Clear 16 1007 62 10000 4.12 110 22:33 11.04.2022
4312 Clear 17 1007 56 10000 4.12 110 21:23 11.04.2022
4313 Clear 17 1007 53 10000 4.63 100 20:37 11.04.2022
4314 Clear 18 1007 50 10000 5.66 110 20:19 11.04.2022
4315 Clear 19 1007 44 10000 5.14 120 19:27 11.04.2022
4316 Clear 19 1007 42 10000 5.14 120 18:56 11.04.2022
4317 Clear 20 1008 40 10000 4.63 120 17:58 11.04.2022
4318 Clear 19 1008 38 10000 6.17 120 17:39 11.04.2022
4319 Clear 19 1008 41 10000 7.2 110 16:36 11.04.2022
4320 Clear 18 1009 44 10000 5.66 130 15:21 11.04.2022
4321 Clear 16 1010 48 10000 5.66 130 13:37 11.04.2022
4322 Clear 14 1010 50 10000 5.14 100 12:40 11.04.2022
4323 Clear 14 1010 51 10000 5.14 100 12:21 11.04.2022
4324 Clear 10 1011 61 10000 4.12 90 10:47 11.04.2022
4325 Clear 8 1011 64 10000 4.63 90 09:58 11.04.2022
4326 Clear 5 1012 72 10000 3.09 60 08:22 11.04.2022
4327 Clear 6 1013 73 10000 4.12 100 04:56 11.04.2022
4328 Clear 9 1016 65 10000 4.12 80 00:30 11.04.2022
4329 Clear 10 1017 61 10000 3.6 90 22:27 10.04.2022
4330 Clear 11 1017 59 10000 4.12 80 21:53 10.04.2022
4331 Clear 12 1017 54 10000 4.12 100 20:55 10.04.2022
4332 Clear 12 1017 50 10000 4.12 110 20:18 10.04.2022
4333 Clear 13 1017 48 10000 5.14 130 19:36 10.04.2022
4334 Clear 13 1017 46 10000 4.63 140 18:50 10.04.2022
4335 Clear 14 1018 45 10000 3.6 130 18:26 10.04.2022
4336 Clear 14 1018 45 10000 4.12 160 17:44 10.04.2022
4337 Clear 15 1018 44 10000 4.63 150 16:59 10.04.2022
4338 Clear 14 1019 45 10000 3.6 160 15:40 10.04.2022
4339 Clear 13 1020 46 10000 4.12 190 14:42 10.04.2022
4340 Clear 12 1021 47 10000 2.57 0 13:44 10.04.2022
4341 Clear 11 1022 55 10000 1.54 0 12:32 10.04.2022
4342 Clear 9 1021 62 10000 2.57 140 11:44 10.04.2022
4343 Clear 9 1021 65 10000 2.57 120 11:18 10.04.2022
4344 Clear 8 1021 70 10000 2.57 100 10:31 10.04.2022
4345 Clear 6 1021 82 10000 1.03 0 09:41 10.04.2022
4346 Clear 1 1021 91 9000 1.54 360 08:28 10.04.2022
4347 Clear 1 1021 90 8000 1.54 10 07:57 10.04.2022
4348 Clear 0 1021 91 8000 1.54 360 06:59 10.04.2022
4349 Clear 3 1020 84 10000 1.03 10 03:38 10.04.2022
4350 Clear 3 1020 82 10000 2.57 290 02:19 10.04.2022
4351 Clear 5 1020 79 10000 3.09 280 23:53 09.04.2022
4352 Clear 6 1019 75 10000 2.06 310 22:56 09.04.2022
4353 Clouds 6 1019 75 10000 2.06 310 22:33 09.04.2022
4354 Clear 8 1018 64 10000 2.57 320 21:19 09.04.2022
4355 Clear 10 1018 57 10000 4.12 330 20:30 09.04.2022
4356 Clear 10 1018 57 10000 4.63 300 19:57 09.04.2022
4357 Clear 10 1018 52 10000 4.63 340 19:39 09.04.2022
4358 Clear 11 1017 56 10000 5.14 350 18:23 09.04.2022
4359 Clear 11 1017 57 10000 4.63 330 17:49 09.04.2022
4360 Clouds 11 1017 61 10000 4.63 260 16:56 09.04.2022
4361 Clouds 10 1017 63 10000 4.63 280 16:38 09.04.2022
4362 Clouds 10 1017 66 10000 2.57 230 15:49 09.04.2022
4363 Clouds 10 1017 63 10000 3.6 280 15:49 09.04.2022
4364 Clouds 10 1017 66 10000 2.57 230 15:49 09.04.2022
4365 Clouds 9 1017 69 10000 2.57 230 15:25 09.04.2022
4366 Clouds 8 1017 81 10000 2.57 10 14:25 09.04.2022
4367 Clouds 7 1017 83 10000 4.63 320 13:26 09.04.2022
4368 Clouds 6 1016 87 10000 3.6 320 12:54 09.04.2022
4369 Clouds 6 1015 90 10000 4.12 320 11:50 09.04.2022
4370 Clouds 5 1015 93 10000 5.14 300 10:52 09.04.2022
4371 Clouds 5 1014 95 10000 4.63 280 10:18 09.04.2022
4372 Clouds 4 1014 95 10000 3.6 270 09:22 09.04.2022
4373 Clouds 3 1013 96 10000 1.03 240 08:18 09.04.2022
4374 Drizzle 4 1011 94 10000 5.14 250 04:38 09.04.2022
4375 Clouds 4 1007 94 10000 6.17 280 00:35 09.04.2022
4376 Clouds 4 1006 95 10000 4.63 280 23:23 08.04.2022
4377 Clouds 3 1003 96 10000 7.2 340 21:53 08.04.2022
4378 Clouds 2 998 96 10000 6.69 360 20:44 08.04.2022
4379 Clouds 2 997 96 10000 7.72 10 19:50 08.04.2022
4380 Clouds 4 995 96 10000 8.75 10 18:56 08.04.2022
4381 Clouds 4 994 96 10000 7.2 20 18:24 08.04.2022
4382 Mist 6 993 96 5000 5.14 30 17:29 08.04.2022
4383 Drizzle 6 993 97 10000 4.63 70 16:58 08.04.2022
4384 Clouds 6 994 94 10000 6.69 360 16:31 08.04.2022
4385 Drizzle 8 994 96 10000 7.6 42 15:37 08.04.2022
4386 Clouds 7 993 97 10000 3.6 70 14:52 08.04.2022
4387 Rain 6 994 96 10000 5.66 60 14:21 08.04.2022
4388 Rain 6 994 96 10000 5.14 60 13:36 08.04.2022
4389 Rain 6 995 96 9000 5.66 30 13:18 08.04.2022
4390 Rain 6 996 94 9000 5.66 70 11:41 08.04.2022
4391 Rain 6 997 94 7000 5.14 50 10:26 08.04.2022
4392 Rain 7 999 92 6000 2.57 70 09:20 08.04.2022
4393 Rain 7 1000 89 10000 1.54 170 07:58 08.04.2022
4394 Rain 8 1002 84 10000 3.09 220 06:47 08.04.2022
4395 Clear 8 1004 72 10000 5.14 240 03:48 08.04.2022
4396 Clouds 9 1004 67 10000 7.2 270 00:32 08.04.2022
4397 Clear 9 1004 66 10000 6.17 260 23:53 07.04.2022
4398 Clouds 10 1003 66 10000 7.2 270 22:57 07.04.2022
4399 Clear 10 1003 66 10000 8.75 270 22:37 07.04.2022
4400 Clouds 10 1002 65 10000 8.23 250 22:19 07.04.2022
4401 Clouds 11 1001 62 10000 8.75 270 21:33 07.04.2022
4402 Clear 12 1000 57 10000 8.75 270 20:57 07.04.2022
4403 Clear 12 1000 57 10000 10.29 270 20:28 07.04.2022
4404 Clouds 15 997 54 10000 12.86 270 17:51 07.04.2022
4405 Clouds 15 997 56 10000 12.86 270 17:24 07.04.2022
4406 Clouds 15 997 59 10000 10.8 280 16:42 07.04.2022
4407 Clouds 15 996 61 10000 12.86 280 15:58 07.04.2022
4408 Clouds 14 995 76 10000 10.29 280 14:31 07.04.2022
4409 Rain 13 994 87 10000 9.77 270 13:41 07.04.2022
4410 Rain 14 993 82 10000 12.35 230 12:28 07.04.2022
4411 Clouds 13 993 89 10000 10.8 230 10:58 07.04.2022
4412 Clouds 12 993 90 10000 10.29 210 09:36 07.04.2022
4413 Clouds 12 993 87 10000 9.77 210 08:37 07.04.2022
4414 Rain 11 995 92 10000 8.75 200 06:42 07.04.2022
4415 Clouds 11 1000 84 10000 8.23 230 02:43 07.04.2022
4416 Clouds 11 1000 86 10000 7.72 210 01:52 07.04.2022
4417 Clouds 11 1002 85 10000 8.75 210 23:57 06.04.2022
4418 Clouds 11 1002 80 10000 9.26 210 22:48 06.04.2022
4419 Clouds 11 1002 77 10000 8.23 230 22:25 06.04.2022
4420 Clouds 12 1002 74 10000 7.72 210 21:32 06.04.2022
4421 Clouds 12 1002 75 10000 8.23 220 20:35 06.04.2022
4422 Clouds 12 1002 74 10000 8.23 210 19:53 06.04.2022
4423 Clouds 13 1003 71 10000 7.72 210 18:51 06.04.2022
4424 Clouds 13 1003 70 10000 8.23 210 18:22 06.04.2022
4425 Clouds 13 1003 70 10000 8.75 210 17:35 06.04.2022
4426 Clouds 13 1004 68 10000 8.23 240 16:38 06.04.2022
4427 Clouds 13 1005 70 10000 8.23 210 15:48 06.04.2022
4428 Clouds 12 1006 71 10000 7.2 210 14:57 06.04.2022
4429 Clouds 11 1007 73 10000 7.2 240 13:24 06.04.2022
4430 Clouds 11 1008 74 10000 7.2 230 12:26 06.04.2022
4431 Clouds 10 1008 79 10000 4.63 220 10:48 06.04.2022
4432 Clouds 9 1008 80 10000 4.63 220 10:29 06.04.2022
4433 Clouds 9 1008 82 10000 4.63 210 09:40 06.04.2022
4434 Clouds 9 1008 82 10000 4.63 210 09:40 06.04.2022
4435 Clouds 8 1009 83 10000 4.63 230 08:32 06.04.2022
4436 Clouds 8 1009 82 10000 4.12 230 07:50 06.04.2022
4437 Clouds 8 1010 82 10000 4.63 250 04:30 06.04.2022
4438 Clouds 11 1012 78 10000 6.17 250 23:54 05.04.2022
4439 Clouds 11 1012 79 10000 3.6 240 22:58 05.04.2022
4440 Clouds 12 1011 82 10000 5.14 280 21:23 05.04.2022
4441 Clouds 12 1011 84 10000 4.63 260 20:26 05.04.2022
4442 Clouds 13 1011 83 10000 5.14 260 19:47 05.04.2022
4443 Clouds 13 1011 83 10000 5.14 250 18:18 05.04.2022
4444 Clouds 13 1012 86 10000 5.66 240 16:55 05.04.2022
4445 Clouds 12 1012 88 10000 4.63 250 16:35 05.04.2022
4446 Clouds 12 1013 91 10000 4.63 240 15:35 05.04.2022
4447 Clouds 11 1013 93 10000 4.63 240 14:37 05.04.2022
4448 Mist 11 1013 95 10000 4.63 230 13:38 05.04.2022
4449 Mist 10 1013 94 8000 4.63 230 11:51 05.04.2022
4450 Mist 10 1013 94 8000 4.63 230 11:51 05.04.2022
4451 Mist 10 1013 95 7000 4.63 240 11:33 05.04.2022
4452 Mist 9 1013 94 6000 5.14 240 10:52 05.04.2022
4453 Clouds 8 1013 93 10000 4.12 230 08:55 05.04.2022
4454 Mist 8 1013 93 6000 5.14 230 07:24 05.04.2022
4455 Clouds 8 1014 77 10000 6.69 230 02:43 05.04.2022
4456 Clouds 8 1015 66 10000 6.17 240 23:18 04.04.2022
4457 Clouds 8 1015 66 10000 5.66 230 22:29 04.04.2022
4458 Clouds 8 1015 65 10000 6.17 240 21:22 04.04.2022
4459 Clouds 8 1015 66 10000 6.17 240 20:53 04.04.2022
4460 Clouds 8 1015 62 10000 7.72 230 20:35 04.04.2022
4461 Clouds 9 1015 62 10000 7.2 250 19:26 04.04.2022
4462 Clouds 9 1015 62 10000 7.72 260 18:39 04.04.2022
4463 Clouds 9 1016 59 10000 8.23 250 17:19 04.04.2022
4464 Clouds 10 1016 51 10000 8.23 250 16:27 04.04.2022
4465 Clouds 10 1017 46 10000 8.75 240 15:33 04.04.2022
4466 Clear 10 1017 45 10000 8.23 260 14:46 04.04.2022
4467 Clear 10 1018 41 10000 7.72 230 13:58 04.04.2022
4468 Clear 9 1019 44 10000 7.72 230 12:58 04.04.2022
4469 Clear 8 1020 54 10000 8.23 230 11:29 04.04.2022
4470 Clear 4 1020 70 10000 5.14 240 09:53 04.04.2022
4471 Clear 1 1022 82 10000 2.57 260 05:34 04.04.2022
4472 Clear 1 1023 80 10000 2.57 320 02:51 04.04.2022
4473 Clear 5 1023 62 10000 3.09 320 23:19 03.04.2022
4474 Clear 6 1023 50 10000 2.57 30 22:00 03.04.2022
4475 Clear 6 1023 48 10000 3.09 40 21:27 03.04.2022
4476 Clear 7 1022 45 10000 3.6 10 20:30 03.04.2022
4477 Clear 8 1022 41 10000 5.14 360 18:46 03.04.2022
4478 Clear 8 1022 40 10000 5.14 10 17:56 03.04.2022
4479 Clear 8 1022 40 10000 5.14 10 17:36 03.04.2022
4480 Clear 9 1022 40 10000 7.2 20 16:50 03.04.2022
4481 Clear 8 1023 41 10000 6.17 30 15:56 03.04.2022
4482 Clear 8 1023 41 10000 7.2 10 14:25 03.04.2022
4483 Clear 7 1024 41 10000 7.72 30 13:28 03.04.2022
4484 Clear 6 1024 46 10000 5.66 360 11:51 03.04.2022
4485 Clear 3 1023 66 10000 5.14 20 09:59 03.04.2022
4486 Clear 2 1023 70 10000 3.6 350 09:18 03.04.2022
4487 Clear 3 1022 69 10000 4.12 20 06:28 03.04.2022
4488 Clear 4 1022 63 10000 4.63 30 02:56 03.04.2022
4489 Clear 4 1021 58 10000 5.14 50 23:50 02.04.2022
4490 Clear 4 1021 58 10000 4.63 40 22:51 02.04.2022
4491 Clear 5 1020 58 10000 6.17 50 21:56 02.04.2022
4492 Clear 5 1020 58 10000 6.17 50 21:56 02.04.2022
4493 Clear 5 1020 57 10000 5.14 50 21:26 02.04.2022
4494 Clear 5 1019 52 10000 7.2 30 20:39 02.04.2022
4495 Clear 7 1018 45 10000 7.72 30 18:51 02.04.2022
4496 Clear 7 1018 44 10000 7.72 20 18:20 02.04.2022
4497 Clear 7 1017 43 10000 7.72 20 17:43 02.04.2022
4498 Clear 7 1018 43 10000 9.77 20 15:59 02.04.2022
4499 Clouds 7 1018 41 10000 9.39 42 15:20 02.04.2022
4500 Clear 7 1017 44 10000 9.77 10 14:42 02.04.2022
4501 Clear 6 1017 49 10000 9.26 30 13:34 02.04.2022
4502 Clouds 6 1017 52 10000 8.75 20 12:34 02.04.2022
4503 Clouds 4 1017 62 10000 8.23 10 10:50 02.04.2022
4504 Clear 1 1016 77 10000 5.14 330 08:44 02.04.2022
4505 Clear 1 1014 77 10000 5.66 360 06:43 02.04.2022
4506 Clear 3 1014 73 10000 6.17 360 03:31 02.04.2022
4507 Clear 3 1014 81 10000 5.66 360 23:55 01.04.2022
4508 Clear 3 1013 79 10000 7.72 20 23:18 01.04.2022
4509 Clouds 3 1012 81 10000 7.6 43 21:32 01.04.2022
4510 Clouds 3 1011 81 10000 7.72 10 20:50 01.04.2022
4511 Clouds 3 1010 81 10000 5.66 360 19:57 01.04.2022
4512 Clouds 3 1010 83 10000 8.75 20 19:31 01.04.2022
4513 Clouds 3 1010 85 10000 9.39 41 18:45 01.04.2022
4514 Snow 2 1009 89 10000 8.23 10 17:46 01.04.2022
4515 Snow 2 1009 91 10000 8.75 20 16:48 01.04.2022
4516 Rain 2 1008 88 10000 7.2 360 15:36 01.04.2022
4517 Snow 2 1007 87 10000 6.69 10 14:20 01.04.2022
4518 Rain 2 1007 87 10000 7.2 360 13:33 01.04.2022
4519 Clouds 2 1007 89 10000 8.23 360 12:32 01.04.2022
4520 Rain 1 1006 93 10000 7.6 43 11:37 01.04.2022
4521 Snow 1 1005 92 5000 5.66 320 10:18 01.04.2022
4522 Snow 1 1004 88 3800 8.75 330 08:30 01.04.2022
4523 Snow 2 1003 89 10000 9.26 300 06:39 01.04.2022
4524 Clouds 2 1004 84 10000 9.26 300 04:49 01.04.2022
4525 Clouds 2 1004 81 10000 9.77 320 04:30 01.04.2022
4526 Clouds 3 1005 73 10000 8.23 340 01:55 01.04.2022
4527 Clouds 4 1004 75 10000 9.26 350 22:58 31.03.2022
4528 Clouds 4 1004 76 10000 8.23 360 21:50 31.03.2022
4529 Clouds 4 1003 76 10000 8.23 360 21:32 31.03.2022
4530 Clouds 5 1002 74 10000 10.73 39 20:29 31.03.2022
4531 Clouds 7 1002 65 10000 7.2 330 19:48 31.03.2022
4532 Clouds 7 1001 63 10000 7.2 320 18:44 31.03.2022
4533 Clouds 7 1001 69 10000 6.69 330 17:49 31.03.2022
4534 Clouds 7 1002 67 10000 5.66 10 16:38 31.03.2022
4535 Clouds 7 1002 75 10000 5.14 360 15:43 31.03.2022
4536 Rain 6 1002 79 10000 7.15 43 15:19 31.03.2022
4537 Clouds 5 1002 82 10000 7.2 20 14:35 31.03.2022
4538 Rain 4 1001 92 10000 6.17 340 11:57 31.03.2022
4539 Rain 4 1001 89 10000 7.2 320 11:20 31.03.2022
4540 Mist 6 1000 89 5000 4.12 10 09:45 31.03.2022
4541 Mist 5 999 88 6000 2.57 340 07:59 31.03.2022
4542 Clouds 6 999 87 7000 3.6 340 05:23 31.03.2022
4543 Mist 9 1001 88 7000 3.6 360 23:58 30.03.2022
4544 Clouds 9 1001 86 6000 4.63 10 22:43 30.03.2022
4545 Clouds 10 1000 85 8000 5.14 10 21:39 30.03.2022
4546 Clouds 10 1000 85 9000 5.14 20 20:54 30.03.2022
4547 Mist 10 1000 87 8000 5.14 10 20:20 30.03.2022
4548 Mist 12 1000 84 9000 4.63 350 19:28 30.03.2022
4549 Clouds 12 1000 85 10000 3.09 340 18:28 30.03.2022
4550 Mist 12 1000 83 10000 2.57 350 17:47 30.03.2022
4551 Mist 13 1000 80 10000 4.12 220 16:57 30.03.2022
4552 Mist 13 1000 79 10000 3.6 330 16:33 30.03.2022
4553 Clouds 13 1001 77 9000 2.57 10 15:24 30.03.2022
4554 Mist 12 1002 88 5000 2.57 60 13:44 30.03.2022
4555 Mist 12 1002 90 4300 2.57 60 12:57 30.03.2022
4556 Rain 10 1003 94 2800 2.57 30 11:27 30.03.2022
4557 Mist 11 1003 94 3200 2.57 30 11:27 30.03.2022
4558 Mist 10 1003 96 2700 1.54 0 10:28 30.03.2022
4559 Mist 10 1003 97 3000 1.54 350 09:24 30.03.2022
4560 Mist 10 1003 93 3400 1.03 0 07:33 30.03.2022
4561 Fog 10 1003 93 3700 1.54 70 05:41 30.03.2022
4562 Mist 10 1004 93 4700 1.54 350 03:52 30.03.2022
4563 Rain 11 1006 88 10000 1.54 270 00:42 30.03.2022
4564 Clear 12 1006 82 10000 2.06 30 22:28 29.03.2022
4565 Clear 12 1006 82 10000 2.57 50 21:45 29.03.2022
4566 Clear 12 1006 80 10000 3.6 60 20:53 29.03.2022
4567 Clear 12 1006 83 10000 3.09 60 20:19 29.03.2022
4568 Clouds 13 1006 80 10000 3.6 10 18:56 29.03.2022
4569 Clouds 13 1006 77 10000 3.09 340 18:21 29.03.2022
4570 Clouds 14 1007 75 10000 2.57 270 17:35 29.03.2022
4571 Rain 14 1007 73 10000 4.12 290 16:57 29.03.2022
4572 Rain 15 1008 66 10000 4.63 300 15:57 29.03.2022
4573 Clear 17 1008 49 10000 6.17 250 14:53 29.03.2022
4574 Clear 17 1008 46 10000 3.09 50 13:58 29.03.2022
4575 Clear 17 1009 49 10000 2.57 20 12:53 29.03.2022
4576 Clouds 15 1009 53 10000 3.09 20 11:43 29.03.2022
4577 Clear 14 1010 55 10000 3.6 50 10:51 29.03.2022
4578 Clear 13 1011 58 10000 2.06 340 09:49 29.03.2022
4579 Clear 12 1010 57 10000 2.06 360 07:35 29.03.2022
4580 Clear 13 1012 54 10000 2.57 60 04:41 29.03.2022
4581 Clear 14 1015 50 10000 2.57 70 00:35 29.03.2022
4582 Clear 15 1015 45 10000 3.09 70 23:23 28.03.2022
4583 Clear 15 1016 45 10000 3.09 70 22:52 28.03.2022
4584 Clear 16 1016 42 10000 3.09 50 22:26 28.03.2022
4585 Clear 17 1016 40 10000 3.6 60 20:56 28.03.2022
4586 Clear 19 1016 35 10000 2.57 50 20:21 28.03.2022
4587 Clear 20 1016 32 10000 3.09 60 19:44 28.03.2022
4588 Clear 20 1017 32 10000 3.09 60 19:25 28.03.2022
4589 Clear 21 1017 31 10000 2.57 50 18:37 28.03.2022
4590 Clear 21 1018 29 10000 2.57 50 17:39 28.03.2022
4591 Clear 21 1019 29 10000 2.06 50 16:20 28.03.2022
4592 Clear 21 1021 34 10000 3.09 70 14:47 28.03.2022
4593 Clear 21 1021 35 10000 3.09 70 14:21 28.03.2022
4594 Clear 17 1023 55 10000 2.57 80 12:20 28.03.2022
4595 Clouds 15 1023 67 7000 2.06 60 11:24 28.03.2022
4596 Mist 11 1024 81 4500 2.06 70 09:43 28.03.2022
4597 Mist 9 1023 82 4300 1.54 10 09:19 28.03.2022
4598 Mist 8 1024 84 4400 2.06 40 08:22 28.03.2022
4599 Mist 8 1024 83 5000 1.03 40 07:28 28.03.2022
4600 Clear 10 1025 69 10000 1.03 350 03:44 28.03.2022
4601 Clear 13 1026 46 10000 2.57 350 23:30 27.03.2022
4602 Clear 14 1026 45 10000 1.03 80 22:24 27.03.2022
4603 Clear 15 1026 44 10000 2.06 360 22:24 27.03.2022
4604 Clear 16 1026 40 10000 2.57 70 21:42 27.03.2022
4605 Clear 16 1026 38 10000 2.57 40 20:57 27.03.2022
4606 Clear 19 1025 31 10000 3.09 40 19:48 27.03.2022
4607 Clear 20 1025 30 10000 3.6 50 19:24 27.03.2022
4608 Clear 21 1025 30 10000 3.09 80 18:27 27.03.2022
4609 Clear 21 1025 30 10000 4.12 90 17:39 27.03.2022
4610 Clear 21 1026 31 10000 4.63 60 16:28 27.03.2022
4611 Clear 20 1026 34 10000 5.14 80 15:21 27.03.2022
4612 Clear 18 1027 42 10000 4.63 50 13:55 27.03.2022
4613 Clear 16 1028 50 10000 3.6 50 12:31 27.03.2022
4614 Clear 13 1028 59 10000 4.12 40 10:57 27.03.2022
4615 Clear 9 1028 70 10000 3.6 40 08:51 27.03.2022
4616 Clear 9 1027 67 10000 4.12 30 05:54 27.03.2022
4617 Clear 12 1028 55 10000 5.14 50 00:48 27.03.2022
4618 Clear 13 1028 52 10000 5.14 40 23:42 26.03.2022
4619 Clear 13 1027 47 10000 4.12 30 22:36 26.03.2022
4620 Clear 15 1027 39 10000 5.14 50 21:34 26.03.2022
4621 Clear 15 1026 35 10000 5.66 60 20:52 26.03.2022
4622 Clear 18 1026 28 10000 6.69 50 19:21 26.03.2022
4623 Clear 19 1026 27 10000 7.72 60 17:54 26.03.2022
4624 Clear 19 1026 27 10000 7.2 40 17:33 26.03.2022
4625 Clear 19 1026 29 10000 6.69 60 16:27 26.03.2022
4626 Clear 19 1026 31 10000 6.69 50 14:57 26.03.2022
4627 Clear 19 1027 31 10000 7.2 60 13:53 26.03.2022
4628 Clear 18 1027 34 10000 8.23 60 12:59 26.03.2022
4629 Clear 16 1028 42 10000 5.66 50 11:41 26.03.2022
4630 Clear 16 1028 42 10000 5.66 50 11:41 26.03.2022
4631 Clear 12 1028 51 10000 4.12 40 10:22 26.03.2022
4632 Clear 9 1028 62 8000 3.6 30 08:35 26.03.2022
4633 Clear 8 1027 63 9000 4.12 30 05:54 26.03.2022
4634 Clear 9 1027 61 10000 4.12 30 04:23 26.03.2022
4635 Clear 11 1027 51 10000 5.14 30 00:22 26.03.2022
4636 Clear 14 1027 44 10000 5.14 40 21:49 25.03.2022
4637 Clear 15 1027 41 10000 5.14 40 20:46 25.03.2022
4638 Clear 16 1026 36 10000 5.66 40 19:38 25.03.2022
4639 Clear 17 1026 33 10000 6.17 40 18:47 25.03.2022
4640 Clear 19 1026 29 10000 6.17 40 17:47 25.03.2022
4641 Clear 19 1026 29 10000 6.17 40 17:26 25.03.2022
4642 Clear 19 1026 27 10000 6.69 60 16:18 25.03.2022
4643 Clear 19 1027 30 10000 5.66 30 14:26 25.03.2022
4644 Clear 18 1028 34 10000 5.14 60 12:48 25.03.2022
4645 Clear 13 1028 46 10000 4.63 30 10:22 25.03.2022
4646 Clear 11 1028 52 9000 4.12 30 09:28 25.03.2022
4647 Clear 8 1027 57 10000 4.12 40 07:54 25.03.2022
4648 Clear 8 1027 57 10000 4.12 30 07:27 25.03.2022
4649 Clear 8 1027 54 10000 3.09 40 05:55 25.03.2022
4650 Clear 12 1027 44 10000 4.63 40 00:46 25.03.2022
4651 Clear 13 1027 44 10000 3.6 40 22:51 24.03.2022
4652 Clear 14 1026 44 10000 3.09 50 21:45 24.03.2022
4653 Clear 15 1026 38 10000 3.6 20 20:26 24.03.2022
4654 Clear 17 1026 37 10000 3.6 60 19:47 24.03.2022
4655 Clear 20 1025 29 10000 3.6 40 17:47 24.03.2022
4656 Clear 20 1025 28 10000 3.6 50 17:19 24.03.2022
4657 Clear 20 1026 29 10000 2.57 30 15:45 24.03.2022
4658 Clear 20 1026 29 10000 3.09 50 14:48 24.03.2022
4659 Clear 20 1027 30 10000 4.12 60 14:18 24.03.2022
4660 Clear 19 1027 34 10000 4.63 80 13:23 24.03.2022
4661 Clear 16 1028 39 10000 3.09 90 11:47 24.03.2022
4662 Clear 12 1028 53 10000 2.57 70 09:55 24.03.2022
4663 Clear 9 1028 61 10000 3.09 70 08:42 24.03.2022
4664 Clear 7 1027 61 10000 2.06 60 06:49 24.03.2022
4665 Clear 8 1028 54 10000 2.57 360 03:57 24.03.2022
4666 Clear 11 1028 47 10000 3.09 60 23:20 23.03.2022
4667 Clear 12 1028 47 10000 2.57 70 21:40 23.03.2022
4668 Clear 13 1028 43 10000 2.06 50 21:18 23.03.2022
4669 Clear 15 1028 38 10000 3.09 80 19:46 23.03.2022
4670 Clear 17 1028 34 10000 4.63 70 18:55 23.03.2022
4671 Clear 18 1028 31 10000 3.6 110 17:37 23.03.2022
4672 Clear 19 1028 32 10000 5.66 90 16:39 23.03.2022
4673 Clear 18 1029 31 10000 4.12 130 14:51 23.03.2022
4674 Clear 18 1029 31 10000 4.12 130 14:26 23.03.2022
4675 Clear 17 1030 33 10000 3.6 100 12:55 23.03.2022
4676 Clear 12 1031 49 10000 2.57 150 10:20 23.03.2022
4677 Clear 6 1029 62 10000 1.54 200 06:55 23.03.2022
4678 Clear 7 1029 62 10000 2.57 60 05:27 23.03.2022
4679 Clear 10 1028 62 8000 2.57 120 00:35 23.03.2022
4680 Clear 11 1028 61 9000 2.06 70 23:41 22.03.2022
4681 Clear 13 1028 54 10000 3.6 70 21:30 22.03.2022
4682 Clear 14 1028 49 10000 3.6 60 20:51 22.03.2022
4683 Clear 15 1027 43 10000 3.6 100 19:52 22.03.2022
4684 Clear 15 1027 42 10000 3.6 100 19:25 22.03.2022
4685 Clear 17 1027 37 10000 5.14 110 18:45 22.03.2022
4686 Clear 18 1027 32 10000 6.69 110 17:38 22.03.2022
4687 Clear 18 1027 32 10000 7.2 110 16:32 22.03.2022
4688 Clear 18 1027 33 10000 7.2 120 15:23 22.03.2022
4689 Clear 18 1028 34 10000 6.69 110 14:59 22.03.2022
4690 Clear 18 1028 34 10000 4.63 100 14:41 22.03.2022
4691 Clear 17 1028 33 10000 4.12 150 13:36 22.03.2022
4692 Clear 15 1029 34 10000 5.66 170 11:52 22.03.2022
4693 Clear 13 1030 42 10000 5.66 200 10:46 22.03.2022
4694 Clear 9 1029 69 10000 2.06 140 08:40 22.03.2022
4695 Clear 8 1029 75 10000 3.09 150 06:58 22.03.2022
4696 Clear 10 1028 69 10000 3.09 60 03:54 22.03.2022
4697 Clear 11 1028 72 10000 2.57 130 00:34 22.03.2022
4698 Clear 12 1028 68 10000 2.06 110 22:42 21.03.2022
4699 Clear 14 1027 65 10000 3.09 90 21:20 21.03.2022
4700 Clear 14 1027 64 10000 3.09 90 20:42 21.03.2022
4701 Clear 15 1027 59 10000 2.57 110 19:59 21.03.2022
4702 Clear 16 1027 57 10000 3.09 130 19:35 21.03.2022
4703 Clear 17 1026 53 10000 3.6 140 18:46 21.03.2022
4704 Clear 18 1026 49 10000 5.14 120 17:35 21.03.2022
4705 Clear 18 1027 48 10000 5.14 150 16:58 21.03.2022
4706 Clear 18 1026 47 10000 4.63 150 16:24 21.03.2022
4707 Clear 18 1027 48 10000 4.12 120 15:21 21.03.2022
4708 Clear 18 1027 50 10000 3.6 90 14:29 21.03.2022
4709 Clear 17 1028 52 10000 2.57 150 12:58 21.03.2022
4710 Clear 16 1028 55 10000 2.57 130 11:57 21.03.2022
4711 Clear 14 1029 61 10000 3.6 160 10:59 21.03.2022
4712 Clear 11 1029 74 10000 2.06 150 09:42 21.03.2022
4713 Clear 7 1028 82 9000 2.06 150 07:22 21.03.2022
4714 Clouds 7 1027 83 9000 1.54 10 05:42 21.03.2022
4715 Clear 6 1027 76 10000 2.06 30 00:46 21.03.2022
4716 Clear 8 1027 65 10000 2.06 100 22:57 20.03.2022
4717 Clouds 9 1027 64 10000 2.57 110 22:23 20.03.2022
4718 Clouds 9 1027 60 10000 3.09 100 21:37 20.03.2022
4719 Clouds 9 1026 58 10000 2.57 110 20:54 20.03.2022
4720 Clear 10 1026 55 10000 2.57 130 20:27 20.03.2022
4721 Clear 10 1026 52 10000 2.57 120 19:48 20.03.2022
4722 Clear 10 1026 50 10000 2.57 140 19:19 20.03.2022
4723 Clear 12 1025 39 10000 4.12 150 17:44 20.03.2022
4724 Clear 12 1025 38 10000 4.12 150 17:24 20.03.2022
4725 Clear 13 1025 35 10000 3.09 160 15:58 20.03.2022
4726 Clear 13 1025 38 10000 2.57 120 14:38 20.03.2022
4727 Clear 11 1026 42 10000 3.09 100 13:38 20.03.2022
4728 Clear 10 1026 45 10000 3.6 90 12:19 20.03.2022
4729 Clear 7 1026 62 10000 2.57 50 09:59 20.03.2022
4730 Clear 4 1026 68 10000 3.09 360 08:20 20.03.2022
4731 Clear 4 1025 65 10000 4.63 50 06:37 20.03.2022
4732 Clear 6 1026 50 10000 6.17 70 03:18 20.03.2022
4733 Clear 8 1027 45 10000 6.17 80 00:54 20.03.2022
4734 Clear 9 1027 44 10000 6.17 80 00:34 20.03.2022
4735 Clear 10 1028 51 10000 5.14 90 22:31 19.03.2022
4736 Clear 11 1028 50 10000 4.12 60 21:26 19.03.2022
4737 Clear 14 1028 43 10000 6.17 50 19:29 19.03.2022
4738 Clear 14 1028 41 10000 6.17 50 18:44 19.03.2022
4739 Clear 16 1028 39 10000 8.75 50 17:52 19.03.2022
4740 Clear 16 1028 39 10000 8.75 50 17:33 19.03.2022
4741 Clear 16 1030 40 10000 7.72 60 15:40 19.03.2022
4742 Clear 15 1031 43 10000 8.75 70 14:19 19.03.2022
4743 Clear 14 1032 45 10000 8.23 80 12:56 19.03.2022
4744 Clear 13 1033 47 10000 8.75 80 12:37 19.03.2022
4745 Clear 12 1033 51 10000 9.26 70 11:46 19.03.2022
4746 Clear 8 1034 67 10000 8.23 70 09:31 19.03.2022
4747 Clear 7 1034 60 10000 7.72 70 05:44 19.03.2022
4748 Clear 8 1035 51 10000 6.69 60 02:34 19.03.2022
4749 Clear 9 1036 51 10000 7.2 50 00:32 19.03.2022
4750 Clear 10 1036 47 10000 7.2 50 23:19 18.03.2022
4751 Clear 11 1036 45 10000 6.69 40 22:22 18.03.2022
4752 Clear 12 1036 39 10000 7.2 50 20:40 18.03.2022
4753 Clear 13 1036 38 10000 6.69 50 19:48 18.03.2022
4754 Clear 14 1036 36 10000 7.2 50 19:19 18.03.2022
4755 Clear 15 1035 34 10000 9.26 50 17:27 18.03.2022
4756 Clear 15 1036 32 10000 10.8 60 16:42 18.03.2022
4757 Clear 15 1037 33 10000 9.26 50 14:29 18.03.2022
4758 Clear 13 1038 38 10000 8.23 50 13:41 18.03.2022
4759 Clear 12 1038 44 10000 8.23 60 12:18 18.03.2022
4760 Clear 8 1038 63 10000 7.2 40 10:27 18.03.2022
4761 Clear 6 1038 74 10000 6.17 50 09:20 18.03.2022
4762 Clear 5 1038 80 10000 6.17 40 07:45 18.03.2022
4763 Clear 5 1037 86 10000 5.66 30 05:39 18.03.2022
4764 Clear 5 1037 86 10000 4.63 20 02:44 18.03.2022
4765 Clear 6 1037 84 10000 4.12 360 00:21 18.03.2022
4766 Clear 7 1037 82 10000 4.12 20 22:56 17.03.2022
4767 Clear 7 1036 82 10000 3.6 20 22:22 17.03.2022
4768 Clear 7 1036 80 10000 4.63 20 21:47 17.03.2022
4769 Clear 7 1035 78 10000 4.12 20 21:19 17.03.2022
4770 Clear 8 1035 77 10000 5.14 20 20:32 17.03.2022
4771 Clear 8 1034 75 10000 4.63 20 19:41 17.03.2022
4772 Clear 8 1034 74 10000 4.12 20 18:57 17.03.2022
4773 Clear 9 1033 69 10000 6.69 20 17:55 17.03.2022
4774 Clouds 9 1033 69 10000 5.14 10 16:43 17.03.2022
4775 Clouds 9 1032 68 10000 5.14 10 15:44 17.03.2022
4776 Clouds 9 1032 68 10000 5.14 10 15:22 17.03.2022
4777 Clouds 9 1032 68 10000 5.14 20 13:49 17.03.2022
4778 Clouds 9 1032 72 10000 5.66 20 12:49 17.03.2022
4779 Clouds 9 1031 74 10000 5.66 20 12:21 17.03.2022
4780 Clouds 8 1031 76 10000 5.66 10 11:25 17.03.2022
4781 Clouds 8 1030 77 10000 5.14 360 09:48 17.03.2022
4782 Clouds 8 1028 78 10000 6.17 340 08:31 17.03.2022
4783 Clouds 8 1027 83 10000 5.14 350 07:32 17.03.2022
4784 Clouds 9 1025 82 10000 5.66 330 05:47 17.03.2022
4785 Clouds 11 1022 81 10000 5.14 310 00:45 17.03.2022
4786 Clouds 11 1021 82 10000 5.66 310 23:39 16.03.2022
4787 Clouds 12 1020 85 10000 4.63 260 22:44 16.03.2022
4788 Clouds 12 1020 86 10000 4.63 260 22:21 16.03.2022
4789 Clear 13 1019 85 10000 2.68 221 21:34 16.03.2022
4790 Clear 13 1018 82 10000 2.57 160 19:40 16.03.2022
4791 Clear 13 1018 81 10000 2.57 160 19:19 16.03.2022
4792 Clear 13 1018 81 10000 3.09 150 18:35 16.03.2022
4793 Clear 13 1018 77 10000 4.63 130 17:41 16.03.2022
4794 Clear 14 1018 75 10000 3.6 140 16:51 16.03.2022
4795 Clear 14 1018 73 10000 2.57 130 15:55 16.03.2022
4796 Clear 14 1018 78 10000 4.12 130 14:25 16.03.2022
4797 Clear 13 1019 82 10000 2.06 80 13:24 16.03.2022
4798 Clear 11 1020 91 10000 1.54 90 11:53 16.03.2022
4799 Mist 10 1020 91 10000 1.54 130 11:20 16.03.2022
4800 Mist 9 1020 92 10000 2.57 140 10:22 16.03.2022
4801 Mist 9 1020 96 10000 2.06 120 08:51 16.03.2022
4802 Clear 9 1020 93 10000 2.06 60 04:45 16.03.2022
4803 Clear 10 1021 94 10000 2.06 90 00:48 16.03.2022
4804 Clouds 11 1021 93 10000 3.09 70 22:38 15.03.2022
4805 Clouds 11 1021 92 10000 4.12 80 21:52 15.03.2022
4806 Clouds 11 1021 92 10000 3.09 70 20:18 15.03.2022
4807 Clouds 11 1021 91 10000 3.6 80 18:57 15.03.2022
4808 Clouds 12 1020 90 10000 3.09 150 16:57 15.03.2022
4809 Mist 11 1020 91 10000 3.6 120 16:28 15.03.2022
4810 Clouds 11 1021 93 10000 2.57 130 14:58 15.03.2022
4811 Clouds 11 1021 95 10000 2.57 100 14:39 15.03.2022
4812 Mist 10 1021 95 7000 2.57 40 13:38 15.03.2022
4813 Clouds 10 1022 94 9000 1.54 50 12:24 15.03.2022
4814 Rain 9 1022 98 6000 1.54 50 11:31 15.03.2022
4815 Mist 9 1022 95 5000 2.06 50 09:40 15.03.2022
4816 Rain 9 1022 95 3700 1.54 40 08:42 15.03.2022
4817 Rain 9 1022 94 4600 2.06 40 07:50 15.03.2022
4818 Rain 9 1022 94 6000 2.06 100 07:28 15.03.2022
4819 Clear 9 1023 77 10000 3.09 110 03:30 15.03.2022
4820 Clear 9 1026 75 10000 3.6 90 23:40 14.03.2022
4821 Clear 9 1026 74 10000 5.14 80 23:21 14.03.2022
4822 Clear 10 1026 71 10000 4.63 80 22:26 14.03.2022
4823 Clear 10 1026 68 10000 4.63 80 21:30 14.03.2022
4824 Clear 11 1026 64 10000 3.6 100 20:41 14.03.2022
4825 Clear 11 1026 63 10000 3.6 100 20:19 14.03.2022
4826 Clear 13 1026 54 10000 5.66 60 18:42 14.03.2022
4827 Clouds 14 1025 53 10000 5.14 60 17:54 14.03.2022
4828 Clouds 15 1026 50 10000 3.6 100 16:58 14.03.2022
4829 Clouds 15 1026 52 10000 3.09 110 15:43 14.03.2022
4830 Clear 15 1026 54 10000 3.09 120 14:40 14.03.2022
4831 Clear 12 1027 72 10000 2.57 150 12:22 14.03.2022
4832 Clear 9 1027 83 10000 2.57 150 10:51 14.03.2022
4833 Clear 7 1026 89 10000 3.09 160 09:44 14.03.2022
4834 Clear 6 1025 93 10000 2.57 180 09:21 14.03.2022
4835 Clear 5 1025 94 10000 2.57 180 08:55 14.03.2022
4836 Clear 5 1024 92 10000 2.57 150 07:32 14.03.2022
4837 Clear 5 1023 92 10000 2.57 150 05:45 14.03.2022
4838 Clouds 7 1019 89 10000 4.12 210 01:55 14.03.2022
4839 Clouds 7 1019 91 10000 5.14 200 01:24 14.03.2022
4840 Clouds 8 1016 91 10000 4.12 210 22:44 13.03.2022
4841 Clouds 8 1014 92 10000 4.12 200 21:31 13.03.2022
4842 Clouds 8 1014 93 10000 3.6 190 20:56 13.03.2022
4843 Clouds 8 1013 93 10000 3.6 190 20:30 13.03.2022
4844 Clouds 8 1013 92 10000 3.6 190 19:49 13.03.2022
4845 Rain 8 1012 92 10000 3.6 190 19:28 13.03.2022
4846 Clouds 8 1012 91 10000 4.63 200 18:59 13.03.2022
4847 Rain 8 1011 90 10000 5.14 210 18:35 13.03.2022
4848 Clouds 8 1011 89 10000 4.63 200 17:41 13.03.2022
4849 Rain 9 1010 88 10000 4.63 180 17:19 13.03.2022
4850 Rain 10 1010 83 10000 5.66 170 16:30 13.03.2022
4851 Drizzle 10 1009 81 10000 5.66 160 15:47 13.03.2022
4852 Rain 10 1009 80 10000 5.66 150 14:56 13.03.2022
4853 Clouds 11 1009 70 10000 5.14 160 13:45 13.03.2022
4854 Rain 11 1010 65 10000 7.2 170 12:55 13.03.2022
4855 Clouds 11 1010 66 10000 6.17 170 11:53 13.03.2022
4856 Clouds 11 1010 67 10000 7.72 170 11:32 13.03.2022
4857 Clouds 11 1010 64 10000 6.69 160 10:47 13.03.2022
4858 Clear 11 1010 66 10000 6.17 160 10:24 13.03.2022
4859 Clear 10 1010 71 10000 6.69 150 09:41 13.03.2022
4860 Clear 9 1010 74 10000 5.66 150 08:46 13.03.2022
4861 Clear 8 1010 79 10000 4.12 150 07:42 13.03.2022
4862 Clear 8 1009 81 10000 6.17 150 05:42 13.03.2022
4863 Clouds 9 1011 81 10000 7.2 150 02:43 13.03.2022
4864 Clouds 9 1011 85 10000 8.23 150 23:59 12.03.2022
4865 Clouds 8 1012 86 10000 5.66 140 22:31 12.03.2022
4866 Rain 9 1012 81 10000 5.66 140 20:54 12.03.2022
4867 Clouds 9 1013 80 10000 6.17 150 19:50 12.03.2022
4868 Clouds 9 1013 80 10000 7.2 140 19:32 12.03.2022
4869 Clouds 9 1013 80 10000 6.17 150 18:27 12.03.2022
4870 Clouds 10 1013 79 10000 7.72 150 17:34 12.03.2022
4871 Clouds 10 1013 82 10000 7.2 150 16:24 12.03.2022
4872 Clouds 10 1014 82 10000 6.69 140 15:24 12.03.2022
4873 Clouds 10 1014 84 10000 5.14 140 14:50 12.03.2022
4874 Clouds 10 1015 83 10000 4.63 160 13:32 12.03.2022
4875 Clouds 10 1016 86 10000 3.6 170 11:56 12.03.2022
4876 Clear 9 1016 88 10000 4.12 170 11:38 12.03.2022
4877 Clouds 8 1016 90 10000 4.12 160 10:58 12.03.2022
4878 Clouds 8 1016 91 10000 4.63 160 09:46 12.03.2022
4879 Clouds 7 1015 93 10000 4.12 160 08:56 12.03.2022
4880 Clouds 7 1014 92 10000 3.09 150 07:27 12.03.2022
4881 Clouds 8 1013 90 10000 4.12 180 03:36 12.03.2022
4882 Clouds 9 1012 89 10000 5.14 170 23:56 11.03.2022
4883 Clouds 9 1012 89 10000 5.14 170 23:56 11.03.2022
4884 Clouds 9 1012 89 10000 5.14 170 23:56 11.03.2022
4885 Clouds 9 1012 89 10000 5.14 170 23:56 11.03.2022
4886 Clouds 9 1011 88 10000 5.14 160 23:18 11.03.2022
4887 Clear 10 1011 86 10000 5.66 170 21:41 11.03.2022
4888 Clear 10 1010 87 10000 5.66 150 20:56 11.03.2022
4889 Clear 10 1010 88 10000 5.14 170 20:35 11.03.2022
4890 Clear 10 1010 88 10000 5.14 150 19:52 11.03.2022
4891 Clouds 10 1009 89 10000 5.66 150 19:22 11.03.2022
4892 Clouds 10 1009 86 10000 6.69 190 17:34 11.03.2022
4893 Rain 11 1009 81 10000 8.75 210 16:38 11.03.2022
4894 Rain 13 1008 75 10000 5.66 140 15:55 11.03.2022
4895 Rain 12 1008 77 10000 7.72 150 14:20 11.03.2022
4896 Clouds 12 1009 73 10000 6.17 160 12:52 11.03.2022
4897 Rain 12 1008 71 10000 7.2 130 12:21 11.03.2022
4898 Clouds 12 1008 69 10000 7.2 140 11:53 11.03.2022
4899 Clear 10 1009 72 10000 5.66 140 09:59 11.03.2022
4900 Clouds 8 1009 81 10000 5.14 130 08:57 11.03.2022
4901 Clear 8 1010 82 10000 4.63 130 08:24 11.03.2022
4902 Clear 8 1010 82 10000 4.12 120 07:45 11.03.2022
4903 Clear 8 1011 79 10000 3.6 140 05:44 11.03.2022
4904 Clear 9 1012 75 10000 3.6 140 03:48 11.03.2022
4905 Clear 10 1014 68 10000 2.57 150 23:38 10.03.2022
4906 Clear 11 1015 65 10000 2.57 110 22:30 10.03.2022
4907 Clear 11 1015 64 10000 3.09 110 21:47 10.03.2022
4908 Clear 11 1015 64 10000 3.09 110 21:19 10.03.2022
4909 Clear 13 1016 56 10000 3.6 120 19:45 10.03.2022
4910 Clear 14 1016 51 10000 5.14 140 18:53 10.03.2022
4911 Clear 16 1016 45 10000 5.14 130 17:28 10.03.2022
4912 Clear 17 1017 44 10000 5.14 120 15:55 10.03.2022
4913 Clouds 17 1018 50 10000 4.63 160 14:48 10.03.2022
4914 Clear 15 1019 55 10000 4.63 140 13:21 10.03.2022
4915 Clear 14 1020 60 10000 4.12 140 11:58 10.03.2022
4916 Clear 12 1021 65 10000 4.12 140 10:54 10.03.2022
4917 Clear 7 1021 75 10000 4.12 140 09:21 10.03.2022
4918 Clear 5 1020 77 10000 3.09 50 07:38 10.03.2022
4919 Clear 6 1020 71 10000 2.57 140 04:36 10.03.2022
4920 Clear 8 1020 67 10000 2.57 40 01:46 10.03.2022
4921 Clear 9 1020 68 10000 2.57 90 23:26 09.03.2022
4922 Clear 10 1020 65 10000 3.6 110 21:51 09.03.2022
4923 Clear 11 1020 64 10000 4.63 110 21:31 09.03.2022
4924 Clear 12 1020 62 10000 2.57 110 19:50 09.03.2022
4925 Clear 14 1019 54 10000 4.12 140 18:34 09.03.2022
4926 Clear 15 1019 53 10000 5.14 130 17:27 09.03.2022
4927 Clouds 15 1019 54 10000 5.66 120 16:31 09.03.2022
4928 Clouds 15 1019 54 10000 5.14 170 15:28 09.03.2022
4929 Clouds 14 1020 61 10000 4.63 170 13:54 09.03.2022
4930 Clouds 12 1021 71 10000 4.12 200 12:47 09.03.2022
4931 Clouds 11 1021 76 10000 4.12 170 11:54 09.03.2022
4932 Clouds 10 1021 81 10000 4.63 200 11:35 09.03.2022
4933 Clouds 7 1021 88 10000 3.09 180 10:26 09.03.2022
4934 Clouds 5 1021 86 9000 2.57 170 08:54 09.03.2022
4935 Clouds 3 1020 84 9000 4.12 140 07:54 09.03.2022
4936 Clear 5 1019 65 8000 2.06 230 02:57 09.03.2022
4937 Clear 6 1019 58 9000 2.57 130 00:43 09.03.2022
4938 Clear 7 1018 60 8000 3.09 110 22:47 08.03.2022
4939 Clear 7 1018 60 8000 3.09 110 22:26 08.03.2022
4940 Clear 8 1017 57 10000 3.09 90 21:23 08.03.2022
4941 Clear 8 1017 58 10000 3.09 90 20:42 08.03.2022
4942 Clear 10 1017 53 10000 3.09 100 19:42 08.03.2022
4943 Clear 12 1016 47 10000 4.12 130 18:44 08.03.2022
4944 Clear 13 1016 44 10000 5.66 110 17:32 08.03.2022
4945 Clear 13 1016 41 10000 4.63 110 15:56 08.03.2022
4946 Clear 12 1016 44 10000 4.63 90 14:19 08.03.2022
4947 Clear 9 1016 51 10000 4.12 120 12:43 08.03.2022
4948 Clear 7 1016 55 9000 3.6 140 11:45 08.03.2022
4949 Clear 4 1016 60 10000 3.6 100 10:48 08.03.2022
4950 Clear 3 1017 65 10000 3.6 120 09:51 08.03.2022
4951 Clear -1 1016 72 10000 4.12 100 06:59 08.03.2022
4952 Clear 0 1016 71 10000 4.12 100 05:43 08.03.2022
4953 Clear 2 1018 61 10000 4.63 100 23:51 07.03.2022
4954 Clear 3 1018 56 10000 5.14 90 21:57 07.03.2022
4955 Clear 3 1018 56 10000 5.66 80 21:32 07.03.2022
4956 Clear 4 1018 56 10000 6.17 80 20:46 07.03.2022
4957 Clear 4 1019 54 10000 5.66 80 19:55 07.03.2022
4958 Clear 5 1019 52 10000 5.14 90 19:31 07.03.2022
4959 Clear 6 1018 49 10000 6.69 90 18:42 07.03.2022
4960 Clear 6 1018 47 10000 7.2 90 17:48 07.03.2022
4961 Clear 7 1019 46 10000 6.69 90 16:55 07.03.2022
4962 Clear 7 1019 47 10000 7.2 80 15:50 07.03.2022
4963 Clear 6 1020 47 10000 7.72 70 13:51 07.03.2022
4964 Clear 5 1021 51 10000 8.23 70 12:27 07.03.2022
4965 Clear 3 1022 62 10000 6.69 70 10:38 07.03.2022
4966 Clear 0 1022 73 10000 5.66 70 08:57 07.03.2022
4967 Clear 1 1022 72 10000 4.63 40 04:43 07.03.2022
4968 Clear 3 1023 63 10000 6.17 40 00:22 07.03.2022
4969 Clear 3 1023 63 10000 6.69 40 23:35 06.03.2022
4970 Clear 4 1023 62 10000 6.17 40 22:52 06.03.2022
4971 Clear 4 1023 59 10000 6.17 40 21:58 06.03.2022
4972 Clear 5 1023 59 10000 5.66 30 20:50 06.03.2022
4973 Clear 5 1022 56 10000 5.14 30 20:23 06.03.2022
4974 Clear 6 1022 50 10000 5.66 40 19:21 06.03.2022
4975 Clear 7 1022 47 10000 6.69 40 18:25 06.03.2022
4976 Clear 8 1022 43 10000 6.17 40 17:21 06.03.2022
4977 Clear 8 1022 42 10000 7.2 50 16:42 06.03.2022
4978 Clear 9 1022 41 10000 7.2 30 15:52 06.03.2022
4979 Clear 8 1022 43 10000 8.23 50 14:49 06.03.2022
4980 Clear 8 1022 44 10000 8.23 50 14:31 06.03.2022
4981 Clear 8 1023 45 10000 8.75 50 13:29 06.03.2022
4982 Clear 7 1023 49 10000 6.69 50 12:35 06.03.2022
4983 Clear 6 1023 64 10000 4.63 40 11:18 06.03.2022
4984 Mist 3 1023 79 6000 4.12 40 10:27 06.03.2022
4985 Mist 1 1022 91 3200 3.6 10 08:30 06.03.2022
4986 Mist 1 1022 92 3200 3.6 10 08:30 06.03.2022
4987 Mist 1 1021 90 4800 3.6 10 07:35 06.03.2022
4988 Mist 2 1020 89 5000 3.6 10 05:40 06.03.2022
4989 Mist 6 1020 92 3800 3.09 340 00:53 06.03.2022
4990 Mist 6 1020 91 3800 3.09 340 00:31 06.03.2022
4991 Mist 6 1020 89 4300 2.57 350 23:23 05.03.2022
4992 Mist 6 1020 86 4600 3.6 10 22:53 05.03.2022
4993 Mist 7 1020 83 5000 3.6 20 22:23 05.03.2022
4994 Mist 7 1020 81 5000 2.06 350 21:23 05.03.2022
4995 Clear 8 1019 73 7000 3.6 330 19:49 05.03.2022
4996 Mist 9 1019 68 9000 3.6 340 18:56 05.03.2022
4997 Clear 10 1018 65 10000 4.12 340 18:27 05.03.2022
4998 Clear 11 1018 61 10000 4.63 330 16:49 05.03.2022
4999 Clouds 12 1019 57 10000 3.6 350 15:40 05.03.2022
5000 Clouds 12 1019 57 10000 3.13 42 14:52 05.03.2022
5001 Clear 12 1019 56 10000 3.09 350 14:33 05.03.2022
5002 Clouds 12 1019 60 10000 0.89 45 13:22 05.03.2022
5003 Clear 10 1019 77 10000 2.06 60 11:48 05.03.2022
5004 Clear 9 1019 81 10000 1.54 0 11:19 05.03.2022
5005 Clouds 8 1019 87 9000 1.54 40 10:20 05.03.2022
5006 Mist 7 1019 91 4200 2.06 70 09:26 05.03.2022
5007 Mist 6 1019 93 4800 1.54 350 07:51 05.03.2022
5008 Mist 7 1018 93 6000 2.06 50 05:43 05.03.2022
5009 Mist 7 1018 90 7000 2.57 310 03:49 05.03.2022
5010 Clouds 8 1019 87 7000 3.6 340 23:38 04.03.2022
5011 Clouds 8 1019 87 9000 3.09 330 22:44 04.03.2022
5012 Clouds 8 1019 87 10000 4.12 310 22:23 04.03.2022
5013 Clouds 9 1019 87 10000 4.63 310 20:57 04.03.2022
5014 Clouds 9 1019 86 10000 4.63 300 20:27 04.03.2022
5015 Clouds 9 1018 85 10000 4.63 300 19:36 04.03.2022
5016 Clouds 10 1018 84 10000 1.79 293 18:45 04.03.2022
5017 Clouds 10 1018 83 10000 4.63 300 18:20 04.03.2022
5018 Clouds 11 1018 80 9000 4.63 300 17:28 04.03.2022
5019 Clear 12 1018 74 10000 3.09 350 15:31 04.03.2022
5020 Clouds 12 1018 75 8000 2.57 10 14:36 04.03.2022
5021 Clouds 12 1018 77 8000 1.54 0 13:27 04.03.2022
5022 Clouds 11 1018 82 7000 1.03 0 11:56 04.03.2022
5023 Clouds 9 1018 87 8000 1.54 0 10:57 04.03.2022
5024 Mist 9 1018 89 7000 1.54 70 10:18 04.03.2022
5025 Mist 8 1018 92 5000 1.54 30 08:40 04.03.2022
5026 Clouds 8 1017 91 6000 2.06 90 07:41 04.03.2022
5027 Mist 7 1016 96 3200 1.03 320 04:59 04.03.2022
5028 Clouds 8 1016 87 6000 1.54 320 00:41 04.03.2022
5029 Clouds 9 1016 86 9000 1.54 300 22:54 03.03.2022
5030 Clouds 9 1016 83 10000 2.06 60 21:58 03.03.2022
5031 Clouds 10 1016 80 10000 3.09 20 21:34 03.03.2022
5032 Clouds 10 1016 77 10000 1.54 10 20:27 03.03.2022
5033 Clouds 11 1015 75 10000 1.03 0 18:58 03.03.2022
5034 Clouds 11 1015 74 10000 1.54 70 18:25 03.03.2022
5035 Clouds 12 1015 71 10000 2.57 240 17:31 03.03.2022
5036 Clouds 11 1015 77 10000 3.09 240 16:28 03.03.2022
5037 Clouds 12 1015 77 10000 3.6 220 15:43 03.03.2022
5038 Clouds 12 1015 77 10000 3.09 220 14:44 03.03.2022
5039 Clouds 12 1015 77 10000 3.09 200 14:25 03.03.2022
5040 Clouds 11 1016 83 10000 3.09 160 12:32 03.03.2022
5041 Clouds 10 1016 86 10000 2.06 160 10:58 03.03.2022
5042 Clouds 9 1016 88 9000 2.57 150 09:58 03.03.2022
5043 Clouds 8 1016 89 7000 1.54 110 08:42 03.03.2022
5044 Clouds 8 1016 88 7000 2.06 70 06:55 03.03.2022
5045 Clouds 8 1016 87 6000 2.06 60 05:22 03.03.2022
5046 Clear 7 1018 75 8000 1.54 70 23:48 02.03.2022
5047 Clear 8 1018 74 10000 1.54 70 22:54 02.03.2022
5048 Clear 8 1018 72 10000 1.54 80 22:33 02.03.2022
5049 Clear 9 1018 69 10000 1.54 80 21:22 02.03.2022
5050 Clear 9 1018 68 10000 1.54 100 20:25 02.03.2022
5051 Clear 10 1018 63 10000 2.57 90 19:38 02.03.2022
5052 Clear 10 1018 62 10000 2.57 90 19:18 02.03.2022
5053 Clear 11 1018 57 10000 2.57 90 18:35 02.03.2022
5054 Clear 12 1018 57 10000 3.09 70 17:42 02.03.2022
5055 Clear 12 1018 54 10000 3.6 40 16:53 02.03.2022
5056 Clouds 13 1018 52 10000 3.09 60 15:59 02.03.2022
5057 Clear 12 1019 53 10000 3.6 50 14:32 02.03.2022
5058 Clear 10 1019 54 10000 2.57 40 12:58 02.03.2022
5059 Clear 10 1020 58 10000 1.54 0 12:35 02.03.2022
5060 Clear 8 1020 63 10000 2.57 70 11:28 02.03.2022
5061 Clear 8 1020 63 10000 3.09 110 10:50 02.03.2022
5062 Clear 6 1020 67 10000 2.57 80 09:40 02.03.2022
5063 Clear 6 1021 70 10000 3.09 80 08:44 02.03.2022
5064 Clear 6 1021 72 10000 2.57 80 07:24 02.03.2022
5065 Clear 6 1021 73 10000 2.06 70 05:42 02.03.2022
5066 Clear 7 1023 70 10000 2.06 90 00:51 02.03.2022
5067 Clear 8 1024 68 10000 2.06 100 23:40 01.03.2022
5068 Clear 8 1024 64 10000 3.09 100 22:42 01.03.2022
5069 Clear 9 1024 62 10000 3.6 110 21:55 01.03.2022
5070 Clear 10 1024 60 10000 3.6 130 20:56 01.03.2022
5071 Clear 10 1024 58 10000 3.09 130 20:24 01.03.2022
5072 Clear 10 1024 54 10000 3.09 120 19:21 01.03.2022
5073 Clear 11 1024 49 10000 3.09 90 18:26 01.03.2022
5074 Clear 12 1024 44 10000 4.63 70 17:55 01.03.2022
5075 Clear 13 1025 45 10000 2.06 170 16:50 01.03.2022
5076 Clouds 13 1025 47 10000 2.06 140 15:51 01.03.2022
5077 Clear 12 1025 46 10000 2.57 140 14:55 01.03.2022
5078 Clear 12 1026 47 10000 2.57 140 14:34 01.03.2022
5079 Clear 11 1026 49 10000 3.09 150 13:27 01.03.2022
5080 Clear 10 1027 50 10000 3.09 160 12:58 01.03.2022
5081 Clouds 9 1026 57 10000 2.06 170 12:22 01.03.2022
5082 Clear 6 1027 69 10000 2.06 100 10:27 01.03.2022
5083 Clear 4 1026 76 10000 1.54 50 08:41 01.03.2022
5084 Clear 4 1026 76 10000 2.57 50 07:40 01.03.2022
5085 Clear 3 1026 78 10000 2.57 70 04:50 01.03.2022
5086 Clear 4 1027 68 10000 1.54 50 01:43 01.03.2022
5087 Clear 5 1027 64 10000 2.06 60 23:48 28.02.2022
5088 Clear 5 1027 65 10000 3.09 80 23:19 28.02.2022
5089 Clear 6 1027 60 10000 1.54 0 21:59 28.02.2022
5090 Clear 6 1027 58 10000 2.06 120 21:24 28.02.2022
5091 Clear 7 1027 52 10000 3.09 110 19:53 28.02.2022
5092 Clear 8 1027 49 10000 2.06 130 19:27 28.02.2022
5093 Clear 10 1026 41 10000 2.57 150 18:38 28.02.2022
5094 Clear 12 1027 35 10000 1.54 160 17:24 28.02.2022
5095 Clear 12 1027 34 10000 2.06 180 16:33 28.02.2022
5096 Clear 12 1027 35 10000 2.57 160 15:23 28.02.2022
5097 Clear 11 1027 39 10000 2.06 130 14:31 28.02.2022
5098 Clear 11 1028 41 10000 2.57 170 13:47 28.02.2022
5099 Clear 9 1028 49 10000 2.57 160 12:41 28.02.2022
5100 Clear 8 1028 55 10000 2.57 140 11:55 28.02.2022
5101 Clear 6 1028 62 10000 3.09 140 10:48 28.02.2022
5102 Clear 4 1028 69 10000 3.6 130 10:20 28.02.2022
5103 Clear 2 1028 72 10000 2.57 120 09:32 28.02.2022
5104 Clear -1 1028 82 10000 1.54 360 08:29 28.02.2022
5105 Clear -1 1027 79 10000 1.54 10 07:28 28.02.2022
5106 Clear 1 1027 72 10000 2.57 110 04:55 28.02.2022
5107 Clear 1 1027 73 10000 2.57 60 04:26 28.02.2022
5108 Clear 3 1027 66 10000 3.09 80 23:44 27.02.2022
5109 Clear 4 1026 65 10000 2.06 40 22:35 27.02.2022
5110 Clear 5 1026 63 10000 2.57 110 21:52 27.02.2022
5111 Clear 5 1026 63 10000 2.57 110 21:21 27.02.2022
5112 Clear 6 1026 62 10000 2.57 50 20:37 27.02.2022
5113 Clear 7 1026 58 10000 3.09 80 19:58 27.02.2022
5114 Clear 7 1026 56 10000 4.63 100 19:27 27.02.2022
5115 Clear 9 1025 53 10000 1.34 113 18:48 27.02.2022
5116 Clear 10 1025 49 10000 5.66 110 17:57 27.02.2022
5117 Clear 10 1025 50 10000 5.14 110 17:20 27.02.2022
5118 Clear 10 1025 48 10000 5.14 130 16:22 27.02.2022
5119 Clear 8 1025 51 10000 5.66 100 13:40 27.02.2022
5120 Clear 7 1026 54 10000 5.66 120 12:33 27.02.2022
5121 Clear 6 1026 57 10000 5.66 110 11:27 27.02.2022
5122 Clear 4 1026 63 10000 6.17 100 10:20 27.02.2022
5123 Clear 2 1026 71 10000 4.12 110 09:51 27.02.2022
5124 Clear 2 1026 73 10000 4.12 110 09:20 27.02.2022
5125 Clear 0 1026 79 10000 4.12 100 08:31 27.02.2022
5126 Clear 1 1026 78 10000 4.63 110 05:39 27.02.2022
5127 Clear 3 1026 74 10000 4.12 110 02:45 27.02.2022
5128 Clear 4 1027 70 10000 5.14 100 23:34 26.02.2022
5129 Clear 4 1027 70 10000 5.14 90 22:34 26.02.2022
5130 Clear 5 1027 68 10000 5.66 90 21:19 26.02.2022
5131 Clear 6 1028 65 10000 4.63 90 20:37 26.02.2022
5132 Clear 6 1028 63 10000 5.14 90 19:52 26.02.2022
5133 Clear 7 1028 61 10000 5.14 100 19:33 26.02.2022
5134 Clear 9 1028 50 10000 5.66 80 17:58 26.02.2022
5135 Clear 9 1028 50 10000 7.2 90 17:31 26.02.2022
5136 Clear 10 1029 48 10000 7.2 100 16:36 26.02.2022
5137 Clear 10 1030 49 10000 7.2 100 15:27 26.02.2022
5138 Clear 10 1030 51 10000 7.72 100 14:59 26.02.2022
5139 Clear 10 1031 51 10000 7.2 90 14:41 26.02.2022
5140 Clear 9 1032 54 10000 5.66 100 13:46 26.02.2022
5141 Clear 8 1032 60 10000 4.63 110 12:53 26.02.2022
5142 Clear 7 1033 64 10000 5.14 120 11:45 26.02.2022
5143 Clear 6 1033 75 10000 3.6 110 11:24 26.02.2022
5144 Clear 3 1033 86 10000 3.6 110 09:31 26.02.2022
5145 Clear 1 1033 90 10000 3.09 100 08:26 26.02.2022
5146 Clear 1 1033 90 10000 2.57 30 04:23 26.02.2022
5147 Clear 4 1033 79 10000 1.54 50 23:50 25.02.2022
5148 Clear 5 1032 74 10000 2.06 320 22:31 25.02.2022
5149 Clear 5 1031 72 10000 2.57 320 21:31 25.02.2022
5150 Clear 6 1031 69 10000 2.06 340 20:51 25.02.2022
5151 Clear 6 1031 66 10000 2.57 330 20:25 25.02.2022
5152 Clear 10 1029 51 10000 6.17 310 17:57 25.02.2022
5153 Clear 11 1029 53 10000 6.17 270 16:55 25.02.2022
5154 Clouds 10 1028 57 10000 6.17 290 15:56 25.02.2022
5155 Clouds 10 1028 56 10000 5.66 310 15:23 25.02.2022
5156 Clouds 10 1028 61 10000 5.66 270 14:56 25.02.2022
5157 Clouds 10 1028 64 10000 6.17 290 14:27 25.02.2022
5158 Clouds 10 1028 61 10000 6.69 280 13:30 25.02.2022
5159 Clouds 9 1028 69 10000 6.17 290 12:33 25.02.2022
5160 Clear 7 1028 74 10000 6.17 300 11:22 25.02.2022
5161 Clouds 6 1027 81 10000 5.14 270 10:24 25.02.2022
5162 Clouds 4 1027 85 10000 3.6 240 09:51 25.02.2022
5163 Clear 2 1026 91 10000 3.09 240 08:42 25.02.2022
5164 Clouds 1 1026 88 10000 3.6 240 07:35 25.02.2022
5165 Clear 2 1024 87 10000 4.63 250 05:43 25.02.2022
5166 Clear 3 1024 80 10000 4.12 240 02:49 25.02.2022
5167 Clear 4 1022 73 10000 5.14 280 22:55 24.02.2022
5168 Clear 5 1021 68 10000 5.66 270 21:51 24.02.2022
5169 Clouds 5 1021 69 10000 5.14 270 21:31 24.02.2022
5170 Clouds 5 1020 69 10000 6.69 270 20:53 24.02.2022
5171 Clouds 6 1019 64 10000 2.68 270 19:38 24.02.2022
5172 Clear 7 1017 68 10000 7.72 280 18:37 24.02.2022
5173 Clouds 8 1017 70 10000 11.83 280 18:18 24.02.2022
5174 Clouds 8 1016 74 10000 6.69 280 17:33 24.02.2022
5175 Clouds 8 1016 74 10000 6.69 280 17:33 24.02.2022
5176 Clouds 7 1016 84 10000 6.69 280 16:29 24.02.2022
5177 Rain 7 1016 85 10000 9.77 290 15:47 24.02.2022
5178 Rain 9 1015 79 5000 10.8 260 14:53 24.02.2022
5179 Clouds 12 1013 67 10000 8.75 220 14:24 24.02.2022
5180 Clouds 11 1014 69 10000 10.29 230 13:39 24.02.2022
5181 Clouds 11 1014 68 10000 9.26 230 12:49 24.02.2022
5182 Clouds 9 1015 74 10000 7.2 220 10:40 24.02.2022
5183 Clear 7 1015 80 10000 4.63 230 08:58 24.02.2022
5184 Clear 7 1015 81 10000 4.12 230 08:39 24.02.2022
5185 Clouds 8 1016 86 10000 2.57 210 05:52 24.02.2022
5186 Clear 9 1019 82 10000 2.57 230 01:56 24.02.2022
5187 Clear 9 1019 83 10000 2.57 230 01:56 24.02.2022
5188 Clouds 10 1021 74 10000 2.06 240 22:56 23.02.2022
5189 Clouds 10 1021 70 10000 3.09 180 21:40 23.02.2022
5190 Clouds 10 1021 69 10000 3.6 170 20:31 23.02.2022
5191 Clouds 10 1022 67 10000 2.57 200 19:47 23.02.2022
5192 Clouds 11 1022 65 10000 3.09 190 18:32 23.02.2022
5193 Clouds 11 1022 64 10000 3.09 210 17:44 23.02.2022
5194 Clouds 11 1025 63 10000 4.63 230 14:44 23.02.2022
5195 Clouds 10 1027 75 8000 3.09 170 12:45 23.02.2022
5196 Mist 9 1027 89 4700 2.06 210 11:59 23.02.2022
5197 Fog 6 1028 97 700 2.06 240 10:31 23.02.2022
5198 Fog 4 1027 98 900 1.54 260 08:59 23.02.2022
5199 Fog 4 1027 98 900 1.54 260 08:59 23.02.2022
5200 Fog 4 1027 98 900 1.54 260 08:59 23.02.2022
5201 Fog 3 1027 98 550 1.54 250 08:23 23.02.2022
5202 Mist 5 1027 95 3800 2.57 310 05:49 23.02.2022
5203 Clouds 9 1026 90 10000 3.6 260 00:47 23.02.2022
5204 Clouds 10 1025 90 10000 4.12 280 23:39 22.02.2022
5205 Clouds 10 1025 91 10000 4.12 260 22:41 22.02.2022
5206 Drizzle 10 1024 90 10000 4.12 270 21:49 22.02.2022
5207 Drizzle 10 1024 90 10000 4.12 270 21:31 22.02.2022
5208 Drizzle 11 1024 87 8000 5.66 270 20:59 22.02.2022
5209 Drizzle 11 1023 85 10000 6.69 260 20:30 22.02.2022
5210 Clouds 11 1023 83 10000 7.2 240 19:47 22.02.2022
5211 Clouds 12 1023 82 10000 7.2 240 19:28 22.02.2022
5212 Clouds 12 1022 81 10000 6.17 230 18:23 22.02.2022
5213 Clouds 12 1022 81 10000 6.17 240 17:26 22.02.2022
5214 Clouds 12 1022 82 10000 6.17 240 16:41 22.02.2022
5215 Clouds 12 1022 82 10000 6.17 240 16:41 22.02.2022
5216 Clouds 12 1022 84 10000 7.2 240 15:59 22.02.2022
5217 Clouds 11 1023 84 10000 6.17 240 14:48 22.02.2022
5218 Drizzle 9 1024 88 10000 5.66 230 12:48 22.02.2022
5219 Clouds 8 1024 90 10000 6.17 230 10:53 22.02.2022
5220 Clouds 6 1024 89 10000 4.12 220 08:53 22.02.2022
5221 Clear 5 1024 89 10000 3.6 230 07:27 22.02.2022
5222 Clear 5 1025 89 10000 4.12 240 06:30 22.02.2022
5223 Clouds 6 1024 88 10000 5.14 270 02:47 22.02.2022
5224 Clouds 9 1022 77 10000 7.2 290 23:18 21.02.2022
5225 Clouds 9 1021 75 7000 9.26 290 21:56 21.02.2022
5226 Clouds 10 1019 72 10000 9.77 290 20:38 21.02.2022
5227 Clouds 10 1017 68 10000 9.77 290 18:47 21.02.2022
5228 Clouds 10 1016 67 10000 10.29 290 17:41 21.02.2022
5229 Clouds 10 1016 67 10000 10.29 290 17:41 21.02.2022
5230 Clouds 10 1014 63 10000 10.8 280 15:26 21.02.2022
5231 Clouds 9 1013 70 10000 10.8 280 14:22 21.02.2022
5232 Clouds 10 1013 66 10000 12.35 280 13:30 21.02.2022
5233 Clouds 10 1013 63 10000 12.35 270 12:24 21.02.2022
5234 Clouds 8 1013 69 10000 10.8 270 11:31 21.02.2022
5235 Clouds 7 1012 76 10000 8.75 250 10:23 21.02.2022
5236 Clouds 6 1011 74 10000 8.23 260 05:35 21.02.2022
5237 Rain 11 1008 89 5000 10.29 240 00:30 21.02.2022
5238 Clouds 12 1008 79 10000 11.32 230 22:30 20.02.2022
5239 Clouds 12 1009 77 10000 9.77 240 21:43 20.02.2022
5240 Clouds 12 1009 77 10000 9.77 240 21:19 20.02.2022
5241 Clouds 12 1010 77 10000 9.77 230 20:42 20.02.2022
5242 Clouds 12 1011 75 10000 9.26 230 19:42 20.02.2022
5243 Clouds 12 1011 75 10000 8.23 230 18:54 20.02.2022
5244 Clouds 12 1012 75 10000 3.13 225 18:34 20.02.2022
5245 Clouds 12 1012 74 10000 9.26 210 17:53 20.02.2022
5246 Clouds 13 1014 71 10000 9.26 230 16:18 20.02.2022
5247 Clouds 13 1015 72 10000 8.75 240 14:53 20.02.2022
5248 Clouds 13 1016 72 10000 8.75 240 13:53 20.02.2022
5249 Clouds 12 1017 75 10000 9.26 230 12:35 20.02.2022
5250 Clouds 11 1017 84 10000 6.17 230 10:47 20.02.2022
5251 Clouds 11 1018 84 10000 8.23 220 10:20 20.02.2022
5252 Clouds 9 1018 88 10000 7.2 230 08:58 20.02.2022
5253 Clouds 9 1018 84 10000 2.24 225 01:19 20.02.2022
5254 Clouds 9 1018 81 10000 7.72 240 00:30 20.02.2022
5255 Clouds 9 1017 78 10000 8.23 240 23:19 19.02.2022
5256 Clouds 9 1017 72 10000 9.26 250 22:23 19.02.2022
5257 Clouds 9 1016 68 10000 9.26 240 21:45 19.02.2022
5258 Clouds 9 1016 65 10000 7.72 220 20:23 19.02.2022
5259 Clouds 9 1016 66 10000 8.23 230 19:34 19.02.2022
5260 Clouds 9 1016 65 10000 8.75 210 18:38 19.02.2022
5261 Rain 10 1017 58 10000 8.75 210 17:37 19.02.2022
5262 Clouds 10 1017 55 10000 7.72 210 16:44 19.02.2022
5263 Clear 10 1018 55 10000 8.75 230 15:20 19.02.2022
5264 Clear 10 1018 53 10000 8.75 220 14:52 19.02.2022
5265 Clear 10 1019 54 10000 7.2 230 13:50 19.02.2022
5266 Clear 7 1020 71 10000 6.69 240 11:40 19.02.2022
5267 Clear 5 1020 77 10000 6.69 240 10:30 19.02.2022
5268 Clear 2 1019 85 10000 4.63 240 08:31 19.02.2022
5269 Clear 3 1019 84 10000 4.12 240 06:45 19.02.2022
5270 Clear 7 1015 68 10000 8.75 250 23:55 18.02.2022
5271 Clear 7 1014 66 10000 8.75 250 22:24 18.02.2022
5272 Clouds 8 1012 62 10000 7.72 260 20:57 18.02.2022
5273 Clouds 9 1011 60 10000 8.75 260 19:56 18.02.2022
5274 Clear 9 1010 59 10000 8.75 250 18:51 18.02.2022
5275 Clear 10 1010 57 10000 10.8 270 18:25 18.02.2022
5276 Clear 10 1008 58 10000 10.29 270 17:56 18.02.2022
5277 Clouds 11 1005 69 10000 11.83 240 15:35 18.02.2022
5278 Clouds 11 1004 87 10000 12.86 260 13:56 18.02.2022
5279 Rain 11 1004 91 7000 11.32 220 13:28 18.02.2022
5280 Clouds 12 1003 90 10000 9.26 200 12:42 18.02.2022
5281 Drizzle 12 1004 91 10000 9.77 190 11:55 18.02.2022
5282 Clouds 12 1005 85 10000 10.29 210 10:42 18.02.2022
5283 Clouds 12 1007 89 10000 8.23 200 06:58 18.02.2022
5284 Clouds 12 1008 90 10000 7.2 200 05:42 18.02.2022
5285 Clouds 10 1015 75 10000 2.57 210 23:53 17.02.2022
5286 Clouds 11 1016 70 10000 3.09 240 21:50 17.02.2022
5287 Clouds 11 1016 68 10000 2.57 230 21:27 17.02.2022
5288 Clear 11 1016 65 10000 5.14 220 20:40 17.02.2022
5289 Clouds 11 1017 64 10000 3.09 250 19:54 17.02.2022
5290 Clear 12 1016 58 10000 4.63 240 18:57 17.02.2022
5291 Clear 13 1016 53 10000 6.69 250 17:59 17.02.2022
5292 Clear 14 1016 51 10000 8.75 250 16:43 17.02.2022
5293 Clear 14 1016 52 10000 7.72 260 15:44 17.02.2022
5294 Clouds 13 1016 60 10000 8.23 260 14:29 17.02.2022
5295 Clouds 12 1016 63 10000 9.77 270 12:51 17.02.2022
5296 Clouds 12 1016 68 10000 9.26 260 11:30 17.02.2022
5297 Clouds 11 1014 71 10000 8.75 250 09:38 17.02.2022
5298 Clouds 12 1012 71 10000 8.75 280 06:37 17.02.2022
5299 Clouds 13 1007 88 10000 9.77 230 23:23 16.02.2022
5300 Clouds 14 1007 87 10000 10.29 240 22:27 16.02.2022
5301 Clouds 13 1007 89 10000 8.75 230 20:21 16.02.2022
5302 Drizzle 14 1006 92 10000 3.13 225 18:56 16.02.2022
5303 Clouds 14 1006 92 10000 6.69 230 17:56 16.02.2022
5304 Clouds 15 1007 85 10000 8.23 220 16:44 16.02.2022
5305 Clouds 15 1007 80 10000 9.26 250 15:21 16.02.2022
5306 Clouds 14 1007 86 10000 8.23 230 13:40 16.02.2022
5307 Clouds 13 1007 90 10000 8.23 230 12:24 16.02.2022
5308 Clouds 13 1006 90 10000 7.2 230 11:45 16.02.2022
5309 Clouds 12 1006 94 10000 7.72 230 10:34 16.02.2022
5310 Clouds 12 1006 94 10000 6.17 230 09:34 16.02.2022
5311 Rain 11 1005 95 10000 6.17 220 06:43 16.02.2022
5312 Rain 9 1010 93 10000 6.69 210 00:37 16.02.2022
5313 Drizzle 9 1011 92 10000 7.72 220 22:34 15.02.2022
5314 Clouds 9 1012 90 10000 7.2 220 21:50 15.02.2022
5315 Drizzle 9 1012 90 10000 7.2 220 21:29 15.02.2022
5316 Clouds 9 1012 90 10000 6.69 220 20:58 15.02.2022
5317 Clouds 9 1012 88 10000 7.2 200 20:22 15.02.2022
5318 Clouds 9 1013 91 10000 6.69 220 19:43 15.02.2022
5319 Clouds 9 1013 87 10000 6.17 210 18:25 15.02.2022
5320 Clouds 9 1013 84 10000 6.69 210 17:53 15.02.2022
5321 Clouds 9 1014 84 10000 5.66 210 17:28 15.02.2022
5322 Clouds 9 1015 81 10000 6.69 220 15:43 15.02.2022
5323 Clouds 10 1016 74 10000 7.2 220 13:57 15.02.2022
5324 Clouds 10 1016 73 10000 7.2 230 13:25 15.02.2022
5325 Clouds 8 1017 80 10000 3.6 220 11:41 15.02.2022
5326 Clouds 6 1016 89 10000 5.14 240 10:27 15.02.2022
5327 Clouds 4 1016 93 10000 3.6 240 08:42 15.02.2022
5328 Clouds 5 1015 91 10000 4.12 260 06:45 15.02.2022
5329 Clouds 6 1010 94 10000 4.12 260 23:35 14.02.2022
5330 Clouds 6 1008 92 10000 3.6 280 21:57 14.02.2022
5331 Clouds 7 1008 90 10000 5.14 290 20:53 14.02.2022
5332 Clouds 7 1006 89 10000 4.12 260 19:49 14.02.2022
5333 Clouds 7 1006 90 10000 4.12 260 19:29 14.02.2022
5334 Rain 8 1005 90 8000 4.12 200 18:24 14.02.2022
5335 Clouds 9 1005 83 10000 3.6 230 17:28 14.02.2022
5336 Clouds 10 1004 79 10000 5.66 200 16:37 14.02.2022
5337 Clouds 11 1004 69 10000 6.17 220 15:22 14.02.2022
5338 Clouds 11 1005 68 10000 6.69 210 13:35 14.02.2022
5339 Clouds 11 1005 70 10000 5.66 230 12:58 14.02.2022
5340 Clouds 10 1005 71 10000 6.17 210 12:32 14.02.2022
5341 Clouds 9 1005 77 10000 6.69 210 11:38 14.02.2022
5342 Clouds 8 1004 83 10000 5.66 220 10:21 14.02.2022
5343 Clouds 8 1003 85 10000 5.14 220 08:18 14.02.2022
5344 Clouds 8 1002 85 10000 5.14 240 07:26 14.02.2022
5345 Clear 12 1002 68 10000 6.69 180 22:49 13.02.2022
5346 Clouds 12 1002 68 10000 6.69 180 22:30 13.02.2022
5347 Clear 12 1002 66 10000 7.2 180 21:59 13.02.2022
5348 Clear 12 1003 66 10000 7.72 190 21:24 13.02.2022
5349 Clear 12 1003 66 10000 6.17 180 20:28 13.02.2022
5350 Clear 13 1004 64 10000 1.34 203 19:23 13.02.2022
5351 Clear 13 1004 63 10000 6.17 180 18:41 13.02.2022
5352 Clear 13 1005 60 10000 7.72 180 17:32 13.02.2022
5353 Clear 14 1006 59 10000 9.26 200 15:53 13.02.2022
5354 Clear 12 1008 65 10000 8.75 170 14:50 13.02.2022
5355 Clear 11 1010 67 10000 8.75 180 13:39 13.02.2022
5356 Clear 9 1012 74 10000 7.2 180 12:44 13.02.2022
5357 Clear 3 1014 82 10000 4.63 160 10:46 13.02.2022
5358 Clear 3 1014 82 10000 4.63 160 10:27 13.02.2022
5359 Clear 0 1015 83 10000 2.57 140 08:59 13.02.2022
5360 Clear 0 1017 83 10000 3.09 160 05:27 13.02.2022
5361 Clear 2 1020 75 10000 3.09 160 00:34 13.02.2022
5362 Clear 3 1021 72 10000 4.12 160 22:58 12.02.2022
5363 Clear 3 1021 73 10000 4.63 150 22:33 12.02.2022
5364 Clear 3 1021 72 10000 2.57 160 21:18 12.02.2022
5365 Clear 4 1022 70 10000 3.6 150 20:25 12.02.2022
5366 Clear 5 1022 65 10000 3.09 130 19:18 12.02.2022
5367 Clear 6 1022 58 10000 3.6 130 18:41 12.02.2022
5368 Clear 7 1022 55 10000 4.12 150 18:23 12.02.2022
5369 Clear 9 1023 47 10000 3.6 150 16:55 12.02.2022
5370 Clear 9 1023 46 10000 3.6 140 16:25 12.02.2022
5371 Clear 9 1023 46 10000 3.6 160 15:49 12.02.2022
5372 Clear 9 1025 46 10000 4.63 160 14:30 12.02.2022
5373 Clear 7 1027 59 10000 5.66 150 12:55 12.02.2022
5374 Clear 2 1029 86 10000 4.12 130 10:36 12.02.2022
5375 Clear 0 1028 89 10000 2.06 130 09:39 12.02.2022
5376 Clear 0 1028 89 10000 2.57 120 08:48 12.02.2022
5377 Clear 0 1029 88 10000 1.54 20 07:53 12.02.2022
5378 Clear 1 1030 87 10000 2.57 40 05:33 12.02.2022
5379 Clear 1 1031 88 9000 1.54 30 03:32 12.02.2022
5380 Clear 2 1032 84 6000 2.06 50 02:18 12.02.2022
5381 Clear 2 1033 85 10000 1.54 20 22:28 11.02.2022
5382 Clear 3 1033 82 10000 1.54 10 21:51 11.02.2022
5383 Clear 4 1033 77 10000 2.06 110 20:40 11.02.2022
5384 Clear 5 1034 77 10000 2.06 90 19:40 11.02.2022
5385 Clear 5 1034 76 10000 2.06 90 19:20 11.02.2022
5386 Clear 7 1033 69 10000 2.57 80 17:55 11.02.2022
5387 Clouds 8 1033 66 10000 2.57 70 17:25 11.02.2022
5388 Clouds 8 1034 61 10000 3.09 70 16:22 11.02.2022
5389 Clouds 8 1034 65 10000 2.57 50 14:43 11.02.2022
5390 Clouds 8 1034 68 10000 3.6 30 14:21 11.02.2022
5391 Clouds 8 1034 68 10000 3.6 30 13:59 11.02.2022
5392 Clouds 8 1034 72 10000 3.09 350 13:39 11.02.2022
5393 Clear 6 1034 87 10000 2.57 310 11:42 11.02.2022
5394 Clear 3 1033 93 10000 3.09 310 09:59 11.02.2022
5395 Mist 1 1032 93 4300 2.57 310 08:49 11.02.2022
5396 Clear 0 1031 96 8000 2.06 290 08:27 11.02.2022
5397 Clear 0 1031 96 8000 2.06 290 08:27 11.02.2022
5398 Clear 1 1030 94 10000 3.09 300 07:22 11.02.2022
5399 Clear 3 1027 93 10000 2.57 280 02:39 11.02.2022
5400 Clear 3 1027 93 10000 3.09 290 02:18 11.02.2022
5401 Clear 5 1026 92 10000 5.14 330 22:53 10.02.2022
5402 Clouds 5 1026 92 10000 4.63 320 21:50 10.02.2022
5403 Clouds 5 1025 93 10000 4.63 340 21:21 10.02.2022
5404 Clouds 6 1025 91 10000 7.2 340 20:45 10.02.2022
5405 Clouds 7 1024 88 10000 6.69 340 19:26 10.02.2022
5406 Clouds 9 1023 82 10000 1.79 293 18:47 10.02.2022
5407 Clouds 10 1023 79 10000 4.63 230 17:27 10.02.2022
5408 Clouds 10 1023 80 10000 3.6 240 16:57 10.02.2022
5409 Drizzle 10 1023 80 10000 4.12 230 15:59 10.02.2022
5410 Clouds 10 1023 82 10000 4.12 220 15:33 10.02.2022
5411 Clouds 9 1023 84 10000 5.14 230 14:49 10.02.2022
5412 Clouds 9 1023 82 10000 5.66 240 14:26 10.02.2022
5413 Clouds 9 1024 78 10000 5.66 260 13:30 10.02.2022
5414 Clouds 9 1024 81 10000 4.63 240 12:51 10.02.2022
5415 Clouds 9 1024 81 10000 4.63 240 12:51 10.02.2022
5416 Clouds 7 1024 86 10000 5.66 230 11:38 10.02.2022
5417 Clouds 7 1025 86 10000 5.66 230 11:20 10.02.2022
5418 Mist 7 1024 90 10000 4.12 240 10:18 10.02.2022
5419 Clouds 6 1024 92 10000 5.14 230 09:25 10.02.2022
5420 Clouds 6 1023 91 10000 4.63 240 07:37 10.02.2022
5421 Mist 6 1023 92 4400 5.14 250 05:51 10.02.2022
5422 Clouds 6 1022 90 8000 2.24 221 01:57 10.02.2022
5423 Clouds 6 1023 91 7000 2.06 240 00:50 10.02.2022
5424 Clouds 6 1023 91 7000 2.06 240 00:50 10.02.2022
5425 Clouds 6 1023 91 7000 1.54 270 00:29 10.02.2022
5426 Clouds 6 1023 89 9000 4.12 260 23:26 09.02.2022
5427 Clear 5 1023 91 10000 2.06 360 22:37 09.02.2022
5428 Clear 6 1023 87 10000 1.54 10 21:52 09.02.2022
5429 Clear 6 1023 80 10000 1.54 320 21:30 09.02.2022
5430 Clear 7 1023 83 10000 1.54 130 20:51 09.02.2022
5431 Clear 7 1023 81 10000 1.54 130 20:31 09.02.2022
5432 Clear 8 1024 79 10000 2.06 220 19:56 09.02.2022
5433 Clear 9 1024 75 10000 2.06 210 19:32 09.02.2022
5434 Clear 12 1024 62 10000 2.57 170 17:38 09.02.2022
5435 Clear 13 1024 58 10000 1.54 120 16:52 09.02.2022
5436 Clear 13 1025 59 10000 2.57 170 15:52 09.02.2022
5437 Clear 12 1025 62 10000 2.57 190 14:42 09.02.2022
5438 Clear 9 1027 79 10000 3.09 160 12:28 09.02.2022
5439 Clear 6 1027 88 10000 2.06 120 10:55 09.02.2022
5440 Clear 6 1027 88 10000 2.06 120 10:55 09.02.2022
5441 Clear 5 1027 92 10000 2.57 140 10:30 09.02.2022
5442 Mist 4 1028 95 7000 1.03 50 09:40 09.02.2022
5443 Mist 3 1028 95 7000 1.03 50 09:19 09.02.2022
5444 Mist 3 1028 95 6000 1.03 10 07:55 09.02.2022
5445 Mist 4 1028 96 6000 2.06 80 05:30 09.02.2022
5446 Mist 4 1029 95 6000 2.06 110 03:50 09.02.2022
5447 Fog 6 1030 95 6000 0.45 135 01:27 09.02.2022
5448 Clear 7 1030 93 10000 2.57 140 23:34 08.02.2022
5449 Clouds 7 1030 91 10000 2.57 150 22:50 08.02.2022
5450 Clouds 8 1031 88 10000 2.57 150 22:22 08.02.2022
5451 Clouds 8 1031 89 10000 2.06 170 21:49 08.02.2022
5452 Clouds 8 1031 88 10000 2.06 170 21:21 08.02.2022
5453 Clouds 9 1031 87 10000 2.06 230 20:45 08.02.2022
5454 Clouds 9 1031 84 10000 2.57 250 19:46 08.02.2022
5455 Clouds 10 1031 85 10000 4.63 240 18:48 08.02.2022
5456 Clouds 10 1031 82 10000 4.63 240 17:43 08.02.2022
5457 Clouds 11 1031 80 10000 5.14 240 16:34 08.02.2022
5458 Clouds 11 1031 81 10000 5.66 240 15:30 08.02.2022
5459 Clouds 11 1031 81 10000 5.14 240 14:38 08.02.2022
5460 Clouds 10 1032 84 10000 4.12 220 13:29 08.02.2022
5461 Clouds 9 1033 87 10000 4.12 220 11:55 08.02.2022
5462 Clouds 8 1033 89 10000 3.09 210 10:23 08.02.2022
5463 Clouds 8 1033 89 10000 3.09 210 10:23 08.02.2022
5464 Clouds 7 1033 90 10000 2.57 200 09:45 08.02.2022
5465 Clouds 7 1032 90 10000 3.6 210 07:55 08.02.2022
5466 Clouds 6 1032 86 10000 3.09 240 05:41 08.02.2022
5467 Clouds 6 1032 85 10000 2.57 230 04:39 08.02.2022
5468 Clouds 6 1032 84 10000 2.57 230 04:21 08.02.2022
5469 Clouds 6 1032 86 10000 2.06 240 03:36 08.02.2022
5470 Clouds 5 1032 87 10000 2.06 240 03:18 08.02.2022
5471 Clouds 5 1032 86 10000 3.09 210 02:59 08.02.2022
5472 Clouds 6 1032 84 10000 2.06 240 02:36 08.02.2022
5473 Clouds 5 1032 87 10000 2.06 230 02:18 08.02.2022
5474 Clouds 5 1032 86 10000 1.54 230 01:44 08.02.2022
5475 Clouds 5 1032 85 10000 2.06 230 01:24 08.02.2022
5476 Clouds 5 1032 85 10000 2.06 230 00:55 08.02.2022
5477 Clouds 5 1032 82 10000 3.09 240 23:58 07.02.2022
5478 Clouds 5 1032 84 10000 3.09 240 23:40 07.02.2022
5479 Clouds 5 1032 82 10000 2.06 220 23:18 07.02.2022
5480 Clouds 5 1032 80 10000 2.06 220 22:54 07.02.2022
5481 Clear 5 1031 80 10000 2.06 210 22:18 07.02.2022
5482 Clear 5 1031 78 10000 2.06 210 21:44 07.02.2022
5483 Clear 6 1031 76 10000 2.06 220 21:25 07.02.2022
5484 Clear 6 1031 77 10000 2.06 230 20:41 07.02.2022
5485 Clear 6 1031 75 10000 1.54 240 19:56 07.02.2022
5486 Clear 6 1031 73 10000 1.54 220 19:38 07.02.2022
5487 Clear 9 1030 63 10000 3.6 290 18:21 07.02.2022
5488 Clear 10 1031 59 10000 4.63 300 16:53 07.02.2022
5489 Clear 10 1030 57 10000 5.14 280 16:20 07.02.2022
5490 Clear 10 1030 58 10000 5.14 310 15:48 07.02.2022
5491 Clouds 10 1030 61 10000 3.6 300 13:37 07.02.2022
5492 Clouds 10 1030 60 10000 3.6 300 13:19 07.02.2022
5493 Clouds 8 1030 74 10000 1.34 293 11:58 07.02.2022
5494 Clouds 8 1030 74 10000 1.34 293 11:58 07.02.2022
5495 Clear 8 1030 77 10000 1.34 270 11:37 07.02.2022
5496 Clear 7 1029 81 10000 1.34 270 10:52 07.02.2022
5497 Clear 6 1028 84 10000 0.89 270 10:32 07.02.2022
5498 Clear 4 1027 88 10000 1.03 0 09:53 07.02.2022
5499 Clear 3 1026 88 10000 0.45 46 09:18 07.02.2022
5500 Clear 3 1026 87 10000 1.03 0 08:43 07.02.2022
5501 Clouds 4 1025 83 10000 1.79 293 07:26 07.02.2022
5502 Clear 5 1024 81 10000 1.79 270 06:34 07.02.2022
5503 Clear 7 1021 74 10000 2.24 270 03:49 07.02.2022
5504 Clouds 9 1016 81 10000 1.79 270 00:47 07.02.2022
5505 Clouds 9 1014 83 10000 3.13 270 23:49 06.02.2022
5506 Clouds 10 1014 86 10000 4.47 270 23:19 06.02.2022
5507 Clouds 10 1013 90 10000 3.58 270 22:34 06.02.2022
5508 Clouds 10 1012 95 10000 4.92 270 21:36 06.02.2022
5509 Rain 10 1012 95 8000 1.79 248 20:58 06.02.2022
5510 Clouds 10 1012 93 10000 3.58 248 20:36 06.02.2022
5511 Clouds 10 1012 94 10000 2.24 248 19:45 06.02.2022
5512 Clouds 10 1012 91 6000 3.13 270 18:50 06.02.2022
5513 Clouds 10 1012 91 10000 3.13 270 18:24 06.02.2022
5514 Drizzle 10 1012 92 10000 3.13 248 17:26 06.02.2022
5515 Clouds 10 1012 92 10000 2.68 225 16:48 06.02.2022
5516 Clouds 10 1012 92 8000 3.13 248 15:50 06.02.2022
5517 Clouds 10 1012 92 8000 3.13 225 15:27 06.02.2022
5518 Clouds 10 1013 89 9000 3.13 225 14:50 06.02.2022
5519 Clouds 10 1013 88 10000 3.58 248 13:51 06.02.2022
5520 Clouds 10 1014 89 10000 4.02 225 13:20 06.02.2022
5521 Clouds 9 1015 92 10000 3.58 225 11:44 06.02.2022
5522 Clouds 8 1016 90 10000 3.58 225 10:31 06.02.2022
5523 Clouds 8 1016 87 10000 2.68 225 09:26 06.02.2022
5524 Clouds 8 1017 87 10000 3.58 225 08:41 06.02.2022
5525 Clouds 7 1019 87 10000 3.58 225 06:27 06.02.2022
5526 Clouds 7 1020 85 10000 3.58 225 05:27 06.02.2022
5527 Clear 7 1022 82 10000 2.24 225 02:25 06.02.2022
5528 Clear 7 1023 79 10000 3.13 225 00:30 06.02.2022
5529 Clouds 7 1024 80 10000 2.68 225 23:27 05.02.2022
5530 Clouds 7 1024 80 10000 3.13 225 21:43 05.02.2022
5531 Clear 7 1024 79 10000 1.79 225 20:39 05.02.2022
5532 Clear 7 1025 77 10000 2.68 225 20:19 05.02.2022
5533 Clouds 7 1025 77 10000 1.79 225 19:41 05.02.2022
5534 Clear 8 1025 73 10000 2.68 225 18:26 05.02.2022
5535 Clouds 9 1025 67 10000 1.79 248 17:34 05.02.2022
5536 Clear 10 1025 57 10000 1.34 248 15:43 05.02.2022
5537 Clear 10 1025 57 10000 2.68 225 15:25 05.02.2022
5538 Clouds 9 1026 75 10000 1.34 225 13:25 05.02.2022
5539 Clouds 9 1026 75 10000 1.34 225 13:25 05.02.2022
5540 Clear 8 1026 80 10000 1.79 248 12:42 05.02.2022
5541 Clear 6 1026 88 10000 1.34 270 11:29 05.02.2022
5542 Clear 4 1025 91 10000 1.34 49 10:43 05.02.2022
5543 Clear 3 1025 91 10000 0.45 48 09:49 05.02.2022
5544 Clear 2 1025 93 10000 0.51 0 08:39 05.02.2022
5545 Clear 2 1024 92 10000 1.54 0 06:59 05.02.2022
5546 Clear 2 1024 92 10000 1.03 150 06:27 05.02.2022
5547 Clear 3 1023 89 10000 0.45 48 02:40 05.02.2022
5548 Clear 3 1022 87 10000 0.89 46 01:18 05.02.2022
5549 Clear 3 1022 87 10000 3.09 240 00:36 05.02.2022
5550 Clouds 4 1021 87 10000 4.12 230 23:33 04.02.2022
5551 Clouds 4 1020 87 10000 0.89 44 22:39 04.02.2022
5552 Clouds 4 1020 86 10000 0.89 44 21:36 04.02.2022
5553 Clear 4 1019 86 10000 2.24 43 21:18 04.02.2022
5554 Clear 5 1019 83 10000 2.57 260 20:29 04.02.2022
5555 Clear 6 1018 83 10000 1.79 270 19:18 04.02.2022
5556 Clouds 10 1013 81 10000 4.47 248 16:22 04.02.2022
5557 Clouds 11 1012 75 10000 2.68 248 15:18 04.02.2022
5558 Clouds 11 1013 76 10000 2.68 225 14:40 04.02.2022
5559 Drizzle 9 1015 88 10000 2.24 225 12:43 04.02.2022
5560 Clouds 8 1015 91 10000 2.24 203 11:45 04.02.2022
5561 Clouds 8 1015 91 10000 1.79 225 10:55 04.02.2022
5562 Drizzle 7 1015 93 10000 1.79 225 09:56 04.02.2022
5563 Clouds 7 1015 94 10000 1.34 225 08:30 04.02.2022
5564 Drizzle 7 1017 93 10000 1.79 225 03:47 04.02.2022
5565 Clouds 7 1017 90 10000 1.79 225 02:36 04.02.2022
5566 Clouds 7 1017 91 10000 1.79 225 23:40 03.02.2022
5567 Clouds 7 1017 91 10000 1.79 225 22:51 03.02.2022
5568 Clouds 8 1017 90 10000 1.79 225 21:52 03.02.2022
5569 Clouds 8 1017 90 10000 1.79 225 21:29 03.02.2022
5570 Clouds 8 1017 88 10000 1.79 225 20:22 03.02.2022
5571 Clouds 8 1017 86 10000 1.34 225 19:46 03.02.2022
5572 Clouds 8 1017 84 10000 1.34 225 18:56 03.02.2022
5573 Clouds 8 1016 84 10000 0.89 248 17:59 03.02.2022
5574 Clouds 8 1016 82 10000 0.45 225 17:19 03.02.2022
5575 Clouds 8 1017 84 10000 1.34 270 15:34 03.02.2022
5576 Clouds 7 1017 83 10000 1.34 225 13:50 03.02.2022
5577 Clouds 7 1018 81 10000 1.34 225 12:22 03.02.2022
5578 Clouds 7 1019 82 10000 1.79 225 08:56 03.02.2022
5579 Clouds 7 1019 81 10000 1.34 225 07:43 03.02.2022
5580 Clouds 8 1024 79 10000 0.89 203 00:49 03.02.2022
5581 Clouds 9 1024 79 10000 1.34 225 00:22 03.02.2022
5582 Clouds 9 1024 81 10000 1.79 203 22:39 02.02.2022
5583 Clouds 9 1025 79 10000 1.34 216 21:51 02.02.2022
5584 Clouds 9 1025 78 10000 1.79 225 21:29 02.02.2022
5585 Clouds 9 1025 79 10000 0.89 270 20:27 02.02.2022
5586 Clouds 9 1025 80 10000 0.89 248 19:46 02.02.2022
5587 Clouds 10 1025 79 10000 1.79 225 18:56 02.02.2022
5588 Clouds 10 1025 80 10000 1.34 225 18:24 02.02.2022
5589 Clouds 10 1025 80 10000 1.79 270 17:20 02.02.2022
5590 Clouds 10 1025 80 10000 1.79 270 16:58 02.02.2022
5591 Clouds 11 1025 79 10000 3.13 270 15:29 02.02.2022
5592 Clouds 10 1025 89 10000 2.24 270 12:31 02.02.2022
5593 Clouds 10 1025 89 10000 1.79 270 11:49 02.02.2022
5594 Clouds 10 1025 90 10000 2.24 270 11:30 02.02.2022
5595 Clouds 10 1025 91 10000 1.79 270 09:18 02.02.2022
5596 Clouds 10 1024 90 10000 2.68 270 04:57 02.02.2022
5597 Clouds 10 1023 90 10000 3.13 270 22:34 01.02.2022
5598 Clouds 10 1023 91 10000 3.58 270 20:55 01.02.2022
5599 Clouds 10 1022 92 10000 3.58 270 19:39 01.02.2022
5600 Clouds 10 1022 92 10000 3.58 270 17:37 01.02.2022
5601 Clouds 10 1022 92 10000 4.02 270 16:31 01.02.2022
5602 Clouds 8 1023 95 10000 2.24 248 13:27 01.02.2022
5603 Drizzle 7 1024 95 10000 1.79 270 12:28 01.02.2022
5604 Drizzle 6 1025 94 10000 2.68 225 10:42 01.02.2022
5605 Clouds 2 1028 77 10000 2.06 260 02:24 01.02.2022
5606 Clear 2 1028 76 10000 2.57 270 23:39 31.01.2022
5607 Clear 3 1027 69 10000 1.34 270 22:42 31.01.2022
5608 Clear 4 1027 65 10000 0.89 270 21:36 31.01.2022
5609 Clear 5 1026 63 10000 0.89 270 20:44 31.01.2022
5610 Clear 5 1026 63 10000 1.79 270 20:24 31.01.2022
5611 Clear 6 1025 58 10000 1.34 270 18:54 31.01.2022
5612 Clear 6 1025 58 10000 3.13 270 18:20 31.01.2022
5613 Clear 7 1024 57 10000 2.68 293 17:25 31.01.2022
5614 Clear 7 1023 55 10000 1.79 270 16:25 31.01.2022
5615 Clouds 8 1023 59 10000 2.68 270 14:54 31.01.2022
5616 Clouds 8 1022 75 10000 3.13 270 13:43 31.01.2022
5617 Clouds 9 1022 65 10000 3.13 293 12:38 31.01.2022
5618 Clouds 8 1022 73 10000 4.47 270 11:34 31.01.2022
5619 Clouds 8 1021 76 10000 4.02 270 10:49 31.01.2022
5620 Clouds 7 1021 79 10000 2.24 270 09:39 31.01.2022
5621 Clouds 7 1020 77 10000 3.58 270 08:57 31.01.2022
5622 Clear 7 1020 78 10000 2.68 270 08:38 31.01.2022
5623 Clear 7 1020 78 10000 3.13 270 08:19 31.01.2022
5624 Clouds 7 1020 93 10000 3.13 270 06:18 31.01.2022
5625 Clouds 7 1025 79 10000 2.24 248 00:44 31.01.2022
5626 Clouds 6 1026 79 10000 1.54 230 22:38 30.01.2022
5627 Clouds 7 1026 78 10000 0.89 225 22:20 30.01.2022
5628 Clouds 6 1027 82 10000 1.03 0 21:38 30.01.2022
5629 Clouds 6 1027 82 10000 1.03 260 21:18 30.01.2022
5630 Clouds 6 1028 78 10000 1.34 270 20:45 30.01.2022
5631 Clouds 6 1028 78 10000 1.34 270 20:26 30.01.2022
5632 Clouds 7 1028 77 10000 0.89 68 19:24 30.01.2022
5633 Clouds 7 1029 74 10000 0.45 68 18:35 30.01.2022
5634 Clouds 8 1029 70 10000 0.89 270 17:53 30.01.2022
5635 Clouds 9 1029 66 10000 0.89 270 17:20 30.01.2022
5636 Clouds 9 1030 65 10000 0.89 45 16:37 30.01.2022
5637 Clouds 10 1030 65 10000 0.45 23 16:37 30.01.2022
5638 Clouds 10 1030 66 10000 0.89 315 16:19 30.01.2022
5639 Clouds 10 1030 65 10000 0.89 270 15:49 30.01.2022
5640 Clouds 10 1030 67 10000 1.79 270 15:30 30.01.2022
5641 Clouds 10 1031 67 10000 0.45 270 14:45 30.01.2022
5642 Clouds 9 1033 69 10000 1.03 0 12:46 30.01.2022
5643 Clear 9 1033 74 10000 1.34 68 11:53 30.01.2022
5644 Clear 7 1033 82 10000 0.89 90 10:29 30.01.2022
5645 Clear 6 1033 85 10000 0.45 45 09:50 30.01.2022
5646 Clear 6 1033 84 10000 2.24 42 08:54 30.01.2022
5647 Clouds 7 1032 82 10000 0.89 68 07:28 30.01.2022
5648 Drizzle 9 1032 95 10000 1.34 270 01:56 30.01.2022
5649 Drizzle 9 1032 95 10000 1.34 270 01:56 30.01.2022
5650 Drizzle 9 1032 95 10000 1.34 270 01:56 30.01.2022
5651 Clouds 9 1032 95 10000 1.34 248 00:23 30.01.2022
5652 Clouds 9 1032 95 10000 1.79 270 23:18 29.01.2022
5653 Clouds 10 1032 91 10000 1.34 248 21:49 29.01.2022
5654 Clouds 10 1032 90 10000 1.79 270 21:24 29.01.2022
5655 Clouds 10 1032 90 10000 3.13 270 20:32 29.01.2022
5656 Drizzle 10 1032 92 10000 2.68 270 19:34 29.01.2022
5657 Clouds 10 1032 92 10000 2.24 270 18:52 29.01.2022
5658 Clouds 10 1032 92 10000 1.79 270 18:23 29.01.2022
5659 Clouds 10 1031 93 10000 1.79 270 17:29 29.01.2022
5660 Drizzle 10 1031 95 10000 2.24 270 15:57 29.01.2022
5661 Mist 10 1032 94 10000 4.63 250 14:23 29.01.2022
5662 Mist 9 1033 95 10000 5.14 250 13:44 29.01.2022
5663 Mist 9 1032 94 10000 1.34 270 13:24 29.01.2022
5664 Clouds 9 1033 93 10000 2.24 225 11:49 29.01.2022
5665 Drizzle 9 1033 93 10000 1.79 225 11:24 29.01.2022
5666 Clouds 7 1033 95 10000 1.79 225 08:57 29.01.2022
5667 Mist 7 1033 97 10000 1.79 225 06:55 29.01.2022
5668 Clouds 6 1036 90 10000 1.34 225 00:36 29.01.2022
5669 Clouds 6 1036 90 10000 0.89 225 23:59 28.01.2022
5670 Clouds 6 1036 90 10000 2.24 225 22:51 28.01.2022
5671 Clouds 6 1036 91 10000 1.34 225 22:22 28.01.2022
5672 Clouds 6 1036 90 10000 0.89 225 21:37 28.01.2022
5673 Clouds 6 1037 91 10000 0.89 248 20:30 28.01.2022
5674 Clouds 6 1037 91 10000 0.89 248 20:30 28.01.2022
5675 Clouds 6 1036 90 10000 0.89 180 19:31 28.01.2022
5676 Clouds 7 1037 89 10000 0.45 203 18:43 28.01.2022
5677 Clouds 7 1036 87 10000 0.45 203 17:31 28.01.2022
5678 Clouds 7 1037 87 10000 0.89 293 15:20 28.01.2022
5679 Clouds 7 1037 89 10000 0.89 203 13:52 28.01.2022
5680 Clouds 7 1038 93 10000 0.89 203 12:30 28.01.2022
5681 Mist 6 1038 94 9000 0.89 248 11:25 28.01.2022
5682 Mist 6 1037 96 4500 0.45 218 09:52 28.01.2022
5683 Mist 6 1036 97 1500 0.45 113 08:26 28.01.2022
5684 Mist 6 1036 97 3100 1.54 0 07:34 28.01.2022
5685 Fog 6 1035 96 450 0 0 05:23 28.01.2022
5686 Mist 7 1035 96 1300 0.89 270 03:44 28.01.2022
5687 Mist 7 1034 97 4400 0.89 270 02:22 28.01.2022
5688 Mist 7 1034 97 4500 0.45 270 01:33 28.01.2022
5689 Mist 7 1033 96 5000 1.34 270 23:25 27.01.2022
5690 Mist 7 1032 94 3000 1.34 270 21:49 27.01.2022
5691 Mist 7 1032 94 4000 1.79 270 21:29 27.01.2022
5692 Drizzle 6 1031 95 2500 1.34 225 20:44 27.01.2022
5693 Mist 6 1031 92 4800 1.34 225 18:55 27.01.2022
5694 Clouds 7 1031 86 10000 1.34 225 17:56 27.01.2022
5695 Clouds 7 1030 86 7000 1.79 225 15:18 27.01.2022
5696 Clouds 5 1031 85 10000 0.45 225 13:36 27.01.2022
5697 Clouds 5 1031 86 10000 0.89 203 12:40 27.01.2022
5698 Mist 3 1032 90 9000 0.89 203 10:24 27.01.2022
5699 Mist 3 1032 90 8000 0.45 203 08:57 27.01.2022
5700 Mist 3 1032 91 8000 0.45 225 08:31 27.01.2022
5701 Mist 3 1031 92 7000 0.45 180 05:59 27.01.2022
5702 Mist 2 1033 92 7000 3.09 160 02:43 27.01.2022
5703 Mist 2 1033 91 7000 0.89 248 23:32 26.01.2022
5704 Mist 2 1034 92 7000 1.34 270 21:59 26.01.2022
5705 Mist 2 1034 92 7000 0.89 270 21:35 26.01.2022
5706 Mist 2 1034 92 7000 1.34 270 20:36 26.01.2022
5707 Mist 2 1034 92 7000 0.89 270 20:36 26.01.2022
5708 Mist 3 1034 91 7000 1.34 270 19:59 26.01.2022
5709 Mist 3 1034 90 8000 0.45 180 19:20 26.01.2022
5710 Mist 3 1034 90 9000 1.03 0 18:45 26.01.2022
5711 Mist 3 1034 91 9000 0.89 270 17:50 26.01.2022
5712 Mist 3 1034 90 10000 0.45 293 17:23 26.01.2022
5713 Mist 3 1034 90 10000 0.89 270 16:31 26.01.2022
5714 Mist 3 1034 88 8000 0.89 293 15:49 26.01.2022
5715 Mist 3 1034 91 6000 0.45 68 14:20 26.01.2022
5716 Mist 2 1035 91 6000 0.45 225 11:52 26.01.2022
5717 Mist 1 1035 93 6000 1.54 180 10:28 26.01.2022
5718 Mist 1 1035 95 6000 0.45 203 09:48 26.01.2022
5719 Clouds 0 1034 96 7000 0.89 270 07:44 26.01.2022
5720 Mist 0 1035 97 5000 0.45 68 03:31 26.01.2022
5721 Mist 0 1034 97 2100 1.34 270 23:58 25.01.2022
5722 Mist 0 1034 97 1500 0.89 270 23:19 25.01.2022
5723 Mist 0 1034 97 1600 1.34 270 22:21 25.01.2022
5724 Mist 1 1034 97 1500 0.89 270 21:58 25.01.2022
5725 Mist 1 1034 98 1900 1.03 0 20:59 25.01.2022
5726 Mist 1 1033 98 1700 0.51 0 20:40 25.01.2022
5727 Mist 1 1033 98 1500 1.03 0 19:53 25.01.2022
5728 Mist 1 1033 98 3700 1.54 0 18:38 25.01.2022
5729 Mist 1 1033 98 3000 1.54 330 17:45 25.01.2022
5730 Mist 1 1033 93 3700 2.06 310 16:45 25.01.2022
5731 Mist 1 1033 98 3700 2.06 310 16:21 25.01.2022
5732 Mist 1 1033 98 3100 2.06 310 15:38 25.01.2022
5733 Mist 1 1033 98 3200 1.54 290 14:57 25.01.2022
5734 Mist 1 1034 100 2100 1.03 0 13:42 25.01.2022
5735 Fog 0 1033 94 500 0 0 10:58 25.01.2022
5736 Fog -1 1033 95 250 0.51 0 08:38 25.01.2022
5737 Fog -1 1032 95 1000 0.89 68 07:29 25.01.2022
5738 Fog -1 1032 95 450 0.45 135 06:49 25.01.2022
5739 Fog -1 1032 94 400 1.03 160 05:22 25.01.2022
5740 Mist 0 1032 92 6000 1.54 30 23:37 24.01.2022
5741 Mist 0 1032 92 7000 2.06 30 23:19 24.01.2022
5742 Mist 1 1032 92 7000 2.06 30 22:59 24.01.2022
5743 Mist 1 1032 92 6000 1.54 30 22:41 24.01.2022
5744 Clear 1 1032 89 6000 1.54 10 21:54 24.01.2022
5745 Clear 2 1031 88 7000 1.03 0 21:29 24.01.2022
5746 Clear 2 1031 88 9000 0.45 68 20:32 24.01.2022
5747 Clear 3 1031 87 10000 2.06 30 19:52 24.01.2022
5748 Clear 3 1031 84 10000 0.45 68 19:30 24.01.2022
5749 Clear 4 1031 81 10000 0.45 45 18:19 24.01.2022
5750 Clear 6 1031 75 10000 0.89 68 17:24 24.01.2022
5751 Clear 7 1031 72 10000 2.24 45 16:55 24.01.2022
5752 Clear 7 1031 71 10000 1.34 68 16:21 24.01.2022
5753 Clear 7 1030 71 10000 1.34 90 14:44 24.01.2022
5754 Clear 6 1031 75 10000 1.34 68 13:26 24.01.2022
5755 Clear 5 1031 82 10000 0.89 68 12:30 24.01.2022
5756 Clear 2 1032 90 9000 0.89 68 10:46 24.01.2022
5757 Clear 0 1032 95 6000 0.89 45 09:49 24.01.2022
5758 Clear 0 1031 96 6000 0.45 68 08:54 24.01.2022
5759 Clear 0 1031 95 6000 0.45 68 07:19 24.01.2022
5760 Clear 0 1031 94 7000 0.45 68 07:19 24.01.2022
5761 Clear 1 1032 90 9000 0.89 45 01:31 24.01.2022
5762 Clear 2 1032 89 9000 0.89 68 00:45 24.01.2022
5763 Clear 2 1032 90 8000 0.89 45 00:26 24.01.2022
5764 Clouds 3 1033 87 10000 0.45 68 22:43 23.01.2022
5765 Clouds 4 1033 83 10000 0.45 45 21:50 23.01.2022
5766 Clouds 4 1033 81 10000 0.89 68 21:26 23.01.2022
5767 Clouds 4 1033 80 10000 1.79 90 20:54 23.01.2022
5768 Clouds 5 1033 81 10000 1.34 68 19:55 23.01.2022
5769 Clouds 5 1033 81 10000 0.89 90 18:52 23.01.2022
5770 Clouds 4 1033 83 10000 1.34 90 17:52 23.01.2022
5771 Clouds 5 1033 83 10000 1.34 68 16:52 23.01.2022
5772 Clouds 4 1033 86 10000 0.89 68 15:18 23.01.2022
5773 Clouds 4 1034 86 10000 1.34 90 14:33 23.01.2022
5774 Clouds 4 1035 86 10000 1.34 90 13:27 23.01.2022
5775 Clouds 4 1035 88 10000 1.34 68 12:40 23.01.2022
5776 Clouds 4 1035 89 10000 0.89 135 12:18 23.01.2022
5777 Clouds 4 1036 89 10000 0.89 90 11:25 23.01.2022
5778 Clouds 4 1036 89 10000 1.34 90 10:57 23.01.2022
5779 Clouds 4 1036 88 10000 1.34 90 10:23 23.01.2022
5780 Clouds 4 1035 88 10000 1.34 68 09:25 23.01.2022
5781 Clouds 4 1035 89 10000 1.34 68 05:59 23.01.2022
5782 Clouds 4 1036 88 10000 1.34 68 03:20 23.01.2022
5783 Clouds 4 1036 88 10000 1.34 68 01:36 23.01.2022
5784 Clouds 5 1036 87 10000 0.45 315 00:42 23.01.2022
5785 Clouds 5 1036 86 10000 1.34 68 23:58 22.01.2022
5786 Clouds 5 1037 86 10000 0.45 270 22:48 22.01.2022
5787 Clouds 5 1037 85 10000 1.34 270 22:19 22.01.2022
5788 Clouds 5 1037 84 10000 0.89 68 20:29 22.01.2022
5789 Clouds 5 1037 84 10000 0.89 270 19:41 22.01.2022
5790 Clouds 5 1037 83 10000 1.34 270 18:37 22.01.2022
5791 Clouds 6 1036 80 10000 0.45 293 17:45 22.01.2022
5792 Clouds 6 1036 79 10000 0.45 270 17:19 22.01.2022
5793 Clouds 6 1036 79 10000 0.89 293 16:54 22.01.2022
5794 Clouds 6 1037 78 10000 0.89 270 15:45 22.01.2022
5795 Clouds 6 1037 77 10000 0.45 270 14:52 22.01.2022
5796 Clouds 6 1037 78 10000 0.89 68 13:30 22.01.2022
5797 Clouds 5 1038 80 10000 0.89 270 12:37 22.01.2022
5798 Clouds 5 1038 81 10000 0.89 293 12:19 22.01.2022
5799 Clouds 5 1038 83 10000 0.89 270 10:54 22.01.2022
5800 Clouds 5 1037 83 10000 0.45 43 10:25 22.01.2022
5801 Clouds 4 1037 83 10000 1.34 68 08:59 22.01.2022
5802 Clouds 4 1037 83 10000 0.89 68 08:39 22.01.2022
5803 Clouds 4 1036 83 10000 0.89 270 06:46 22.01.2022
5804 Clouds 4 1037 82 10000 1.34 270 02:40 22.01.2022
5805 Clouds 3 1037 85 10000 0.89 270 23:52 21.01.2022
5806 Clouds 3 1037 85 10000 1.34 293 23:21 21.01.2022
5807 Clouds 3 1037 82 10000 0.45 270 21:45 21.01.2022
5808 Clouds 3 1037 86 10000 0.45 44 19:48 21.01.2022
5809 Clouds 4 1037 82 10000 0.45 270 18:20 21.01.2022
5810 Clouds 5 1037 80 10000 0.89 270 16:54 21.01.2022
5811 Clouds 5 1037 83 10000 0.89 68 15:24 21.01.2022
5812 Clouds 5 1037 85 10000 1.34 44 12:53 21.01.2022
5813 Clouds 4 1038 88 10000 0.45 225 11:42 21.01.2022
5814 Clouds 4 1038 89 10000 1.34 44 11:23 21.01.2022
5815 Clouds 2 1037 91 10000 0.45 23 09:34 21.01.2022
5816 Clouds 2 1037 90 10000 0.89 68 08:21 21.01.2022
5817 Clear 2 1036 90 10000 0.89 338 04:37 21.01.2022
5818 Clouds 4 1036 85 10000 0.89 293 23:19 20.01.2022
5819 Clouds 4 1035 82 10000 0.45 270 21:50 20.01.2022
5820 Clear 4 1035 82 10000 0.45 68 21:31 20.01.2022
5821 Clear 4 1034 81 10000 1.79 68 20:21 20.01.2022
5822 Clear 4 1034 81 10000 0.89 45 19:19 20.01.2022
5823 Clouds 5 1033 78 10000 2.24 68 18:18 20.01.2022
5824 Clouds 6 1033 75 10000 1.34 68 16:40 20.01.2022
5825 Clouds 7 1032 73 10000 2.68 68 15:40 20.01.2022
5826 Clouds 7 1033 77 10000 1.79 90 14:40 20.01.2022
5827 Clouds 6 1032 84 10000 0.89 270 13:33 20.01.2022
5828 Clouds 5 1033 92 10000 1.34 270 12:32 20.01.2022
5829 Clouds 5 1033 92 10000 0.89 270 11:49 20.01.2022
5830 Clear 3 1032 94 10000 0.89 270 10:38 20.01.2022
5831 Clear 2 1032 95 10000 0.89 270 09:34 20.01.2022
5832 Clear 2 1030 95 10000 1.34 270 07:50 20.01.2022
5833 Mist 6 1028 97 5000 0.89 270 00:44 20.01.2022
5834 Mist 6 1028 95 3500 0.89 293 22:54 19.01.2022
5835 Drizzle 6 1027 96 3600 1.79 270 22:21 19.01.2022
5836 Drizzle 6 1027 95 5000 1.34 225 21:23 19.01.2022
5837 Drizzle 6 1026 95 5000 0.89 225 20:46 19.01.2022
5838 Rain 6 1026 92 7000 1.34 270 19:42 19.01.2022
5839 Clouds 6 1027 91 7000 1.34 225 18:29 19.01.2022
5840 Clouds 6 1026 90 7000 1.79 270 17:44 19.01.2022
5841 Clouds 6 1026 91 7000 0.89 225 16:47 19.01.2022
5842 Clouds 6 1027 89 10000 1.79 270 14:42 19.01.2022
5843 Mist 6 1028 91 5000 1.34 270 12:42 19.01.2022
5844 Clouds 5 1028 92 7000 0.45 225 11:41 19.01.2022
5845 Clouds 5 1028 91 7000 0.89 293 10:23 19.01.2022
5846 Clouds 4 1028 92 7000 1.79 270 09:34 19.01.2022
5847 Clouds 4 1028 92 10000 1.54 260 06:45 19.01.2022
5848 Clouds 4 1030 89 10000 0.89 68 02:41 19.01.2022
5849 Clear 4 1032 90 10000 0.45 68 23:20 18.01.2022
5850 Clouds 5 1032 89 10000 0.89 68 22:34 18.01.2022
5851 Clear 5 1033 85 10000 0.45 90 21:00 18.01.2022
5852 Clouds 6 1033 84 10000 0.45 90 19:55 18.01.2022
5853 Clouds 6 1033 84 10000 0.89 68 19:36 18.01.2022
5854 Clouds 6 1033 82 10000 0.89 68 18:54 18.01.2022
5855 Clear 7 1033 78 10000 1.79 68 17:58 18.01.2022
5856 Clear 9 1033 72 10000 2.24 45 16:58 18.01.2022
5857 Clouds 9 1033 71 10000 1.34 68 15:47 18.01.2022
5858 Clouds 9 1034 72 10000 2.24 68 15:22 18.01.2022
5859 Clear 8 1036 81 9000 1.79 135 12:49 18.01.2022
5860 Mist 4 1037 98 9000 0.89 45 10:47 18.01.2022
5861 Clouds 2 1037 98 6000 0.89 45 09:21 18.01.2022
5862 Fog 2 1037 98 7000 0.89 68 07:56 18.01.2022
5863 Mist 1 1038 96 5000 0.89 68 02:35 18.01.2022
5864 Mist 2 1038 95 5000 1.54 30 23:47 17.01.2022
5865 Mist 3 1039 93 5000 0.45 45 22:29 17.01.2022
5866 Clear 4 1038 93 6000 0.45 45 21:35 17.01.2022
5867 Clouds 4 1038 93 9000 0.45 45 20:27 17.01.2022
5868 Clouds 6 1038 87 10000 0.45 68 18:31 17.01.2022
5869 Clouds 7 1038 87 10000 0.45 68 17:44 17.01.2022
5870 Clouds 7 1037 86 10000 0.89 270 16:45 17.01.2022
5871 Clouds 7 1037 90 10000 1.79 270 15:23 17.01.2022
5872 Clouds 7 1037 91 10000 0.89 293 14:57 17.01.2022
5873 Clouds 7 1037 93 8000 1.34 293 13:27 17.01.2022
5874 Clouds 7 1038 94 7000 0.89 248 12:56 17.01.2022
5875 Mist 6 1038 96 6000 0.89 293 11:49 17.01.2022
5876 Clouds 5 1037 96 6000 0.89 270 10:25 17.01.2022
5877 Mist 5 1037 97 3400 0.89 293 10:25 17.01.2022
5878 Clouds 5 1037 96 6000 2.06 270 09:35 17.01.2022
5879 Fog 5 1036 96 550 1.03 0 07:43 17.01.2022
5880 Fog 5 1035 96 500 1.03 0 07:18 17.01.2022
5881 Mist 5 1034 96 10000 0.89 270 00:56 17.01.2022
5882 Mist 5 1033 96 10000 1.34 225 22:31 16.01.2022
5883 Mist 4 1032 96 10000 0.89 203 20:38 16.01.2022
5884 Mist 4 1031 95 10000 0.89 203 18:53 16.01.2022
5885 Mist 4 1030 96 10000 0.89 225 17:59 16.01.2022
5886 Mist 4 1030 95 10000 1.34 225 17:25 16.01.2022
5887 Mist 4 1030 94 10000 1.34 203 16:45 16.01.2022
5888 Drizzle 3 1030 96 3100 0.89 203 14:50 16.01.2022
5889 Mist 3 1029 93 10000 0.45 203 14:27 16.01.2022
5890 Mist 3 1030 93 10000 5.14 190 12:51 16.01.2022
5891 Clouds 2 1030 94 8000 1.79 225 11:47 16.01.2022
5892 Mist 1 1029 96 7000 0.45 180 10:55 16.01.2022
5893 Mist 1 1029 96 6000 0.45 158 10:26 16.01.2022
5894 Mist 0 1029 97 7000 0.45 203 09:54 16.01.2022
5895 Fog 0 1029 97 6000 0.45 180 09:22 16.01.2022
5896 Mist 0 1029 97 5000 0.89 225 08:38 16.01.2022
5897 Mist -1 1027 94 5000 1.34 293 03:21 16.01.2022
5898 Mist -1 1026 99 5000 3.09 270 23:50 15.01.2022
5899 Mist 0 1025 95 3300 4.12 260 22:19 15.01.2022
5900 Mist 0 1025 93 3100 4.12 250 21:19 15.01.2022
5901 Mist 1 1025 92 4700 2.57 240 20:40 15.01.2022
5902 Mist 2 1024 91 5000 1.54 350 19:30 15.01.2022
5903 Mist 3 1024 85 5000 0.89 270 18:47 15.01.2022
5904 Mist 5 1024 80 5000 0.45 270 17:30 15.01.2022
5905 Clouds 7 1024 73 9000 1.79 293 16:37 15.01.2022
5906 Clouds 7 1026 80 7000 0.45 45 13:56 15.01.2022
5907 Mist 4 1027 92 5000 0.89 68 12:20 15.01.2022
5908 Mist 1 1027 97 3200 1.03 350 10:43 15.01.2022
5909 Mist 0 1027 96 4800 0.51 60 08:32 15.01.2022
5910 Mist 2 1030 92 5000 1.54 30 00:35 15.01.2022
5911 Clear 2 1032 91 6000 1.54 10 21:52 14.01.2022
5912 Clear 3 1032 86 9000 1.54 40 20:41 14.01.2022
5913 Clear 3 1032 84 10000 1.03 0 20:21 14.01.2022
5914 Clear 4 1033 82 10000 2.06 20 18:49 14.01.2022
5915 Clear 4 1033 82 10000 2.57 50 18:20 14.01.2022
5916 Clear 7 1033 72 10000 0.45 113 16:50 14.01.2022
5917 Clear 7 1033 68 10000 0.89 68 15:48 14.01.2022
5918 Clear 7 1034 70 10000 1.34 68 14:42 14.01.2022
5919 Clear 6 1035 76 10000 0.45 68 13:36 14.01.2022
5920 Clear 5 1036 86 10000 0.89 135 12:29 14.01.2022
5921 Clear 3 1036 93 8000 0.89 68 10:57 14.01.2022
5922 Mist 1 1036 95 5000 0.89 45 09:44 14.01.2022
5923 Mist 0 1036 97 5000 0.89 45 08:44 14.01.2022
5924 Mist 0 1036 94 5000 0.89 68 06:45 14.01.2022
5925 Clear 1 1038 94 6000 1.54 10 01:33 14.01.2022
5926 Clear 1 1039 95 6000 3.09 360 23:19 13.01.2022
5927 Clear 1 1039 95 6000 1.34 68 21:40 13.01.2022
5928 Clear 1 1039 95 6000 0.89 68 21:22 13.01.2022
5929 Clear 2 1039 96 10000 1.79 68 19:40 13.01.2022
5930 Clear 2 1039 95 10000 0.89 68 19:22 13.01.2022
5931 Clear 3 1039 91 10000 1.34 68 17:54 13.01.2022
5932 Clear 4 1039 90 10000 2.57 30 16:21 13.01.2022
5933 Clouds 4 1040 93 10000 1.54 10 15:37 13.01.2022
5934 Clouds 4 1040 95 10000 2.06 60 14:49 13.01.2022
5935 Mist 2 1041 100 1700 2.06 50 12:46 13.01.2022
5936 Mist 2 1041 97 1400 0.89 90 10:25 13.01.2022
5937 Mist 2 1041 98 3600 0.89 68 09:20 13.01.2022
5938 Mist 2 1041 98 2600 1.34 68 08:27 13.01.2022
5939 Mist 2 1041 98 2700 0.89 68 07:24 13.01.2022
5940 Mist 2 1041 98 2900 1.34 68 06:38 13.01.2022
5941 Mist 2 1041 97 1900 1.34 68 05:20 13.01.2022
5942 Fog 3 1041 97 900 1.34 68 02:33 13.01.2022
5943 Mist 3 1041 97 1200 1.34 68 00:56 13.01.2022
5944 Mist 4 1041 94 4600 1.79 68 23:50 12.01.2022
5945 Mist 4 1041 94 4600 1.79 68 23:29 12.01.2022
5946 Clouds 4 1041 90 7000 1.34 68 21:58 12.01.2022
5947 Clouds 4 1040 89 8000 1.34 68 21:23 12.01.2022
5948 Clouds 4 1040 88 8000 2.24 68 20:57 12.01.2022
5949 Clouds 4 1040 87 10000 1.34 68 19:57 12.01.2022
5950 Clouds 4 1040 86 10000 1.34 68 18:43 12.01.2022
5951 Clouds 4 1039 85 10000 0.45 68 17:51 12.01.2022
5952 Clouds 5 1039 86 10000 1.34 45 16:39 12.01.2022
5953 Mist 4 1039 91 4900 0.45 68 14:49 12.01.2022
5954 Mist 3 1040 95 9000 0.89 68 13:37 12.01.2022
5955 Mist 2 1040 96 10000 0.45 90 12:35 12.01.2022
5956 Mist 0 1038 98 1200 0.45 135 08:55 12.01.2022
5957 Mist 0 1038 98 1100 0.45 90 07:55 12.01.2022
5958 Fog 0 1038 98 900 0.45 0 07:32 12.01.2022
5959 Fog 0 1036 97 800 0.45 135 01:34 12.01.2022
5960 Mist 0 1036 97 2100 0.89 90 23:26 11.01.2022
5961 Fog 0 1035 98 750 0.89 45 22:25 11.01.2022
5962 Fog 1 1035 96 1200 0.45 90 21:28 11.01.2022
5963 Mist 1 1034 96 3500 0.45 135 20:36 11.01.2022
5964 Mist 1 1034 95 6000 0.89 135 19:23 11.01.2022
5965 Mist 2 1033 91 8000 3.09 70 17:53 11.01.2022
5966 Clear 4 1033 87 10000 0.45 135 16:39 11.01.2022
5967 Clouds 4 1033 85 10000 1.54 140 16:18 11.01.2022
5968 Clouds 3 1032 91 10000 0.51 0 14:50 11.01.2022
5969 Mist 3 1033 90 10000 1.03 0 14:32 11.01.2022
5970 Mist 2 1033 95 9000 3.09 140 13:48 11.01.2022
5971 Mist 2 1033 95 9000 3.09 140 13:25 11.01.2022
5972 Fog 2 1033 95 8000 0.45 135 12:25 11.01.2022
5973 Fog 1 1032 96 7000 0.45 90 10:32 11.01.2022
5974 Mist 1 1031 95 9000 0.45 158 07:55 11.01.2022
5975 Mist 2 1030 95 9000 0.89 135 04:28 11.01.2022
5976 Clouds 3 1028 95 10000 0.45 158 00:27 11.01.2022
5977 Clouds 3 1028 95 7000 0.45 135 23:39 10.01.2022
5978 Mist 3 1028 95 10000 0.45 135 22:39 10.01.2022
5979 Mist 3 1028 95 10000 0.45 135 22:18 10.01.2022
5980 Clouds 3 1027 95 10000 0.89 135 21:36 10.01.2022
5981 Clouds 3 1027 95 10000 0.89 135 21:18 10.01.2022
5982 Clouds 3 1027 95 10000 0.45 113 20:54 10.01.2022
5983 Mist 3 1026 95 10000 3.09 110 20:19 10.01.2022
5984 Mist 3 1026 96 10000 0.45 113 19:39 10.01.2022
5985 Mist 3 1026 97 10000 0.45 90 19:19 10.01.2022
5986 Mist 3 1025 97 10000 0.89 135 18:46 10.01.2022
5987 Mist 4 1024 96 10000 0.89 135 16:49 10.01.2022
5988 Fog 4 1023 97 10000 0.45 90 16:27 10.01.2022
5989 Mist 4 1022 98 3800 1.54 90 14:49 10.01.2022
5990 Mist 4 1021 98 2800 2.06 100 13:35 10.01.2022
5991 Mist 4 1021 98 3400 0.45 158 11:57 10.01.2022
5992 Fog 3 1020 98 6000 0.45 90 10:50 10.01.2022
5993 Mist 3 1018 98 3900 0.45 158 09:40 10.01.2022
5994 Mist 3 1014 96 3200 0.45 68 05:52 10.01.2022
5995 Mist 3 1013 95 2700 0.45 68 04:48 10.01.2022
5996 Clear 4 1010 96 6000 2.06 60 01:22 10.01.2022
5997 Clouds 4 1010 95 7000 0.45 203 00:22 10.01.2022
5998 Clouds 4 1009 97 10000 1.54 250 22:48 09.01.2022
5999 Clouds 4 1009 96 10000 1.54 220 22:21 09.01.2022
6000 Clouds 4 1008 95 10000 1.03 0 21:42 09.01.2022
6001 Clouds 4 1008 95 10000 1.03 0 21:22 09.01.2022
6002 Clouds 4 1008 95 10000 0.51 0 20:49 09.01.2022
6003 Clouds 4 1008 95 10000 0.51 0 20:29 09.01.2022
6004 Clouds 5 1007 94 10000 2.06 230 19:44 09.01.2022
6005 Clear 5 1007 94 10000 0.45 270 19:22 09.01.2022
6006 Clear 5 1007 93 10000 0.89 270 18:49 09.01.2022
6007 Clear 5 1007 92 10000 0.89 248 18:30 09.01.2022
6008 Clear 5 1007 93 10000 1.34 270 17:30 09.01.2022
6009 Clouds 5 1006 93 10000 0.89 270 16:51 09.01.2022
6010 Clear 5 1006 92 10000 0.89 225 15:56 09.01.2022
6011 Clear 5 1006 92 10000 0.89 270 15:34 09.01.2022
6012 Clouds 5 1006 89 10000 2.57 230 14:40 09.01.2022
6013 Clouds 5 1006 91 10000 3.09 220 13:50 09.01.2022
6014 Clouds 5 1006 93 9000 1.03 0 12:44 09.01.2022
6015 Mist 5 1006 93 3300 1.79 215 11:48 09.01.2022
6016 Clouds 5 1005 93 10000 0.89 45 10:49 09.01.2022
6017 Clouds 5 1005 93 10000 1.79 225 09:42 09.01.2022
6018 Rain 4 1005 93 10000 2.24 270 08:31 09.01.2022
6019 Clouds 5 1003 88 10000 2.68 270 03:55 09.01.2022
6020 Clouds 6 1000 87 10000 3.13 270 01:23 09.01.2022
6021 Clouds 7 997 88 10000 3.58 270 23:39 08.01.2022
6022 Clouds 7 996 89 10000 4.92 270 22:59 08.01.2022
6023 Clouds 8 995 88 10000 3.13 270 22:19 08.01.2022
6024 Clouds 8 995 88 10000 2.68 248 21:25 08.01.2022
6025 Clouds 8 996 91 10000 2.24 225 20:41 08.01.2022
6026 Clouds 8 996 92 10000 2.68 225 20:19 08.01.2022
6027 Rain 8 999 94 10000 2.68 225 18:34 08.01.2022
6028 Clouds 8 1001 93 10000 1.34 203 17:22 08.01.2022
6029 Clouds 8 1004 94 10000 1.79 203 15:52 08.01.2022
6030 Rain 8 1007 94 10000 2.24 225 14:44 08.01.2022
6031 Clouds 8 1011 95 8000 1.34 203 13:25 08.01.2022
6032 Clouds 7 1013 96 10000 1.79 225 11:28 08.01.2022
6033 Clouds 6 1014 94 10000 0.45 203 10:28 08.01.2022
6034 Clouds 5 1014 94 10000 1.34 203 09:48 08.01.2022
6035 Clouds 3 1015 95 10000 0.89 221 08:22 08.01.2022
6036 Clear 3 1016 92 10000 2.57 250 03:31 08.01.2022
6037 Clouds 5 1014 85 10000 2.68 270 00:42 08.01.2022
6038 Clouds 7 1011 92 10000 3.58 270 22:49 07.01.2022
6039 Clouds 6 1011 91 10000 2.68 225 21:18 07.01.2022
6040 Clouds 6 1012 91 10000 3.13 225 20:20 07.01.2022
6041 Rain 7 1013 84 10000 2.68 203 19:25 07.01.2022
6042 Clear 7 1013 82 10000 1.79 203 18:45 07.01.2022
6043 Clear 7 1015 78 10000 2.24 225 17:28 07.01.2022
6044 Clouds 8 1015 74 10000 2.24 270 16:41 07.01.2022
6045 Clouds 8 1015 79 10000 3.13 270 14:37 07.01.2022
6046 Clouds 7 1016 85 10000 2.24 270 13:41 07.01.2022
6047 Clouds 7 1016 88 10000 2.68 225 12:50 07.01.2022
6048 Rain 5 1016 94 10000 2.24 225 09:48 07.01.2022
6049 Clouds 3 1017 93 10000 2.68 225 02:58 07.01.2022
6050 Clouds 3 1017 92 10000 1.34 203 02:19 07.01.2022
6051 Rain 3 1018 87 10000 1.34 180 01:41 07.01.2022
6052 Rain 3 1018 86 10000 2.24 225 01:20 07.01.2022
6053 Clear 4 1019 82 10000 0.89 225 00:28 07.01.2022
6054 Clear 4 1020 84 10000 0.89 203 21:39 06.01.2022
6055 Clear 4 1020 85 10000 1.34 225 20:36 06.01.2022
6056 Clouds 4 1020 84 10000 1.34 180 19:54 06.01.2022
6057 Clear 4 1021 82 10000 0.89 203 19:28 06.01.2022
6058 Clouds 5 1021 69 10000 1.79 225 17:51 06.01.2022
6059 Clouds 5 1021 68 10000 1.79 225 17:19 06.01.2022
6060 Clouds 6 1020 63 10000 1.34 227 16:21 06.01.2022
6061 Clouds 6 1020 63 10000 1.79 248 15:40 06.01.2022
6062 Clouds 6 1020 67 10000 1.34 270 15:19 06.01.2022
6063 Clear 6 1021 76 10000 0.89 270 14:19 06.01.2022
6064 Clear 5 1022 85 10000 0.89 293 12:59 06.01.2022
6065 Clouds 3 1022 87 10000 1.34 293 11:58 06.01.2022
6066 Clear 2 1022 93 10000 1.54 0 11:29 06.01.2022
6067 Clear 0 1021 93 10000 1.54 240 09:33 06.01.2022
6068 Clear 1 1019 90 10000 0.51 0 01:57 06.01.2022
6069 Clear 2 1019 87 10000 1.34 270 23:56 05.01.2022
6070 Clear 2 1019 87 10000 1.03 0 23:21 05.01.2022
6071 Clear 2 1018 87 10000 2.06 280 22:42 05.01.2022
6072 Clear 2 1018 88 10000 2.06 270 22:18 05.01.2022
6073 Clouds 3 1018 83 10000 0.89 270 21:23 05.01.2022
6074 Clouds 2 1018 86 10000 2.06 230 20:30 05.01.2022
6075 Clear 3 1017 82 10000 1.34 270 19:29 05.01.2022
6076 Clear 3 1017 83 10000 2.57 290 19:29 05.01.2022
6077 Clear 4 1016 81 10000 2.06 280 18:21 05.01.2022
6078 Clouds 6 1015 74 10000 2.24 270 16:56 05.01.2022
6079 Clouds 6 1015 72 10000 3.13 270 16:18 05.01.2022
6080 Clouds 7 1015 73 10000 2.24 270 14:56 05.01.2022
6081 Clear 6 1015 75 10000 2.24 270 13:34 05.01.2022
6082 Clouds 5 1014 82 10000 1.79 270 12:20 05.01.2022
6083 Clouds 1 1012 91 10000 2.68 45 08:35 05.01.2022
6084 Clouds 1 1011 87 10000 1.34 46 06:46 05.01.2022
6085 Clear 3 1008 84 10000 2.24 270 01:47 05.01.2022
6086 Rain 4 1006 85 10000 1.79 293 23:44 04.01.2022
6087 Clouds 4 1006 86 10000 2.24 270 23:25 04.01.2022
6088 Clouds 6 1004 88 10000 3.58 270 21:50 04.01.2022
6089 Clouds 8 1002 85 10000 2.68 270 20:45 04.01.2022
6090 Clouds 9 1001 81 10000 2.68 248 18:41 04.01.2022
6091 Clouds 9 1001 88 10000 1.79 225 17:33 04.01.2022
6092 Clouds 9 1000 88 10000 2.24 225 16:39 04.01.2022
6093 Clouds 9 1001 88 10000 2.24 225 16:20 04.01.2022
6094 Clouds 9 1000 92 10000 1.79 225 14:42 04.01.2022
6095 Clouds 9 1001 93 10000 1.79 248 13:57 04.01.2022
6096 Clouds 9 1001 95 10000 1.79 225 12:36 04.01.2022
6097 Clouds 8 1001 95 10000 1.34 270 10:28 04.01.2022
6098 Clouds 8 1000 95 10000 1.34 270 08:59 04.01.2022
6099 Rain 8 999 97 6000 0.89 270 06:46 04.01.2022
6100 Rain 11 1004 95 6000 0.89 225 00:50 04.01.2022
6101 Drizzle 11 1004 94 10000 1.34 225 00:31 04.01.2022
6102 Drizzle 12 1006 93 10000 1.79 225 22:30 03.01.2022
6103 Drizzle 12 1007 93 10000 1.79 225 21:41 03.01.2022
6104 Drizzle 12 1008 93 10000 2.68 225 20:51 03.01.2022
6105 Mist 12 1009 96 4200 2.24 225 19:46 03.01.2022
6106 Rain 11 1010 95 7000 1.79 225 18:33 03.01.2022
6107 Rain 11 1011 94 10000 0.45 203 17:40 03.01.2022
6108 Rain 12 1012 92 10000 1.34 203 16:57 03.01.2022
6109 Clouds 13 1014 82 10000 2.24 225 14:54 03.01.2022
6110 Clouds 12 1015 84 10000 1.79 225 13:53 03.01.2022
6111 Clouds 12 1016 86 10000 1.34 225 12:35 03.01.2022
6112 Clouds 11 1017 87 10000 2.68 225 11:33 03.01.2022
6113 Clouds 11 1017 88 10000 1.34 203 09:49 03.01.2022
6114 Clouds 11 1018 87 10000 1.79 225 08:46 03.01.2022
6115 Clouds 11 1018 87 10000 1.34 203 06:48 03.01.2022
6116 Clouds 12 1019 79 10000 2.24 225 23:47 02.01.2022
6117 Clouds 12 1019 79 10000 2.68 225 23:18 02.01.2022
6118 Clouds 12 1019 79 10000 2.24 248 22:43 02.01.2022
6119 Clouds 13 1018 80 10000 2.24 225 21:38 02.01.2022
6120 Clouds 13 1018 79 10000 2.68 225 20:31 02.01.2022
6121 Clouds 13 1017 80 10000 2.68 225 19:52 02.01.2022
6122 Clouds 13 1017 80 10000 2.68 225 19:25 02.01.2022
6123 Clouds 13 1017 83 10000 2.24 225 18:33 02.01.2022
6124 Clouds 13 1018 82 10000 2.24 225 17:43 02.01.2022
6125 Clouds 13 1017 82 10000 1.79 225 17:21 02.01.2022
6126 Clouds 14 1017 81 10000 2.24 225 16:33 02.01.2022
6127 Clouds 14 1018 81 10000 2.68 225 15:51 02.01.2022
6128 Clouds 13 1018 83 10000 1.34 225 13:58 02.01.2022
6129 Clouds 13 1018 81 10000 2.24 225 12:34 02.01.2022
6130 Clouds 13 1018 80 10000 2.68 225 11:56 02.01.2022
6131 Clouds 11 1018 85 10000 2.24 225 10:59 02.01.2022
6132 Clear 11 1018 84 10000 2.68 225 10:26 02.01.2022
6133 Clear 11 1017 78 10000 1.34 225 08:27 02.01.2022
6134 Clear 10 1019 87 10000 0.45 203 03:22 02.01.2022
6135 Clear 10 1021 87 10000 0.45 225 23:56 01.01.2022
6136 Clear 9 1021 90 10000 2.06 120 23:36 01.01.2022
6137 Clear 10 1021 88 10000 0.89 225 22:44 01.01.2022
6138 Clear 10 1021 86 10000 1.54 120 22:18 01.01.2022
6139 Clear 10 1022 88 10000 0.45 203 21:43 01.01.2022
6140 Clear 10 1022 87 10000 0.45 180 20:52 01.01.2022
6141 Clear 11 1022 87 10000 0.89 203 19:55 01.01.2022
6142 Clear 11 1022 87 10000 0.89 203 18:58 01.01.2022
6143 Clear 11 1022 84 10000 2.06 170 17:57 01.01.2022
6144 Clear 13 1022 78 10000 0.45 180 16:35 01.01.2022
6145 Clear 14 1022 76 10000 0.45 158 15:57 01.01.2022
6146 Clear 14 1022 75 10000 0.89 135 15:22 01.01.2022
6147 Clear 13 1023 83 10000 0.45 158 13:42 01.01.2022
6148 Clear 12 1024 90 10000 0.45 158 12:49 01.01.2022
6149 Clear 10 1024 93 10000 0.45 203 11:51 01.01.2022
6150 Clear 9 1024 95 10000 0.45 203 11:22 01.01.2022
6151 Fog 8 1025 98 10000 0.45 158 10:26 01.01.2022
6152 Mist 7 1025 98 3600 0.89 113 09:41 01.01.2022
6153 Fog 8 1025 97 6000 2.57 120 08:25 01.01.2022
6154 Mist 8 1025 98 5000 0.45 113 07:44 01.01.2022
6155 Mist 9 1025 97 1500 3.09 140 06:47 01.01.2022
6156 Mist 9 1025 97 5000 0.45 113 05:26 01.01.2022
6157 Mist 9 1025 97 4100 2.06 120 04:37 01.01.2022
6158 Mist 10 1026 97 4400 2.57 110 01:28 01.01.2022
6159 Clouds 11 1026 96 10000 3.6 230 23:36 31.12.2021
6160 Mist 11 1026 95 5000 1.34 225 21:53 31.12.2021
6161 Clouds 12 1026 93 10000 1.34 225 20:38 31.12.2021
6162 Clouds 12 1025 93 10000 1.34 225 19:30 31.12.2021
6163 Clouds 13 1025 90 10000 2.06 270 18:37 31.12.2021
6164 Clouds 14 1024 86 10000 0.45 158 17:40 31.12.2021
6165 Clouds 14 1024 85 10000 2.57 220 17:19 31.12.2021
6166 Clouds 14 1023 85 10000 3.09 220 16:38 31.12.2021
6167 Clouds 15 1023 80 10000 1.79 248 15:57 31.12.2021
6168 Clear 15 1022 78 10000 0.89 225 15:29 31.12.2021
6169 Clear 15 1022 78 10000 4.12 240 14:57 31.12.2021
6170 Clear 15 1022 79 10000 0.89 225 14:30 31.12.2021
6171 Clear 14 1022 84 10000 0.89 225 13:37 31.12.2021
6172 Clear 13 1023 86 10000 0.89 203 12:49 31.12.2021
6173 Clear 11 1022 92 10000 0.89 225 11:52 31.12.2021
6174 Clear 10 1022 93 10000 0.45 203 11:33 31.12.2021
6175 Clear 9 1021 95 10000 0.45 158 10:38 31.12.2021
6176 Clear 9 1021 95 10000 0.45 203 10:20 31.12.2021
6177 Clear 8 1021 96 10000 3.09 140 09:33 31.12.2021
6178 Clear 8 1021 95 10000 0.45 225 08:47 31.12.2021
6179 Fog 8 1020 95 10000 0.45 203 07:32 31.12.2021
6180 Clouds 11 1022 95 10000 2.06 110 23:36 30.12.2021
6181 Clouds 12 1022 96 10000 0.45 203 22:50 30.12.2021
6182 Clouds 12 1022 94 10000 0.45 203 22:26 30.12.2021
6183 Clouds 12 1022 94 10000 0.45 203 21:37 30.12.2021
6184 Clouds 12 1022 94 10000 0.89 203 21:37 30.12.2021
6185 Clouds 12 1022 92 10000 0.45 203 20:49 30.12.2021
6186 Clouds 13 1022 93 10000 0.45 225 20:28 30.12.2021
6187 Clouds 13 1022 91 10000 0.45 203 19:48 30.12.2021
6188 Clouds 14 1022 91 10000 0.89 203 19:18 30.12.2021
6189 Clouds 14 1022 90 10000 1.34 225 18:21 30.12.2021
6190 Clouds 14 1021 87 10000 0.89 203 16:37 30.12.2021
6191 Clouds 15 1021 86 10000 1.79 225 15:53 30.12.2021
6192 Clouds 15 1021 86 10000 1.79 225 14:51 30.12.2021
6193 Clouds 15 1021 87 10000 2.24 225 14:31 30.12.2021
6194 Clouds 14 1021 89 10000 2.24 225 13:24 30.12.2021
6195 Clouds 14 1021 91 10000 1.79 225 11:45 30.12.2021
6196 Clouds 13 1021 92 10000 2.24 225 10:27 30.12.2021
6197 Clouds 13 1020 93 10000 2.68 225 09:27 30.12.2021
6198 Clouds 14 1018 91 10000 1.79 203 06:56 30.12.2021
6199 Clouds 14 1018 91 10000 1.79 225 04:56 30.12.2021
6200 Clouds 14 1018 95 10000 1.79 225 03:40 30.12.2021
6201 Clouds 14 1017 94 10000 2.24 225 02:19 30.12.2021
6202 Clouds 14 1016 92 10000 1.79 225 23:37 29.12.2021
6203 Clouds 14 1015 93 10000 2.68 225 22:35 29.12.2021
6204 Clouds 14 1015 94 10000 2.68 248 21:55 29.12.2021
6205 Clouds 14 1014 95 10000 2.24 225 20:57 29.12.2021
6206 Clouds 14 1014 94 10000 1.79 225 20:29 29.12.2021
6207 Clouds 15 1013 94 10000 2.24 225 19:31 29.12.2021
6208 Clouds 15 1012 96 10000 1.34 225 18:36 29.12.2021
6209 Drizzle 15 1011 96 10000 2.24 248 17:49 29.12.2021
6210 Drizzle 15 1011 96 10000 2.24 225 17:26 29.12.2021
6211 Drizzle 15 1010 96 8000 2.24 225 16:21 29.12.2021
6212 Clouds 15 1010 94 10000 2.24 225 15:21 29.12.2021
6213 Mist 14 1009 97 5000 1.34 225 12:57 29.12.2021
6214 Clouds 13 1009 97 7000 1.34 225 12:35 29.12.2021
6215 Mist 12 1008 97 7000 0.45 270 11:23 29.12.2021
6216 Clouds 10 1008 96 10000 0.45 203 09:35 29.12.2021
6217 Rain 10 1008 96 4800 0.45 158 07:47 29.12.2021
6218 Drizzle 10 1008 94 10000 0.45 203 06:36 29.12.2021
6219 Drizzle 10 1009 93 10000 0.89 203 05:57 29.12.2021
6220 Clouds 10 1009 91 10000 0.45 215 05:27 29.12.2021
6221 Clouds 10 1008 85 10000 3.13 199 01:27 29.12.2021
6222 Clouds 10 1007 80 10000 1.79 248 23:59 28.12.2021
6223 Clouds 11 1006 77 10000 2.24 225 22:57 28.12.2021
6224 Clouds 11 1006 77 10000 2.68 270 22:26 28.12.2021
6225 Clouds 11 1006 76 10000 2.68 248 21:56 28.12.2021
6226 Clouds 11 1005 74 10000 2.24 270 21:35 28.12.2021
6227 Clouds 11 1004 73 10000 1.79 225 20:32 28.12.2021
6228 Clouds 11 1003 72 10000 3.58 248 18:56 28.12.2021
6229 Clouds 11 1002 72 10000 3.58 248 18:28 28.12.2021
6230 Clouds 11 1001 73 10000 4.02 248 17:48 28.12.2021
6231 Clouds 11 1000 78 10000 3.58 225 16:25 28.12.2021
6232 Clouds 11 1000 78 10000 3.58 270 15:41 28.12.2021
6233 Clouds 12 1000 73 10000 4.02 270 15:19 28.12.2021
6234 Clouds 12 999 75 10000 3.58 225 14:45 28.12.2021
6235 Clouds 12 999 75 10000 3.58 270 14:20 28.12.2021
6236 Clouds 12 1000 73 10000 2.68 270 13:42 28.12.2021
6237 Clouds 12 1000 72 10000 4.47 270 13:24 28.12.2021
6238 Clouds 12 999 77 10000 3.58 248 12:39 28.12.2021
6239 Clouds 12 999 78 10000 2.68 248 11:27 28.12.2021
6240 Clouds 12 996 86 10000 2.24 225 07:40 28.12.2021
6241 Clouds 12 995 89 10000 1.79 225 06:40 28.12.2021
6242 Rain 11 994 92 8000 0.89 203 23:43 27.12.2021
6243 Drizzle 11 995 91 10000 1.34 135 22:58 27.12.2021
6244 Clouds 11 996 92 10000 1.34 203 21:33 27.12.2021
6245 Clouds 11 997 92 10000 1.34 158 20:46 27.12.2021
6246 Clouds 11 997 91 10000 0.89 158 19:58 27.12.2021
6247 Clouds 11 998 91 10000 0.45 180 19:39 27.12.2021
6248 Clouds 11 998 89 10000 0.89 203 18:23 27.12.2021
6249 Clouds 11 997 86 10000 1.34 203 17:46 27.12.2021
6250 Clouds 12 997 84 10000 2.68 225 16:40 27.12.2021
6251 Clouds 13 997 87 10000 1.79 225 15:52 27.12.2021
6252 Clouds 12 996 93 10000 2.24 225 14:32 27.12.2021
6253 Clouds 10 996 96 10000 0.89 225 13:39 27.12.2021
6254 Mist 9 996 96 10000 0.89 135 12:36 27.12.2021
6255 Drizzle 9 996 96 10000 0.45 158 10:31 27.12.2021
6256 Clouds 9 997 96 10000 0.89 135 09:47 27.12.2021
6257 Clouds 10 998 96 10000 0.89 203 07:38 27.12.2021
6258 Clouds 10 999 96 10000 0.89 203 07:20 27.12.2021
6259 Clouds 10 1000 97 6000 0.45 225 02:19 27.12.2021
6260 Clouds 10 1001 96 10000 0.45 158 23:58 26.12.2021
6261 Clouds 10 1002 96 10000 0.45 203 23:36 26.12.2021
6262 Clouds 10 1002 96 10000 0.89 203 22:34 26.12.2021
6263 Clouds 9 1002 94 10000 0.45 203 20:59 26.12.2021
6264 Rain 10 1003 93 10000 0.45 225 19:47 26.12.2021
6265 Clouds 9 1003 92 10000 1.79 225 18:24 26.12.2021
6266 Clouds 10 1003 90 10000 1.79 225 17:24 26.12.2021
6267 Clouds 11 1002 96 10000 0.89 203 14:29 26.12.2021
6268 Clouds 11 1003 98 6000 1.34 203 13:41 26.12.2021
6269 Rain 10 1003 98 5000 0.89 225 13:20 26.12.2021
6270 Rain 10 1003 98 10000 0.45 203 12:33 26.12.2021
6271 Rain 10 1003 98 10000 0.45 203 12:33 26.12.2021
6272 Mist 9 1003 98 10000 1.54 160 10:42 26.12.2021
6273 Fog 9 1003 98 10000 2.06 170 09:28 26.12.2021
6274 Fog 9 1002 98 7000 3.09 160 08:44 26.12.2021
6275 Mist 9 1003 97 5000 2.06 150 07:59 26.12.2021
6276 Mist 9 1004 98 6000 2.57 140 01:30 26.12.2021
6277 Mist 9 1004 98 6000 0.45 158 23:58 25.12.2021
6278 Fog 9 1004 97 7000 2.06 160 23:27 25.12.2021
6279 Mist 9 1004 97 6000 2.06 160 22:28 25.12.2021
6280 Mist 9 1004 97 7000 0.45 158 21:18 25.12.2021
6281 Mist 9 1004 98 3900 2.06 60 19:28 25.12.2021
6282 Mist 9 1004 98 4100 1.54 40 18:57 25.12.2021
6283 Mist 10 1004 97 5000 1.54 40 18:21 25.12.2021
6284 Mist 10 1004 96 3100 0.89 45 16:42 25.12.2021
6285 Clouds 10 1004 95 10000 1.54 30 15:26 25.12.2021
6286 Clouds 10 1004 95 10000 1.03 0 13:43 25.12.2021
6287 Mist 10 1004 97 10000 0.45 270 12:18 25.12.2021
6288 Mist 9 1004 98 3500 0.89 225 10:32 25.12.2021
6289 Mist 9 1004 98 2500 1.54 120 09:48 25.12.2021
6290 Clouds 9 1003 97 10000 0.45 203 05:39 25.12.2021
6291 Rain 9 1003 98 7000 0.45 225 01:34 25.12.2021
6292 Rain 9 1004 96 7000 2.06 190 00:18 25.12.2021
6293 Clouds 9 1004 97 6000 0.45 203 21:46 24.12.2021
6294 Rain 9 1004 97 7000 0.45 248 19:26 24.12.2021
6295 Mist 9 1005 97 7000 0.45 180 18:41 24.12.2021
6296 Mist 10 1005 96 10000 0.45 203 16:43 24.12.2021
6297 Fog 10 1005 96 1000 0.45 203 15:50 24.12.2021
6298 Mist 10 1005 96 4700 0.45 203 15:20 24.12.2021
6299 Mist 10 1006 96 3600 0.89 225 14:33 24.12.2021
6300 Mist 10 1006 96 1300 0.89 203 13:54 24.12.2021
6301 Fog 10 1006 96 10000 0.89 225 13:32 24.12.2021
6302 Fog 10 1007 97 10000 0.45 203 12:40 24.12.2021
6303 Mist 9 1007 96 10000 0.89 203 11:43 24.12.2021
6304 Mist 9 1008 96 10000 0.45 225 11:24 24.12.2021
6305 Clouds 9 1008 97 10000 0.89 225 10:35 24.12.2021
6306 Clouds 8 1008 96 10000 0.45 224 08:48 24.12.2021
6307 Rain 8 1008 94 10000 2.06 190 07:58 24.12.2021
6308 Rain 8 1008 93 10000 2.06 160 07:31 24.12.2021
6309 Clouds 8 1011 90 10000 0.89 225 00:47 24.12.2021
6310 Clouds 8 1011 91 10000 1.03 0 23:50 23.12.2021
6311 Clouds 8 1011 92 10000 0.89 223 22:53 23.12.2021
6312 Clouds 8 1011 89 10000 0.45 270 22:24 23.12.2021
6313 Clear 8 1011 89 10000 0.89 203 21:47 23.12.2021
6314 Clear 8 1011 88 10000 1.34 248 20:31 23.12.2021
6315 Clear 8 1012 86 10000 0.45 158 19:30 23.12.2021
6316 Clear 8 1012 85 10000 0.45 203 18:28 23.12.2021
6317 Clear 8 1012 84 10000 0.45 225 17:46 23.12.2021
6318 Clear 9 1012 82 10000 0.89 203 16:27 23.12.2021
6319 Clear 9 1011 80 10000 0.45 203 15:54 23.12.2021
6320 Clear 9 1011 80 10000 0.89 225 15:30 23.12.2021
6321 Clouds 9 1012 82 10000 1.79 225 14:42 23.12.2021
6322 Clouds 8 1012 82 10000 1.34 203 14:19 23.12.2021
6323 Clouds 5 1013 87 10000 0.45 225 12:39 23.12.2021
6324 Clouds 2 1013 88 9000 0.45 203 10:36 23.12.2021
6325 Clouds 1 1014 90 8000 0.45 203 09:34 23.12.2021
6326 Clouds 1 1014 90 8000 0.45 180 08:58 23.12.2021
6327 Mist -1 1014 95 7000 1.54 130 06:23 23.12.2021
6328 Mist -2 1016 95 6000 2.57 130 03:28 23.12.2021
6329 Clouds -1 1018 88 7000 0.89 135 22:55 22.12.2021
6330 Clouds -1 1018 88 8000 0.89 135 22:23 22.12.2021
6331 Clouds -1 1018 88 8000 0.45 158 21:53 22.12.2021
6332 Clouds -1 1018 89 8000 0.89 113 21:27 22.12.2021
6333 Clouds -1 1019 89 8000 0.45 135 20:41 22.12.2021
6334 Clouds 0 1019 87 9000 0.89 135 19:59 22.12.2021
6335 Clouds 0 1020 88 8000 0.89 203 19:19 22.12.2021
6336 Clouds 0 1020 85 7000 1.34 113 17:39 22.12.2021
6337 Clouds 0 1020 84 8000 4.63 110 16:36 22.12.2021
6338 Mist 0 1020 86 8000 3.09 120 15:36 22.12.2021
6339 Mist 0 1021 86 8000 3.6 120 13:23 22.12.2021
6340 Mist -1 1022 90 7000 1.79 90 12:31 22.12.2021
6341 Mist -1 1023 90 7000 2.24 113 09:53 22.12.2021
6342 Mist -2 1023 92 5000 1.79 135 09:33 22.12.2021
6343 Mist -1 1023 92 8000 1.34 90 07:22 22.12.2021
6344 Mist -1 1023 93 6000 1.34 113 05:41 22.12.2021
6345 Mist -1 1023 93 6000 1.34 90 05:22 22.12.2021
6346 Mist -1 1023 93 5000 0.89 158 04:45 22.12.2021
6347 Mist -1 1023 93 5000 1.34 90 04:22 22.12.2021
6348 Mist -2 1023 94 4500 0.45 90 03:32 22.12.2021
6349 Mist -1 1023 93 10000 1.54 70 00:29 22.12.2021
6350 Mist -1 1024 91 10000 0.89 68 22:52 21.12.2021
6351 Clear -1 1024 91 10000 1.54 10 22:27 21.12.2021
6352 Clear 0 1024 88 10000 0.45 90 21:43 21.12.2021
6353 Clear 0 1024 87 10000 0.89 113 20:54 21.12.2021
6354 Clear 0 1023 88 10000 0.89 68 20:20 21.12.2021
6355 Clear 0 1023 87 10000 0.89 68 19:41 21.12.2021
6356 Clear 0 1023 85 10000 1.34 68 18:43 21.12.2021
6357 Clear 1 1023 83 10000 0.45 68 18:21 21.12.2021
6358 Clear 2 1023 82 10000 1.34 68 17:41 21.12.2021
6359 Clear 4 1022 76 10000 0.89 113 15:55 21.12.2021
6360 Clear 4 1022 75 10000 2.24 68 15:20 21.12.2021
6361 Clear 4 1023 78 10000 1.34 68 13:50 21.12.2021
6362 Clear 3 1023 77 10000 1.34 68 13:30 21.12.2021
6363 Clear 2 1024 85 10000 0.89 113 11:36 21.12.2021
6364 Clear 0 1024 88 10000 1.79 45 10:21 21.12.2021
6365 Clear -1 1023 90 10000 0.89 45 09:23 21.12.2021
6366 Clear 0 1023 89 10000 1.34 68 07:58 21.12.2021
6367 Clear 0 1023 86 10000 1.34 45 07:27 21.12.2021
6368 Clear 1 1023 85 10000 0.89 68 05:31 21.12.2021
6369 Clear 2 1024 80 10000 0.89 68 02:40 21.12.2021
6370 Clouds 4 1025 73 10000 0.89 68 23:58 20.12.2021
6371 Clouds 5 1025 72 10000 0.45 45 23:27 20.12.2021
6372 Clouds 5 1025 72 10000 0.89 68 22:28 20.12.2021
6373 Clouds 5 1025 72 10000 0.89 68 22:28 20.12.2021
6374 Clouds 5 1025 72 10000 0.89 68 21:47 20.12.2021
6375 Clouds 5 1025 72 10000 0.89 113 21:23 20.12.2021
6376 Clouds 5 1025 72 10000 0.89 90 20:44 20.12.2021
6377 Clouds 5 1025 73 10000 1.34 68 19:53 20.12.2021
6378 Clouds 5 1025 73 10000 1.34 68 19:53 20.12.2021
6379 Clouds 5 1025 73 10000 1.79 68 19:31 20.12.2021
6380 Clouds 5 1025 75 10000 0.89 68 18:54 20.12.2021
6381 Clouds 5 1025 76 10000 1.34 90 17:53 20.12.2021
6382 Clouds 5 1025 77 10000 2.24 68 17:25 20.12.2021
6383 Clouds 6 1025 76 10000 0.89 68 16:40 20.12.2021
6384 Clouds 6 1025 77 10000 1.34 90 15:51 20.12.2021
6385 Clouds 5 1026 80 10000 0.89 90 14:51 20.12.2021
6386 Clouds 5 1026 83 10000 1.34 90 13:18 20.12.2021
6387 Clouds 5 1027 85 10000 2.68 45 11:19 20.12.2021
6388 Clouds 5 1027 88 10000 2.68 45 09:48 20.12.2021
6389 Clouds 5 1026 89 10000 1.34 68 09:29 20.12.2021
6390 Clouds 5 1026 89 10000 2.24 68 08:42 20.12.2021
6391 Clouds 5 1026 89 10000 0.89 68 07:50 20.12.2021
6392 Clouds 5 1026 89 10000 1.34 68 07:30 20.12.2021
6393 Clouds 5 1026 90 10000 1.79 68 04:24 20.12.2021
6394 Clouds 5 1027 93 10000 1.79 45 23:58 19.12.2021
6395 Clouds 5 1028 95 10000 2.68 68 22:45 19.12.2021
6396 Mist 5 1028 95 10000 2.24 45 21:50 19.12.2021
6397 Mist 5 1028 95 9000 3.13 68 21:30 19.12.2021
6398 Mist 5 1028 96 7000 1.34 68 20:32 19.12.2021
6399 Mist 5 1028 96 7000 2.68 68 19:51 19.12.2021
6400 Fog 5 1029 96 6000 1.79 45 19:22 19.12.2021
6401 Mist 5 1029 96 6000 1.34 68 18:29 19.12.2021
6402 Mist 5 1029 97 5000 2.68 45 17:53 19.12.2021
6403 Mist 5 1029 95 10000 2.24 68 17:19 19.12.2021
6404 Mist 6 1029 95 10000 2.24 68 16:26 19.12.2021
6405 Clouds 6 1029 94 8000 1.79 68 15:43 19.12.2021
6406 Clouds 6 1030 94 10000 1.79 45 15:20 19.12.2021
6407 Clouds 6 1030 94 10000 1.79 45 14:42 19.12.2021
6408 Mist 5 1031 96 8000 2.24 45 13:22 19.12.2021
6409 Mist 5 1031 98 8000 1.34 45 12:46 19.12.2021
6410 Fog 5 1032 97 10000 1.34 68 12:23 19.12.2021
6411 Mist 5 1032 97 4800 2.24 68 11:21 19.12.2021
6412 Mist 5 1032 97 3100 1.79 68 10:26 19.12.2021
6413 Mist 5 1033 97 4500 0.89 68 09:42 19.12.2021
6414 Fog 5 1032 97 6000 1.34 68 08:43 19.12.2021
6415 Mist 5 1033 97 5000 2.68 68 04:45 19.12.2021
6416 Mist 6 1035 96 5000 2.68 68 01:33 19.12.2021
6417 Mist 6 1035 95 6000 3.13 45 00:52 19.12.2021
6418 Mist 6 1035 96 6000 1.79 68 22:42 18.12.2021
6419 Mist 5 1034 95 5000 2.68 45 21:58 18.12.2021
6420 Mist 5 1034 93 5000 2.68 45 21:36 18.12.2021
6421 Mist 6 1034 92 5000 2.68 45 20:44 18.12.2021
6422 Mist 6 1034 92 5000 2.24 45 20:19 18.12.2021
6423 Clear 6 1034 86 6000 1.79 45 19:25 18.12.2021
6424 Clear 7 1034 81 10000 1.79 68 18:22 18.12.2021
6425 Clear 7 1034 79 10000 2.68 68 17:48 18.12.2021
6426 Clear 9 1034 77 10000 1.79 68 16:26 18.12.2021
6427 Clear 9 1034 76 10000 2.68 45 15:28 18.12.2021
6428 Clear 9 1034 76 10000 3.58 45 14:51 18.12.2021
6429 Clear 8 1035 77 9000 1.79 45 13:29 18.12.2021
6430 Clear 6 1035 89 9000 1.79 68 11:23 18.12.2021
6431 Clouds 4 1036 94 7000 0.89 68 09:52 18.12.2021
6432 Clouds 4 1035 95 9000 1.34 68 08:47 18.12.2021
6433 Clouds 4 1035 94 9000 1.34 68 08:27 18.12.2021
6434 Mist 4 1035 96 8000 2.68 45 05:56 18.12.2021
6435 Clear 5 1036 94 6000 0.45 68 00:34 18.12.2021
6436 Clear 5 1036 95 6000 0.45 113 23:46 17.12.2021
6437 Mist 6 1036 93 5000 0.89 68 21:58 17.12.2021
6438 Mist 6 1035 93 4800 1.34 68 21:23 17.12.2021
6439 Clouds 6 1035 92 6000 0.89 68 20:42 17.12.2021
6440 Clouds 7 1035 90 7000 0.89 68 19:45 17.12.2021
6441 Clear 7 1035 88 10000 1.79 68 18:39 17.12.2021
6442 Clear 8 1035 85 10000 2.68 45 17:40 17.12.2021
6443 Clear 9 1035 83 10000 2.68 68 16:50 17.12.2021
6444 Clear 9 1035 83 10000 3.13 68 16:25 17.12.2021
6445 Clear 9 1035 82 10000 3.58 68 15:25 17.12.2021
6446 Clouds 9 1035 84 10000 2.24 68 14:41 17.12.2021
6447 Clouds 9 1036 87 10000 2.68 68 13:30 17.12.2021
6448 Clouds 8 1037 91 10000 1.79 68 12:21 17.12.2021
6449 Clouds 8 1037 93 10000 2.24 68 10:39 17.12.2021
6450 Clouds 8 1037 93 10000 2.24 68 09:44 17.12.2021
6451 Clouds 7 1036 94 8000 0.45 92 08:31 17.12.2021
6452 Clouds 7 1036 95 7000 0.89 68 07:20 17.12.2021
6453 Mist 6 1036 94 5000 1.79 68 04:40 17.12.2021
6454 Mist 6 1037 92 5000 0.45 68 23:58 16.12.2021
6455 Clear 7 1038 88 7000 2.57 10 22:24 16.12.2021
6456 Clear 7 1038 90 7000 0.45 68 21:51 16.12.2021
6457 Clear 7 1038 90 6000 0.45 68 21:30 16.12.2021
6458 Clear 8 1037 85 9000 0.45 45 20:31 16.12.2021
6459 Clear 9 1037 83 10000 0.89 68 19:51 16.12.2021
6460 Clouds 10 1037 81 10000 1.34 45 18:41 16.12.2021
6461 Clouds 10 1037 82 10000 1.34 68 18:22 16.12.2021
6462 Clouds 10 1037 81 10000 0.89 68 17:32 16.12.2021
6463 Clouds 10 1037 82 10000 0.89 68 16:23 16.12.2021
6464 Clouds 11 1037 80 10000 1.34 45 15:20 16.12.2021
6465 Clouds 11 1037 83 10000 0.89 68 13:44 16.12.2021
6466 Clouds 10 1037 91 10000 0.45 113 11:48 16.12.2021
6467 Clouds 9 1037 92 10000 0.45 90 11:18 16.12.2021
6468 Clouds 8 1037 94 9000 0.51 0 10:32 16.12.2021
6469 Clouds 8 1036 93 10000 1.03 350 08:56 16.12.2021
6470 Clouds 8 1036 93 7000 0.51 0 06:23 16.12.2021
6471 Clouds 8 1035 94 6000 0.89 68 03:19 16.12.2021
6472 Clouds 7 1035 94 6000 0.45 135 23:36 15.12.2021
6473 Clouds 7 1035 94 10000 1.54 110 22:49 15.12.2021
6474 Clouds 7 1035 95 10000 0 0 22:19 15.12.2021
6475 Clouds 7 1035 93 10000 1.54 50 21:31 15.12.2021
6476 Clouds 7 1034 92 10000 0.45 68 20:32 15.12.2021
6477 Clear 8 1034 91 10000 1.54 10 19:53 15.12.2021
6478 Clouds 9 1033 87 10000 0 0 18:41 15.12.2021
6479 Clouds 9 1033 87 10000 1.03 50 18:18 15.12.2021
6480 Clouds 9 1033 87 10000 1.03 0 17:40 15.12.2021
6481 Clouds 9 1033 87 10000 0.45 113 16:57 15.12.2021
6482 Clouds 9 1033 87 10000 0.89 113 15:47 15.12.2021
6483 Clouds 9 1033 88 10000 1.34 68 15:29 15.12.2021
6484 Clouds 9 1033 88 10000 0.45 68 14:44 15.12.2021
6485 Clouds 9 1033 88 10000 0.51 0 13:27 15.12.2021
6486 Clouds 8 1033 93 10000 0.45 113 10:58 15.12.2021
6487 Clouds 7 1033 94 9000 1.54 100 09:38 15.12.2021
6488 Clouds 7 1032 96 9000 1.54 40 07:52 15.12.2021
6489 Mist 7 1031 95 7000 1.54 0 03:58 15.12.2021
6490 Mist 7 1031 95 7000 2.06 140 23:53 14.12.2021
6491 Mist 7 1031 95 7000 2.06 140 22:55 14.12.2021
6492 Mist 7 1031 95 7000 1.54 120 22:37 14.12.2021
6493 Mist 7 1031 94 7000 2.06 140 21:25 14.12.2021
6494 Mist 7 1031 94 8000 1.03 150 20:20 14.12.2021
6495 Mist 7 1030 93 8000 2.06 150 19:21 14.12.2021
6496 Clouds 8 1030 92 9000 1.54 160 18:38 14.12.2021
6497 Clouds 8 1030 92 10000 0 0 17:51 14.12.2021
6498 Clouds 8 1030 91 10000 0 0 16:43 14.12.2021
6499 Clouds 8 1030 91 10000 0 0 16:43 14.12.2021
6500 Clouds 8 1030 91 10000 0 0 16:18 14.12.2021
6501 Mist 8 1029 93 10000 1.03 0 13:58 14.12.2021
6502 Clouds 7 1030 95 10000 0.45 293 12:48 14.12.2021
6503 Mist 6 1030 96 10000 0.45 270 11:25 14.12.2021
6504 Fog 6 1030 96 10000 1.54 240 10:45 14.12.2021
6505 Fog 5 1030 97 9000 0.45 270 09:54 14.12.2021
6506 Mist 5 1029 97 9000 0.45 225 08:49 14.12.2021
6507 Mist 5 1029 97 9000 1.03 230 08:21 14.12.2021
6508 Mist 5 1028 97 10000 1.34 293 07:23 14.12.2021
6509 Fog 6 1027 97 6000 0.45 135 23:51 13.12.2021
6510 Fog 6 1027 96 7000 0.45 158 22:26 13.12.2021
6511 Fog 6 1027 96 9000 0.89 135 21:39 13.12.2021
6512 Fog 7 1027 96 10000 3.09 180 20:51 13.12.2021
6513 Fog 7 1027 96 10000 3.09 150 20:22 13.12.2021
6514 Fog 7 1027 96 10000 0.45 135 19:49 13.12.2021
6515 Mist 7 1027 96 10000 3.6 120 17:39 13.12.2021
6516 Clouds 7 1026 96 10000 0.89 135 17:18 13.12.2021
6517 Mist 8 1026 95 10000 1.34 135 15:47 13.12.2021
6518 Mist 8 1026 94 10000 3.6 120 14:43 13.12.2021
6519 Clouds 8 1026 94 10000 0.89 90 13:37 13.12.2021
6520 Clouds 8 1027 93 10000 0.45 180 12:41 13.12.2021
6521 Clouds 8 1027 94 10000 1.79 113 11:54 13.12.2021
6522 Clouds 8 1027 94 10000 1.34 135 11:34 13.12.2021
6523 Mist 8 1027 96 10000 0.89 135 10:41 13.12.2021
6524 Mist 9 1027 96 10000 0.45 135 08:45 13.12.2021
6525 Clouds 9 1027 96 10000 0.45 158 06:56 13.12.2021
6526 Clouds 9 1026 97 9000 0.45 135 05:19 13.12.2021
6527 Clouds 9 1027 97 10000 2.57 160 00:41 13.12.2021
6528 Mist 10 1027 96 10000 1.34 203 21:59 12.12.2021
6529 Mist 10 1027 97 8000 0.45 203 21:30 12.12.2021
6530 Mist 10 1026 97 5000 0.45 203 19:38 12.12.2021
6531 Mist 10 1026 96 9000 0.45 135 18:28 12.12.2021
6532 Mist 10 1026 96 10000 0.45 221 16:54 12.12.2021
6533 Clouds 10 1026 95 10000 1.34 221 16:26 12.12.2021
6534 Drizzle 11 1026 95 10000 0.89 179 15:28 12.12.2021
6535 Clouds 11 1025 95 10000 0.45 203 14:54 12.12.2021
6536 Clouds 11 1026 94 10000 0.45 203 14:28 12.12.2021
6537 Drizzle 10 1026 96 10000 0.45 180 12:55 12.12.2021
6538 Clouds 10 1026 97 10000 0.45 203 12:24 12.12.2021
6539 Clouds 9 1026 97 9000 0.45 203 11:43 12.12.2021
6540 Clouds 9 1026 98 10000 0.45 203 10:45 12.12.2021
6541 Mist 9 1025 97 7000 0.45 203 10:22 12.12.2021
6542 Fog 8 1025 98 10000 1.34 225 08:53 12.12.2021
6543 Fog 8 1024 97 10000 0.45 225 07:31 12.12.2021
6544 Fog 7 1023 97 10000 0.45 203 05:56 12.12.2021
6545 Drizzle 7 1023 97 10000 0.45 225 04:55 12.12.2021
6546 Drizzle 7 1023 96 4200 0.89 180 02:56 12.12.2021
6547 Clouds 6 1023 90 10000 0.89 203 23:30 11.12.2021
6548 Clear 6 1023 90 10000 0.89 203 22:21 11.12.2021
6549 Clear 6 1023 90 10000 0.45 180 21:50 11.12.2021
6550 Clear 6 1022 90 10000 0.89 203 20:22 11.12.2021
6551 Clear 6 1022 89 10000 0.89 203 19:21 11.12.2021
6552 Clear 6 1022 88 10000 0.45 203 18:50 11.12.2021
6553 Clear 6 1021 86 10000 3.6 160 17:56 11.12.2021
6554 Clouds 7 1021 83 10000 1.54 210 16:59 11.12.2021
6555 Clear 8 1020 80 10000 1.34 225 15:48 11.12.2021
6556 Clouds 7 1020 82 10000 0.89 203 14:54 11.12.2021
6557 Clear 6 1020 88 10000 3.6 240 12:42 11.12.2021
6558 Clear 4 1019 91 10000 3.09 240 11:24 11.12.2021
6559 Clear 2 1018 94 10000 0.45 49 09:45 11.12.2021
6560 Clear 2 1018 94 10000 0.45 49 09:45 11.12.2021
6561 Clear 2 1018 94 10000 0.45 49 09:45 11.12.2021
6562 Clear 2 1018 94 10000 0.45 49 09:45 11.12.2021
6563 Clear 2 1016 93 10000 2.57 250 07:32 11.12.2021
6564 Clear 4 1010 86 10000 2.24 270 00:51 11.12.2021
6565 Clear 4 1009 83 10000 2.24 270 23:49 10.12.2021
6566 Clear 4 1008 84 10000 2.24 270 23:18 10.12.2021
6567 Clear 5 1007 81 10000 2.24 270 21:52 10.12.2021
6568 Clear 5 1006 79 10000 2.24 270 20:57 10.12.2021
6569 Clouds 6 1004 77 10000 2.24 270 19:21 10.12.2021
6570 Clouds 6 1003 74 10000 3.58 270 17:55 10.12.2021
6571 Clouds 7 1002 73 10000 3.13 270 16:55 10.12.2021
6572 Clouds 7 1001 72 10000 4.47 270 16:19 10.12.2021
6573 Clouds 7 1000 74 10000 4.02 270 15:39 10.12.2021
6574 Clouds 7 1000 74 10000 3.13 270 15:20 10.12.2021
6575 Clouds 8 998 70 10000 3.13 270 13:51 10.12.2021
6576 Clouds 8 998 75 10000 4.47 270 13:26 10.12.2021
6577 Clouds 7 997 78 10000 4.47 270 12:34 10.12.2021
6578 Clouds 7 997 87 10000 4.47 270 11:28 10.12.2021
6579 Clouds 7 997 87 10000 4.47 270 11:28 10.12.2021
6580 Clouds 6 995 86 10000 3.58 270 09:54 10.12.2021
6581 Clouds 7 992 89 10000 3.58 270 08:32 10.12.2021
6582 Clouds 8 990 92 10000 3.13 270 06:22 10.12.2021
6583 Rain 5 991 96 7000 1.79 158 02:48 10.12.2021
6584 Rain 5 997 95 10000 1.34 135 23:54 09.12.2021
6585 Rain 5 998 95 8000 1.34 135 23:20 09.12.2021
6586 Mist 6 1000 93 10000 0.89 180 22:24 09.12.2021
6587 Mist 6 1001 92 10000 1.34 135 21:50 09.12.2021
6588 Clouds 5 1003 90 10000 0.89 135 20:42 09.12.2021
6589 Clouds 5 1003 90 10000 0.89 135 20:42 09.12.2021
6590 Clouds 5 1004 91 10000 0.89 158 20:21 09.12.2021
6591 Clouds 5 1005 90 10000 0.89 180 19:21 09.12.2021
6592 Clear 5 1005 90 10000 0.89 180 18:36 09.12.2021
6593 Clear 5 1006 87 10000 0.89 203 17:51 09.12.2021
6594 Clear 5 1006 87 10000 1.34 225 17:26 09.12.2021
6595 Clear 6 1006 83 10000 0.89 203 16:54 09.12.2021
6596 Clear 7 1006 82 10000 0.89 225 15:34 09.12.2021
6597 Clouds 7 1007 77 10000 2.24 203 14:46 09.12.2021
6598 Clear 7 1007 80 10000 2.24 225 13:23 09.12.2021
6599 Clear 6 1007 80 10000 1.79 225 12:40 09.12.2021
6600 Clouds 5 1008 85 10000 0.89 203 11:24 09.12.2021
6601 Clear 2 1007 90 10000 1.79 225 09:21 09.12.2021
6602 Clear 3 1006 90 10000 1.79 218 06:44 09.12.2021
6603 Clear 2 1006 92 10000 4.02 217 03:41 09.12.2021
6604 Clear 2 1004 91 10000 3.09 240 23:44 08.12.2021
6605 Clear 3 1004 91 10000 3.09 240 23:21 08.12.2021
6606 Clear 3 1004 90 10000 0.45 217 22:48 08.12.2021
6607 Clear 3 1003 89 10000 2.57 240 21:42 08.12.2021
6608 Clear 3 1003 88 10000 2.24 225 21:24 08.12.2021
6609 Clear 4 1002 89 10000 3.6 240 19:58 08.12.2021
6610 Clear 4 1002 87 10000 0.89 217 19:34 08.12.2021
6611 Clouds 5 1001 85 10000 0.45 217 18:46 08.12.2021
6612 Clouds 6 1000 80 10000 1.34 225 17:37 08.12.2021
6613 Clouds 7 1000 77 10000 1.34 270 15:57 08.12.2021
6614 Clouds 7 999 76 10000 1.34 270 15:29 08.12.2021
6615 Clouds 8 999 77 10000 0.89 225 14:40 08.12.2021
6616 Clouds 5 998 86 10000 2.24 225 11:36 08.12.2021
6617 Clouds 5 998 88 10000 1.79 225 10:32 08.12.2021
6618 Clouds 3 997 92 10000 2.24 221 09:25 08.12.2021
6619 Clouds 4 997 89 10000 1.79 225 07:26 08.12.2021
6620 Clouds 5 996 86 10000 1.79 225 04:57 08.12.2021
6621 Clouds 8 995 90 8000 1.79 248 23:34 07.12.2021
6622 Clouds 8 994 92 10000 3.13 225 21:55 07.12.2021
6623 Clouds 8 993 95 10000 1.34 203 21:23 07.12.2021
6624 Clouds 8 993 95 10000 1.34 203 21:23 07.12.2021
6625 Mist 7 994 95 4700 1.34 203 20:24 07.12.2021
6626 Clouds 7 995 90 10000 1.34 135 18:55 07.12.2021
6627 Rain 7 997 89 10000 1.79 135 17:53 07.12.2021
6628 Rain 7 998 88 10000 1.34 135 17:20 07.12.2021
6629 Clouds 7 1000 89 10000 1.34 135 16:34 07.12.2021
6630 Clouds 7 1002 91 10000 1.34 135 15:35 07.12.2021
6631 Clouds 6 1003 94 10000 1.34 135 14:36 07.12.2021
6632 Mist 6 1006 97 10000 0.89 135 13:18 07.12.2021
6633 Fog 5 1008 97 10000 1.79 135 12:21 07.12.2021
6634 Fog 4 1010 97 6000 0.89 180 10:44 07.12.2021
6635 Fog 3 1012 97 10000 2.57 160 08:46 07.12.2021
6636 Clouds 3 1013 94 10000 2.24 227 06:22 07.12.2021
6637 Clouds 4 1013 94 10000 0.89 222 05:45 07.12.2021
6638 Clear 6 1012 91 10000 1.34 225 00:54 07.12.2021
6639 Clouds 6 1010 92 10000 0.89 219 23:18 06.12.2021
6640 Clear 6 1010 92 10000 4.02 222 22:39 06.12.2021
6641 Clouds 6 1010 92 10000 1.79 225 21:58 06.12.2021
6642 Clouds 6 1010 93 10000 2.68 219 21:20 06.12.2021
6643 Clouds 6 1010 91 10000 1.79 225 20:30 06.12.2021
6644 Rain 6 1010 91 10000 3.13 225 19:24 06.12.2021
6645 Clouds 6 1009 90 10000 2.68 225 18:29 06.12.2021
6646 Rain 6 1010 90 10000 1.79 203 17:52 06.12.2021
6647 Rain 6 1011 89 10000 2.68 225 17:20 06.12.2021
6648 Rain 7 1011 84 10000 1.79 203 15:49 06.12.2021
6649 Clouds 7 1013 88 10000 1.34 203 13:53 06.12.2021
6650 Clouds 7 1014 89 10000 0.89 180 12:40 06.12.2021
6651 Clouds 6 1015 92 10000 0.89 203 11:54 06.12.2021
6652 Mist 5 1015 96 3700 1.03 210 09:37 06.12.2021
6653 Clouds 5 1014 96 10000 0.45 270 06:59 06.12.2021
6654 Clouds 5 1010 90 10000 1.79 270 00:38 06.12.2021
6655 Clouds 6 1008 93 10000 1.34 270 21:54 05.12.2021
6656 Clouds 6 1008 94 9000 2.24 270 21:25 05.12.2021
6657 Mist 5 1007 93 5000 1.34 248 20:20 05.12.2021
6658 Mist 5 1007 93 5000 0.89 270 19:58 05.12.2021
6659 Clouds 5 1007 92 10000 1.34 270 19:23 05.12.2021
6660 Clouds 5 1006 92 10000 1.79 270 18:26 05.12.2021
6661 Clouds 5 1006 93 10000 1.79 270 17:49 05.12.2021
6662 Clouds 6 1005 92 10000 1.79 293 16:58 05.12.2021
6663 Clouds 6